<?xml version="1.0" encoding="UTF-8" standalone="no" ?>
<gpx xmlns="http://www.topografix.com/GPX/1/1" xmlns:xsi="http://www.w3.org/2001/XMLSchema-instance" xsi:schemaLocation="http://www.topografix.com/GPX/1/1 http://www.topografix.com/GPX/1/1/gpx.xsd" version="1.1" creator="VisuGPX - https://www.visugpx.com">
  <metadata>
    <name>St Etienne - Lyon  via St Martin en Haut</name>
    <desc><![CDATA[le sens le plus favorable avec un profil descendant -]]></desc>
  </metadata>
  <trk>
    <name><![CDATA[St Etienne - Lyon via Yzeron]]></name>
    <cmt><![CDATA[pas de jambes - vent du nord défavorable - 
heuresement profil descendant]]></cmt>
    <trkseg>
      <trkpt lat="45.44276" lon="4.40069">
        <ele>514.92333984375</ele>
        <time>2010-09-26T12:09:48Z</time>
      </trkpt>
      <trkpt lat="45.44273" lon="4.40083">
        <ele>514.44262695312</ele>
        <time>2010-09-26T12:09:49Z</time>
      </trkpt>
      <trkpt lat="45.44272" lon="4.40096">
        <ele>515.40405273438</ele>
        <time>2010-09-26T12:09:51Z</time>
      </trkpt>
      <trkpt lat="45.44265" lon="4.40123">
        <ele>515.88464355469</ele>
        <time>2010-09-26T12:09:55Z</time>
      </trkpt>
      <trkpt lat="45.44254" lon="4.40161">
        <ele>515.40405273438</ele>
        <time>2010-09-26T12:10:01Z</time>
      </trkpt>
      <trkpt lat="45.44252" lon="4.40202">
        <ele>516.365234375</ele>
        <time>2010-09-26T12:10:07Z</time>
      </trkpt>
      <trkpt lat="45.44254" lon="4.4026">
        <ele>517.80725097656</ele>
        <time>2010-09-26T12:10:16Z</time>
      </trkpt>
      <trkpt lat="45.44249" lon="4.40311">
        <ele>519.24926757812</ele>
        <time>2010-09-26T12:10:25Z</time>
      </trkpt>
      <trkpt lat="45.4425" lon="4.40352">
        <ele>520.21057128906</ele>
        <time>2010-09-26T12:10:32Z</time>
      </trkpt>
      <trkpt lat="45.44249" lon="4.40376">
        <ele>520.69128417969</ele>
        <time>2010-09-26T12:10:36Z</time>
      </trkpt>
      <trkpt lat="45.44237" lon="4.40434">
        <ele>522.13317871094</ele>
        <time>2010-09-26T12:10:46Z</time>
      </trkpt>
      <trkpt lat="45.44222" lon="4.40484">
        <ele>522.61389160156</ele>
        <time>2010-09-26T12:10:55Z</time>
      </trkpt>
      <trkpt lat="45.4422" lon="4.40516">
        <ele>523.09460449219</ele>
        <time>2010-09-26T12:11:01Z</time>
      </trkpt>
      <trkpt lat="45.44215" lon="4.40528">
        <ele>523.09460449219</ele>
        <time>2010-09-26T12:11:05Z</time>
      </trkpt>
      <trkpt lat="45.44198" lon="4.40538">
        <ele>524.05578613281</ele>
        <time>2010-09-26T12:11:10Z</time>
      </trkpt>
      <trkpt lat="45.44169" lon="4.40554">
        <ele>525.49780273438</ele>
        <time>2010-09-26T12:11:18Z</time>
      </trkpt>
      <trkpt lat="45.44162" lon="4.40561">
        <ele>525.49780273438</ele>
        <time>2010-09-26T12:11:20Z</time>
      </trkpt>
      <trkpt lat="45.44145" lon="4.40584">
        <ele>524.05578613281</ele>
        <time>2010-09-26T12:11:25Z</time>
      </trkpt>
      <trkpt lat="45.44149" lon="4.40604">
        <ele>523.5751953125</ele>
        <time>2010-09-26T12:11:28Z</time>
      </trkpt>
      <trkpt lat="45.4416" lon="4.4064">
        <ele>522.13317871094</ele>
        <time>2010-09-26T12:11:33Z</time>
      </trkpt>
      <trkpt lat="45.44169" lon="4.40673">
        <ele>520.69128417969</ele>
        <time>2010-09-26T12:11:37Z</time>
      </trkpt>
      <trkpt lat="45.44182" lon="4.40724">
        <ele>519.72985839844</ele>
        <time>2010-09-26T12:11:43Z</time>
      </trkpt>
      <trkpt lat="45.44185" lon="4.40762">
        <ele>519.24926757812</ele>
        <time>2010-09-26T12:11:46Z</time>
      </trkpt>
      <trkpt lat="45.44198" lon="4.4079">
        <ele>519.24926757812</ele>
        <time>2010-09-26T12:11:50Z</time>
      </trkpt>
      <trkpt lat="45.44208" lon="4.40829">
        <ele>519.24926757812</ele>
        <time>2010-09-26T12:11:56Z</time>
      </trkpt>
      <trkpt lat="45.4421" lon="4.40831">
        <ele>519.24926757812</ele>
        <time>2010-09-26T12:11:57Z</time>
      </trkpt>
      <trkpt lat="45.44215" lon="4.40832">
        <ele>518.7685546875</ele>
        <time>2010-09-26T12:12:00Z</time>
      </trkpt>
      <trkpt lat="45.44218" lon="4.40849">
        <ele>519.24926757812</ele>
        <time>2010-09-26T12:12:04Z</time>
      </trkpt>
      <trkpt lat="45.44221" lon="4.40877">
        <ele>518.7685546875</ele>
        <time>2010-09-26T12:12:09Z</time>
      </trkpt>
      <trkpt lat="45.44225" lon="4.40898">
        <ele>518.28784179688</ele>
        <time>2010-09-26T12:12:13Z</time>
      </trkpt>
      <trkpt lat="45.44235" lon="4.40935">
        <ele>519.72985839844</ele>
        <time>2010-09-26T12:12:20Z</time>
      </trkpt>
      <trkpt lat="45.44243" lon="4.40967">
        <ele>519.72985839844</ele>
        <time>2010-09-26T12:12:26Z</time>
      </trkpt>
      <trkpt lat="45.44252" lon="4.41008">
        <ele>521.17199707031</ele>
        <time>2010-09-26T12:12:34Z</time>
      </trkpt>
      <trkpt lat="45.44263" lon="4.41052">
        <ele>522.13317871094</ele>
        <time>2010-09-26T12:12:43Z</time>
      </trkpt>
      <trkpt lat="45.4427" lon="4.41086">
        <ele>523.5751953125</ele>
        <time>2010-09-26T12:12:50Z</time>
      </trkpt>
      <trkpt lat="45.44276" lon="4.41115">
        <ele>524.53649902344</ele>
        <time>2010-09-26T12:12:56Z</time>
      </trkpt>
      <trkpt lat="45.44282" lon="4.41144">
        <ele>525.97839355469</ele>
        <time>2010-09-26T12:13:02Z</time>
      </trkpt>
      <trkpt lat="45.44293" lon="4.41173">
        <ele>527.42041015625</ele>
        <time>2010-09-26T12:13:09Z</time>
      </trkpt>
      <trkpt lat="45.443" lon="4.41197">
        <ele>528.3818359375</ele>
        <time>2010-09-26T12:13:15Z</time>
      </trkpt>
      <trkpt lat="45.44301" lon="4.41211">
        <ele>528.86254882812</ele>
        <time>2010-09-26T12:13:19Z</time>
      </trkpt>
      <trkpt lat="45.44312" lon="4.41249">
        <ele>530.30444335938</ele>
        <time>2010-09-26T12:13:28Z</time>
      </trkpt>
      <trkpt lat="45.44319" lon="4.41282">
        <ele>532.22705078125</ele>
        <time>2010-09-26T12:13:36Z</time>
      </trkpt>
      <trkpt lat="45.44321" lon="4.41297">
        <ele>533.18835449219</ele>
        <time>2010-09-26T12:13:40Z</time>
      </trkpt>
      <trkpt lat="45.44326" lon="4.41305">
        <ele>533.6689453125</ele>
        <time>2010-09-26T12:13:43Z</time>
      </trkpt>
      <trkpt lat="45.44324" lon="4.41323">
        <ele>533.6689453125</ele>
        <time>2010-09-26T12:13:48Z</time>
      </trkpt>
      <trkpt lat="45.44319" lon="4.41352">
        <ele>535.11096191406</ele>
        <time>2010-09-26T12:13:53Z</time>
      </trkpt>
      <trkpt lat="45.44323" lon="4.41366">
        <ele>535.11096191406</ele>
        <time>2010-09-26T12:13:55Z</time>
      </trkpt>
      <trkpt lat="45.44331" lon="4.41387">
        <ele>535.59155273438</ele>
        <time>2010-09-26T12:13:58Z</time>
      </trkpt>
      <trkpt lat="45.44354" lon="4.41438">
        <ele>535.59155273438</ele>
        <time>2010-09-26T12:14:05Z</time>
      </trkpt>
      <trkpt lat="45.44372" lon="4.415">
        <ele>534.63037109375</ele>
        <time>2010-09-26T12:14:11Z</time>
      </trkpt>
      <trkpt lat="45.44384" lon="4.41533">
        <ele>534.14965820312</ele>
        <time>2010-09-26T12:14:15Z</time>
      </trkpt>
      <trkpt lat="45.44384" lon="4.41542">
        <ele>534.14965820312</ele>
        <time>2010-09-26T12:14:16Z</time>
      </trkpt>
      <trkpt lat="45.44387" lon="4.41602">
        <ele>532.70776367188</ele>
        <time>2010-09-26T12:14:22Z</time>
      </trkpt>
      <trkpt lat="45.44387" lon="4.4169">
        <ele>529.34313964844</ele>
        <time>2010-09-26T12:14:30Z</time>
      </trkpt>
      <trkpt lat="45.44385" lon="4.41751">
        <ele>528.3818359375</ele>
        <time>2010-09-26T12:14:35Z</time>
      </trkpt>
      <trkpt lat="45.44378" lon="4.41827">
        <ele>525.97839355469</ele>
        <time>2010-09-26T12:14:41Z</time>
      </trkpt>
      <trkpt lat="45.44371" lon="4.41857">
        <ele>524.53649902344</ele>
        <time>2010-09-26T12:14:44Z</time>
      </trkpt>
      <trkpt lat="45.44367" lon="4.41875">
        <ele>524.53649902344</ele>
        <time>2010-09-26T12:14:46Z</time>
      </trkpt>
      <trkpt lat="45.4435" lon="4.41904">
        <ele>524.53649902344</ele>
        <time>2010-09-26T12:14:50Z</time>
      </trkpt>
      <trkpt lat="45.44342" lon="4.4193">
        <ele>525.01721191406</ele>
        <time>2010-09-26T12:14:53Z</time>
      </trkpt>
      <trkpt lat="45.44352" lon="4.41955">
        <ele>525.49780273438</ele>
        <time>2010-09-26T12:14:56Z</time>
      </trkpt>
      <trkpt lat="45.44367" lon="4.41953">
        <ele>524.53649902344</ele>
        <time>2010-09-26T12:14:58Z</time>
      </trkpt>
      <trkpt lat="45.44394" lon="4.41951">
        <ele>524.53649902344</ele>
        <time>2010-09-26T12:15:02Z</time>
      </trkpt>
      <trkpt lat="45.444" lon="4.41955">
        <ele>524.05578613281</ele>
        <time>2010-09-26T12:15:03Z</time>
      </trkpt>
      <trkpt lat="45.44444" lon="4.42004">
        <ele>523.09460449219</ele>
        <time>2010-09-26T12:15:11Z</time>
      </trkpt>
      <trkpt lat="45.4445" lon="4.42011">
        <ele>523.09460449219</ele>
        <time>2010-09-26T12:15:12Z</time>
      </trkpt>
      <trkpt lat="45.44466" lon="4.42041">
        <ele>522.61389160156</ele>
        <time>2010-09-26T12:15:16Z</time>
      </trkpt>
      <trkpt lat="45.44476" lon="4.42035">
        <ele>521.65258789062</ele>
        <time>2010-09-26T12:15:19Z</time>
      </trkpt>
      <trkpt lat="45.44477" lon="4.42007">
        <ele>521.65258789062</ele>
        <time>2010-09-26T12:15:21Z</time>
      </trkpt>
      <trkpt lat="45.44481" lon="4.4199">
        <ele>521.65258789062</ele>
        <time>2010-09-26T12:15:23Z</time>
      </trkpt>
      <trkpt lat="45.44486" lon="4.41942">
        <ele>519.24926757812</ele>
        <time>2010-09-26T12:15:28Z</time>
      </trkpt>
      <trkpt lat="45.44489" lon="4.41863">
        <ele>517.80725097656</ele>
        <time>2010-09-26T12:15:35Z</time>
      </trkpt>
      <trkpt lat="45.44508" lon="4.41797">
        <ele>517.32666015625</ele>
        <time>2010-09-26T12:15:42Z</time>
      </trkpt>
      <trkpt lat="45.44529" lon="4.41737">
        <ele>517.32666015625</ele>
        <time>2010-09-26T12:15:49Z</time>
      </trkpt>
      <trkpt lat="45.44555" lon="4.41691">
        <ele>516.365234375</ele>
        <time>2010-09-26T12:15:55Z</time>
      </trkpt>
      <trkpt lat="45.4459" lon="4.41658">
        <ele>515.88464355469</ele>
        <time>2010-09-26T12:16:01Z</time>
      </trkpt>
      <trkpt lat="45.44632" lon="4.41639">
        <ele>514.92333984375</ele>
        <time>2010-09-26T12:16:07Z</time>
      </trkpt>
      <trkpt lat="45.44668" lon="4.4163">
        <ele>514.92333984375</ele>
        <time>2010-09-26T12:16:12Z</time>
      </trkpt>
      <trkpt lat="45.44738" lon="4.41614">
        <ele>513.4814453125</ele>
        <time>2010-09-26T12:16:22Z</time>
      </trkpt>
      <trkpt lat="45.44791" lon="4.41606">
        <ele>514.44262695312</ele>
        <time>2010-09-26T12:16:30Z</time>
      </trkpt>
      <trkpt lat="45.44823" lon="4.41594">
        <ele>515.40405273438</ele>
        <time>2010-09-26T12:16:37Z</time>
      </trkpt>
      <trkpt lat="45.44858" lon="4.4158">
        <ele>516.84594726562</ele>
        <time>2010-09-26T12:16:45Z</time>
      </trkpt>
      <trkpt lat="45.44889" lon="4.41572">
        <ele>518.28784179688</ele>
        <time>2010-09-26T12:16:52Z</time>
      </trkpt>
      <trkpt lat="45.44893" lon="4.41573">
        <ele>517.80725097656</ele>
        <time>2010-09-26T12:16:53Z</time>
      </trkpt>
      <trkpt lat="45.44904" lon="4.41587">
        <ele>519.24926757812</ele>
        <time>2010-09-26T12:16:57Z</time>
      </trkpt>
      <trkpt lat="45.44914" lon="4.41605">
        <ele>519.72985839844</ele>
        <time>2010-09-26T12:17:01Z</time>
      </trkpt>
      <trkpt lat="45.44927" lon="4.41608">
        <ele>520.21057128906</ele>
        <time>2010-09-26T12:17:04Z</time>
      </trkpt>
      <trkpt lat="45.44939" lon="4.41604">
        <ele>519.72985839844</ele>
        <time>2010-09-26T12:17:07Z</time>
      </trkpt>
      <trkpt lat="45.4496" lon="4.41607">
        <ele>520.21057128906</ele>
        <time>2010-09-26T12:17:12Z</time>
      </trkpt>
      <trkpt lat="45.44968" lon="4.41607">
        <ele>519.72985839844</ele>
        <time>2010-09-26T12:17:14Z</time>
      </trkpt>
      <trkpt lat="45.45" lon="4.41606">
        <ele>520.21057128906</ele>
        <time>2010-09-26T12:17:22Z</time>
      </trkpt>
      <trkpt lat="45.4501" lon="4.4161">
        <ele>520.21057128906</ele>
        <time>2010-09-26T12:17:24Z</time>
      </trkpt>
      <trkpt lat="45.45025" lon="4.41619">
        <ele>519.72985839844</ele>
        <time>2010-09-26T12:17:28Z</time>
      </trkpt>
      <trkpt lat="45.45053" lon="4.41635">
        <ele>521.17199707031</ele>
        <time>2010-09-26T12:17:34Z</time>
      </trkpt>
      <trkpt lat="45.4509" lon="4.41659">
        <ele>521.17199707031</ele>
        <time>2010-09-26T12:17:43Z</time>
      </trkpt>
      <trkpt lat="45.45142" lon="4.41691">
        <ele>521.65258789062</ele>
        <time>2010-09-26T12:17:55Z</time>
      </trkpt>
      <trkpt lat="45.45168" lon="4.41706">
        <ele>522.61389160156</ele>
        <time>2010-09-26T12:18:01Z</time>
      </trkpt>
      <trkpt lat="45.45185" lon="4.41703">
        <ele>521.17199707031</ele>
        <time>2010-09-26T12:18:05Z</time>
      </trkpt>
      <trkpt lat="45.4519" lon="4.41698">
        <ele>521.17199707031</ele>
        <time>2010-09-26T12:18:06Z</time>
      </trkpt>
      <trkpt lat="45.45193" lon="4.41691">
        <ele>520.69128417969</ele>
        <time>2010-09-26T12:18:07Z</time>
      </trkpt>
      <trkpt lat="45.45222" lon="4.41638">
        <ele>518.28784179688</ele>
        <time>2010-09-26T12:18:14Z</time>
      </trkpt>
      <trkpt lat="45.45229" lon="4.41621">
        <ele>517.80725097656</ele>
        <time>2010-09-26T12:18:16Z</time>
      </trkpt>
      <trkpt lat="45.45253" lon="4.41572">
        <ele>515.40405273438</ele>
        <time>2010-09-26T12:18:22Z</time>
      </trkpt>
      <trkpt lat="45.45285" lon="4.41497">
        <ele>513.00073242188</ele>
        <time>2010-09-26T12:18:31Z</time>
      </trkpt>
      <trkpt lat="45.45316" lon="4.41429">
        <ele>510.11669921875</ele>
        <time>2010-09-26T12:18:39Z</time>
      </trkpt>
      <trkpt lat="45.45352" lon="4.41351">
        <ele>506.75207519531</ele>
        <time>2010-09-26T12:18:47Z</time>
      </trkpt>
      <trkpt lat="45.45371" lon="4.4131">
        <ele>505.31018066406</ele>
        <time>2010-09-26T12:18:51Z</time>
      </trkpt>
      <trkpt lat="45.45405" lon="4.41235">
        <ele>501.46484375</ele>
        <time>2010-09-26T12:18:58Z</time>
      </trkpt>
      <trkpt lat="45.45415" lon="4.41215">
        <ele>500.02294921875</ele>
        <time>2010-09-26T12:19:00Z</time>
      </trkpt>
      <trkpt lat="45.4544" lon="4.41196">
        <ele>500.50354003906</ele>
        <time>2010-09-26T12:19:04Z</time>
      </trkpt>
      <trkpt lat="45.45452" lon="4.41201">
        <ele>500.98413085938</ele>
        <time>2010-09-26T12:19:07Z</time>
      </trkpt>
      <trkpt lat="45.45455" lon="4.41205">
        <ele>501.46484375</ele>
        <time>2010-09-26T12:19:08Z</time>
      </trkpt>
      <trkpt lat="45.45485" lon="4.41244">
        <ele>503.38745117188</ele>
        <time>2010-09-26T12:19:19Z</time>
      </trkpt>
      <trkpt lat="45.45496" lon="4.41252">
        <ele>503.38745117188</ele>
        <time>2010-09-26T12:19:22Z</time>
      </trkpt>
      <trkpt lat="45.45505" lon="4.41255">
        <ele>503.8681640625</ele>
        <time>2010-09-26T12:19:24Z</time>
      </trkpt>
      <trkpt lat="45.45526" lon="4.41257">
        <ele>505.31018066406</ele>
        <time>2010-09-26T12:19:29Z</time>
      </trkpt>
      <trkpt lat="45.45527" lon="4.41257">
        <ele>504.82946777344</ele>
        <time>2010-09-26T12:19:30Z</time>
      </trkpt>
      <trkpt lat="45.45528" lon="4.41282">
        <ele>506.271484375</ele>
        <time>2010-09-26T12:19:36Z</time>
      </trkpt>
      <trkpt lat="45.45531" lon="4.41299">
        <ele>507.23278808594</ele>
        <time>2010-09-26T12:19:41Z</time>
      </trkpt>
      <trkpt lat="45.45539" lon="4.41314">
        <ele>507.71350097656</ele>
        <time>2010-09-26T12:19:46Z</time>
      </trkpt>
      <trkpt lat="45.45552" lon="4.41334">
        <ele>509.15539550781</ele>
        <time>2010-09-26T12:19:53Z</time>
      </trkpt>
      <trkpt lat="45.45569" lon="4.41356">
        <ele>510.59729003906</ele>
        <time>2010-09-26T12:20:01Z</time>
      </trkpt>
      <trkpt lat="45.45586" lon="4.41386">
        <ele>512.52001953125</ele>
        <time>2010-09-26T12:20:10Z</time>
      </trkpt>
      <trkpt lat="45.45602" lon="4.41413">
        <ele>513.4814453125</ele>
        <time>2010-09-26T12:20:18Z</time>
      </trkpt>
      <trkpt lat="45.45607" lon="4.41421">
        <ele>514.92333984375</ele>
        <time>2010-09-26T12:20:20Z</time>
      </trkpt>
      <trkpt lat="45.45624" lon="4.41449">
        <ele>515.40405273438</ele>
        <time>2010-09-26T12:20:28Z</time>
      </trkpt>
      <trkpt lat="45.45644" lon="4.4148">
        <ele>515.88464355469</ele>
        <time>2010-09-26T12:20:37Z</time>
      </trkpt>
      <trkpt lat="45.45649" lon="4.41483">
        <ele>516.84594726562</ele>
        <time>2010-09-26T12:20:39Z</time>
      </trkpt>
      <trkpt lat="45.45666" lon="4.41479">
        <ele>516.365234375</ele>
        <time>2010-09-26T12:20:44Z</time>
      </trkpt>
      <trkpt lat="45.45678" lon="4.41477">
        <ele>515.88464355469</ele>
        <time>2010-09-26T12:20:47Z</time>
      </trkpt>
      <trkpt lat="45.45684" lon="4.41486">
        <ele>514.92333984375</ele>
        <time>2010-09-26T12:20:49Z</time>
      </trkpt>
      <trkpt lat="45.45704" lon="4.41508">
        <ele>514.44262695312</ele>
        <time>2010-09-26T12:20:54Z</time>
      </trkpt>
      <trkpt lat="45.45752" lon="4.41535">
        <ele>511.07800292969</ele>
        <time>2010-09-26T12:21:02Z</time>
      </trkpt>
      <trkpt lat="45.45794" lon="4.41576">
        <ele>509.15539550781</ele>
        <time>2010-09-26T12:21:09Z</time>
      </trkpt>
      <trkpt lat="45.45825" lon="4.41607">
        <ele>508.67468261719</ele>
        <time>2010-09-26T12:21:15Z</time>
      </trkpt>
      <trkpt lat="45.45866" lon="4.41638">
        <ele>508.19409179688</ele>
        <time>2010-09-26T12:21:23Z</time>
      </trkpt>
      <trkpt lat="45.45904" lon="4.41661">
        <ele>508.19409179688</ele>
        <time>2010-09-26T12:21:30Z</time>
      </trkpt>
      <trkpt lat="45.45934" lon="4.41674">
        <ele>507.23278808594</ele>
        <time>2010-09-26T12:21:36Z</time>
      </trkpt>
      <trkpt lat="45.45975" lon="4.41685">
        <ele>507.23278808594</ele>
        <time>2010-09-26T12:21:43Z</time>
      </trkpt>
      <trkpt lat="45.4602" lon="4.41691">
        <ele>506.75207519531</ele>
        <time>2010-09-26T12:21:51Z</time>
      </trkpt>
      <trkpt lat="45.46063" lon="4.41693">
        <ele>506.75207519531</ele>
        <time>2010-09-26T12:21:59Z</time>
      </trkpt>
      <trkpt lat="45.46104" lon="4.41692">
        <ele>506.271484375</ele>
        <time>2010-09-26T12:22:07Z</time>
      </trkpt>
      <trkpt lat="45.46119" lon="4.41692">
        <ele>506.75207519531</ele>
        <time>2010-09-26T12:22:10Z</time>
      </trkpt>
      <trkpt lat="45.46148" lon="4.41703">
        <ele>507.23278808594</ele>
        <time>2010-09-26T12:22:17Z</time>
      </trkpt>
      <trkpt lat="45.46162" lon="4.41725">
        <ele>507.71350097656</ele>
        <time>2010-09-26T12:22:22Z</time>
      </trkpt>
      <trkpt lat="45.46177" lon="4.41736">
        <ele>508.67468261719</ele>
        <time>2010-09-26T12:22:26Z</time>
      </trkpt>
      <trkpt lat="45.46195" lon="4.4175">
        <ele>508.19409179688</ele>
        <time>2010-09-26T12:22:31Z</time>
      </trkpt>
      <trkpt lat="45.46217" lon="4.41795">
        <ele>509.15539550781</ele>
        <time>2010-09-26T12:22:40Z</time>
      </trkpt>
      <trkpt lat="45.46241" lon="4.41842">
        <ele>509.15539550781</ele>
        <time>2010-09-26T12:22:49Z</time>
      </trkpt>
      <trkpt lat="45.46259" lon="4.41869">
        <ele>510.11669921875</ele>
        <time>2010-09-26T12:22:56Z</time>
      </trkpt>
      <trkpt lat="45.4628" lon="4.41886">
        <ele>511.55871582031</ele>
        <time>2010-09-26T12:23:04Z</time>
      </trkpt>
      <trkpt lat="45.463" lon="4.41899">
        <ele>514.44262695312</ele>
        <time>2010-09-26T12:23:12Z</time>
      </trkpt>
      <trkpt lat="45.46309" lon="4.41903">
        <ele>515.40405273438</ele>
        <time>2010-09-26T12:23:16Z</time>
      </trkpt>
      <trkpt lat="45.46326" lon="4.41913">
        <ele>516.365234375</ele>
        <time>2010-09-26T12:23:23Z</time>
      </trkpt>
      <trkpt lat="45.46344" lon="4.41924">
        <ele>517.80725097656</ele>
        <time>2010-09-26T12:23:30Z</time>
      </trkpt>
      <trkpt lat="45.46367" lon="4.41937">
        <ele>519.24926757812</ele>
        <time>2010-09-26T12:23:38Z</time>
      </trkpt>
      <trkpt lat="45.46388" lon="4.4195">
        <ele>520.69128417969</ele>
        <time>2010-09-26T12:23:46Z</time>
      </trkpt>
      <trkpt lat="45.46413" lon="4.41964">
        <ele>521.17199707031</ele>
        <time>2010-09-26T12:23:54Z</time>
      </trkpt>
      <trkpt lat="45.46449" lon="4.41984">
        <ele>522.61389160156</ele>
        <time>2010-09-26T12:24:05Z</time>
      </trkpt>
      <trkpt lat="45.46481" lon="4.41993">
        <ele>523.09460449219</ele>
        <time>2010-09-26T12:24:14Z</time>
      </trkpt>
      <trkpt lat="45.46508" lon="4.42001">
        <ele>523.09460449219</ele>
        <time>2010-09-26T12:24:21Z</time>
      </trkpt>
      <trkpt lat="45.46539" lon="4.4201">
        <ele>523.5751953125</ele>
        <time>2010-09-26T12:24:29Z</time>
      </trkpt>
      <trkpt lat="45.46567" lon="4.42026">
        <ele>524.05578613281</ele>
        <time>2010-09-26T12:24:37Z</time>
      </trkpt>
      <trkpt lat="45.46576" lon="4.42039">
        <ele>523.5751953125</ele>
        <time>2010-09-26T12:24:40Z</time>
      </trkpt>
      <trkpt lat="45.46591" lon="4.42044">
        <ele>524.05578613281</ele>
        <time>2010-09-26T12:24:44Z</time>
      </trkpt>
      <trkpt lat="45.46595" lon="4.42042">
        <ele>524.53649902344</ele>
        <time>2010-09-26T12:24:45Z</time>
      </trkpt>
      <trkpt lat="45.46616" lon="4.42034">
        <ele>524.53649902344</ele>
        <time>2010-09-26T12:24:51Z</time>
      </trkpt>
      <trkpt lat="45.46635" lon="4.42042">
        <ele>525.01721191406</ele>
        <time>2010-09-26T12:24:57Z</time>
      </trkpt>
      <trkpt lat="45.46654" lon="4.42053">
        <ele>526.93981933594</ele>
        <time>2010-09-26T12:25:03Z</time>
      </trkpt>
      <trkpt lat="45.4668" lon="4.42068">
        <ele>527.42041015625</ele>
        <time>2010-09-26T12:25:11Z</time>
      </trkpt>
      <trkpt lat="45.46704" lon="4.42072">
        <ele>526.93981933594</ele>
        <time>2010-09-26T12:25:17Z</time>
      </trkpt>
      <trkpt lat="45.46738" lon="4.42064">
        <ele>526.45910644531</ele>
        <time>2010-09-26T12:25:24Z</time>
      </trkpt>
      <trkpt lat="45.46748" lon="4.42062">
        <ele>526.93981933594</ele>
        <time>2010-09-26T12:25:26Z</time>
      </trkpt>
      <trkpt lat="45.46759" lon="4.42063">
        <ele>525.97839355469</ele>
        <time>2010-09-26T12:25:28Z</time>
      </trkpt>
      <trkpt lat="45.46783" lon="4.42073">
        <ele>525.97839355469</ele>
        <time>2010-09-26T12:25:33Z</time>
      </trkpt>
      <trkpt lat="45.46812" lon="4.42092">
        <ele>525.01721191406</ele>
        <time>2010-09-26T12:25:39Z</time>
      </trkpt>
      <trkpt lat="45.46851" lon="4.42133">
        <ele>525.01721191406</ele>
        <time>2010-09-26T12:25:48Z</time>
      </trkpt>
      <trkpt lat="45.46881" lon="4.42171">
        <ele>525.01721191406</ele>
        <time>2010-09-26T12:25:56Z</time>
      </trkpt>
      <trkpt lat="45.46892" lon="4.42184">
        <ele>525.49780273438</ele>
        <time>2010-09-26T12:25:59Z</time>
      </trkpt>
      <trkpt lat="45.46901" lon="4.42212">
        <ele>526.45910644531</ele>
        <time>2010-09-26T12:26:04Z</time>
      </trkpt>
      <trkpt lat="45.46905" lon="4.42227">
        <ele>526.45910644531</ele>
        <time>2010-09-26T12:26:08Z</time>
      </trkpt>
      <trkpt lat="45.46918" lon="4.42235">
        <ele>526.45910644531</ele>
        <time>2010-09-26T12:26:12Z</time>
      </trkpt>
      <trkpt lat="45.4695" lon="4.42243">
        <ele>526.45910644531</ele>
        <time>2010-09-26T12:26:20Z</time>
      </trkpt>
      <trkpt lat="45.4699" lon="4.42259">
        <ele>525.49780273438</ele>
        <time>2010-09-26T12:26:29Z</time>
      </trkpt>
      <trkpt lat="45.47027" lon="4.4228">
        <ele>523.5751953125</ele>
        <time>2010-09-26T12:26:36Z</time>
      </trkpt>
      <trkpt lat="45.47052" lon="4.42298">
        <ele>521.17199707031</ele>
        <time>2010-09-26T12:26:40Z</time>
      </trkpt>
      <trkpt lat="45.47066" lon="4.42309">
        <ele>519.72985839844</ele>
        <time>2010-09-26T12:26:42Z</time>
      </trkpt>
      <trkpt lat="45.4709" lon="4.42328">
        <ele>516.365234375</ele>
        <time>2010-09-26T12:26:45Z</time>
      </trkpt>
      <trkpt lat="45.47133" lon="4.42368">
        <ele>512.03942871094</ele>
        <time>2010-09-26T12:26:50Z</time>
      </trkpt>
      <trkpt lat="45.47161" lon="4.42394">
        <ele>508.67468261719</ele>
        <time>2010-09-26T12:26:53Z</time>
      </trkpt>
      <trkpt lat="45.4719" lon="4.4242">
        <ele>505.79089355469</ele>
        <time>2010-09-26T12:26:56Z</time>
      </trkpt>
      <trkpt lat="45.4721" lon="4.42438">
        <ele>504.34887695312</ele>
        <time>2010-09-26T12:26:58Z</time>
      </trkpt>
      <trkpt lat="45.47248" lon="4.42471">
        <ele>500.50354003906</ele>
        <time>2010-09-26T12:27:02Z</time>
      </trkpt>
      <trkpt lat="45.47296" lon="4.42508">
        <ele>497.13891601562</ele>
        <time>2010-09-26T12:27:07Z</time>
      </trkpt>
      <trkpt lat="45.47305" lon="4.42514">
        <ele>497.13891601562</ele>
        <time>2010-09-26T12:27:08Z</time>
      </trkpt>
      <trkpt lat="45.47346" lon="4.42542">
        <ele>497.13891601562</ele>
        <time>2010-09-26T12:27:13Z</time>
      </trkpt>
      <trkpt lat="45.47395" lon="4.42576">
        <ele>496.177734375</ele>
        <time>2010-09-26T12:27:20Z</time>
      </trkpt>
      <trkpt lat="45.47437" lon="4.42605">
        <ele>496.177734375</ele>
        <time>2010-09-26T12:27:27Z</time>
      </trkpt>
      <trkpt lat="45.47483" lon="4.42641">
        <ele>494.73559570312</ele>
        <time>2010-09-26T12:27:36Z</time>
      </trkpt>
      <trkpt lat="45.47522" lon="4.42678">
        <ele>493.77429199219</ele>
        <time>2010-09-26T12:27:44Z</time>
      </trkpt>
      <trkpt lat="45.47562" lon="4.42722">
        <ele>494.73559570312</ele>
        <time>2010-09-26T12:27:53Z</time>
      </trkpt>
      <trkpt lat="45.47599" lon="4.42764">
        <ele>495.21618652344</ele>
        <time>2010-09-26T12:28:02Z</time>
      </trkpt>
      <trkpt lat="45.4762" lon="4.42787">
        <ele>495.21618652344</ele>
        <time>2010-09-26T12:28:08Z</time>
      </trkpt>
      <trkpt lat="45.47644" lon="4.42816">
        <ele>495.21618652344</ele>
        <time>2010-09-26T12:28:15Z</time>
      </trkpt>
      <trkpt lat="45.47669" lon="4.42844">
        <ele>495.69689941406</ele>
        <time>2010-09-26T12:28:23Z</time>
      </trkpt>
      <trkpt lat="45.4769" lon="4.42868">
        <ele>497.13891601562</ele>
        <time>2010-09-26T12:28:31Z</time>
      </trkpt>
      <trkpt lat="45.47704" lon="4.42884">
        <ele>498.58093261719</ele>
        <time>2010-09-26T12:28:37Z</time>
      </trkpt>
      <trkpt lat="45.47716" lon="4.42896">
        <ele>499.0615234375</ele>
        <time>2010-09-26T12:28:42Z</time>
      </trkpt>
      <trkpt lat="45.4774" lon="4.42915">
        <ele>500.02294921875</ele>
        <time>2010-09-26T12:28:51Z</time>
      </trkpt>
      <trkpt lat="45.47754" lon="4.42923">
        <ele>500.98413085938</ele>
        <time>2010-09-26T12:28:57Z</time>
      </trkpt>
      <trkpt lat="45.47776" lon="4.42936">
        <ele>503.38745117188</ele>
        <time>2010-09-26T12:29:05Z</time>
      </trkpt>
      <trkpt lat="45.47799" lon="4.42948">
        <ele>504.34887695312</ele>
        <time>2010-09-26T12:29:14Z</time>
      </trkpt>
      <trkpt lat="45.47814" lon="4.42957">
        <ele>505.31018066406</ele>
        <time>2010-09-26T12:29:21Z</time>
      </trkpt>
      <trkpt lat="45.47835" lon="4.42969">
        <ele>507.23278808594</ele>
        <time>2010-09-26T12:29:29Z</time>
      </trkpt>
      <trkpt lat="45.47861" lon="4.42983">
        <ele>507.71350097656</ele>
        <time>2010-09-26T12:29:39Z</time>
      </trkpt>
      <trkpt lat="45.47884" lon="4.42994">
        <ele>509.63610839844</ele>
        <time>2010-09-26T12:29:47Z</time>
      </trkpt>
      <trkpt lat="45.47905" lon="4.43006">
        <ele>511.07800292969</ele>
        <time>2010-09-26T12:29:55Z</time>
      </trkpt>
      <trkpt lat="45.4792" lon="4.43013">
        <ele>511.55871582031</ele>
        <time>2010-09-26T12:30:02Z</time>
      </trkpt>
      <trkpt lat="45.47935" lon="4.43019">
        <ele>512.03942871094</ele>
        <time>2010-09-26T12:30:07Z</time>
      </trkpt>
      <trkpt lat="45.47947" lon="4.43032">
        <ele>512.52001953125</ele>
        <time>2010-09-26T12:30:11Z</time>
      </trkpt>
      <trkpt lat="45.47954" lon="4.43047">
        <ele>513.00073242188</ele>
        <time>2010-09-26T12:30:15Z</time>
      </trkpt>
      <trkpt lat="45.47963" lon="4.43065">
        <ele>513.00073242188</ele>
        <time>2010-09-26T12:30:20Z</time>
      </trkpt>
      <trkpt lat="45.47968" lon="4.43075">
        <ele>513.4814453125</ele>
        <time>2010-09-26T12:30:24Z</time>
      </trkpt>
      <trkpt lat="45.47979" lon="4.43083">
        <ele>513.96203613281</ele>
        <time>2010-09-26T12:30:30Z</time>
      </trkpt>
      <trkpt lat="45.4799" lon="4.43098">
        <ele>513.4814453125</ele>
        <time>2010-09-26T12:30:34Z</time>
      </trkpt>
      <trkpt lat="45.47997" lon="4.43119">
        <ele>513.96203613281</ele>
        <time>2010-09-26T12:30:39Z</time>
      </trkpt>
      <trkpt lat="45.48008" lon="4.43151">
        <ele>514.92333984375</ele>
        <time>2010-09-26T12:30:47Z</time>
      </trkpt>
      <trkpt lat="45.48016" lon="4.43171">
        <ele>515.40405273438</ele>
        <time>2010-09-26T12:30:52Z</time>
      </trkpt>
      <trkpt lat="45.48021" lon="4.43183">
        <ele>515.40405273438</ele>
        <time>2010-09-26T12:30:56Z</time>
      </trkpt>
      <trkpt lat="45.48035" lon="4.43209">
        <ele>515.40405273438</ele>
        <time>2010-09-26T12:31:01Z</time>
      </trkpt>
      <trkpt lat="45.48038" lon="4.43232">
        <ele>516.365234375</ele>
        <time>2010-09-26T12:31:06Z</time>
      </trkpt>
      <trkpt lat="45.48038" lon="4.43235">
        <ele>515.88464355469</ele>
        <time>2010-09-26T12:31:08Z</time>
      </trkpt>
      <trkpt lat="45.48043" lon="4.43252">
        <ele>516.365234375</ele>
        <time>2010-09-26T12:31:15Z</time>
      </trkpt>
      <trkpt lat="45.48052" lon="4.43271">
        <ele>516.84594726562</ele>
        <time>2010-09-26T12:31:19Z</time>
      </trkpt>
      <trkpt lat="45.48063" lon="4.4328">
        <ele>517.32666015625</ele>
        <time>2010-09-26T12:31:23Z</time>
      </trkpt>
      <trkpt lat="45.48065" lon="4.43279">
        <ele>517.32666015625</ele>
        <time>2010-09-26T12:31:24Z</time>
      </trkpt>
      <trkpt lat="45.4808" lon="4.43269">
        <ele>517.32666015625</ele>
        <time>2010-09-26T12:31:31Z</time>
      </trkpt>
      <trkpt lat="45.48096" lon="4.43263">
        <ele>517.32666015625</ele>
        <time>2010-09-26T12:31:37Z</time>
      </trkpt>
      <trkpt lat="45.48097" lon="4.43261">
        <ele>517.32666015625</ele>
        <time>2010-09-26T12:31:38Z</time>
      </trkpt>
      <trkpt lat="45.48105" lon="4.43267">
        <ele>517.32666015625</ele>
        <time>2010-09-26T12:31:43Z</time>
      </trkpt>
      <trkpt lat="45.48111" lon="4.43279">
        <ele>517.80725097656</ele>
        <time>2010-09-26T12:31:47Z</time>
      </trkpt>
      <trkpt lat="45.48115" lon="4.43287">
        <ele>517.80725097656</ele>
        <time>2010-09-26T12:31:49Z</time>
      </trkpt>
      <trkpt lat="45.48132" lon="4.4331">
        <ele>517.80725097656</ele>
        <time>2010-09-26T12:31:55Z</time>
      </trkpt>
      <trkpt lat="45.48149" lon="4.43336">
        <ele>518.28784179688</ele>
        <time>2010-09-26T12:32:01Z</time>
      </trkpt>
      <trkpt lat="45.48166" lon="4.4336">
        <ele>518.7685546875</ele>
        <time>2010-09-26T12:32:07Z</time>
      </trkpt>
      <trkpt lat="45.48179" lon="4.43377">
        <ele>519.24926757812</ele>
        <time>2010-09-26T12:32:12Z</time>
      </trkpt>
      <trkpt lat="45.48189" lon="4.43395">
        <ele>519.24926757812</ele>
        <time>2010-09-26T12:32:16Z</time>
      </trkpt>
      <trkpt lat="45.48197" lon="4.43412">
        <ele>519.24926757812</ele>
        <time>2010-09-26T12:32:20Z</time>
      </trkpt>
      <trkpt lat="45.48207" lon="4.43427">
        <ele>519.72985839844</ele>
        <time>2010-09-26T12:32:24Z</time>
      </trkpt>
      <trkpt lat="45.48216" lon="4.43457">
        <ele>520.69128417969</ele>
        <time>2010-09-26T12:32:30Z</time>
      </trkpt>
      <trkpt lat="45.4823" lon="4.43476">
        <ele>521.17199707031</ele>
        <time>2010-09-26T12:32:36Z</time>
      </trkpt>
      <trkpt lat="45.48248" lon="4.43482">
        <ele>521.17199707031</ele>
        <time>2010-09-26T12:32:40Z</time>
      </trkpt>
      <trkpt lat="45.4827" lon="4.43515">
        <ele>521.17199707031</ele>
        <time>2010-09-26T12:32:47Z</time>
      </trkpt>
      <trkpt lat="45.48279" lon="4.43525">
        <ele>521.17199707031</ele>
        <time>2010-09-26T12:32:50Z</time>
      </trkpt>
      <trkpt lat="45.48294" lon="4.43557">
        <ele>521.65258789062</ele>
        <time>2010-09-26T12:32:57Z</time>
      </trkpt>
      <trkpt lat="45.48303" lon="4.43571">
        <ele>521.65258789062</ele>
        <time>2010-09-26T12:33:01Z</time>
      </trkpt>
      <trkpt lat="45.48315" lon="4.43587">
        <ele>522.61389160156</ele>
        <time>2010-09-26T12:33:06Z</time>
      </trkpt>
      <trkpt lat="45.48333" lon="4.43597">
        <ele>523.09460449219</ele>
        <time>2010-09-26T12:33:10Z</time>
      </trkpt>
      <trkpt lat="45.48351" lon="4.43606">
        <ele>523.5751953125</ele>
        <time>2010-09-26T12:33:15Z</time>
      </trkpt>
      <trkpt lat="45.48374" lon="4.43618">
        <ele>524.05578613281</ele>
        <time>2010-09-26T12:33:21Z</time>
      </trkpt>
      <trkpt lat="45.48409" lon="4.43629">
        <ele>524.53649902344</ele>
        <time>2010-09-26T12:33:30Z</time>
      </trkpt>
      <trkpt lat="45.4842" lon="4.43632">
        <ele>525.01721191406</ele>
        <time>2010-09-26T12:33:35Z</time>
      </trkpt>
      <trkpt lat="45.48428" lon="4.43635">
        <ele>525.01721191406</ele>
        <time>2010-09-26T12:33:40Z</time>
      </trkpt>
      <trkpt lat="45.4844" lon="4.43638">
        <ele>525.49780273438</ele>
        <time>2010-09-26T12:33:44Z</time>
      </trkpt>
      <trkpt lat="45.48462" lon="4.43644">
        <ele>525.49780273438</ele>
        <time>2010-09-26T12:33:50Z</time>
      </trkpt>
      <trkpt lat="45.48479" lon="4.43644">
        <ele>525.97839355469</ele>
        <time>2010-09-26T12:33:54Z</time>
      </trkpt>
      <trkpt lat="45.48501" lon="4.43644">
        <ele>526.45910644531</ele>
        <time>2010-09-26T12:33:59Z</time>
      </trkpt>
      <trkpt lat="45.48525" lon="4.43639">
        <ele>526.93981933594</ele>
        <time>2010-09-26T12:34:05Z</time>
      </trkpt>
      <trkpt lat="45.48541" lon="4.43638">
        <ele>526.45910644531</ele>
        <time>2010-09-26T12:34:09Z</time>
      </trkpt>
      <trkpt lat="45.48574" lon="4.43636">
        <ele>527.90100097656</ele>
        <time>2010-09-26T12:34:16Z</time>
      </trkpt>
      <trkpt lat="45.48603" lon="4.43631">
        <ele>528.3818359375</ele>
        <time>2010-09-26T12:34:23Z</time>
      </trkpt>
      <trkpt lat="45.48622" lon="4.43628">
        <ele>528.3818359375</ele>
        <time>2010-09-26T12:34:28Z</time>
      </trkpt>
      <trkpt lat="45.48656" lon="4.43627">
        <ele>528.3818359375</ele>
        <time>2010-09-26T12:34:36Z</time>
      </trkpt>
      <trkpt lat="45.48668" lon="4.4363">
        <ele>528.86254882812</ele>
        <time>2010-09-26T12:34:39Z</time>
      </trkpt>
      <trkpt lat="45.48693" lon="4.43626">
        <ele>528.3818359375</ele>
        <time>2010-09-26T12:34:45Z</time>
      </trkpt>
      <trkpt lat="45.48716" lon="4.43618">
        <ele>529.34313964844</ele>
        <time>2010-09-26T12:34:51Z</time>
      </trkpt>
      <trkpt lat="45.48753" lon="4.43614">
        <ele>529.34313964844</ele>
        <time>2010-09-26T12:35:00Z</time>
      </trkpt>
      <trkpt lat="45.48787" lon="4.43608">
        <ele>529.82373046875</ele>
        <time>2010-09-26T12:35:08Z</time>
      </trkpt>
      <trkpt lat="45.488" lon="4.43606">
        <ele>529.82373046875</ele>
        <time>2010-09-26T12:35:11Z</time>
      </trkpt>
      <trkpt lat="45.48809" lon="4.43607">
        <ele>529.82373046875</ele>
        <time>2010-09-26T12:35:13Z</time>
      </trkpt>
      <trkpt lat="45.48819" lon="4.43606">
        <ele>529.82373046875</ele>
        <time>2010-09-26T12:35:15Z</time>
      </trkpt>
      <trkpt lat="45.48845" lon="4.43603">
        <ele>529.82373046875</ele>
        <time>2010-09-26T12:35:21Z</time>
      </trkpt>
      <trkpt lat="45.4887" lon="4.436">
        <ele>529.82373046875</ele>
        <time>2010-09-26T12:35:27Z</time>
      </trkpt>
      <trkpt lat="45.48911" lon="4.43593">
        <ele>529.82373046875</ele>
        <time>2010-09-26T12:35:36Z</time>
      </trkpt>
      <trkpt lat="45.48951" lon="4.43588">
        <ele>531.26574707031</ele>
        <time>2010-09-26T12:35:45Z</time>
      </trkpt>
      <trkpt lat="45.48982" lon="4.43584">
        <ele>531.26574707031</ele>
        <time>2010-09-26T12:35:52Z</time>
      </trkpt>
      <trkpt lat="45.49017" lon="4.43579">
        <ele>531.26574707031</ele>
        <time>2010-09-26T12:36:00Z</time>
      </trkpt>
      <trkpt lat="45.49065" lon="4.43573">
        <ele>531.74633789062</ele>
        <time>2010-09-26T12:36:11Z</time>
      </trkpt>
      <trkpt lat="45.49088" lon="4.43569">
        <ele>532.22705078125</ele>
        <time>2010-09-26T12:36:16Z</time>
      </trkpt>
      <trkpt lat="45.49114" lon="4.43564">
        <ele>532.22705078125</ele>
        <time>2010-09-26T12:36:22Z</time>
      </trkpt>
      <trkpt lat="45.49158" lon="4.43558">
        <ele>532.70776367188</ele>
        <time>2010-09-26T12:36:32Z</time>
      </trkpt>
      <trkpt lat="45.49195" lon="4.43553">
        <ele>533.18835449219</ele>
        <time>2010-09-26T12:36:40Z</time>
      </trkpt>
      <trkpt lat="45.49238" lon="4.43548">
        <ele>533.6689453125</ele>
        <time>2010-09-26T12:36:49Z</time>
      </trkpt>
      <trkpt lat="45.49273" lon="4.43542">
        <ele>533.18835449219</ele>
        <time>2010-09-26T12:36:57Z</time>
      </trkpt>
      <trkpt lat="45.49295" lon="4.43539">
        <ele>533.18835449219</ele>
        <time>2010-09-26T12:37:03Z</time>
      </trkpt>
      <trkpt lat="45.49315" lon="4.43535">
        <ele>533.18835449219</ele>
        <time>2010-09-26T12:37:09Z</time>
      </trkpt>
      <trkpt lat="45.49352" lon="4.4353">
        <ele>534.14965820312</ele>
        <time>2010-09-26T12:37:18Z</time>
      </trkpt>
      <trkpt lat="45.49382" lon="4.43529">
        <ele>534.14965820312</ele>
        <time>2010-09-26T12:37:25Z</time>
      </trkpt>
      <trkpt lat="45.49413" lon="4.43525">
        <ele>534.14965820312</ele>
        <time>2010-09-26T12:37:32Z</time>
      </trkpt>
      <trkpt lat="45.49429" lon="4.43515">
        <ele>534.14965820312</ele>
        <time>2010-09-26T12:37:37Z</time>
      </trkpt>
      <trkpt lat="45.49461" lon="4.43512">
        <ele>534.14965820312</ele>
        <time>2010-09-26T12:37:44Z</time>
      </trkpt>
      <trkpt lat="45.49498" lon="4.43508">
        <ele>535.11096191406</ele>
        <time>2010-09-26T12:37:52Z</time>
      </trkpt>
      <trkpt lat="45.49538" lon="4.43503">
        <ele>536.07238769531</ele>
        <time>2010-09-26T12:38:01Z</time>
      </trkpt>
      <trkpt lat="45.4957" lon="4.43499">
        <ele>536.07238769531</ele>
        <time>2010-09-26T12:38:08Z</time>
      </trkpt>
      <trkpt lat="45.49611" lon="4.43495">
        <ele>536.55310058594</ele>
        <time>2010-09-26T12:38:17Z</time>
      </trkpt>
      <trkpt lat="45.4966" lon="4.43489">
        <ele>536.55310058594</ele>
        <time>2010-09-26T12:38:28Z</time>
      </trkpt>
      <trkpt lat="45.49697" lon="4.43483">
        <ele>537.03369140625</ele>
        <time>2010-09-26T12:38:36Z</time>
      </trkpt>
      <trkpt lat="45.49748" lon="4.43476">
        <ele>537.51428222656</ele>
        <time>2010-09-26T12:38:47Z</time>
      </trkpt>
      <trkpt lat="45.49798" lon="4.43469">
        <ele>537.99499511719</ele>
        <time>2010-09-26T12:38:58Z</time>
      </trkpt>
      <trkpt lat="45.49828" lon="4.43465">
        <ele>539.43688964844</ele>
        <time>2010-09-26T12:39:06Z</time>
      </trkpt>
      <trkpt lat="45.49863" lon="4.4346">
        <ele>540.39831542969</ele>
        <time>2010-09-26T12:39:15Z</time>
      </trkpt>
      <trkpt lat="45.4989" lon="4.43456">
        <ele>540.39831542969</ele>
        <time>2010-09-26T12:39:22Z</time>
      </trkpt>
      <trkpt lat="45.49933" lon="4.43451">
        <ele>542.32092285156</ele>
        <time>2010-09-26T12:39:33Z</time>
      </trkpt>
      <trkpt lat="45.49981" lon="4.43444">
        <ele>543.28210449219</ele>
        <time>2010-09-26T12:39:45Z</time>
      </trkpt>
      <trkpt lat="45.50023" lon="4.43438">
        <ele>544.72424316406</ele>
        <time>2010-09-26T12:39:56Z</time>
      </trkpt>
      <trkpt lat="45.50053" lon="4.43438">
        <ele>545.685546875</ele>
        <time>2010-09-26T12:40:04Z</time>
      </trkpt>
      <trkpt lat="45.50066" lon="4.4344">
        <ele>545.685546875</ele>
        <time>2010-09-26T12:40:08Z</time>
      </trkpt>
      <trkpt lat="45.5009" lon="4.43448">
        <ele>546.64685058594</ele>
        <time>2010-09-26T12:40:14Z</time>
      </trkpt>
      <trkpt lat="45.50115" lon="4.43461">
        <ele>547.12744140625</ele>
        <time>2010-09-26T12:40:21Z</time>
      </trkpt>
      <trkpt lat="45.50136" lon="4.43471">
        <ele>548.0888671875</ele>
        <time>2010-09-26T12:40:27Z</time>
      </trkpt>
      <trkpt lat="45.50154" lon="4.43482">
        <ele>549.05004882812</ele>
        <time>2010-09-26T12:40:33Z</time>
      </trkpt>
      <trkpt lat="45.50184" lon="4.43497">
        <ele>548.5693359375</ele>
        <time>2010-09-26T12:40:42Z</time>
      </trkpt>
      <trkpt lat="45.50209" lon="4.43509">
        <ele>549.53076171875</ele>
        <time>2010-09-26T12:40:49Z</time>
      </trkpt>
      <trkpt lat="45.50224" lon="4.43514">
        <ele>550.01147460938</ele>
        <time>2010-09-26T12:40:54Z</time>
      </trkpt>
      <trkpt lat="45.50245" lon="4.43515">
        <ele>550.4921875</ele>
        <time>2010-09-26T12:41:01Z</time>
      </trkpt>
      <trkpt lat="45.50266" lon="4.4352">
        <ele>551.93408203125</ele>
        <time>2010-09-26T12:41:07Z</time>
      </trkpt>
      <trkpt lat="45.50285" lon="4.43533">
        <ele>551.93408203125</ele>
        <time>2010-09-26T12:41:11Z</time>
      </trkpt>
      <trkpt lat="45.50295" lon="4.43541">
        <ele>552.89526367188</ele>
        <time>2010-09-26T12:41:14Z</time>
      </trkpt>
      <trkpt lat="45.50315" lon="4.43552">
        <ele>552.41455078125</ele>
        <time>2010-09-26T12:41:19Z</time>
      </trkpt>
      <trkpt lat="45.50343" lon="4.43561">
        <ele>554.33740234375</ele>
        <time>2010-09-26T12:41:26Z</time>
      </trkpt>
      <trkpt lat="45.50366" lon="4.43556">
        <ele>555.29858398438</ele>
        <time>2010-09-26T12:41:32Z</time>
      </trkpt>
      <trkpt lat="45.50389" lon="4.4354">
        <ele>555.29858398438</ele>
        <time>2010-09-26T12:41:39Z</time>
      </trkpt>
      <trkpt lat="45.5041" lon="4.43525">
        <ele>556.74072265625</ele>
        <time>2010-09-26T12:41:45Z</time>
      </trkpt>
      <trkpt lat="45.50431" lon="4.43506">
        <ele>556.74072265625</ele>
        <time>2010-09-26T12:41:52Z</time>
      </trkpt>
      <trkpt lat="45.50457" lon="4.43486">
        <ele>557.7021484375</ele>
        <time>2010-09-26T12:42:00Z</time>
      </trkpt>
      <trkpt lat="45.50484" lon="4.43472">
        <ele>558.66333007812</ele>
        <time>2010-09-26T12:42:08Z</time>
      </trkpt>
      <trkpt lat="45.50515" lon="4.43461">
        <ele>559.62475585938</ele>
        <time>2010-09-26T12:42:17Z</time>
      </trkpt>
      <trkpt lat="45.50549" lon="4.43449">
        <ele>561.06665039062</ele>
        <time>2010-09-26T12:42:27Z</time>
      </trkpt>
      <trkpt lat="45.50579" lon="4.43436">
        <ele>562.9892578125</ele>
        <time>2010-09-26T12:42:36Z</time>
      </trkpt>
      <trkpt lat="45.50599" lon="4.4342">
        <ele>563.95043945312</ele>
        <time>2010-09-26T12:42:43Z</time>
      </trkpt>
      <trkpt lat="45.50618" lon="4.43401">
        <ele>564.91186523438</ele>
        <time>2010-09-26T12:42:50Z</time>
      </trkpt>
      <trkpt lat="45.50629" lon="4.43384">
        <ele>566.35375976562</ele>
        <time>2010-09-26T12:42:55Z</time>
      </trkpt>
      <trkpt lat="45.50652" lon="4.43353">
        <ele>567.31518554688</ele>
        <time>2010-09-26T12:43:04Z</time>
      </trkpt>
      <trkpt lat="45.50677" lon="4.43319">
        <ele>568.75708007812</ele>
        <time>2010-09-26T12:43:14Z</time>
      </trkpt>
      <trkpt lat="45.507" lon="4.43286">
        <ele>570.6796875</ele>
        <time>2010-09-26T12:43:24Z</time>
      </trkpt>
      <trkpt lat="45.5072" lon="4.43256">
        <ele>573.08325195312</ele>
        <time>2010-09-26T12:43:33Z</time>
      </trkpt>
      <trkpt lat="45.5074" lon="4.43219">
        <ele>574.52514648438</ele>
        <time>2010-09-26T12:43:43Z</time>
      </trkpt>
      <trkpt lat="45.50756" lon="4.4318">
        <ele>576.92846679688</ele>
        <time>2010-09-26T12:43:52Z</time>
      </trkpt>
      <trkpt lat="45.50768" lon="4.43148">
        <ele>577.8896484375</ele>
        <time>2010-09-26T12:43:59Z</time>
      </trkpt>
      <trkpt lat="45.5077" lon="4.43139">
        <ele>578.37036132812</ele>
        <time>2010-09-26T12:44:01Z</time>
      </trkpt>
      <trkpt lat="45.50769" lon="4.43125">
        <ele>578.85107421875</ele>
        <time>2010-09-26T12:44:06Z</time>
      </trkpt>
      <trkpt lat="45.5077" lon="4.43123">
        <ele>578.37036132812</ele>
        <time>2010-09-26T12:44:08Z</time>
      </trkpt>
      <trkpt lat="45.50774" lon="4.4311">
        <ele>579.81225585938</ele>
        <time>2010-09-26T12:44:18Z</time>
      </trkpt>
      <trkpt lat="45.50769" lon="4.43109">
        <ele>579.33154296875</ele>
        <time>2010-09-26T12:44:30Z</time>
      </trkpt>
      <trkpt lat="45.50766" lon="4.43109">
        <ele>579.33154296875</ele>
        <time>2010-09-26T12:44:56Z</time>
      </trkpt>
      <trkpt lat="45.50764" lon="4.43126">
        <ele>578.37036132812</ele>
        <time>2010-09-26T12:45:02Z</time>
      </trkpt>
      <trkpt lat="45.50758" lon="4.43153">
        <ele>577.4091796875</ele>
        <time>2010-09-26T12:45:07Z</time>
      </trkpt>
      <trkpt lat="45.50742" lon="4.43194">
        <ele>575.96704101562</ele>
        <time>2010-09-26T12:45:13Z</time>
      </trkpt>
      <trkpt lat="45.50722" lon="4.43234">
        <ele>573.56396484375</ele>
        <time>2010-09-26T12:45:18Z</time>
      </trkpt>
      <trkpt lat="45.50691" lon="4.43284">
        <ele>570.6796875</ele>
        <time>2010-09-26T12:45:24Z</time>
      </trkpt>
      <trkpt lat="45.50643" lon="4.43354">
        <ele>567.31518554688</ele>
        <time>2010-09-26T12:45:32Z</time>
      </trkpt>
      <trkpt lat="45.50636" lon="4.43363">
        <ele>567.31518554688</ele>
        <time>2010-09-26T12:45:33Z</time>
      </trkpt>
      <trkpt lat="45.50611" lon="4.43399">
        <ele>565.392578125</ele>
        <time>2010-09-26T12:45:37Z</time>
      </trkpt>
      <trkpt lat="45.50586" lon="4.43421">
        <ele>563.95043945312</ele>
        <time>2010-09-26T12:45:40Z</time>
      </trkpt>
      <trkpt lat="45.50536" lon="4.43443">
        <ele>562.02807617188</ele>
        <time>2010-09-26T12:45:45Z</time>
      </trkpt>
      <trkpt lat="45.50507" lon="4.43454">
        <ele>560.5859375</ele>
        <time>2010-09-26T12:45:48Z</time>
      </trkpt>
      <trkpt lat="45.50456" lon="4.43472">
        <ele>559.14404296875</ele>
        <time>2010-09-26T12:45:54Z</time>
      </trkpt>
      <trkpt lat="45.50434" lon="4.43487">
        <ele>558.18286132812</ele>
        <time>2010-09-26T12:45:57Z</time>
      </trkpt>
      <trkpt lat="45.50409" lon="4.43515">
        <ele>557.22143554688</ele>
        <time>2010-09-26T12:46:01Z</time>
      </trkpt>
      <trkpt lat="45.50387" lon="4.43541">
        <ele>555.779296875</ele>
        <time>2010-09-26T12:46:06Z</time>
      </trkpt>
      <trkpt lat="45.50386" lon="4.43546">
        <ele>553.3759765625</ele>
        <time>2010-09-26T12:46:08Z</time>
      </trkpt>
      <trkpt lat="45.50388" lon="4.43551">
        <ele>552.89526367188</ele>
        <time>2010-09-26T12:46:13Z</time>
      </trkpt>
      <trkpt lat="45.50382" lon="4.43559">
        <ele>551.45336914062</ele>
        <time>2010-09-26T12:46:18Z</time>
      </trkpt>
      <trkpt lat="45.50375" lon="4.4357">
        <ele>549.53076171875</ele>
        <time>2010-09-26T12:46:21Z</time>
      </trkpt>
      <trkpt lat="45.50374" lon="4.43573">
        <ele>549.53076171875</ele>
        <time>2010-09-26T12:46:25Z</time>
      </trkpt>
      <trkpt lat="45.5037" lon="4.43576">
        <ele>548.5693359375</ele>
        <time>2010-09-26T12:46:29Z</time>
      </trkpt>
      <trkpt lat="45.50365" lon="4.43587">
        <ele>547.60815429688</ele>
        <time>2010-09-26T12:46:32Z</time>
      </trkpt>
      <trkpt lat="45.50363" lon="4.43591">
        <ele>547.60815429688</ele>
        <time>2010-09-26T12:46:33Z</time>
      </trkpt>
      <trkpt lat="45.50349" lon="4.43599">
        <ele>547.12744140625</ele>
        <time>2010-09-26T12:46:37Z</time>
      </trkpt>
      <trkpt lat="45.50348" lon="4.43614">
        <ele>547.60815429688</ele>
        <time>2010-09-26T12:46:41Z</time>
      </trkpt>
      <trkpt lat="45.50357" lon="4.4362">
        <ele>547.60815429688</ele>
        <time>2010-09-26T12:46:44Z</time>
      </trkpt>
      <trkpt lat="45.50388" lon="4.43634">
        <ele>548.5693359375</ele>
        <time>2010-09-26T12:46:53Z</time>
      </trkpt>
      <trkpt lat="45.50422" lon="4.43648">
        <ele>550.01147460938</ele>
        <time>2010-09-26T12:47:03Z</time>
      </trkpt>
      <trkpt lat="45.50443" lon="4.43661">
        <ele>550.4921875</ele>
        <time>2010-09-26T12:47:10Z</time>
      </trkpt>
      <trkpt lat="45.50465" lon="4.43671">
        <ele>550.97265625</ele>
        <time>2010-09-26T12:47:16Z</time>
      </trkpt>
      <trkpt lat="45.50497" lon="4.43686">
        <ele>550.4921875</ele>
        <time>2010-09-26T12:47:24Z</time>
      </trkpt>
      <trkpt lat="45.50536" lon="4.43708">
        <ele>550.97265625</ele>
        <time>2010-09-26T12:47:33Z</time>
      </trkpt>
      <trkpt lat="45.5056" lon="4.43722">
        <ele>550.4921875</ele>
        <time>2010-09-26T12:47:39Z</time>
      </trkpt>
      <trkpt lat="45.5058" lon="4.43739">
        <ele>550.97265625</ele>
        <time>2010-09-26T12:47:44Z</time>
      </trkpt>
      <trkpt lat="45.50595" lon="4.43752">
        <ele>551.45336914062</ele>
        <time>2010-09-26T12:47:48Z</time>
      </trkpt>
      <trkpt lat="45.50603" lon="4.43759">
        <ele>551.45336914062</ele>
        <time>2010-09-26T12:47:50Z</time>
      </trkpt>
      <trkpt lat="45.50629" lon="4.43785">
        <ele>550.97265625</ele>
        <time>2010-09-26T12:47:57Z</time>
      </trkpt>
      <trkpt lat="45.50656" lon="4.43822">
        <ele>551.93408203125</ele>
        <time>2010-09-26T12:48:06Z</time>
      </trkpt>
      <trkpt lat="45.50673" lon="4.43843">
        <ele>552.89526367188</ele>
        <time>2010-09-26T12:48:12Z</time>
      </trkpt>
      <trkpt lat="45.50685" lon="4.43862">
        <ele>553.3759765625</ele>
        <time>2010-09-26T12:48:17Z</time>
      </trkpt>
      <trkpt lat="45.50702" lon="4.43883">
        <ele>554.81787109375</ele>
        <time>2010-09-26T12:48:24Z</time>
      </trkpt>
      <trkpt lat="45.50723" lon="4.43898">
        <ele>556.74072265625</ele>
        <time>2010-09-26T12:48:31Z</time>
      </trkpt>
      <trkpt lat="45.50743" lon="4.43911">
        <ele>558.18286132812</ele>
        <time>2010-09-26T12:48:38Z</time>
      </trkpt>
      <trkpt lat="45.50766" lon="4.43918">
        <ele>559.62475585938</ele>
        <time>2010-09-26T12:48:45Z</time>
      </trkpt>
      <trkpt lat="45.50798" lon="4.43925">
        <ele>561.06665039062</ele>
        <time>2010-09-26T12:48:55Z</time>
      </trkpt>
      <trkpt lat="45.50827" lon="4.4393">
        <ele>562.02807617188</ele>
        <time>2010-09-26T12:49:04Z</time>
      </trkpt>
      <trkpt lat="45.50854" lon="4.43935">
        <ele>563.95043945312</ele>
        <time>2010-09-26T12:49:13Z</time>
      </trkpt>
      <trkpt lat="45.50893" lon="4.43942">
        <ele>566.35375976562</ele>
        <time>2010-09-26T12:49:26Z</time>
      </trkpt>
      <trkpt lat="45.50924" lon="4.43948">
        <ele>568.75708007812</ele>
        <time>2010-09-26T12:49:36Z</time>
      </trkpt>
      <trkpt lat="45.50956" lon="4.43955">
        <ele>570.6796875</ele>
        <time>2010-09-26T12:49:46Z</time>
      </trkpt>
      <trkpt lat="45.5099" lon="4.43961">
        <ele>572.12182617188</ele>
        <time>2010-09-26T12:49:56Z</time>
      </trkpt>
      <trkpt lat="45.51019" lon="4.43968">
        <ele>572.6025390625</ele>
        <time>2010-09-26T12:50:05Z</time>
      </trkpt>
      <trkpt lat="45.51049" lon="4.43981">
        <ele>573.08325195312</ele>
        <time>2010-09-26T12:50:13Z</time>
      </trkpt>
      <trkpt lat="45.5108" lon="4.44003">
        <ele>573.08325195312</ele>
        <time>2010-09-26T12:50:20Z</time>
      </trkpt>
      <trkpt lat="45.51112" lon="4.4404">
        <ele>573.08325195312</ele>
        <time>2010-09-26T12:50:28Z</time>
      </trkpt>
      <trkpt lat="45.5112" lon="4.44051">
        <ele>572.12182617188</ele>
        <time>2010-09-26T12:50:30Z</time>
      </trkpt>
      <trkpt lat="45.51152" lon="4.44094">
        <ele>572.12182617188</ele>
        <time>2010-09-26T12:50:38Z</time>
      </trkpt>
      <trkpt lat="45.51204" lon="4.44167">
        <ele>572.12182617188</ele>
        <time>2010-09-26T12:50:51Z</time>
      </trkpt>
      <trkpt lat="45.51234" lon="4.44198">
        <ele>572.12182617188</ele>
        <time>2010-09-26T12:50:58Z</time>
      </trkpt>
      <trkpt lat="45.51269" lon="4.44217">
        <ele>571.64086914062</ele>
        <time>2010-09-26T12:51:05Z</time>
      </trkpt>
      <trkpt lat="45.51316" lon="4.44234">
        <ele>572.12182617188</ele>
        <time>2010-09-26T12:51:14Z</time>
      </trkpt>
      <trkpt lat="45.5135" lon="4.44245">
        <ele>571.64086914062</ele>
        <time>2010-09-26T12:51:21Z</time>
      </trkpt>
      <trkpt lat="45.51388" lon="4.44256">
        <ele>572.6025390625</ele>
        <time>2010-09-26T12:51:30Z</time>
      </trkpt>
      <trkpt lat="45.51427" lon="4.44265">
        <ele>574.04443359375</ele>
        <time>2010-09-26T12:51:40Z</time>
      </trkpt>
      <trkpt lat="45.51464" lon="4.44274">
        <ele>574.52514648438</ele>
        <time>2010-09-26T12:51:50Z</time>
      </trkpt>
      <trkpt lat="45.5149" lon="4.44284">
        <ele>575.005859375</ele>
        <time>2010-09-26T12:51:57Z</time>
      </trkpt>
      <trkpt lat="45.51511" lon="4.443">
        <ele>575.96704101562</ele>
        <time>2010-09-26T12:52:03Z</time>
      </trkpt>
      <trkpt lat="45.51544" lon="4.44328">
        <ele>576.92846679688</ele>
        <time>2010-09-26T12:52:13Z</time>
      </trkpt>
      <trkpt lat="45.51569" lon="4.44361">
        <ele>577.4091796875</ele>
        <time>2010-09-26T12:52:22Z</time>
      </trkpt>
      <trkpt lat="45.51585" lon="4.44384">
        <ele>577.4091796875</ele>
        <time>2010-09-26T12:52:28Z</time>
      </trkpt>
      <trkpt lat="45.51601" lon="4.44405">
        <ele>577.8896484375</ele>
        <time>2010-09-26T12:52:34Z</time>
      </trkpt>
      <trkpt lat="45.51621" lon="4.44436">
        <ele>578.85107421875</ele>
        <time>2010-09-26T12:52:42Z</time>
      </trkpt>
      <trkpt lat="45.51638" lon="4.44459">
        <ele>579.33154296875</ele>
        <time>2010-09-26T12:52:49Z</time>
      </trkpt>
      <trkpt lat="45.51656" lon="4.44482">
        <ele>580.29296875</ele>
        <time>2010-09-26T12:52:56Z</time>
      </trkpt>
      <trkpt lat="45.51674" lon="4.44495">
        <ele>581.25439453125</ele>
        <time>2010-09-26T12:53:02Z</time>
      </trkpt>
      <trkpt lat="45.51696" lon="4.44495">
        <ele>581.73486328125</ele>
        <time>2010-09-26T12:53:08Z</time>
      </trkpt>
      <trkpt lat="45.51719" lon="4.44479">
        <ele>581.25439453125</ele>
        <time>2010-09-26T12:53:15Z</time>
      </trkpt>
      <trkpt lat="45.51735" lon="4.44477">
        <ele>582.21557617188</ele>
        <time>2010-09-26T12:53:19Z</time>
      </trkpt>
      <trkpt lat="45.51748" lon="4.4449">
        <ele>581.25439453125</ele>
        <time>2010-09-26T12:53:23Z</time>
      </trkpt>
      <trkpt lat="45.51755" lon="4.44509">
        <ele>581.73486328125</ele>
        <time>2010-09-26T12:53:27Z</time>
      </trkpt>
      <trkpt lat="45.51759" lon="4.44537">
        <ele>581.73486328125</ele>
        <time>2010-09-26T12:53:33Z</time>
      </trkpt>
      <trkpt lat="45.51766" lon="4.44568">
        <ele>582.21557617188</ele>
        <time>2010-09-26T12:53:40Z</time>
      </trkpt>
      <trkpt lat="45.51782" lon="4.44597">
        <ele>583.1767578125</ele>
        <time>2010-09-26T12:53:48Z</time>
      </trkpt>
      <trkpt lat="45.51806" lon="4.44625">
        <ele>584.61889648438</ele>
        <time>2010-09-26T12:53:57Z</time>
      </trkpt>
      <trkpt lat="45.51828" lon="4.44648">
        <ele>585.580078125</ele>
        <time>2010-09-26T12:54:05Z</time>
      </trkpt>
      <trkpt lat="45.51852" lon="4.44673">
        <ele>586.06079101562</ele>
        <time>2010-09-26T12:54:14Z</time>
      </trkpt>
      <trkpt lat="45.51877" lon="4.44697">
        <ele>587.02197265625</ele>
        <time>2010-09-26T12:54:23Z</time>
      </trkpt>
      <trkpt lat="45.51902" lon="4.44721">
        <ele>588.46435546875</ele>
        <time>2010-09-26T12:54:32Z</time>
      </trkpt>
      <trkpt lat="45.51925" lon="4.4475">
        <ele>589.90625</ele>
        <time>2010-09-26T12:54:41Z</time>
      </trkpt>
      <trkpt lat="45.51944" lon="4.44775">
        <ele>590.38696289062</ele>
        <time>2010-09-26T12:54:49Z</time>
      </trkpt>
      <trkpt lat="45.5197" lon="4.44809">
        <ele>591.82885742188</ele>
        <time>2010-09-26T12:55:00Z</time>
      </trkpt>
      <trkpt lat="45.51995" lon="4.44831">
        <ele>592.79028320312</ele>
        <time>2010-09-26T12:55:09Z</time>
      </trkpt>
      <trkpt lat="45.52022" lon="4.44845">
        <ele>593.75146484375</ele>
        <time>2010-09-26T12:55:18Z</time>
      </trkpt>
      <trkpt lat="45.52056" lon="4.44855">
        <ele>593.27075195312</ele>
        <time>2010-09-26T12:55:28Z</time>
      </trkpt>
      <trkpt lat="45.52078" lon="4.44872">
        <ele>595.193359375</ele>
        <time>2010-09-26T12:55:35Z</time>
      </trkpt>
      <trkpt lat="45.52096" lon="4.449">
        <ele>595.67407226562</ele>
        <time>2010-09-26T12:55:43Z</time>
      </trkpt>
      <trkpt lat="45.5211" lon="4.44933">
        <ele>596.63549804688</ele>
        <time>2010-09-26T12:55:51Z</time>
      </trkpt>
      <trkpt lat="45.52123" lon="4.4498">
        <ele>598.07739257812</ele>
        <time>2010-09-26T12:56:01Z</time>
      </trkpt>
      <trkpt lat="45.52139" lon="4.4501">
        <ele>598.55786132812</ele>
        <time>2010-09-26T12:56:08Z</time>
      </trkpt>
      <trkpt lat="45.52158" lon="4.45033">
        <ele>599.51928710938</ele>
        <time>2010-09-26T12:56:15Z</time>
      </trkpt>
      <trkpt lat="45.52181" lon="4.45049">
        <ele>600.96118164062</ele>
        <time>2010-09-26T12:56:22Z</time>
      </trkpt>
      <trkpt lat="45.52205" lon="4.4506">
        <ele>600.96118164062</ele>
        <time>2010-09-26T12:56:29Z</time>
      </trkpt>
      <trkpt lat="45.52242" lon="4.45079">
        <ele>601.92260742188</ele>
        <time>2010-09-26T12:56:40Z</time>
      </trkpt>
      <trkpt lat="45.52273" lon="4.451">
        <ele>603.36450195312</ele>
        <time>2010-09-26T12:56:50Z</time>
      </trkpt>
      <trkpt lat="45.52296" lon="4.45128">
        <ele>604.326171875</ele>
        <time>2010-09-26T12:56:59Z</time>
      </trkpt>
      <trkpt lat="45.52313" lon="4.45159">
        <ele>605.76806640625</ele>
        <time>2010-09-26T12:57:07Z</time>
      </trkpt>
      <trkpt lat="45.52327" lon="4.4519">
        <ele>606.24853515625</ele>
        <time>2010-09-26T12:57:15Z</time>
      </trkpt>
      <trkpt lat="45.52335" lon="4.45216">
        <ele>607.69067382812</ele>
        <time>2010-09-26T12:57:21Z</time>
      </trkpt>
      <trkpt lat="45.52345" lon="4.45236">
        <ele>607.69067382812</ele>
        <time>2010-09-26T12:57:27Z</time>
      </trkpt>
      <trkpt lat="45.52354" lon="4.45269">
        <ele>608.17138671875</ele>
        <time>2010-09-26T12:57:35Z</time>
      </trkpt>
      <trkpt lat="45.52367" lon="4.45311">
        <ele>609.13256835938</ele>
        <time>2010-09-26T12:57:45Z</time>
      </trkpt>
      <trkpt lat="45.52379" lon="4.45348">
        <ele>611.05517578125</ele>
        <time>2010-09-26T12:57:54Z</time>
      </trkpt>
      <trkpt lat="45.52393" lon="4.45387">
        <ele>611.53588867188</ele>
        <time>2010-09-26T12:58:03Z</time>
      </trkpt>
      <trkpt lat="45.524" lon="4.45404">
        <ele>612.0166015625</ele>
        <time>2010-09-26T12:58:09Z</time>
      </trkpt>
      <trkpt lat="45.524" lon="4.45406">
        <ele>612.0166015625</ele>
        <time>2010-09-26T12:58:13Z</time>
      </trkpt>
      <trkpt lat="45.524" lon="4.45406">
        <ele>612.0166015625</ele>
        <time>2010-09-26T12:58:14Z</time>
      </trkpt>
      <trkpt lat="45.52407" lon="4.45412">
        <ele>612.97778320312</ele>
        <time>2010-09-26T12:58:19Z</time>
      </trkpt>
      <trkpt lat="45.52426" lon="4.45437">
        <ele>613.45849609375</ele>
        <time>2010-09-26T12:58:27Z</time>
      </trkpt>
      <trkpt lat="45.52438" lon="4.45459">
        <ele>614.41967773438</ele>
        <time>2010-09-26T12:58:33Z</time>
      </trkpt>
      <trkpt lat="45.52448" lon="4.45482">
        <ele>615.38110351562</ele>
        <time>2010-09-26T12:58:39Z</time>
      </trkpt>
      <trkpt lat="45.52467" lon="4.45529">
        <ele>616.82299804688</ele>
        <time>2010-09-26T12:58:51Z</time>
      </trkpt>
      <trkpt lat="45.52478" lon="4.45552">
        <ele>617.7841796875</ele>
        <time>2010-09-26T12:58:57Z</time>
      </trkpt>
      <trkpt lat="45.52493" lon="4.45581">
        <ele>618.74560546875</ele>
        <time>2010-09-26T12:59:05Z</time>
      </trkpt>
      <trkpt lat="45.52509" lon="4.45608">
        <ele>620.66845703125</ele>
        <time>2010-09-26T12:59:13Z</time>
      </trkpt>
      <trkpt lat="45.52522" lon="4.45639">
        <ele>622.1103515625</ele>
        <time>2010-09-26T12:59:21Z</time>
      </trkpt>
      <trkpt lat="45.52541" lon="4.45678">
        <ele>623.55249023438</ele>
        <time>2010-09-26T12:59:31Z</time>
      </trkpt>
      <trkpt lat="45.52563" lon="4.45699">
        <ele>624.03295898438</ele>
        <time>2010-09-26T12:59:39Z</time>
      </trkpt>
      <trkpt lat="45.52583" lon="4.45717">
        <ele>625.47485351562</ele>
        <time>2010-09-26T12:59:46Z</time>
      </trkpt>
      <trkpt lat="45.52596" lon="4.45743">
        <ele>626.9169921875</ele>
        <time>2010-09-26T12:59:53Z</time>
      </trkpt>
      <trkpt lat="45.52598" lon="4.45767">
        <ele>628.35888671875</ele>
        <time>2010-09-26T12:59:59Z</time>
      </trkpt>
      <trkpt lat="45.52589" lon="4.458">
        <ele>629.80078125</ele>
        <time>2010-09-26T13:00:08Z</time>
      </trkpt>
      <trkpt lat="45.5258" lon="4.45837">
        <ele>631.72338867188</ele>
        <time>2010-09-26T13:00:18Z</time>
      </trkpt>
      <trkpt lat="45.52581" lon="4.45868">
        <ele>632.2041015625</ele>
        <time>2010-09-26T13:00:26Z</time>
      </trkpt>
      <trkpt lat="45.52586" lon="4.45902">
        <ele>632.68481445312</ele>
        <time>2010-09-26T13:00:35Z</time>
      </trkpt>
      <trkpt lat="45.52592" lon="4.45935">
        <ele>633.64599609375</ele>
        <time>2010-09-26T13:00:43Z</time>
      </trkpt>
      <trkpt lat="45.52606" lon="4.45979">
        <ele>634.12670898438</ele>
        <time>2010-09-26T13:00:54Z</time>
      </trkpt>
      <trkpt lat="45.52608" lon="4.46013">
        <ele>635.56860351562</ele>
        <time>2010-09-26T13:01:02Z</time>
      </trkpt>
      <trkpt lat="45.52605" lon="4.46039">
        <ele>636.04956054688</ele>
        <time>2010-09-26T13:01:08Z</time>
      </trkpt>
      <trkpt lat="45.52597" lon="4.46072">
        <ele>637.0107421875</ele>
        <time>2010-09-26T13:01:16Z</time>
      </trkpt>
      <trkpt lat="45.52583" lon="4.46099">
        <ele>637.49145507812</ele>
        <time>2010-09-26T13:01:23Z</time>
      </trkpt>
      <trkpt lat="45.52567" lon="4.4613">
        <ele>638.93359375</ele>
        <time>2010-09-26T13:01:31Z</time>
      </trkpt>
      <trkpt lat="45.52558" lon="4.46162">
        <ele>639.89477539062</ele>
        <time>2010-09-26T13:01:38Z</time>
      </trkpt>
      <trkpt lat="45.52559" lon="4.46189">
        <ele>639.89477539062</ele>
        <time>2010-09-26T13:01:44Z</time>
      </trkpt>
      <trkpt lat="45.52571" lon="4.46217">
        <ele>640.85595703125</ele>
        <time>2010-09-26T13:01:51Z</time>
      </trkpt>
      <trkpt lat="45.52593" lon="4.46247">
        <ele>642.77880859375</ele>
        <time>2010-09-26T13:02:00Z</time>
      </trkpt>
      <trkpt lat="45.52617" lon="4.46277">
        <ele>643.73999023438</ele>
        <time>2010-09-26T13:02:09Z</time>
      </trkpt>
      <trkpt lat="45.52634" lon="4.46304">
        <ele>644.220703125</ele>
        <time>2010-09-26T13:02:16Z</time>
      </trkpt>
      <trkpt lat="45.52649" lon="4.46338">
        <ele>646.14331054688</ele>
        <time>2010-09-26T13:02:24Z</time>
      </trkpt>
      <trkpt lat="45.52663" lon="4.46371">
        <ele>645.66259765625</ele>
        <time>2010-09-26T13:02:32Z</time>
      </trkpt>
      <trkpt lat="45.52683" lon="4.46396">
        <ele>647.1044921875</ele>
        <time>2010-09-26T13:02:40Z</time>
      </trkpt>
      <trkpt lat="45.52702" lon="4.4641">
        <ele>648.06591796875</ele>
        <time>2010-09-26T13:02:46Z</time>
      </trkpt>
      <trkpt lat="45.52724" lon="4.46421">
        <ele>649.02709960938</ele>
        <time>2010-09-26T13:02:53Z</time>
      </trkpt>
      <trkpt lat="45.5275" lon="4.46427">
        <ele>649.5078125</ele>
        <time>2010-09-26T13:03:01Z</time>
      </trkpt>
      <trkpt lat="45.52782" lon="4.46432">
        <ele>650.46923828125</ele>
        <time>2010-09-26T13:03:10Z</time>
      </trkpt>
      <trkpt lat="45.52804" lon="4.46438">
        <ele>650.94970703125</ele>
        <time>2010-09-26T13:03:17Z</time>
      </trkpt>
      <trkpt lat="45.52829" lon="4.46448">
        <ele>651.9111328125</ele>
        <time>2010-09-26T13:03:25Z</time>
      </trkpt>
      <trkpt lat="45.52851" lon="4.46469">
        <ele>653.35327148438</ele>
        <time>2010-09-26T13:03:33Z</time>
      </trkpt>
      <trkpt lat="45.52874" lon="4.46497">
        <ele>654.31469726562</ele>
        <time>2010-09-26T13:03:42Z</time>
      </trkpt>
      <trkpt lat="45.52894" lon="4.46515">
        <ele>655.75659179688</ele>
        <time>2010-09-26T13:03:49Z</time>
      </trkpt>
      <trkpt lat="45.52924" lon="4.46527">
        <ele>657.19848632812</ele>
        <time>2010-09-26T13:03:58Z</time>
      </trkpt>
      <trkpt lat="45.5295" lon="4.46539">
        <ele>657.67919921875</ele>
        <time>2010-09-26T13:04:06Z</time>
      </trkpt>
      <trkpt lat="45.52973" lon="4.46563">
        <ele>659.12109375</ele>
        <time>2010-09-26T13:04:14Z</time>
      </trkpt>
      <trkpt lat="45.52988" lon="4.46595">
        <ele>660.56298828125</ele>
        <time>2010-09-26T13:04:22Z</time>
      </trkpt>
      <trkpt lat="45.52998" lon="4.4663">
        <ele>661.04370117188</ele>
        <time>2010-09-26T13:04:30Z</time>
      </trkpt>
      <trkpt lat="45.5301" lon="4.46668">
        <ele>662.48559570312</ele>
        <time>2010-09-26T13:04:39Z</time>
      </trkpt>
      <trkpt lat="45.53017" lon="4.46711">
        <ele>663.92749023438</ele>
        <time>2010-09-26T13:04:48Z</time>
      </trkpt>
      <trkpt lat="45.53016" lon="4.46745">
        <ele>665.85034179688</ele>
        <time>2010-09-26T13:04:55Z</time>
      </trkpt>
      <trkpt lat="45.53009" lon="4.46803">
        <ele>667.29223632812</ele>
        <time>2010-09-26T13:05:07Z</time>
      </trkpt>
      <trkpt lat="45.53014" lon="4.46852">
        <ele>668.25366210938</ele>
        <time>2010-09-26T13:05:17Z</time>
      </trkpt>
      <trkpt lat="45.53019" lon="4.46887">
        <ele>669.21508789062</ele>
        <time>2010-09-26T13:05:24Z</time>
      </trkpt>
      <trkpt lat="45.53017" lon="4.4693">
        <ele>669.69580078125</ele>
        <time>2010-09-26T13:05:32Z</time>
      </trkpt>
      <trkpt lat="45.53006" lon="4.46987">
        <ele>670.17626953125</ele>
        <time>2010-09-26T13:05:43Z</time>
      </trkpt>
      <trkpt lat="45.5299" lon="4.47022">
        <ele>672.09887695312</ele>
        <time>2010-09-26T13:05:51Z</time>
      </trkpt>
      <trkpt lat="45.52969" lon="4.47058">
        <ele>673.541015625</ele>
        <time>2010-09-26T13:06:00Z</time>
      </trkpt>
      <trkpt lat="45.52944" lon="4.47098">
        <ele>674.021484375</ele>
        <time>2010-09-26T13:06:10Z</time>
      </trkpt>
      <trkpt lat="45.52919" lon="4.47143">
        <ele>674.98291015625</ele>
        <time>2010-09-26T13:06:21Z</time>
      </trkpt>
      <trkpt lat="45.52911" lon="4.47182">
        <ele>676.4248046875</ele>
        <time>2010-09-26T13:06:29Z</time>
      </trkpt>
      <trkpt lat="45.52915" lon="4.47217">
        <ele>677.86669921875</ele>
        <time>2010-09-26T13:06:36Z</time>
      </trkpt>
      <trkpt lat="45.52928" lon="4.47247">
        <ele>678.828125</ele>
        <time>2010-09-26T13:06:43Z</time>
      </trkpt>
      <trkpt lat="45.52946" lon="4.47281">
        <ele>680.27001953125</ele>
        <time>2010-09-26T13:06:51Z</time>
      </trkpt>
      <trkpt lat="45.52969" lon="4.47327">
        <ele>681.7119140625</ele>
        <time>2010-09-26T13:07:01Z</time>
      </trkpt>
      <trkpt lat="45.52982" lon="4.47368">
        <ele>681.7119140625</ele>
        <time>2010-09-26T13:07:09Z</time>
      </trkpt>
      <trkpt lat="45.5299" lon="4.47413">
        <ele>682.67333984375</ele>
        <time>2010-09-26T13:07:17Z</time>
      </trkpt>
      <trkpt lat="45.52994" lon="4.4744">
        <ele>683.63452148438</ele>
        <time>2010-09-26T13:07:22Z</time>
      </trkpt>
      <trkpt lat="45.52998" lon="4.47478">
        <ele>684.59619140625</ele>
        <time>2010-09-26T13:07:29Z</time>
      </trkpt>
      <trkpt lat="45.53007" lon="4.47515">
        <ele>685.55737304688</ele>
        <time>2010-09-26T13:07:37Z</time>
      </trkpt>
      <trkpt lat="45.53017" lon="4.47535">
        <ele>686.51879882812</ele>
        <time>2010-09-26T13:07:42Z</time>
      </trkpt>
      <trkpt lat="45.53033" lon="4.47551">
        <ele>687.96069335938</ele>
        <time>2010-09-26T13:07:48Z</time>
      </trkpt>
      <trkpt lat="45.53062" lon="4.47562">
        <ele>689.40258789062</ele>
        <time>2010-09-26T13:07:57Z</time>
      </trkpt>
      <trkpt lat="45.53085" lon="4.47562">
        <ele>690.36401367188</ele>
        <time>2010-09-26T13:08:04Z</time>
      </trkpt>
      <trkpt lat="45.53118" lon="4.47561">
        <ele>691.80590820312</ele>
        <time>2010-09-26T13:08:14Z</time>
      </trkpt>
      <trkpt lat="45.53165" lon="4.47556">
        <ele>691.80590820312</ele>
        <time>2010-09-26T13:08:27Z</time>
      </trkpt>
      <trkpt lat="45.53201" lon="4.47546">
        <ele>692.28662109375</ele>
        <time>2010-09-26T13:08:37Z</time>
      </trkpt>
      <trkpt lat="45.53238" lon="4.47539">
        <ele>693.728515625</ele>
        <time>2010-09-26T13:08:47Z</time>
      </trkpt>
      <trkpt lat="45.53266" lon="4.47546">
        <ele>694.68969726562</ele>
        <time>2010-09-26T13:08:55Z</time>
      </trkpt>
      <trkpt lat="45.53313" lon="4.47563">
        <ele>695.17041015625</ele>
        <time>2010-09-26T13:09:09Z</time>
      </trkpt>
      <trkpt lat="45.53339" lon="4.47574">
        <ele>696.1318359375</ele>
        <time>2010-09-26T13:09:17Z</time>
      </trkpt>
      <trkpt lat="45.53372" lon="4.47597">
        <ele>697.57373046875</ele>
        <time>2010-09-26T13:09:27Z</time>
      </trkpt>
      <trkpt lat="45.53408" lon="4.47635">
        <ele>699.015625</ele>
        <time>2010-09-26T13:09:39Z</time>
      </trkpt>
      <trkpt lat="45.53433" lon="4.47653">
        <ele>699.97705078125</ele>
        <time>2010-09-26T13:09:47Z</time>
      </trkpt>
      <trkpt lat="45.53461" lon="4.47662">
        <ele>700.4580078125</ele>
        <time>2010-09-26T13:09:55Z</time>
      </trkpt>
      <trkpt lat="45.53495" lon="4.47672">
        <ele>701.41918945312</ele>
        <time>2010-09-26T13:10:04Z</time>
      </trkpt>
      <trkpt lat="45.53531" lon="4.47691">
        <ele>701.89990234375</ele>
        <time>2010-09-26T13:10:14Z</time>
      </trkpt>
      <trkpt lat="45.53545" lon="4.47714">
        <ele>701.89990234375</ele>
        <time>2010-09-26T13:10:20Z</time>
      </trkpt>
      <trkpt lat="45.53557" lon="4.4773">
        <ele>702.38037109375</ele>
        <time>2010-09-26T13:10:25Z</time>
      </trkpt>
      <trkpt lat="45.53568" lon="4.47736">
        <ele>701.89990234375</ele>
        <time>2010-09-26T13:10:30Z</time>
      </trkpt>
      <trkpt lat="45.53576" lon="4.47751">
        <ele>702.38037109375</ele>
        <time>2010-09-26T13:10:34Z</time>
      </trkpt>
      <trkpt lat="45.5358" lon="4.47767">
        <ele>701.89990234375</ele>
        <time>2010-09-26T13:10:37Z</time>
      </trkpt>
      <trkpt lat="45.53595" lon="4.47792">
        <ele>702.38037109375</ele>
        <time>2010-09-26T13:10:43Z</time>
      </trkpt>
      <trkpt lat="45.53617" lon="4.47804">
        <ele>703.341796875</ele>
        <time>2010-09-26T13:10:52Z</time>
      </trkpt>
      <trkpt lat="45.53633" lon="4.47815">
        <ele>705.7451171875</ele>
        <time>2010-09-26T13:10:59Z</time>
      </trkpt>
      <trkpt lat="45.53643" lon="4.47821">
        <ele>706.2255859375</ele>
        <time>2010-09-26T13:11:04Z</time>
      </trkpt>
      <trkpt lat="45.53651" lon="4.47824">
        <ele>707.66772460938</ele>
        <time>2010-09-26T13:11:08Z</time>
      </trkpt>
      <trkpt lat="45.53666" lon="4.47828">
        <ele>709.10961914062</ele>
        <time>2010-09-26T13:11:15Z</time>
      </trkpt>
      <trkpt lat="45.53684" lon="4.47831">
        <ele>711.51293945312</ele>
        <time>2010-09-26T13:11:23Z</time>
      </trkpt>
      <trkpt lat="45.53705" lon="4.47831">
        <ele>712.95483398438</ele>
        <time>2010-09-26T13:11:32Z</time>
      </trkpt>
      <trkpt lat="45.53714" lon="4.47831">
        <ele>713.435546875</ele>
        <time>2010-09-26T13:11:36Z</time>
      </trkpt>
      <trkpt lat="45.53727" lon="4.47832">
        <ele>713.435546875</ele>
        <time>2010-09-26T13:11:42Z</time>
      </trkpt>
      <trkpt lat="45.53743" lon="4.4783">
        <ele>714.39672851562</ele>
        <time>2010-09-26T13:11:49Z</time>
      </trkpt>
      <trkpt lat="45.53765" lon="4.4783">
        <ele>715.8388671875</ele>
        <time>2010-09-26T13:11:58Z</time>
      </trkpt>
      <trkpt lat="45.53783" lon="4.4783">
        <ele>716.80029296875</ele>
        <time>2010-09-26T13:12:05Z</time>
      </trkpt>
      <trkpt lat="45.53801" lon="4.47832">
        <ele>718.2421875</ele>
        <time>2010-09-26T13:12:12Z</time>
      </trkpt>
      <trkpt lat="45.53822" lon="4.47831">
        <ele>720.16479492188</ele>
        <time>2010-09-26T13:12:21Z</time>
      </trkpt>
      <trkpt lat="45.53845" lon="4.47824">
        <ele>723.52954101562</ele>
        <time>2010-09-26T13:12:32Z</time>
      </trkpt>
      <trkpt lat="45.53855" lon="4.47822">
        <ele>724.97143554688</ele>
        <time>2010-09-26T13:12:37Z</time>
      </trkpt>
      <trkpt lat="45.53868" lon="4.47818">
        <ele>726.41333007812</ele>
        <time>2010-09-26T13:12:44Z</time>
      </trkpt>
      <trkpt lat="45.53884" lon="4.47822">
        <ele>728.3359375</ele>
        <time>2010-09-26T13:12:53Z</time>
      </trkpt>
      <trkpt lat="45.53896" lon="4.47826">
        <ele>729.29711914062</ele>
        <time>2010-09-26T13:13:00Z</time>
      </trkpt>
      <trkpt lat="45.53906" lon="4.47832">
        <ele>731.21997070312</ele>
        <time>2010-09-26T13:13:07Z</time>
      </trkpt>
      <trkpt lat="45.53918" lon="4.47841">
        <ele>732.662109375</ele>
        <time>2010-09-26T13:13:14Z</time>
      </trkpt>
      <trkpt lat="45.53925" lon="4.47848">
        <ele>733.142578125</ele>
        <time>2010-09-26T13:13:19Z</time>
      </trkpt>
      <trkpt lat="45.53939" lon="4.47861">
        <ele>736.02661132812</ele>
        <time>2010-09-26T13:13:29Z</time>
      </trkpt>
      <trkpt lat="45.53944" lon="4.47865">
        <ele>737.46850585938</ele>
        <time>2010-09-26T13:13:32Z</time>
      </trkpt>
      <trkpt lat="45.53954" lon="4.47876">
        <ele>739.39111328125</ele>
        <time>2010-09-26T13:13:40Z</time>
      </trkpt>
      <trkpt lat="45.53965" lon="4.4789">
        <ele>741.79443359375</ele>
        <time>2010-09-26T13:13:48Z</time>
      </trkpt>
      <trkpt lat="45.53966" lon="4.47893">
        <ele>741.79443359375</ele>
        <time>2010-09-26T13:13:49Z</time>
      </trkpt>
      <trkpt lat="45.53973" lon="4.47911">
        <ele>745.15893554688</ele>
        <time>2010-09-26T13:13:57Z</time>
      </trkpt>
      <trkpt lat="45.5398" lon="4.47929">
        <ele>747.08154296875</ele>
        <time>2010-09-26T13:14:05Z</time>
      </trkpt>
      <trkpt lat="45.53984" lon="4.47944">
        <ele>748.04321289062</ele>
        <time>2010-09-26T13:14:11Z</time>
      </trkpt>
      <trkpt lat="45.53993" lon="4.47957">
        <ele>749.9658203125</ele>
        <time>2010-09-26T13:14:18Z</time>
      </trkpt>
      <trkpt lat="45.54" lon="4.47974">
        <ele>751.40771484375</ele>
        <time>2010-09-26T13:14:26Z</time>
      </trkpt>
      <trkpt lat="45.54007" lon="4.4799">
        <ele>752.849609375</ele>
        <time>2010-09-26T13:14:33Z</time>
      </trkpt>
      <trkpt lat="45.54016" lon="4.48005">
        <ele>754.29174804688</ele>
        <time>2010-09-26T13:14:41Z</time>
      </trkpt>
      <trkpt lat="45.54024" lon="4.48016">
        <ele>755.73364257812</ele>
        <time>2010-09-26T13:14:47Z</time>
      </trkpt>
      <trkpt lat="45.54029" lon="4.48027">
        <ele>757.17553710938</ele>
        <time>2010-09-26T13:14:53Z</time>
      </trkpt>
      <trkpt lat="45.54037" lon="4.48039">
        <ele>757.65625</ele>
        <time>2010-09-26T13:15:00Z</time>
      </trkpt>
      <trkpt lat="45.54044" lon="4.48052">
        <ele>759.09814453125</ele>
        <time>2010-09-26T13:15:06Z</time>
      </trkpt>
      <trkpt lat="45.54052" lon="4.4807">
        <ele>761.02075195312</ele>
        <time>2010-09-26T13:15:13Z</time>
      </trkpt>
      <trkpt lat="45.5406" lon="4.48085">
        <ele>762.46264648438</ele>
        <time>2010-09-26T13:15:19Z</time>
      </trkpt>
      <trkpt lat="45.5407" lon="4.48109">
        <ele>763.90454101562</ele>
        <time>2010-09-26T13:15:27Z</time>
      </trkpt>
      <trkpt lat="45.54076" lon="4.48126">
        <ele>767.26953125</ele>
        <time>2010-09-26T13:15:33Z</time>
      </trkpt>
      <trkpt lat="45.5408" lon="4.48155">
        <ele>768.71142578125</ele>
        <time>2010-09-26T13:15:43Z</time>
      </trkpt>
      <trkpt lat="45.54079" lon="4.48181">
        <ele>769.19213867188</ele>
        <time>2010-09-26T13:15:51Z</time>
      </trkpt>
      <trkpt lat="45.54079" lon="4.482">
        <ele>770.63403320312</ele>
        <time>2010-09-26T13:15:57Z</time>
      </trkpt>
      <trkpt lat="45.54082" lon="4.48235">
        <ele>771.59521484375</ele>
        <time>2010-09-26T13:16:06Z</time>
      </trkpt>
      <trkpt lat="45.5409" lon="4.48262">
        <ele>771.59521484375</ele>
        <time>2010-09-26T13:16:13Z</time>
      </trkpt>
      <trkpt lat="45.54102" lon="4.48292">
        <ele>773.03735351562</ele>
        <time>2010-09-26T13:16:21Z</time>
      </trkpt>
      <trkpt lat="45.54116" lon="4.48323">
        <ele>772.07592773438</ele>
        <time>2010-09-26T13:16:28Z</time>
      </trkpt>
      <trkpt lat="45.54132" lon="4.48346">
        <ele>772.556640625</ele>
        <time>2010-09-26T13:16:35Z</time>
      </trkpt>
      <trkpt lat="45.54145" lon="4.48358">
        <ele>773.51806640625</ele>
        <time>2010-09-26T13:16:42Z</time>
      </trkpt>
      <trkpt lat="45.54154" lon="4.48365">
        <ele>773.51806640625</ele>
        <time>2010-09-26T13:16:47Z</time>
      </trkpt>
      <trkpt lat="45.54172" lon="4.48378">
        <ele>774.9599609375</ele>
        <time>2010-09-26T13:16:56Z</time>
      </trkpt>
      <trkpt lat="45.54187" lon="4.48388">
        <ele>776.40185546875</ele>
        <time>2010-09-26T13:17:04Z</time>
      </trkpt>
      <trkpt lat="45.54203" lon="4.48398">
        <ele>779.28564453125</ele>
        <time>2010-09-26T13:17:13Z</time>
      </trkpt>
      <trkpt lat="45.54216" lon="4.48414">
        <ele>781.68920898438</ele>
        <time>2010-09-26T13:17:22Z</time>
      </trkpt>
      <trkpt lat="45.54224" lon="4.48426">
        <ele>784.09252929688</ele>
        <time>2010-09-26T13:17:28Z</time>
      </trkpt>
      <trkpt lat="45.54235" lon="4.48445">
        <ele>786.49584960938</ele>
        <time>2010-09-26T13:17:36Z</time>
      </trkpt>
      <trkpt lat="45.54243" lon="4.48458">
        <ele>787.45703125</ele>
        <time>2010-09-26T13:17:42Z</time>
      </trkpt>
      <trkpt lat="45.54255" lon="4.48479">
        <ele>789.8603515625</ele>
        <time>2010-09-26T13:17:51Z</time>
      </trkpt>
      <trkpt lat="45.54265" lon="4.48505">
        <ele>791.78295898438</ele>
        <time>2010-09-26T13:18:01Z</time>
      </trkpt>
      <trkpt lat="45.54269" lon="4.48521">
        <ele>793.22485351562</ele>
        <time>2010-09-26T13:18:08Z</time>
      </trkpt>
      <trkpt lat="45.54276" lon="4.48541">
        <ele>793.70556640625</ele>
        <time>2010-09-26T13:18:14Z</time>
      </trkpt>
      <trkpt lat="45.54288" lon="4.48552">
        <ele>795.62817382812</ele>
        <time>2010-09-26T13:18:21Z</time>
      </trkpt>
      <trkpt lat="45.54302" lon="4.48552">
        <ele>798.51220703125</ele>
        <time>2010-09-26T13:18:29Z</time>
      </trkpt>
      <trkpt lat="45.54317" lon="4.48544">
        <ele>801.39624023438</ele>
        <time>2010-09-26T13:18:38Z</time>
      </trkpt>
      <trkpt lat="45.54319" lon="4.48544">
        <ele>801.876953125</ele>
        <time>2010-09-26T13:18:39Z</time>
      </trkpt>
      <trkpt lat="45.54331" lon="4.48538">
        <ele>803.31884765625</ele>
        <time>2010-09-26T13:18:46Z</time>
      </trkpt>
      <trkpt lat="45.54334" lon="4.48537">
        <ele>803.31884765625</ele>
        <time>2010-09-26T13:18:48Z</time>
      </trkpt>
      <trkpt lat="45.54338" lon="4.48533">
        <ele>803.79956054688</ele>
        <time>2010-09-26T13:18:52Z</time>
      </trkpt>
      <trkpt lat="45.54351" lon="4.48531">
        <ele>805.72216796875</ele>
        <time>2010-09-26T13:19:00Z</time>
      </trkpt>
      <trkpt lat="45.54366" lon="4.4853">
        <ele>806.20263671875</ele>
        <time>2010-09-26T13:19:08Z</time>
      </trkpt>
      <trkpt lat="45.5438" lon="4.48526">
        <ele>807.64477539062</ele>
        <time>2010-09-26T13:19:15Z</time>
      </trkpt>
      <trkpt lat="45.54399" lon="4.48521">
        <ele>808.60595703125</ele>
        <time>2010-09-26T13:19:25Z</time>
      </trkpt>
      <trkpt lat="45.54417" lon="4.48518">
        <ele>809.5673828125</ele>
        <time>2010-09-26T13:19:34Z</time>
      </trkpt>
      <trkpt lat="45.54434" lon="4.48517">
        <ele>810.52856445312</ele>
        <time>2010-09-26T13:19:42Z</time>
      </trkpt>
      <trkpt lat="45.54447" lon="4.48515">
        <ele>811.00927734375</ele>
        <time>2010-09-26T13:19:49Z</time>
      </trkpt>
      <trkpt lat="45.54452" lon="4.4853">
        <ele>811.970703125</ele>
        <time>2010-09-26T13:19:55Z</time>
      </trkpt>
      <trkpt lat="45.54453" lon="4.48533">
        <ele>812.45141601562</ele>
        <time>2010-09-26T13:19:56Z</time>
      </trkpt>
      <trkpt lat="45.54453" lon="4.48536">
        <ele>812.93212890625</ele>
        <time>2010-09-26T13:19:57Z</time>
      </trkpt>
      <trkpt lat="45.54453" lon="4.4856">
        <ele>815.33544921875</ele>
        <time>2010-09-26T13:20:06Z</time>
      </trkpt>
      <trkpt lat="45.54451" lon="4.4858">
        <ele>816.29663085938</ele>
        <time>2010-09-26T13:20:13Z</time>
      </trkpt>
      <trkpt lat="45.54453" lon="4.48597">
        <ele>818.21923828125</ele>
        <time>2010-09-26T13:20:19Z</time>
      </trkpt>
      <trkpt lat="45.54458" lon="4.48615">
        <ele>819.66137695312</ele>
        <time>2010-09-26T13:20:26Z</time>
      </trkpt>
      <trkpt lat="45.54465" lon="4.48629">
        <ele>820.62255859375</ele>
        <time>2010-09-26T13:20:32Z</time>
      </trkpt>
      <trkpt lat="45.54468" lon="4.48635">
        <ele>821.10327148438</ele>
        <time>2010-09-26T13:20:35Z</time>
      </trkpt>
      <trkpt lat="45.54473" lon="4.48641">
        <ele>821.58374023438</ele>
        <time>2010-09-26T13:20:39Z</time>
      </trkpt>
      <trkpt lat="45.54482" lon="4.48656">
        <ele>823.02587890625</ele>
        <time>2010-09-26T13:20:47Z</time>
      </trkpt>
      <trkpt lat="45.54482" lon="4.48658">
        <ele>823.02587890625</ele>
        <time>2010-09-26T13:20:48Z</time>
      </trkpt>
      <trkpt lat="45.54491" lon="4.48663">
        <ele>823.50659179688</ele>
        <time>2010-09-26T13:20:54Z</time>
      </trkpt>
      <trkpt lat="45.54499" lon="4.48676">
        <ele>825.90966796875</ele>
        <time>2010-09-26T13:21:00Z</time>
      </trkpt>
      <trkpt lat="45.54504" lon="4.48691">
        <ele>826.87109375</ele>
        <time>2010-09-26T13:21:06Z</time>
      </trkpt>
      <trkpt lat="45.54517" lon="4.48715">
        <ele>825.90966796875</ele>
        <time>2010-09-26T13:21:14Z</time>
      </trkpt>
      <trkpt lat="45.54532" lon="4.4874">
        <ele>825.42895507812</ele>
        <time>2010-09-26T13:21:22Z</time>
      </trkpt>
      <trkpt lat="45.54544" lon="4.48755">
        <ele>826.39038085938</ele>
        <time>2010-09-26T13:21:28Z</time>
      </trkpt>
      <trkpt lat="45.5455" lon="4.48762">
        <ele>828.31323242188</ele>
        <time>2010-09-26T13:21:32Z</time>
      </trkpt>
      <trkpt lat="45.54563" lon="4.48776">
        <ele>828.7939453125</ele>
        <time>2010-09-26T13:21:41Z</time>
      </trkpt>
      <trkpt lat="45.54568" lon="4.48781">
        <ele>828.7939453125</ele>
        <time>2010-09-26T13:21:48Z</time>
      </trkpt>
      <trkpt lat="45.54568" lon="4.48781">
        <ele>829.2744140625</ele>
        <time>2010-09-26T13:22:00Z</time>
      </trkpt>
      <trkpt lat="45.54567" lon="4.48779">
        <ele>829.75512695312</ele>
        <time>2010-09-26T13:22:55Z</time>
      </trkpt>
      <trkpt lat="45.54567" lon="4.48779">
        <ele>829.75512695312</ele>
        <time>2010-09-26T13:23:04Z</time>
      </trkpt>
      <trkpt lat="45.54576" lon="4.48773">
        <ele>829.75512695312</ele>
        <time>2010-09-26T13:23:11Z</time>
      </trkpt>
      <trkpt lat="45.54578" lon="4.48772">
        <ele>830.23583984375</ele>
        <time>2010-09-26T13:23:12Z</time>
      </trkpt>
      <trkpt lat="45.54593" lon="4.48771">
        <ele>831.197265625</ele>
        <time>2010-09-26T13:23:20Z</time>
      </trkpt>
      <trkpt lat="45.54617" lon="4.48773">
        <ele>831.677734375</ele>
        <time>2010-09-26T13:23:30Z</time>
      </trkpt>
      <trkpt lat="45.54639" lon="4.48775">
        <ele>833.11962890625</ele>
        <time>2010-09-26T13:23:38Z</time>
      </trkpt>
      <trkpt lat="45.54668" lon="4.48777">
        <ele>834.56176757812</ele>
        <time>2010-09-26T13:23:48Z</time>
      </trkpt>
      <trkpt lat="45.54694" lon="4.4878">
        <ele>835.04248046875</ele>
        <time>2010-09-26T13:23:57Z</time>
      </trkpt>
      <trkpt lat="45.54722" lon="4.48782">
        <ele>836.00366210938</ele>
        <time>2010-09-26T13:24:07Z</time>
      </trkpt>
      <trkpt lat="45.54747" lon="4.48784">
        <ele>836.96484375</ele>
        <time>2010-09-26T13:24:16Z</time>
      </trkpt>
      <trkpt lat="45.54771" lon="4.48786">
        <ele>837.92626953125</ele>
        <time>2010-09-26T13:24:25Z</time>
      </trkpt>
      <trkpt lat="45.54792" lon="4.48788">
        <ele>839.84887695312</ele>
        <time>2010-09-26T13:24:34Z</time>
      </trkpt>
      <trkpt lat="45.54808" lon="4.48797">
        <ele>840.32958984375</ele>
        <time>2010-09-26T13:24:41Z</time>
      </trkpt>
      <trkpt lat="45.54825" lon="4.48813">
        <ele>840.81005859375</ele>
        <time>2010-09-26T13:24:49Z</time>
      </trkpt>
      <trkpt lat="45.54839" lon="4.48835">
        <ele>842.25219726562</ele>
        <time>2010-09-26T13:24:57Z</time>
      </trkpt>
      <trkpt lat="45.54852" lon="4.4886">
        <ele>842.73291015625</ele>
        <time>2010-09-26T13:25:04Z</time>
      </trkpt>
      <trkpt lat="45.54863" lon="4.48884">
        <ele>844.65551757812</ele>
        <time>2010-09-26T13:25:11Z</time>
      </trkpt>
      <trkpt lat="45.5488" lon="4.48925">
        <ele>846.09765625</ele>
        <time>2010-09-26T13:25:22Z</time>
      </trkpt>
      <trkpt lat="45.54895" lon="4.4896">
        <ele>848.02026367188</ele>
        <time>2010-09-26T13:25:32Z</time>
      </trkpt>
      <trkpt lat="45.54908" lon="4.48982">
        <ele>848.02026367188</ele>
        <time>2010-09-26T13:25:39Z</time>
      </trkpt>
      <trkpt lat="45.54922" lon="4.49">
        <ele>847.53955078125</ele>
        <time>2010-09-26T13:25:45Z</time>
      </trkpt>
      <trkpt lat="45.54945" lon="4.49025">
        <ele>847.05883789062</ele>
        <time>2010-09-26T13:25:52Z</time>
      </trkpt>
      <trkpt lat="45.54979" lon="4.4906">
        <ele>847.05883789062</ele>
        <time>2010-09-26T13:26:02Z</time>
      </trkpt>
      <trkpt lat="45.55013" lon="4.49094">
        <ele>845.61694335938</ele>
        <time>2010-09-26T13:26:11Z</time>
      </trkpt>
      <trkpt lat="45.55044" lon="4.49118">
        <ele>846.57836914062</ele>
        <time>2010-09-26T13:26:19Z</time>
      </trkpt>
      <trkpt lat="45.55071" lon="4.49125">
        <ele>846.57836914062</ele>
        <time>2010-09-26T13:26:26Z</time>
      </trkpt>
      <trkpt lat="45.55075" lon="4.49125">
        <ele>846.57836914062</ele>
        <time>2010-09-26T13:26:27Z</time>
      </trkpt>
      <trkpt lat="45.55107" lon="4.4912">
        <ele>847.05883789062</ele>
        <time>2010-09-26T13:26:35Z</time>
      </trkpt>
      <trkpt lat="45.55134" lon="4.49128">
        <ele>847.53955078125</ele>
        <time>2010-09-26T13:26:42Z</time>
      </trkpt>
      <trkpt lat="45.55169" lon="4.49151">
        <ele>849.46215820312</ele>
        <time>2010-09-26T13:26:52Z</time>
      </trkpt>
      <trkpt lat="45.55203" lon="4.49175">
        <ele>849.94287109375</ele>
        <time>2010-09-26T13:27:03Z</time>
      </trkpt>
      <trkpt lat="45.55224" lon="4.49187">
        <ele>850.42358398438</ele>
        <time>2010-09-26T13:27:10Z</time>
      </trkpt>
      <trkpt lat="45.55256" lon="4.49193">
        <ele>849.94287109375</ele>
        <time>2010-09-26T13:27:19Z</time>
      </trkpt>
      <trkpt lat="45.55274" lon="4.49183">
        <ele>850.42358398438</ele>
        <time>2010-09-26T13:27:24Z</time>
      </trkpt>
      <trkpt lat="45.55286" lon="4.4916">
        <ele>850.90405273438</ele>
        <time>2010-09-26T13:27:29Z</time>
      </trkpt>
      <trkpt lat="45.55304" lon="4.49118">
        <ele>851.86547851562</ele>
        <time>2010-09-26T13:27:38Z</time>
      </trkpt>
      <trkpt lat="45.55323" lon="4.49083">
        <ele>851.86547851562</ele>
        <time>2010-09-26T13:27:46Z</time>
      </trkpt>
      <trkpt lat="45.5535" lon="4.49051">
        <ele>852.34594726562</ele>
        <time>2010-09-26T13:27:55Z</time>
      </trkpt>
      <trkpt lat="45.55382" lon="4.49021">
        <ele>852.34594726562</ele>
        <time>2010-09-26T13:28:05Z</time>
      </trkpt>
      <trkpt lat="45.55411" lon="4.48996">
        <ele>852.34594726562</ele>
        <time>2010-09-26T13:28:14Z</time>
      </trkpt>
      <trkpt lat="45.5544" lon="4.48988">
        <ele>853.7880859375</ele>
        <time>2010-09-26T13:28:22Z</time>
      </trkpt>
      <trkpt lat="45.55471" lon="4.48995">
        <ele>854.26879882812</ele>
        <time>2010-09-26T13:28:31Z</time>
      </trkpt>
      <trkpt lat="45.55496" lon="4.49009">
        <ele>855.71069335938</ele>
        <time>2010-09-26T13:28:39Z</time>
      </trkpt>
      <trkpt lat="45.55521" lon="4.49028">
        <ele>856.671875</ele>
        <time>2010-09-26T13:28:47Z</time>
      </trkpt>
      <trkpt lat="45.55553" lon="4.49062">
        <ele>857.15258789062</ele>
        <time>2010-09-26T13:28:58Z</time>
      </trkpt>
      <trkpt lat="45.55577" lon="4.49094">
        <ele>858.11401367188</ele>
        <time>2010-09-26T13:29:07Z</time>
      </trkpt>
      <trkpt lat="45.556" lon="4.49137">
        <ele>857.15258789062</ele>
        <time>2010-09-26T13:29:16Z</time>
      </trkpt>
      <trkpt lat="45.55627" lon="4.49189">
        <ele>856.671875</ele>
        <time>2010-09-26T13:29:25Z</time>
      </trkpt>
      <trkpt lat="45.55655" lon="4.49243">
        <ele>856.671875</ele>
        <time>2010-09-26T13:29:34Z</time>
      </trkpt>
      <trkpt lat="45.55679" lon="4.49285">
        <ele>859.0751953125</ele>
        <time>2010-09-26T13:29:42Z</time>
      </trkpt>
      <trkpt lat="45.55704" lon="4.49322">
        <ele>857.15258789062</ele>
        <time>2010-09-26T13:29:50Z</time>
      </trkpt>
      <trkpt lat="45.55726" lon="4.49353">
        <ele>856.19116210938</ele>
        <time>2010-09-26T13:29:57Z</time>
      </trkpt>
      <trkpt lat="45.55754" lon="4.49404">
        <ele>854.74926757812</ele>
        <time>2010-09-26T13:30:06Z</time>
      </trkpt>
      <trkpt lat="45.5578" lon="4.4945">
        <ele>853.7880859375</ele>
        <time>2010-09-26T13:30:13Z</time>
      </trkpt>
      <trkpt lat="45.55795" lon="4.49469">
        <ele>853.7880859375</ele>
        <time>2010-09-26T13:30:17Z</time>
      </trkpt>
      <trkpt lat="45.55828" lon="4.49482">
        <ele>853.30737304688</ele>
        <time>2010-09-26T13:30:24Z</time>
      </trkpt>
      <trkpt lat="45.55867" lon="4.49482">
        <ele>853.7880859375</ele>
        <time>2010-09-26T13:30:32Z</time>
      </trkpt>
      <trkpt lat="45.55907" lon="4.49477">
        <ele>853.7880859375</ele>
        <time>2010-09-26T13:30:41Z</time>
      </trkpt>
      <trkpt lat="45.55947" lon="4.49474">
        <ele>853.30737304688</ele>
        <time>2010-09-26T13:30:50Z</time>
      </trkpt>
      <trkpt lat="45.55991" lon="4.49476">
        <ele>853.30737304688</ele>
        <time>2010-09-26T13:31:00Z</time>
      </trkpt>
      <trkpt lat="45.56005" lon="4.49477">
        <ele>851.86547851562</ele>
        <time>2010-09-26T13:31:03Z</time>
      </trkpt>
      <trkpt lat="45.56052" lon="4.49484">
        <ele>850.90405273438</ele>
        <time>2010-09-26T13:31:12Z</time>
      </trkpt>
      <trkpt lat="45.56098" lon="4.49503">
        <ele>848.50073242188</ele>
        <time>2010-09-26T13:31:20Z</time>
      </trkpt>
      <trkpt lat="45.56139" lon="4.49533">
        <ele>846.57836914062</ele>
        <time>2010-09-26T13:31:27Z</time>
      </trkpt>
      <trkpt lat="45.56157" lon="4.49547">
        <ele>845.13623046875</ele>
        <time>2010-09-26T13:31:30Z</time>
      </trkpt>
      <trkpt lat="45.56203" lon="4.49585">
        <ele>842.25219726562</ele>
        <time>2010-09-26T13:31:38Z</time>
      </trkpt>
      <trkpt lat="45.56225" lon="4.49602">
        <ele>844.17504882812</ele>
        <time>2010-09-26T13:31:42Z</time>
      </trkpt>
      <trkpt lat="45.56264" lon="4.49634">
        <ele>844.65551757812</ele>
        <time>2010-09-26T13:31:50Z</time>
      </trkpt>
      <trkpt lat="45.56307" lon="4.49668">
        <ele>845.61694335938</ele>
        <time>2010-09-26T13:32:00Z</time>
      </trkpt>
      <trkpt lat="45.56341" lon="4.49694">
        <ele>846.57836914062</ele>
        <time>2010-09-26T13:32:09Z</time>
      </trkpt>
      <trkpt lat="45.5637" lon="4.49716">
        <ele>846.09765625</ele>
        <time>2010-09-26T13:32:17Z</time>
      </trkpt>
      <trkpt lat="45.56397" lon="4.49737">
        <ele>846.57836914062</ele>
        <time>2010-09-26T13:32:24Z</time>
      </trkpt>
      <trkpt lat="45.5643" lon="4.4977">
        <ele>847.53955078125</ele>
        <time>2010-09-26T13:32:32Z</time>
      </trkpt>
      <trkpt lat="45.56472" lon="4.49814">
        <ele>846.57836914062</ele>
        <time>2010-09-26T13:32:42Z</time>
      </trkpt>
      <trkpt lat="45.56503" lon="4.49835">
        <ele>846.09765625</ele>
        <time>2010-09-26T13:32:49Z</time>
      </trkpt>
      <trkpt lat="45.56539" lon="4.49862">
        <ele>845.61694335938</ele>
        <time>2010-09-26T13:32:57Z</time>
      </trkpt>
      <trkpt lat="45.56568" lon="4.49886">
        <ele>844.17504882812</ele>
        <time>2010-09-26T13:33:03Z</time>
      </trkpt>
      <trkpt lat="45.56604" lon="4.49917">
        <ele>842.25219726562</ele>
        <time>2010-09-26T13:33:10Z</time>
      </trkpt>
      <trkpt lat="45.56645" lon="4.49945">
        <ele>841.29077148438</ele>
        <time>2010-09-26T13:33:17Z</time>
      </trkpt>
      <trkpt lat="45.56657" lon="4.49955">
        <ele>840.32958984375</ele>
        <time>2010-09-26T13:33:19Z</time>
      </trkpt>
      <trkpt lat="45.56697" lon="4.49998">
        <ele>839.84887695312</ele>
        <time>2010-09-26T13:33:27Z</time>
      </trkpt>
      <trkpt lat="45.56701" lon="4.50002">
        <ele>839.84887695312</ele>
        <time>2010-09-26T13:33:28Z</time>
      </trkpt>
      <trkpt lat="45.56733" lon="4.50037">
        <ele>839.3681640625</ele>
        <time>2010-09-26T13:33:36Z</time>
      </trkpt>
      <trkpt lat="45.56762" lon="4.50067">
        <ele>838.40698242188</ele>
        <time>2010-09-26T13:33:44Z</time>
      </trkpt>
      <trkpt lat="45.56766" lon="4.50071">
        <ele>838.40698242188</ele>
        <time>2010-09-26T13:33:45Z</time>
      </trkpt>
      <trkpt lat="45.56789" lon="4.50093">
        <ele>838.8876953125</ele>
        <time>2010-09-26T13:33:52Z</time>
      </trkpt>
      <trkpt lat="45.5681" lon="4.50115">
        <ele>839.84887695312</ele>
        <time>2010-09-26T13:34:00Z</time>
      </trkpt>
      <trkpt lat="45.56831" lon="4.50135">
        <ele>841.29077148438</ele>
        <time>2010-09-26T13:34:08Z</time>
      </trkpt>
      <trkpt lat="45.56851" lon="4.50153">
        <ele>842.25219726562</ele>
        <time>2010-09-26T13:34:16Z</time>
      </trkpt>
      <trkpt lat="45.5687" lon="4.50166">
        <ele>843.69409179688</ele>
        <time>2010-09-26T13:34:23Z</time>
      </trkpt>
      <trkpt lat="45.56889" lon="4.50171">
        <ele>844.17504882812</ele>
        <time>2010-09-26T13:34:30Z</time>
      </trkpt>
      <trkpt lat="45.56912" lon="4.50169">
        <ele>844.65551757812</ele>
        <time>2010-09-26T13:34:38Z</time>
      </trkpt>
      <trkpt lat="45.56934" lon="4.50174">
        <ele>845.61694335938</ele>
        <time>2010-09-26T13:34:46Z</time>
      </trkpt>
      <trkpt lat="45.56954" lon="4.50186">
        <ele>847.05883789062</ele>
        <time>2010-09-26T13:34:54Z</time>
      </trkpt>
      <trkpt lat="45.56972" lon="4.50205">
        <ele>847.53955078125</ele>
        <time>2010-09-26T13:35:02Z</time>
      </trkpt>
      <trkpt lat="45.56984" lon="4.50228">
        <ele>849.46215820312</ele>
        <time>2010-09-26T13:35:10Z</time>
      </trkpt>
      <trkpt lat="45.56998" lon="4.50253">
        <ele>850.90405273438</ele>
        <time>2010-09-26T13:35:20Z</time>
      </trkpt>
      <trkpt lat="45.57016" lon="4.50265">
        <ele>851.86547851562</ele>
        <time>2010-09-26T13:35:28Z</time>
      </trkpt>
      <trkpt lat="45.57033" lon="4.50265">
        <ele>851.86547851562</ele>
        <time>2010-09-26T13:35:35Z</time>
      </trkpt>
      <trkpt lat="45.57053" lon="4.50255">
        <ele>852.82666015625</ele>
        <time>2010-09-26T13:35:43Z</time>
      </trkpt>
      <trkpt lat="45.57084" lon="4.50237">
        <ele>854.26879882812</ele>
        <time>2010-09-26T13:35:54Z</time>
      </trkpt>
      <trkpt lat="45.57104" lon="4.50221">
        <ele>855.71069335938</ele>
        <time>2010-09-26T13:36:02Z</time>
      </trkpt>
      <trkpt lat="45.57129" lon="4.50201">
        <ele>856.19116210938</ele>
        <time>2010-09-26T13:36:12Z</time>
      </trkpt>
      <trkpt lat="45.57154" lon="4.50183">
        <ele>857.63330078125</ele>
        <time>2010-09-26T13:36:22Z</time>
      </trkpt>
      <trkpt lat="45.57175" lon="4.50176">
        <ele>858.59448242188</ele>
        <time>2010-09-26T13:36:30Z</time>
      </trkpt>
      <trkpt lat="45.57203" lon="4.50178">
        <ele>860.03662109375</ele>
        <time>2010-09-26T13:36:41Z</time>
      </trkpt>
      <trkpt lat="45.57211" lon="4.5018">
        <ele>860.998046875</ele>
        <time>2010-09-26T13:36:44Z</time>
      </trkpt>
      <trkpt lat="45.57238" lon="4.50188">
        <ele>861.95947265625</ele>
        <time>2010-09-26T13:36:55Z</time>
      </trkpt>
      <trkpt lat="45.57264" lon="4.50196">
        <ele>863.8818359375</ele>
        <time>2010-09-26T13:37:05Z</time>
      </trkpt>
      <trkpt lat="45.57292" lon="4.50206">
        <ele>864.36254882812</ele>
        <time>2010-09-26T13:37:15Z</time>
      </trkpt>
      <trkpt lat="45.57324" lon="4.50215">
        <ele>865.32397460938</ele>
        <time>2010-09-26T13:37:26Z</time>
      </trkpt>
      <trkpt lat="45.57346" lon="4.50221">
        <ele>866.28515625</ele>
        <time>2010-09-26T13:37:34Z</time>
      </trkpt>
      <trkpt lat="45.57363" lon="4.50226">
        <ele>867.24658203125</ele>
        <time>2010-09-26T13:37:40Z</time>
      </trkpt>
      <trkpt lat="45.57381" lon="4.5023">
        <ele>867.72705078125</ele>
        <time>2010-09-26T13:37:46Z</time>
      </trkpt>
      <trkpt lat="45.57409" lon="4.5024">
        <ele>870.61108398438</ele>
        <time>2010-09-26T13:37:55Z</time>
      </trkpt>
      <trkpt lat="45.57437" lon="4.50248">
        <ele>871.572265625</ele>
        <time>2010-09-26T13:38:04Z</time>
      </trkpt>
      <trkpt lat="45.5747" lon="4.50258">
        <ele>872.53369140625</ele>
        <time>2010-09-26T13:38:15Z</time>
      </trkpt>
      <trkpt lat="45.57507" lon="4.5027">
        <ele>874.93701171875</ele>
        <time>2010-09-26T13:38:27Z</time>
      </trkpt>
      <trkpt lat="45.57531" lon="4.50287">
        <ele>876.37915039062</ele>
        <time>2010-09-26T13:38:35Z</time>
      </trkpt>
      <trkpt lat="45.57551" lon="4.50314">
        <ele>878.3017578125</ele>
        <time>2010-09-26T13:38:43Z</time>
      </trkpt>
      <trkpt lat="45.57553" lon="4.50318">
        <ele>878.78247070312</ele>
        <time>2010-09-26T13:38:44Z</time>
      </trkpt>
      <trkpt lat="45.57575" lon="4.50351">
        <ele>879.74365234375</ele>
        <time>2010-09-26T13:38:53Z</time>
      </trkpt>
      <trkpt lat="45.57594" lon="4.50382">
        <ele>880.22436523438</ele>
        <time>2010-09-26T13:39:01Z</time>
      </trkpt>
      <trkpt lat="45.57614" lon="4.50412">
        <ele>881.66625976562</ele>
        <time>2010-09-26T13:39:09Z</time>
      </trkpt>
      <trkpt lat="45.57634" lon="4.50444">
        <ele>882.62768554688</ele>
        <time>2010-09-26T13:39:17Z</time>
      </trkpt>
      <trkpt lat="45.57654" lon="4.50475">
        <ele>882.62768554688</ele>
        <time>2010-09-26T13:39:25Z</time>
      </trkpt>
      <trkpt lat="45.57682" lon="4.50512">
        <ele>883.5888671875</ele>
        <time>2010-09-26T13:39:35Z</time>
      </trkpt>
      <trkpt lat="45.5771" lon="4.50536">
        <ele>883.5888671875</ele>
        <time>2010-09-26T13:39:44Z</time>
      </trkpt>
      <trkpt lat="45.57732" lon="4.50544">
        <ele>884.06958007812</ele>
        <time>2010-09-26T13:39:51Z</time>
      </trkpt>
      <trkpt lat="45.5776" lon="4.50554">
        <ele>886.47290039062</ele>
        <time>2010-09-26T13:40:01Z</time>
      </trkpt>
      <trkpt lat="45.57782" lon="4.50561">
        <ele>887.43408203125</ele>
        <time>2010-09-26T13:40:09Z</time>
      </trkpt>
      <trkpt lat="45.57809" lon="4.50571">
        <ele>889.83740234375</ele>
        <time>2010-09-26T13:40:19Z</time>
      </trkpt>
      <trkpt lat="45.57829" lon="4.50578">
        <ele>890.31811523438</ele>
        <time>2010-09-26T13:40:26Z</time>
      </trkpt>
      <trkpt lat="45.57856" lon="4.50587">
        <ele>891.279296875</ele>
        <time>2010-09-26T13:40:36Z</time>
      </trkpt>
      <trkpt lat="45.57887" lon="4.50597">
        <ele>893.2021484375</ele>
        <time>2010-09-26T13:40:47Z</time>
      </trkpt>
      <trkpt lat="45.5791" lon="4.50603">
        <ele>894.64404296875</ele>
        <time>2010-09-26T13:40:55Z</time>
      </trkpt>
      <trkpt lat="45.57933" lon="4.50604">
        <ele>896.08618164062</ele>
        <time>2010-09-26T13:41:03Z</time>
      </trkpt>
      <trkpt lat="45.57943" lon="4.50596">
        <ele>896.08618164062</ele>
        <time>2010-09-26T13:41:08Z</time>
      </trkpt>
      <trkpt lat="45.57945" lon="4.50593">
        <ele>896.08618164062</ele>
        <time>2010-09-26T13:41:12Z</time>
      </trkpt>
      <trkpt lat="45.57945" lon="4.50589">
        <ele>896.08618164062</ele>
        <time>2010-09-26T13:41:18Z</time>
      </trkpt>
      <trkpt lat="45.57943" lon="4.50588">
        <ele>895.12475585938</ele>
        <time>2010-09-26T13:42:04Z</time>
      </trkpt>
      <trkpt lat="45.57942" lon="4.5059">
        <ele>896.08618164062</ele>
        <time>2010-09-26T13:42:07Z</time>
      </trkpt>
      <trkpt lat="45.57939" lon="4.50594">
        <ele>895.60546875</ele>
        <time>2010-09-26T13:42:10Z</time>
      </trkpt>
      <trkpt lat="45.57938" lon="4.506">
        <ele>894.64404296875</ele>
        <time>2010-09-26T13:42:14Z</time>
      </trkpt>
      <trkpt lat="45.57948" lon="4.5061">
        <ele>895.12475585938</ele>
        <time>2010-09-26T13:42:19Z</time>
      </trkpt>
      <trkpt lat="45.57975" lon="4.50618">
        <ele>894.64404296875</ele>
        <time>2010-09-26T13:42:26Z</time>
      </trkpt>
      <trkpt lat="45.58004" lon="4.50628">
        <ele>892.24096679688</ele>
        <time>2010-09-26T13:42:32Z</time>
      </trkpt>
      <trkpt lat="45.58035" lon="4.50644">
        <ele>890.31811523438</ele>
        <time>2010-09-26T13:42:37Z</time>
      </trkpt>
      <trkpt lat="45.58041" lon="4.50648">
        <ele>889.83740234375</ele>
        <time>2010-09-26T13:42:38Z</time>
      </trkpt>
      <trkpt lat="45.58088" lon="4.50684">
        <ele>886.95336914062</ele>
        <time>2010-09-26T13:42:45Z</time>
      </trkpt>
      <trkpt lat="45.58133" lon="4.5072">
        <ele>886.47290039062</ele>
        <time>2010-09-26T13:42:52Z</time>
      </trkpt>
      <trkpt lat="45.58164" lon="4.50744">
        <ele>887.43408203125</ele>
        <time>2010-09-26T13:42:58Z</time>
      </trkpt>
      <trkpt lat="45.58188" lon="4.50765">
        <ele>888.3955078125</ele>
        <time>2010-09-26T13:43:04Z</time>
      </trkpt>
      <trkpt lat="45.58191" lon="4.50769">
        <ele>887.91479492188</ele>
        <time>2010-09-26T13:43:05Z</time>
      </trkpt>
      <trkpt lat="45.58219" lon="4.50799">
        <ele>889.35668945312</ele>
        <time>2010-09-26T13:43:13Z</time>
      </trkpt>
      <trkpt lat="45.58249" lon="4.50834">
        <ele>890.31811523438</ele>
        <time>2010-09-26T13:43:22Z</time>
      </trkpt>
      <trkpt lat="45.58274" lon="4.50866">
        <ele>892.7216796875</ele>
        <time>2010-09-26T13:43:30Z</time>
      </trkpt>
      <trkpt lat="45.583" lon="4.50892">
        <ele>892.7216796875</ele>
        <time>2010-09-26T13:43:38Z</time>
      </trkpt>
      <trkpt lat="45.5834" lon="4.50926">
        <ele>893.68286132812</ele>
        <time>2010-09-26T13:43:50Z</time>
      </trkpt>
      <trkpt lat="45.58369" lon="4.50948">
        <ele>895.12475585938</ele>
        <time>2010-09-26T13:43:59Z</time>
      </trkpt>
      <trkpt lat="45.58392" lon="4.50963">
        <ele>896.08618164062</ele>
        <time>2010-09-26T13:44:06Z</time>
      </trkpt>
      <trkpt lat="45.5842" lon="4.50978">
        <ele>896.56689453125</ele>
        <time>2010-09-26T13:44:14Z</time>
      </trkpt>
      <trkpt lat="45.58461" lon="4.50998">
        <ele>896.56689453125</ele>
        <time>2010-09-26T13:44:24Z</time>
      </trkpt>
      <trkpt lat="45.58469" lon="4.51002">
        <ele>896.56689453125</ele>
        <time>2010-09-26T13:44:26Z</time>
      </trkpt>
      <trkpt lat="45.58505" lon="4.51019">
        <ele>895.60546875</ele>
        <time>2010-09-26T13:44:35Z</time>
      </trkpt>
      <trkpt lat="45.58524" lon="4.51029">
        <ele>896.08618164062</ele>
        <time>2010-09-26T13:44:40Z</time>
      </trkpt>
      <trkpt lat="45.58558" lon="4.51034">
        <ele>895.60546875</ele>
        <time>2010-09-26T13:44:48Z</time>
      </trkpt>
      <trkpt lat="45.58598" lon="4.51024">
        <ele>895.60546875</ele>
        <time>2010-09-26T13:44:57Z</time>
      </trkpt>
      <trkpt lat="45.58624" lon="4.51004">
        <ele>895.12475585938</ele>
        <time>2010-09-26T13:45:04Z</time>
      </trkpt>
      <trkpt lat="45.58656" lon="4.50968">
        <ele>893.68286132812</ele>
        <time>2010-09-26T13:45:13Z</time>
      </trkpt>
      <trkpt lat="45.58678" lon="4.50932">
        <ele>893.2021484375</ele>
        <time>2010-09-26T13:45:20Z</time>
      </trkpt>
      <trkpt lat="45.58718" lon="4.50869">
        <ele>892.7216796875</ele>
        <time>2010-09-26T13:45:32Z</time>
      </trkpt>
      <trkpt lat="45.58722" lon="4.50865">
        <ele>893.68286132812</ele>
        <time>2010-09-26T13:45:33Z</time>
      </trkpt>
      <trkpt lat="45.58742" lon="4.50853">
        <ele>893.68286132812</ele>
        <time>2010-09-26T13:45:38Z</time>
      </trkpt>
      <trkpt lat="45.58759" lon="4.5086">
        <ele>895.12475585938</ele>
        <time>2010-09-26T13:45:43Z</time>
      </trkpt>
      <trkpt lat="45.58785" lon="4.50885">
        <ele>895.12475585938</ele>
        <time>2010-09-26T13:45:52Z</time>
      </trkpt>
      <trkpt lat="45.58815" lon="4.50919">
        <ele>896.56689453125</ele>
        <time>2010-09-26T13:46:02Z</time>
      </trkpt>
      <trkpt lat="45.58839" lon="4.50951">
        <ele>896.56689453125</ele>
        <time>2010-09-26T13:46:10Z</time>
      </trkpt>
      <trkpt lat="45.58862" lon="4.50984">
        <ele>896.56689453125</ele>
        <time>2010-09-26T13:46:18Z</time>
      </trkpt>
      <trkpt lat="45.58883" lon="4.51015">
        <ele>895.12475585938</ele>
        <time>2010-09-26T13:46:25Z</time>
      </trkpt>
      <trkpt lat="45.58906" lon="4.5105">
        <ele>894.64404296875</ele>
        <time>2010-09-26T13:46:31Z</time>
      </trkpt>
      <trkpt lat="45.58942" lon="4.51096">
        <ele>893.68286132812</ele>
        <time>2010-09-26T13:46:39Z</time>
      </trkpt>
      <trkpt lat="45.58986" lon="4.51138">
        <ele>890.79858398438</ele>
        <time>2010-09-26T13:46:47Z</time>
      </trkpt>
      <trkpt lat="45.58991" lon="4.51144">
        <ele>890.31811523438</ele>
        <time>2010-09-26T13:46:48Z</time>
      </trkpt>
      <trkpt lat="45.58997" lon="4.5115">
        <ele>890.31811523438</ele>
        <time>2010-09-26T13:46:49Z</time>
      </trkpt>
      <trkpt lat="45.59015" lon="4.51192">
        <ele>889.35668945312</ele>
        <time>2010-09-26T13:46:54Z</time>
      </trkpt>
      <trkpt lat="45.59017" lon="4.51229">
        <ele>889.35668945312</ele>
        <time>2010-09-26T13:46:58Z</time>
      </trkpt>
      <trkpt lat="45.59009" lon="4.51312">
        <ele>887.91479492188</ele>
        <time>2010-09-26T13:47:07Z</time>
      </trkpt>
      <trkpt lat="45.59002" lon="4.51375">
        <ele>885.9921875</ele>
        <time>2010-09-26T13:47:13Z</time>
      </trkpt>
      <trkpt lat="45.58998" lon="4.51422">
        <ele>884.55029296875</ele>
        <time>2010-09-26T13:47:17Z</time>
      </trkpt>
      <trkpt lat="45.59005" lon="4.51481">
        <ele>884.06958007812</ele>
        <time>2010-09-26T13:47:22Z</time>
      </trkpt>
      <trkpt lat="45.59013" lon="4.51501">
        <ele>883.5888671875</ele>
        <time>2010-09-26T13:47:24Z</time>
      </trkpt>
      <trkpt lat="45.59055" lon="4.51572">
        <ele>882.14697265625</ele>
        <time>2010-09-26T13:47:32Z</time>
      </trkpt>
      <trkpt lat="45.59099" lon="4.51632">
        <ele>880.705078125</ele>
        <time>2010-09-26T13:47:40Z</time>
      </trkpt>
      <trkpt lat="45.59133" lon="4.51689">
        <ele>879.26293945312</ele>
        <time>2010-09-26T13:47:47Z</time>
      </trkpt>
      <trkpt lat="45.59153" lon="4.51721">
        <ele>879.26293945312</ele>
        <time>2010-09-26T13:47:51Z</time>
      </trkpt>
      <trkpt lat="45.59192" lon="4.5178">
        <ele>878.78247070312</ele>
        <time>2010-09-26T13:47:59Z</time>
      </trkpt>
      <trkpt lat="45.59227" lon="4.51834">
        <ele>879.26293945312</ele>
        <time>2010-09-26T13:48:07Z</time>
      </trkpt>
      <trkpt lat="45.59255" lon="4.51874">
        <ele>879.26293945312</ele>
        <time>2010-09-26T13:48:14Z</time>
      </trkpt>
      <trkpt lat="45.59281" lon="4.51897">
        <ele>880.22436523438</ele>
        <time>2010-09-26T13:48:20Z</time>
      </trkpt>
      <trkpt lat="45.5929" lon="4.51902">
        <ele>880.705078125</ele>
        <time>2010-09-26T13:48:22Z</time>
      </trkpt>
      <trkpt lat="45.59324" lon="4.5191">
        <ele>880.705078125</ele>
        <time>2010-09-26T13:48:30Z</time>
      </trkpt>
      <trkpt lat="45.59351" lon="4.51915">
        <ele>881.18579101562</ele>
        <time>2010-09-26T13:48:37Z</time>
      </trkpt>
      <trkpt lat="45.59363" lon="4.51915">
        <ele>881.18579101562</ele>
        <time>2010-09-26T13:48:40Z</time>
      </trkpt>
      <trkpt lat="45.59409" lon="4.51907">
        <ele>882.14697265625</ele>
        <time>2010-09-26T13:48:51Z</time>
      </trkpt>
      <trkpt lat="45.59439" lon="4.51892">
        <ele>883.10815429688</ele>
        <time>2010-09-26T13:48:59Z</time>
      </trkpt>
      <trkpt lat="45.59483" lon="4.51868">
        <ele>881.66625976562</ele>
        <time>2010-09-26T13:49:10Z</time>
      </trkpt>
      <trkpt lat="45.59491" lon="4.51863">
        <ele>881.18579101562</ele>
        <time>2010-09-26T13:49:12Z</time>
      </trkpt>
      <trkpt lat="45.59501" lon="4.51859">
        <ele>880.705078125</ele>
        <time>2010-09-26T13:49:14Z</time>
      </trkpt>
      <trkpt lat="45.59543" lon="4.5185">
        <ele>877.82104492188</ele>
        <time>2010-09-26T13:49:22Z</time>
      </trkpt>
      <trkpt lat="45.59577" lon="4.51841">
        <ele>876.37915039062</ele>
        <time>2010-09-26T13:49:28Z</time>
      </trkpt>
      <trkpt lat="45.59613" lon="4.51827">
        <ele>873.4951171875</ele>
        <time>2010-09-26T13:49:34Z</time>
      </trkpt>
      <trkpt lat="45.59664" lon="4.51805">
        <ele>871.091796875</ele>
        <time>2010-09-26T13:49:42Z</time>
      </trkpt>
      <trkpt lat="45.59701" lon="4.518">
        <ele>868.6884765625</ele>
        <time>2010-09-26T13:49:47Z</time>
      </trkpt>
      <trkpt lat="45.59738" lon="4.51814">
        <ele>866.28515625</ele>
        <time>2010-09-26T13:49:52Z</time>
      </trkpt>
      <trkpt lat="45.59761" lon="4.51825">
        <ele>865.32397460938</ele>
        <time>2010-09-26T13:49:55Z</time>
      </trkpt>
      <trkpt lat="45.59776" lon="4.51835">
        <ele>863.8818359375</ele>
        <time>2010-09-26T13:49:57Z</time>
      </trkpt>
      <trkpt lat="45.59813" lon="4.5187">
        <ele>861.47875976562</ele>
        <time>2010-09-26T13:50:02Z</time>
      </trkpt>
      <trkpt lat="45.5982" lon="4.51878">
        <ele>861.47875976562</ele>
        <time>2010-09-26T13:50:03Z</time>
      </trkpt>
      <trkpt lat="45.59866" lon="4.51922">
        <ele>859.0751953125</ele>
        <time>2010-09-26T13:50:09Z</time>
      </trkpt>
      <trkpt lat="45.59891" lon="4.51939">
        <ele>856.671875</ele>
        <time>2010-09-26T13:50:12Z</time>
      </trkpt>
      <trkpt lat="45.59908" lon="4.51947">
        <ele>855.71069335938</ele>
        <time>2010-09-26T13:50:14Z</time>
      </trkpt>
      <trkpt lat="45.59936" lon="4.51957">
        <ele>853.7880859375</ele>
        <time>2010-09-26T13:50:17Z</time>
      </trkpt>
      <trkpt lat="45.59972" lon="4.51973">
        <ele>850.90405273438</ele>
        <time>2010-09-26T13:50:21Z</time>
      </trkpt>
      <trkpt lat="45.60003" lon="4.52001">
        <ele>848.50073242188</ele>
        <time>2010-09-26T13:50:25Z</time>
      </trkpt>
      <trkpt lat="45.60025" lon="4.52025">
        <ele>847.05883789062</ele>
        <time>2010-09-26T13:50:28Z</time>
      </trkpt>
      <trkpt lat="45.60079" lon="4.52079">
        <ele>843.69409179688</ele>
        <time>2010-09-26T13:50:35Z</time>
      </trkpt>
      <trkpt lat="45.60127" lon="4.52097">
        <ele>841.29077148438</ele>
        <time>2010-09-26T13:50:40Z</time>
      </trkpt>
      <trkpt lat="45.60147" lon="4.52101">
        <ele>840.32958984375</ele>
        <time>2010-09-26T13:50:42Z</time>
      </trkpt>
      <trkpt lat="45.60193" lon="4.52108">
        <ele>837.92626953125</ele>
        <time>2010-09-26T13:50:47Z</time>
      </trkpt>
      <trkpt lat="45.60224" lon="4.5213">
        <ele>834.56176757812</ele>
        <time>2010-09-26T13:50:51Z</time>
      </trkpt>
      <trkpt lat="45.60253" lon="4.52163">
        <ele>833.11962890625</ele>
        <time>2010-09-26T13:50:55Z</time>
      </trkpt>
      <trkpt lat="45.60282" lon="4.52233">
        <ele>828.7939453125</ele>
        <time>2010-09-26T13:51:01Z</time>
      </trkpt>
      <trkpt lat="45.60304" lon="4.52246">
        <ele>826.39038085938</ele>
        <time>2010-09-26T13:51:04Z</time>
      </trkpt>
      <trkpt lat="45.60322" lon="4.52237">
        <ele>824.4677734375</ele>
        <time>2010-09-26T13:51:07Z</time>
      </trkpt>
      <trkpt lat="45.60335" lon="4.52248">
        <ele>823.50659179688</ele>
        <time>2010-09-26T13:51:09Z</time>
      </trkpt>
      <trkpt lat="45.60341" lon="4.52268">
        <ele>823.02587890625</ele>
        <time>2010-09-26T13:51:11Z</time>
      </trkpt>
      <trkpt lat="45.60355" lon="4.52288">
        <ele>822.064453125</ele>
        <time>2010-09-26T13:51:14Z</time>
      </trkpt>
      <trkpt lat="45.60366" lon="4.52318">
        <ele>823.02587890625</ele>
        <time>2010-09-26T13:51:18Z</time>
      </trkpt>
      <trkpt lat="45.60373" lon="4.5233">
        <ele>823.50659179688</ele>
        <time>2010-09-26T13:51:20Z</time>
      </trkpt>
      <trkpt lat="45.60378" lon="4.52341">
        <ele>823.02587890625</ele>
        <time>2010-09-26T13:51:22Z</time>
      </trkpt>
      <trkpt lat="45.60386" lon="4.52362">
        <ele>823.50659179688</ele>
        <time>2010-09-26T13:51:26Z</time>
      </trkpt>
      <trkpt lat="45.60395" lon="4.52398">
        <ele>823.02587890625</ele>
        <time>2010-09-26T13:51:33Z</time>
      </trkpt>
      <trkpt lat="45.604" lon="4.52415">
        <ele>823.50659179688</ele>
        <time>2010-09-26T13:51:36Z</time>
      </trkpt>
      <trkpt lat="45.60405" lon="4.52441">
        <ele>823.50659179688</ele>
        <time>2010-09-26T13:51:40Z</time>
      </trkpt>
      <trkpt lat="45.60407" lon="4.52504">
        <ele>823.02587890625</ele>
        <time>2010-09-26T13:51:49Z</time>
      </trkpt>
      <trkpt lat="45.60415" lon="4.52575">
        <ele>822.064453125</ele>
        <time>2010-09-26T13:51:59Z</time>
      </trkpt>
      <trkpt lat="45.60429" lon="4.52635">
        <ele>821.10327148438</ele>
        <time>2010-09-26T13:52:07Z</time>
      </trkpt>
      <trkpt lat="45.60443" lon="4.52696">
        <ele>822.064453125</ele>
        <time>2010-09-26T13:52:16Z</time>
      </trkpt>
      <trkpt lat="45.60447" lon="4.52708">
        <ele>822.064453125</ele>
        <time>2010-09-26T13:52:18Z</time>
      </trkpt>
      <trkpt lat="45.60458" lon="4.5275">
        <ele>823.02587890625</ele>
        <time>2010-09-26T13:52:26Z</time>
      </trkpt>
      <trkpt lat="45.60466" lon="4.52771">
        <ele>823.50659179688</ele>
        <time>2010-09-26T13:52:31Z</time>
      </trkpt>
      <trkpt lat="45.60473" lon="4.52788">
        <ele>824.94848632812</ele>
        <time>2010-09-26T13:52:37Z</time>
      </trkpt>
      <trkpt lat="45.60478" lon="4.52809">
        <ele>825.90966796875</ele>
        <time>2010-09-26T13:52:44Z</time>
      </trkpt>
      <trkpt lat="45.60486" lon="4.52834">
        <ele>827.83227539062</ele>
        <time>2010-09-26T13:52:52Z</time>
      </trkpt>
      <trkpt lat="45.60493" lon="4.52855">
        <ele>829.2744140625</ele>
        <time>2010-09-26T13:52:59Z</time>
      </trkpt>
      <trkpt lat="45.60504" lon="4.52877">
        <ele>830.71655273438</ele>
        <time>2010-09-26T13:53:07Z</time>
      </trkpt>
      <trkpt lat="45.60515" lon="4.52903">
        <ele>830.71655273438</ele>
        <time>2010-09-26T13:53:16Z</time>
      </trkpt>
      <trkpt lat="45.60527" lon="4.52936">
        <ele>832.15844726562</ele>
        <time>2010-09-26T13:53:26Z</time>
      </trkpt>
      <trkpt lat="45.60538" lon="4.52962">
        <ele>832.63916015625</ele>
        <time>2010-09-26T13:53:35Z</time>
      </trkpt>
      <trkpt lat="45.60547" lon="4.52984">
        <ele>835.52294921875</ele>
        <time>2010-09-26T13:53:44Z</time>
      </trkpt>
      <trkpt lat="45.60556" lon="4.53005">
        <ele>838.40698242188</ele>
        <time>2010-09-26T13:53:52Z</time>
      </trkpt>
      <trkpt lat="45.60558" lon="4.53008">
        <ele>838.40698242188</ele>
        <time>2010-09-26T13:53:53Z</time>
      </trkpt>
      <trkpt lat="45.60563" lon="4.5302">
        <ele>837.92626953125</ele>
        <time>2010-09-26T13:53:58Z</time>
      </trkpt>
      <trkpt lat="45.60572" lon="4.53042">
        <ele>840.81005859375</ele>
        <time>2010-09-26T13:54:07Z</time>
      </trkpt>
      <trkpt lat="45.60582" lon="4.53059">
        <ele>842.25219726562</ele>
        <time>2010-09-26T13:54:15Z</time>
      </trkpt>
      <trkpt lat="45.60596" lon="4.53071">
        <ele>844.17504882812</ele>
        <time>2010-09-26T13:54:23Z</time>
      </trkpt>
      <trkpt lat="45.606" lon="4.53074">
        <ele>845.13623046875</ele>
        <time>2010-09-26T13:54:25Z</time>
      </trkpt>
      <trkpt lat="45.60613" lon="4.53084">
        <ele>846.09765625</ele>
        <time>2010-09-26T13:54:32Z</time>
      </trkpt>
      <trkpt lat="45.60632" lon="4.53095">
        <ele>847.05883789062</ele>
        <time>2010-09-26T13:54:41Z</time>
      </trkpt>
      <trkpt lat="45.6065" lon="4.53117">
        <ele>847.05883789062</ele>
        <time>2010-09-26T13:54:50Z</time>
      </trkpt>
      <trkpt lat="45.6066" lon="4.53141">
        <ele>846.09765625</ele>
        <time>2010-09-26T13:54:56Z</time>
      </trkpt>
      <trkpt lat="45.60674" lon="4.53183">
        <ele>846.09765625</ele>
        <time>2010-09-26T13:55:05Z</time>
      </trkpt>
      <trkpt lat="45.60693" lon="4.53209">
        <ele>846.57836914062</ele>
        <time>2010-09-26T13:55:12Z</time>
      </trkpt>
      <trkpt lat="45.60717" lon="4.53236">
        <ele>848.02026367188</ele>
        <time>2010-09-26T13:55:21Z</time>
      </trkpt>
      <trkpt lat="45.6074" lon="4.5326">
        <ele>848.9814453125</ele>
        <time>2010-09-26T13:55:29Z</time>
      </trkpt>
      <trkpt lat="45.60768" lon="4.5328">
        <ele>850.42358398438</ele>
        <time>2010-09-26T13:55:38Z</time>
      </trkpt>
      <trkpt lat="45.60802" lon="4.53295">
        <ele>849.94287109375</ele>
        <time>2010-09-26T13:55:48Z</time>
      </trkpt>
      <trkpt lat="45.60838" lon="4.5331">
        <ele>849.94287109375</ele>
        <time>2010-09-26T13:55:58Z</time>
      </trkpt>
      <trkpt lat="45.60871" lon="4.53325">
        <ele>850.90405273438</ele>
        <time>2010-09-26T13:56:08Z</time>
      </trkpt>
      <trkpt lat="45.60889" lon="4.53334">
        <ele>852.34594726562</ele>
        <time>2010-09-26T13:56:15Z</time>
      </trkpt>
      <trkpt lat="45.60907" lon="4.53348">
        <ele>853.7880859375</ele>
        <time>2010-09-26T13:56:23Z</time>
      </trkpt>
      <trkpt lat="45.60923" lon="4.53359">
        <ele>854.74926757812</ele>
        <time>2010-09-26T13:56:31Z</time>
      </trkpt>
      <trkpt lat="45.60931" lon="4.53365">
        <ele>855.71069335938</ele>
        <time>2010-09-26T13:56:36Z</time>
      </trkpt>
      <trkpt lat="45.60942" lon="4.53371">
        <ele>857.15258789062</ele>
        <time>2010-09-26T13:56:43Z</time>
      </trkpt>
      <trkpt lat="45.60954" lon="4.53376">
        <ele>859.55590820312</ele>
        <time>2010-09-26T13:56:49Z</time>
      </trkpt>
      <trkpt lat="45.60955" lon="4.53377">
        <ele>860.03662109375</ele>
        <time>2010-09-26T13:56:50Z</time>
      </trkpt>
      <trkpt lat="45.60973" lon="4.53388">
        <ele>861.95947265625</ele>
        <time>2010-09-26T13:56:58Z</time>
      </trkpt>
      <trkpt lat="45.60986" lon="4.534">
        <ele>863.4013671875</ele>
        <time>2010-09-26T13:57:05Z</time>
      </trkpt>
      <trkpt lat="45.60999" lon="4.53421">
        <ele>865.32397460938</ele>
        <time>2010-09-26T13:57:14Z</time>
      </trkpt>
      <trkpt lat="45.61013" lon="4.5345">
        <ele>866.28515625</ele>
        <time>2010-09-26T13:57:23Z</time>
      </trkpt>
      <trkpt lat="45.61025" lon="4.5348">
        <ele>866.28515625</ele>
        <time>2010-09-26T13:57:31Z</time>
      </trkpt>
      <trkpt lat="45.61042" lon="4.53524">
        <ele>866.76586914062</ele>
        <time>2010-09-26T13:57:42Z</time>
      </trkpt>
      <trkpt lat="45.6106" lon="4.53566">
        <ele>867.24658203125</ele>
        <time>2010-09-26T13:57:51Z</time>
      </trkpt>
      <trkpt lat="45.61077" lon="4.53602">
        <ele>867.72705078125</ele>
        <time>2010-09-26T13:57:59Z</time>
      </trkpt>
      <trkpt lat="45.61097" lon="4.53634">
        <ele>866.76586914062</ele>
        <time>2010-09-26T13:58:06Z</time>
      </trkpt>
      <trkpt lat="45.6112" lon="4.53662">
        <ele>865.8046875</ele>
        <time>2010-09-26T13:58:12Z</time>
      </trkpt>
      <trkpt lat="45.61124" lon="4.53667">
        <ele>865.8046875</ele>
        <time>2010-09-26T13:58:13Z</time>
      </trkpt>
      <trkpt lat="45.61142" lon="4.53698">
        <ele>865.8046875</ele>
        <time>2010-09-26T13:58:20Z</time>
      </trkpt>
      <trkpt lat="45.61149" lon="4.53706">
        <ele>865.32397460938</ele>
        <time>2010-09-26T13:58:22Z</time>
      </trkpt>
      <trkpt lat="45.61172" lon="4.53727">
        <ele>862.92065429688</ele>
        <time>2010-09-26T13:58:27Z</time>
      </trkpt>
      <trkpt lat="45.612" lon="4.53736">
        <ele>861.47875976562</ele>
        <time>2010-09-26T13:58:31Z</time>
      </trkpt>
      <trkpt lat="45.61208" lon="4.53738">
        <ele>860.998046875</ele>
        <time>2010-09-26T13:58:32Z</time>
      </trkpt>
      <trkpt lat="45.6123" lon="4.53754">
        <ele>861.47875976562</ele>
        <time>2010-09-26T13:58:36Z</time>
      </trkpt>
      <trkpt lat="45.61246" lon="4.53771">
        <ele>860.51733398438</ele>
        <time>2010-09-26T13:58:40Z</time>
      </trkpt>
      <trkpt lat="45.61264" lon="4.53782">
        <ele>860.51733398438</ele>
        <time>2010-09-26T13:58:44Z</time>
      </trkpt>
      <trkpt lat="45.61308" lon="4.53791">
        <ele>859.55590820312</ele>
        <time>2010-09-26T13:58:52Z</time>
      </trkpt>
      <trkpt lat="45.61345" lon="4.53801">
        <ele>859.0751953125</ele>
        <time>2010-09-26T13:58:59Z</time>
      </trkpt>
      <trkpt lat="45.6135" lon="4.53804">
        <ele>860.03662109375</ele>
        <time>2010-09-26T13:59:00Z</time>
      </trkpt>
      <trkpt lat="45.61377" lon="4.53833">
        <ele>857.63330078125</ele>
        <time>2010-09-26T13:59:06Z</time>
      </trkpt>
      <trkpt lat="45.61383" lon="4.53847">
        <ele>857.15258789062</ele>
        <time>2010-09-26T13:59:08Z</time>
      </trkpt>
      <trkpt lat="45.61403" lon="4.53905">
        <ele>852.82666015625</ele>
        <time>2010-09-26T13:59:15Z</time>
      </trkpt>
      <trkpt lat="45.61413" lon="4.53934">
        <ele>848.50073242188</ele>
        <time>2010-09-26T13:59:18Z</time>
      </trkpt>
      <trkpt lat="45.61426" lon="4.53968">
        <ele>844.65551757812</ele>
        <time>2010-09-26T13:59:21Z</time>
      </trkpt>
      <trkpt lat="45.61438" lon="4.54006">
        <ele>840.81005859375</ele>
        <time>2010-09-26T13:59:24Z</time>
      </trkpt>
      <trkpt lat="45.61444" lon="4.54035">
        <ele>837.44555664062</ele>
        <time>2010-09-26T13:59:26Z</time>
      </trkpt>
      <trkpt lat="45.6145" lon="4.54067">
        <ele>834.56176757812</ele>
        <time>2010-09-26T13:59:28Z</time>
      </trkpt>
      <trkpt lat="45.61452" lon="4.54133">
        <ele>829.75512695312</ele>
        <time>2010-09-26T13:59:32Z</time>
      </trkpt>
      <trkpt lat="45.61464" lon="4.54181">
        <ele>825.42895507812</ele>
        <time>2010-09-26T13:59:35Z</time>
      </trkpt>
      <trkpt lat="45.61476" lon="4.54213">
        <ele>821.10327148438</ele>
        <time>2010-09-26T13:59:37Z</time>
      </trkpt>
      <trkpt lat="45.61491" lon="4.54243">
        <ele>816.29663085938</ele>
        <time>2010-09-26T13:59:39Z</time>
      </trkpt>
      <trkpt lat="45.61508" lon="4.54275">
        <ele>812.45141601562</ele>
        <time>2010-09-26T13:59:41Z</time>
      </trkpt>
      <trkpt lat="45.61524" lon="4.54305">
        <ele>810.0478515625</ele>
        <time>2010-09-26T13:59:43Z</time>
      </trkpt>
      <trkpt lat="45.61556" lon="4.5434">
        <ele>806.68334960938</ele>
        <time>2010-09-26T13:59:47Z</time>
      </trkpt>
      <trkpt lat="45.61566" lon="4.54345">
        <ele>804.2802734375</ele>
        <time>2010-09-26T13:59:48Z</time>
      </trkpt>
      <trkpt lat="45.61602" lon="4.54362">
        <ele>799.4736328125</ele>
        <time>2010-09-26T13:59:51Z</time>
      </trkpt>
      <trkpt lat="45.61626" lon="4.54375">
        <ele>795.62817382812</ele>
        <time>2010-09-26T13:59:53Z</time>
      </trkpt>
      <trkpt lat="45.6165" lon="4.54386">
        <ele>792.74438476562</ele>
        <time>2010-09-26T13:59:55Z</time>
      </trkpt>
      <trkpt lat="45.61674" lon="4.54397">
        <ele>788.41845703125</ele>
        <time>2010-09-26T13:59:57Z</time>
      </trkpt>
      <trkpt lat="45.61695" lon="4.54407">
        <ele>784.5732421875</ele>
        <time>2010-09-26T13:59:59Z</time>
      </trkpt>
      <trkpt lat="45.61716" lon="4.54417">
        <ele>781.20874023438</ele>
        <time>2010-09-26T14:00:01Z</time>
      </trkpt>
      <trkpt lat="45.61734" lon="4.54428">
        <ele>777.84375</ele>
        <time>2010-09-26T14:00:03Z</time>
      </trkpt>
      <trkpt lat="45.6176" lon="4.54444">
        <ele>773.03735351562</ele>
        <time>2010-09-26T14:00:06Z</time>
      </trkpt>
      <trkpt lat="45.61786" lon="4.5446">
        <ele>768.71142578125</ele>
        <time>2010-09-26T14:00:09Z</time>
      </trkpt>
      <trkpt lat="45.61813" lon="4.54476">
        <ele>765.82763671875</ele>
        <time>2010-09-26T14:00:12Z</time>
      </trkpt>
      <trkpt lat="45.61821" lon="4.5448">
        <ele>764.38549804688</ele>
        <time>2010-09-26T14:00:13Z</time>
      </trkpt>
      <trkpt lat="45.61832" lon="4.54473">
        <ele>762.943359375</ele>
        <time>2010-09-26T14:00:16Z</time>
      </trkpt>
      <trkpt lat="45.61831" lon="4.54456">
        <ele>761.02075195312</ele>
        <time>2010-09-26T14:00:18Z</time>
      </trkpt>
      <trkpt lat="45.61824" lon="4.54436">
        <ele>760.05932617188</ele>
        <time>2010-09-26T14:00:20Z</time>
      </trkpt>
      <trkpt lat="45.61803" lon="4.54365">
        <ele>756.69482421875</ele>
        <time>2010-09-26T14:00:27Z</time>
      </trkpt>
      <trkpt lat="45.61801" lon="4.54354">
        <ele>755.73364257812</ele>
        <time>2010-09-26T14:00:28Z</time>
      </trkpt>
      <trkpt lat="45.61795" lon="4.54308">
        <ele>753.33032226562</ele>
        <time>2010-09-26T14:00:32Z</time>
      </trkpt>
      <trkpt lat="45.61795" lon="4.54255">
        <ele>749.00439453125</ele>
        <time>2010-09-26T14:00:36Z</time>
      </trkpt>
      <trkpt lat="45.61797" lon="4.54224">
        <ele>745.6396484375</ele>
        <time>2010-09-26T14:00:38Z</time>
      </trkpt>
      <trkpt lat="45.61801" lon="4.54189">
        <ele>742.27514648438</ele>
        <time>2010-09-26T14:00:40Z</time>
      </trkpt>
      <trkpt lat="45.61805" lon="4.54154">
        <ele>739.39111328125</ele>
        <time>2010-09-26T14:00:42Z</time>
      </trkpt>
      <trkpt lat="45.61806" lon="4.54138">
        <ele>736.98779296875</ele>
        <time>2010-09-26T14:00:43Z</time>
      </trkpt>
      <trkpt lat="45.61818" lon="4.541">
        <ele>735.0654296875</ele>
        <time>2010-09-26T14:00:46Z</time>
      </trkpt>
      <trkpt lat="45.61842" lon="4.54081">
        <ele>733.142578125</ele>
        <time>2010-09-26T14:00:49Z</time>
      </trkpt>
      <trkpt lat="45.61852" lon="4.54078">
        <ele>733.142578125</ele>
        <time>2010-09-26T14:00:50Z</time>
      </trkpt>
      <trkpt lat="45.61878" lon="4.54071">
        <ele>733.142578125</ele>
        <time>2010-09-26T14:00:53Z</time>
      </trkpt>
      <trkpt lat="45.61908" lon="4.54077">
        <ele>731.70043945312</ele>
        <time>2010-09-26T14:00:57Z</time>
      </trkpt>
      <trkpt lat="45.6194" lon="4.5409">
        <ele>728.81665039062</ele>
        <time>2010-09-26T14:01:01Z</time>
      </trkpt>
      <trkpt lat="45.61959" lon="4.54092">
        <ele>724.97143554688</ele>
        <time>2010-09-26T14:01:03Z</time>
      </trkpt>
      <trkpt lat="45.61969" lon="4.54094">
        <ele>721.60668945312</ele>
        <time>2010-09-26T14:01:04Z</time>
      </trkpt>
      <trkpt lat="45.62001" lon="4.54107">
        <ele>712.95483398438</ele>
        <time>2010-09-26T14:01:07Z</time>
      </trkpt>
      <trkpt lat="45.62022" lon="4.54119">
        <ele>708.62890625</ele>
        <time>2010-09-26T14:01:09Z</time>
      </trkpt>
      <trkpt lat="45.62043" lon="4.54131">
        <ele>704.78369140625</ele>
        <time>2010-09-26T14:01:11Z</time>
      </trkpt>
      <trkpt lat="45.62062" lon="4.54141">
        <ele>700.9384765625</ele>
        <time>2010-09-26T14:01:13Z</time>
      </trkpt>
      <trkpt lat="45.62077" lon="4.54151">
        <ele>698.05444335938</ele>
        <time>2010-09-26T14:01:15Z</time>
      </trkpt>
      <trkpt lat="45.62094" lon="4.54167">
        <ele>694.20922851562</ele>
        <time>2010-09-26T14:01:18Z</time>
      </trkpt>
      <trkpt lat="45.62101" lon="4.54189">
        <ele>690.84448242188</ele>
        <time>2010-09-26T14:01:22Z</time>
      </trkpt>
      <trkpt lat="45.62095" lon="4.54193">
        <ele>689.88330078125</ele>
        <time>2010-09-26T14:01:23Z</time>
      </trkpt>
      <trkpt lat="45.62055" lon="4.54211">
        <ele>685.55737304688</ele>
        <time>2010-09-26T14:01:28Z</time>
      </trkpt>
      <trkpt lat="45.62036" lon="4.54234">
        <ele>684.11547851562</ele>
        <time>2010-09-26T14:01:31Z</time>
      </trkpt>
      <trkpt lat="45.62034" lon="4.54256">
        <ele>684.11547851562</ele>
        <time>2010-09-26T14:01:33Z</time>
      </trkpt>
      <trkpt lat="45.62041" lon="4.54275">
        <ele>684.11547851562</ele>
        <time>2010-09-26T14:01:35Z</time>
      </trkpt>
      <trkpt lat="45.62056" lon="4.54302">
        <ele>685.07690429688</ele>
        <time>2010-09-26T14:01:39Z</time>
      </trkpt>
      <trkpt lat="45.62065" lon="4.54327">
        <ele>686.51879882812</ele>
        <time>2010-09-26T14:01:45Z</time>
      </trkpt>
      <trkpt lat="45.62066" lon="4.54331">
        <ele>686.99926757812</ele>
        <time>2010-09-26T14:01:47Z</time>
      </trkpt>
      <trkpt lat="45.62069" lon="4.54338">
        <ele>687.47998046875</ele>
        <time>2010-09-26T14:01:51Z</time>
      </trkpt>
      <trkpt lat="45.62073" lon="4.54356">
        <ele>689.40258789062</ele>
        <time>2010-09-26T14:01:58Z</time>
      </trkpt>
      <trkpt lat="45.62074" lon="4.54359">
        <ele>689.40258789062</ele>
        <time>2010-09-26T14:02:00Z</time>
      </trkpt>
      <trkpt lat="45.62074" lon="4.54362">
        <ele>689.40258789062</ele>
        <time>2010-09-26T14:02:02Z</time>
      </trkpt>
      <trkpt lat="45.62078" lon="4.54382">
        <ele>690.36401367188</ele>
        <time>2010-09-26T14:02:08Z</time>
      </trkpt>
      <trkpt lat="45.62082" lon="4.54397">
        <ele>691.3251953125</ele>
        <time>2010-09-26T14:02:12Z</time>
      </trkpt>
      <trkpt lat="45.62084" lon="4.54441">
        <ele>691.80590820312</ele>
        <time>2010-09-26T14:02:22Z</time>
      </trkpt>
      <trkpt lat="45.62082" lon="4.54471">
        <ele>693.24780273438</ele>
        <time>2010-09-26T14:02:29Z</time>
      </trkpt>
      <trkpt lat="45.62078" lon="4.54495">
        <ele>693.24780273438</ele>
        <time>2010-09-26T14:02:34Z</time>
      </trkpt>
      <trkpt lat="45.62076" lon="4.5453">
        <ele>694.20922851562</ele>
        <time>2010-09-26T14:02:41Z</time>
      </trkpt>
      <trkpt lat="45.62081" lon="4.54571">
        <ele>694.68969726562</ele>
        <time>2010-09-26T14:02:49Z</time>
      </trkpt>
      <trkpt lat="45.62093" lon="4.54629">
        <ele>695.65112304688</ele>
        <time>2010-09-26T14:03:00Z</time>
      </trkpt>
      <trkpt lat="45.62102" lon="4.54668">
        <ele>698.05444335938</ele>
        <time>2010-09-26T14:03:09Z</time>
      </trkpt>
      <trkpt lat="45.62107" lon="4.54711">
        <ele>699.49633789062</ele>
        <time>2010-09-26T14:03:19Z</time>
      </trkpt>
      <trkpt lat="45.62107" lon="4.5475">
        <ele>700.9384765625</ele>
        <time>2010-09-26T14:03:28Z</time>
      </trkpt>
      <trkpt lat="45.62112" lon="4.54775">
        <ele>701.41918945312</ele>
        <time>2010-09-26T14:03:35Z</time>
      </trkpt>
      <trkpt lat="45.62115" lon="4.54777">
        <ele>701.41918945312</ele>
        <time>2010-09-26T14:03:36Z</time>
      </trkpt>
      <trkpt lat="45.62141" lon="4.54775">
        <ele>698.53491210938</ele>
        <time>2010-09-26T14:03:41Z</time>
      </trkpt>
      <trkpt lat="45.62165" lon="4.54769">
        <ele>695.65112304688</ele>
        <time>2010-09-26T14:03:44Z</time>
      </trkpt>
      <trkpt lat="45.62194" lon="4.54763">
        <ele>692.28662109375</ele>
        <time>2010-09-26T14:03:47Z</time>
      </trkpt>
      <trkpt lat="45.62216" lon="4.54758">
        <ele>689.40258789062</ele>
        <time>2010-09-26T14:03:49Z</time>
      </trkpt>
      <trkpt lat="45.62251" lon="4.54746">
        <ele>685.07690429688</ele>
        <time>2010-09-26T14:03:52Z</time>
      </trkpt>
      <trkpt lat="45.62283" lon="4.54736">
        <ele>680.27001953125</ele>
        <time>2010-09-26T14:03:55Z</time>
      </trkpt>
      <trkpt lat="45.62303" lon="4.54726">
        <ele>677.38623046875</ele>
        <time>2010-09-26T14:03:57Z</time>
      </trkpt>
      <trkpt lat="45.62325" lon="4.54713">
        <ele>673.541015625</ele>
        <time>2010-09-26T14:03:59Z</time>
      </trkpt>
      <trkpt lat="45.62347" lon="4.54698">
        <ele>670.17626953125</ele>
        <time>2010-09-26T14:04:01Z</time>
      </trkpt>
      <trkpt lat="45.62383" lon="4.54683">
        <ele>665.36962890625</ele>
        <time>2010-09-26T14:04:04Z</time>
      </trkpt>
      <trkpt lat="45.6241" lon="4.54674">
        <ele>662.96630859375</ele>
        <time>2010-09-26T14:04:07Z</time>
      </trkpt>
      <trkpt lat="45.62424" lon="4.54681">
        <ele>661.04370117188</ele>
        <time>2010-09-26T14:04:10Z</time>
      </trkpt>
      <trkpt lat="45.62425" lon="4.547">
        <ele>659.60180664062</ele>
        <time>2010-09-26T14:04:12Z</time>
      </trkpt>
      <trkpt lat="45.62429" lon="4.5475">
        <ele>654.79516601562</ele>
        <time>2010-09-26T14:04:16Z</time>
      </trkpt>
      <trkpt lat="45.6243" lon="4.54781">
        <ele>651.43041992188</ele>
        <time>2010-09-26T14:04:18Z</time>
      </trkpt>
      <trkpt lat="45.62429" lon="4.54833">
        <ele>647.58520507812</ele>
        <time>2010-09-26T14:04:21Z</time>
      </trkpt>
      <trkpt lat="45.62422" lon="4.54906">
        <ele>642.77880859375</ele>
        <time>2010-09-26T14:04:25Z</time>
      </trkpt>
      <trkpt lat="45.6242" lon="4.54963">
        <ele>638.45288085938</ele>
        <time>2010-09-26T14:04:28Z</time>
      </trkpt>
      <trkpt lat="45.62416" lon="4.55015">
        <ele>635.08813476562</ele>
        <time>2010-09-26T14:04:31Z</time>
      </trkpt>
      <trkpt lat="45.62427" lon="4.55076">
        <ele>633.64599609375</ele>
        <time>2010-09-26T14:04:35Z</time>
      </trkpt>
      <trkpt lat="45.62445" lon="4.55129">
        <ele>630.76220703125</ele>
        <time>2010-09-26T14:04:39Z</time>
      </trkpt>
      <trkpt lat="45.62443" lon="4.55158">
        <ele>629.32006835938</ele>
        <time>2010-09-26T14:04:41Z</time>
      </trkpt>
      <trkpt lat="45.62437" lon="4.55201">
        <ele>626.9169921875</ele>
        <time>2010-09-26T14:04:44Z</time>
      </trkpt>
      <trkpt lat="45.62444" lon="4.55227">
        <ele>624.99438476562</ele>
        <time>2010-09-26T14:04:46Z</time>
      </trkpt>
      <trkpt lat="45.62461" lon="4.55242">
        <ele>624.513671875</ele>
        <time>2010-09-26T14:04:48Z</time>
      </trkpt>
      <trkpt lat="45.62504" lon="4.55277">
        <ele>622.59106445312</ele>
        <time>2010-09-26T14:04:53Z</time>
      </trkpt>
      <trkpt lat="45.62526" lon="4.55307">
        <ele>621.62963867188</ele>
        <time>2010-09-26T14:04:57Z</time>
      </trkpt>
      <trkpt lat="45.6253" lon="4.55314">
        <ele>621.14916992188</ele>
        <time>2010-09-26T14:05:00Z</time>
      </trkpt>
      <trkpt lat="45.6253" lon="4.55314">
        <ele>621.62963867188</ele>
        <time>2010-09-26T14:05:11Z</time>
      </trkpt>
      <trkpt lat="45.62531" lon="4.55315">
        <ele>621.62963867188</ele>
        <time>2010-09-26T14:05:12Z</time>
      </trkpt>
      <trkpt lat="45.62539" lon="4.55305">
        <ele>621.14916992188</ele>
        <time>2010-09-26T14:05:18Z</time>
      </trkpt>
      <trkpt lat="45.62544" lon="4.55307">
        <ele>620.66845703125</ele>
        <time>2010-09-26T14:05:21Z</time>
      </trkpt>
      <trkpt lat="45.62553" lon="4.55318">
        <ele>621.14916992188</ele>
        <time>2010-09-26T14:05:27Z</time>
      </trkpt>
      <trkpt lat="45.62564" lon="4.55329">
        <ele>621.62963867188</ele>
        <time>2010-09-26T14:05:34Z</time>
      </trkpt>
      <trkpt lat="45.62567" lon="4.55332">
        <ele>621.62963867188</ele>
        <time>2010-09-26T14:05:36Z</time>
      </trkpt>
      <trkpt lat="45.62581" lon="4.55346">
        <ele>623.07177734375</ele>
        <time>2010-09-26T14:05:44Z</time>
      </trkpt>
      <trkpt lat="45.62596" lon="4.55355">
        <ele>623.55249023438</ele>
        <time>2010-09-26T14:05:51Z</time>
      </trkpt>
      <trkpt lat="45.62604" lon="4.55366">
        <ele>624.513671875</ele>
        <time>2010-09-26T14:05:57Z</time>
      </trkpt>
      <trkpt lat="45.62613" lon="4.55382">
        <ele>626.9169921875</ele>
        <time>2010-09-26T14:06:05Z</time>
      </trkpt>
      <trkpt lat="45.62617" lon="4.55386">
        <ele>627.39770507812</ele>
        <time>2010-09-26T14:06:09Z</time>
      </trkpt>
      <trkpt lat="45.62626" lon="4.55401">
        <ele>629.80078125</ele>
        <time>2010-09-26T14:06:20Z</time>
      </trkpt>
      <trkpt lat="45.62632" lon="4.55413">
        <ele>630.28149414062</ele>
        <time>2010-09-26T14:06:27Z</time>
      </trkpt>
      <trkpt lat="45.62639" lon="4.55426">
        <ele>631.24291992188</ele>
        <time>2010-09-26T14:06:34Z</time>
      </trkpt>
      <trkpt lat="45.62651" lon="4.55442">
        <ele>632.68481445312</ele>
        <time>2010-09-26T14:06:44Z</time>
      </trkpt>
      <trkpt lat="45.62659" lon="4.55454">
        <ele>633.16528320312</ele>
        <time>2010-09-26T14:06:52Z</time>
      </trkpt>
      <trkpt lat="45.62665" lon="4.55469">
        <ele>634.607421875</ele>
        <time>2010-09-26T14:07:02Z</time>
      </trkpt>
      <trkpt lat="45.62669" lon="4.5548">
        <ele>635.56860351562</ele>
        <time>2010-09-26T14:07:09Z</time>
      </trkpt>
      <trkpt lat="45.62676" lon="4.55487">
        <ele>637.0107421875</ele>
        <time>2010-09-26T14:07:16Z</time>
      </trkpt>
      <trkpt lat="45.62684" lon="4.55484">
        <ele>638.45288085938</ele>
        <time>2010-09-26T14:07:24Z</time>
      </trkpt>
      <trkpt lat="45.62686" lon="4.55482">
        <ele>638.93359375</ele>
        <time>2010-09-26T14:07:26Z</time>
      </trkpt>
      <trkpt lat="45.62688" lon="4.5548">
        <ele>639.4140625</ele>
        <time>2010-09-26T14:07:28Z</time>
      </trkpt>
      <trkpt lat="45.62695" lon="4.55464">
        <ele>641.33666992188</ele>
        <time>2010-09-26T14:07:37Z</time>
      </trkpt>
      <trkpt lat="45.62696" lon="4.55456">
        <ele>641.8173828125</ele>
        <time>2010-09-26T14:07:41Z</time>
      </trkpt>
      <trkpt lat="45.62698" lon="4.55447">
        <ele>643.73999023438</ele>
        <time>2010-09-26T14:07:48Z</time>
      </trkpt>
      <trkpt lat="45.627" lon="4.55453">
        <ele>644.220703125</ele>
        <time>2010-09-26T14:07:52Z</time>
      </trkpt>
      <trkpt lat="45.62711" lon="4.5547">
        <ele>643.73999023438</ele>
        <time>2010-09-26T14:08:01Z</time>
      </trkpt>
      <trkpt lat="45.62727" lon="4.55477">
        <ele>644.701171875</ele>
        <time>2010-09-26T14:08:08Z</time>
      </trkpt>
      <trkpt lat="45.62745" lon="4.55481">
        <ele>646.14331054688</ele>
        <time>2010-09-26T14:08:15Z</time>
      </trkpt>
      <trkpt lat="45.62751" lon="4.55483">
        <ele>646.14331054688</ele>
        <time>2010-09-26T14:08:18Z</time>
      </trkpt>
      <trkpt lat="45.62763" lon="4.55494">
        <ele>645.18188476562</ele>
        <time>2010-09-26T14:08:24Z</time>
      </trkpt>
      <trkpt lat="45.62777" lon="4.55512">
        <ele>645.18188476562</ele>
        <time>2010-09-26T14:08:30Z</time>
      </trkpt>
      <trkpt lat="45.62795" lon="4.55534">
        <ele>644.701171875</ele>
        <time>2010-09-26T14:08:35Z</time>
      </trkpt>
      <trkpt lat="45.62813" lon="4.55551">
        <ele>644.220703125</ele>
        <time>2010-09-26T14:08:40Z</time>
      </trkpt>
      <trkpt lat="45.62827" lon="4.55561">
        <ele>642.77880859375</ele>
        <time>2010-09-26T14:08:43Z</time>
      </trkpt>
      <trkpt lat="45.62838" lon="4.55566">
        <ele>641.8173828125</ele>
        <time>2010-09-26T14:08:45Z</time>
      </trkpt>
      <trkpt lat="45.62856" lon="4.55575">
        <ele>641.33666992188</ele>
        <time>2010-09-26T14:08:48Z</time>
      </trkpt>
      <trkpt lat="45.62872" lon="4.55592">
        <ele>640.85595703125</ele>
        <time>2010-09-26T14:08:52Z</time>
      </trkpt>
      <trkpt lat="45.62873" lon="4.55598">
        <ele>641.33666992188</ele>
        <time>2010-09-26T14:08:53Z</time>
      </trkpt>
      <trkpt lat="45.62866" lon="4.55623">
        <ele>641.8173828125</ele>
        <time>2010-09-26T14:09:00Z</time>
      </trkpt>
      <trkpt lat="45.62862" lon="4.55637">
        <ele>642.77880859375</ele>
        <time>2010-09-26T14:09:06Z</time>
      </trkpt>
      <trkpt lat="45.62858" lon="4.55657">
        <ele>643.73999023438</ele>
        <time>2010-09-26T14:09:14Z</time>
      </trkpt>
      <trkpt lat="45.62856" lon="4.55677">
        <ele>646.6240234375</ele>
        <time>2010-09-26T14:09:23Z</time>
      </trkpt>
      <trkpt lat="45.62859" lon="4.55681">
        <ele>647.58520507812</ele>
        <time>2010-09-26T14:09:26Z</time>
      </trkpt>
      <trkpt lat="45.62872" lon="4.5568">
        <ele>647.58520507812</ele>
        <time>2010-09-26T14:09:31Z</time>
      </trkpt>
      <trkpt lat="45.62894" lon="4.55667">
        <ele>648.06591796875</ele>
        <time>2010-09-26T14:09:40Z</time>
      </trkpt>
      <trkpt lat="45.62911" lon="4.55651">
        <ele>649.5078125</ele>
        <time>2010-09-26T14:09:49Z</time>
      </trkpt>
      <trkpt lat="45.6293" lon="4.55632">
        <ele>650.46923828125</ele>
        <time>2010-09-26T14:09:59Z</time>
      </trkpt>
      <trkpt lat="45.62948" lon="4.5562">
        <ele>651.43041992188</ele>
        <time>2010-09-26T14:10:08Z</time>
      </trkpt>
      <trkpt lat="45.62974" lon="4.55616">
        <ele>653.833984375</ele>
        <time>2010-09-26T14:10:18Z</time>
      </trkpt>
      <trkpt lat="45.63005" lon="4.55625">
        <ele>655.75659179688</ele>
        <time>2010-09-26T14:10:28Z</time>
      </trkpt>
      <trkpt lat="45.6303" lon="4.55636">
        <ele>656.7177734375</ele>
        <time>2010-09-26T14:10:36Z</time>
      </trkpt>
      <trkpt lat="45.6306" lon="4.55658">
        <ele>658.64038085938</ele>
        <time>2010-09-26T14:10:45Z</time>
      </trkpt>
      <trkpt lat="45.6309" lon="4.55689">
        <ele>659.60180664062</ele>
        <time>2010-09-26T14:10:55Z</time>
      </trkpt>
      <trkpt lat="45.63116" lon="4.55719">
        <ele>661.5244140625</ele>
        <time>2010-09-26T14:11:04Z</time>
      </trkpt>
      <trkpt lat="45.63135" lon="4.55742">
        <ele>662.48559570312</ele>
        <time>2010-09-26T14:11:12Z</time>
      </trkpt>
      <trkpt lat="45.6315" lon="4.55763">
        <ele>663.44702148438</ele>
        <time>2010-09-26T14:11:19Z</time>
      </trkpt>
      <trkpt lat="45.63165" lon="4.55784">
        <ele>664.408203125</ele>
        <time>2010-09-26T14:11:26Z</time>
      </trkpt>
      <trkpt lat="45.63176" lon="4.55806">
        <ele>665.36962890625</ele>
        <time>2010-09-26T14:11:32Z</time>
      </trkpt>
      <trkpt lat="45.63192" lon="4.55831">
        <ele>666.8115234375</ele>
        <time>2010-09-26T14:11:40Z</time>
      </trkpt>
      <trkpt lat="45.63208" lon="4.55853">
        <ele>667.77270507812</ele>
        <time>2010-09-26T14:11:48Z</time>
      </trkpt>
      <trkpt lat="45.63225" lon="4.55875">
        <ele>668.734375</ele>
        <time>2010-09-26T14:11:57Z</time>
      </trkpt>
      <trkpt lat="45.63237" lon="4.55893">
        <ele>669.21508789062</ele>
        <time>2010-09-26T14:12:04Z</time>
      </trkpt>
      <trkpt lat="45.63251" lon="4.55912">
        <ele>671.1376953125</ele>
        <time>2010-09-26T14:12:12Z</time>
      </trkpt>
      <trkpt lat="45.63266" lon="4.5593">
        <ele>672.09887695312</ele>
        <time>2010-09-26T14:12:19Z</time>
      </trkpt>
      <trkpt lat="45.63281" lon="4.55951">
        <ele>673.541015625</ele>
        <time>2010-09-26T14:12:27Z</time>
      </trkpt>
      <trkpt lat="45.63297" lon="4.55972">
        <ele>675.94409179688</ele>
        <time>2010-09-26T14:12:36Z</time>
      </trkpt>
      <trkpt lat="45.63314" lon="4.55995">
        <ele>678.34741210938</ele>
        <time>2010-09-26T14:12:45Z</time>
      </trkpt>
      <trkpt lat="45.63332" lon="4.56019">
        <ele>679.78930664062</ele>
        <time>2010-09-26T14:12:54Z</time>
      </trkpt>
      <trkpt lat="45.63347" lon="4.56039">
        <ele>681.2314453125</ele>
        <time>2010-09-26T14:13:02Z</time>
      </trkpt>
      <trkpt lat="45.63363" lon="4.56053">
        <ele>682.19262695312</ele>
        <time>2010-09-26T14:13:09Z</time>
      </trkpt>
      <trkpt lat="45.63379" lon="4.56059">
        <ele>682.19262695312</ele>
        <time>2010-09-26T14:13:15Z</time>
      </trkpt>
      <trkpt lat="45.634" lon="4.56067">
        <ele>684.11547851562</ele>
        <time>2010-09-26T14:13:23Z</time>
      </trkpt>
      <trkpt lat="45.63425" lon="4.56074">
        <ele>684.59619140625</ele>
        <time>2010-09-26T14:13:33Z</time>
      </trkpt>
      <trkpt lat="45.63443" lon="4.56079">
        <ele>686.0380859375</ele>
        <time>2010-09-26T14:13:41Z</time>
      </trkpt>
      <trkpt lat="45.63464" lon="4.56084">
        <ele>686.51879882812</ele>
        <time>2010-09-26T14:13:49Z</time>
      </trkpt>
      <trkpt lat="45.63485" lon="4.5609">
        <ele>687.47998046875</ele>
        <time>2010-09-26T14:13:57Z</time>
      </trkpt>
      <trkpt lat="45.6351" lon="4.56097">
        <ele>688.92211914062</ele>
        <time>2010-09-26T14:14:06Z</time>
      </trkpt>
      <trkpt lat="45.63531" lon="4.56103">
        <ele>689.40258789062</ele>
        <time>2010-09-26T14:14:14Z</time>
      </trkpt>
      <trkpt lat="45.63548" lon="4.56107">
        <ele>690.84448242188</ele>
        <time>2010-09-26T14:14:21Z</time>
      </trkpt>
      <trkpt lat="45.63573" lon="4.56113">
        <ele>692.76733398438</ele>
        <time>2010-09-26T14:14:30Z</time>
      </trkpt>
      <trkpt lat="45.63594" lon="4.56111">
        <ele>694.20922851562</ele>
        <time>2010-09-26T14:14:38Z</time>
      </trkpt>
      <trkpt lat="45.63612" lon="4.56102">
        <ele>695.17041015625</ele>
        <time>2010-09-26T14:14:45Z</time>
      </trkpt>
      <trkpt lat="45.63636" lon="4.56082">
        <ele>697.09301757812</ele>
        <time>2010-09-26T14:14:55Z</time>
      </trkpt>
      <trkpt lat="45.63663" lon="4.5606">
        <ele>698.05444335938</ele>
        <time>2010-09-26T14:15:06Z</time>
      </trkpt>
      <trkpt lat="45.63689" lon="4.56038">
        <ele>699.97705078125</ele>
        <time>2010-09-26T14:15:17Z</time>
      </trkpt>
      <trkpt lat="45.63709" lon="4.56025">
        <ele>701.41918945312</ele>
        <time>2010-09-26T14:15:25Z</time>
      </trkpt>
      <trkpt lat="45.63731" lon="4.56014">
        <ele>703.341796875</ele>
        <time>2010-09-26T14:15:34Z</time>
      </trkpt>
      <trkpt lat="45.63757" lon="4.56006">
        <ele>704.30322265625</ele>
        <time>2010-09-26T14:15:44Z</time>
      </trkpt>
      <trkpt lat="45.63779" lon="4.56">
        <ele>705.7451171875</ele>
        <time>2010-09-26T14:15:52Z</time>
      </trkpt>
      <trkpt lat="45.63807" lon="4.55992">
        <ele>707.18701171875</ele>
        <time>2010-09-26T14:16:02Z</time>
      </trkpt>
      <trkpt lat="45.63825" lon="4.55987">
        <ele>707.66772460938</ele>
        <time>2010-09-26T14:16:09Z</time>
      </trkpt>
      <trkpt lat="45.63852" lon="4.55978">
        <ele>710.07080078125</ele>
        <time>2010-09-26T14:16:19Z</time>
      </trkpt>
      <trkpt lat="45.63875" lon="4.55971">
        <ele>711.0322265625</ele>
        <time>2010-09-26T14:16:28Z</time>
      </trkpt>
      <trkpt lat="45.63906" lon="4.55967">
        <ele>712.95483398438</ele>
        <time>2010-09-26T14:16:39Z</time>
      </trkpt>
      <trkpt lat="45.63933" lon="4.55971">
        <ele>714.87744140625</ele>
        <time>2010-09-26T14:16:49Z</time>
      </trkpt>
      <trkpt lat="45.63958" lon="4.55979">
        <ele>716.31958007812</ele>
        <time>2010-09-26T14:16:58Z</time>
      </trkpt>
      <trkpt lat="45.63989" lon="4.55987">
        <ele>717.28100585938</ele>
        <time>2010-09-26T14:17:09Z</time>
      </trkpt>
      <trkpt lat="45.64017" lon="4.55985">
        <ele>719.20361328125</ele>
        <time>2010-09-26T14:17:19Z</time>
      </trkpt>
      <trkpt lat="45.64046" lon="4.55976">
        <ele>719.68432617188</ele>
        <time>2010-09-26T14:17:29Z</time>
      </trkpt>
      <trkpt lat="45.64078" lon="4.5596">
        <ele>720.6455078125</ele>
        <time>2010-09-26T14:17:40Z</time>
      </trkpt>
      <trkpt lat="45.64103" lon="4.55943">
        <ele>722.56811523438</ele>
        <time>2010-09-26T14:17:50Z</time>
      </trkpt>
      <trkpt lat="45.64127" lon="4.55921">
        <ele>724.49072265625</ele>
        <time>2010-09-26T14:18:00Z</time>
      </trkpt>
      <trkpt lat="45.6415" lon="4.559">
        <ele>725.45190429688</ele>
        <time>2010-09-26T14:18:10Z</time>
      </trkpt>
      <trkpt lat="45.64172" lon="4.55889">
        <ele>725.9326171875</ele>
        <time>2010-09-26T14:18:18Z</time>
      </trkpt>
      <trkpt lat="45.64194" lon="4.5589">
        <ele>727.85522460938</ele>
        <time>2010-09-26T14:18:26Z</time>
      </trkpt>
      <trkpt lat="45.64222" lon="4.55901">
        <ele>728.81665039062</ele>
        <time>2010-09-26T14:18:36Z</time>
      </trkpt>
      <trkpt lat="45.64248" lon="4.55905">
        <ele>730.7392578125</ele>
        <time>2010-09-26T14:18:45Z</time>
      </trkpt>
      <trkpt lat="45.6427" lon="4.55902">
        <ele>730.7392578125</ele>
        <time>2010-09-26T14:18:53Z</time>
      </trkpt>
      <trkpt lat="45.64291" lon="4.55896">
        <ele>731.70043945312</ele>
        <time>2010-09-26T14:19:01Z</time>
      </trkpt>
      <trkpt lat="45.64314" lon="4.5589">
        <ele>732.662109375</ele>
        <time>2010-09-26T14:19:09Z</time>
      </trkpt>
      <trkpt lat="45.64344" lon="4.5588">
        <ele>734.10400390625</ele>
        <time>2010-09-26T14:19:20Z</time>
      </trkpt>
      <trkpt lat="45.64361" lon="4.55875">
        <ele>734.10400390625</ele>
        <time>2010-09-26T14:19:27Z</time>
      </trkpt>
      <trkpt lat="45.64388" lon="4.55868">
        <ele>735.0654296875</ele>
        <time>2010-09-26T14:19:37Z</time>
      </trkpt>
      <trkpt lat="45.6441" lon="4.55866">
        <ele>736.98779296875</ele>
        <time>2010-09-26T14:19:45Z</time>
      </trkpt>
      <trkpt lat="45.64443" lon="4.55868">
        <ele>737.94921875</ele>
        <time>2010-09-26T14:19:57Z</time>
      </trkpt>
      <trkpt lat="45.64463" lon="4.55868">
        <ele>738.42993164062</ele>
        <time>2010-09-26T14:20:04Z</time>
      </trkpt>
      <trkpt lat="45.64485" lon="4.55862">
        <ele>739.39111328125</ele>
        <time>2010-09-26T14:20:12Z</time>
      </trkpt>
      <trkpt lat="45.64511" lon="4.55851">
        <ele>740.8330078125</ele>
        <time>2010-09-26T14:20:21Z</time>
      </trkpt>
      <trkpt lat="45.64524" lon="4.55844">
        <ele>742.27514648438</ele>
        <time>2010-09-26T14:20:26Z</time>
      </trkpt>
      <trkpt lat="45.64548" lon="4.55829">
        <ele>742.755859375</ele>
        <time>2010-09-26T14:20:35Z</time>
      </trkpt>
      <trkpt lat="45.64568" lon="4.55807">
        <ele>744.67822265625</ele>
        <time>2010-09-26T14:20:44Z</time>
      </trkpt>
      <trkpt lat="45.64583" lon="4.55778">
        <ele>744.67822265625</ele>
        <time>2010-09-26T14:20:53Z</time>
      </trkpt>
      <trkpt lat="45.64593" lon="4.55752">
        <ele>745.15893554688</ele>
        <time>2010-09-26T14:21:01Z</time>
      </trkpt>
      <trkpt lat="45.64597" lon="4.55747">
        <ele>745.6396484375</ele>
        <time>2010-09-26T14:21:05Z</time>
      </trkpt>
      <trkpt lat="45.646" lon="4.55738">
        <ele>746.12036132812</ele>
        <time>2010-09-26T14:21:10Z</time>
      </trkpt>
      <trkpt lat="45.64614" lon="4.55722">
        <ele>747.56225585938</ele>
        <time>2010-09-26T14:21:17Z</time>
      </trkpt>
      <trkpt lat="45.64632" lon="4.55714">
        <ele>749.00439453125</ele>
        <time>2010-09-26T14:21:24Z</time>
      </trkpt>
      <trkpt lat="45.64659" lon="4.55712">
        <ele>750.44653320312</ele>
        <time>2010-09-26T14:21:34Z</time>
      </trkpt>
      <trkpt lat="45.64681" lon="4.55711">
        <ele>750.92700195312</ele>
        <time>2010-09-26T14:21:42Z</time>
      </trkpt>
      <trkpt lat="45.64709" lon="4.55711">
        <ele>752.849609375</ele>
        <time>2010-09-26T14:21:52Z</time>
      </trkpt>
      <trkpt lat="45.64734" lon="4.5571">
        <ele>754.29174804688</ele>
        <time>2010-09-26T14:22:01Z</time>
      </trkpt>
      <trkpt lat="45.64764" lon="4.5571">
        <ele>755.73364257812</ele>
        <time>2010-09-26T14:22:11Z</time>
      </trkpt>
      <trkpt lat="45.6479" lon="4.55711">
        <ele>757.65625</ele>
        <time>2010-09-26T14:22:20Z</time>
      </trkpt>
      <trkpt lat="45.6481" lon="4.55716">
        <ele>758.13696289062</ele>
        <time>2010-09-26T14:22:27Z</time>
      </trkpt>
      <trkpt lat="45.64839" lon="4.55733">
        <ele>759.57885742188</ele>
        <time>2010-09-26T14:22:38Z</time>
      </trkpt>
      <trkpt lat="45.64861" lon="4.55749">
        <ele>759.57885742188</ele>
        <time>2010-09-26T14:22:47Z</time>
      </trkpt>
      <trkpt lat="45.64881" lon="4.55763">
        <ele>761.50146484375</ele>
        <time>2010-09-26T14:22:55Z</time>
      </trkpt>
      <trkpt lat="45.64892" lon="4.55771">
        <ele>761.02075195312</ele>
        <time>2010-09-26T14:23:00Z</time>
      </trkpt>
      <trkpt lat="45.64896" lon="4.55767">
        <ele>762.943359375</ele>
        <time>2010-09-26T14:23:05Z</time>
      </trkpt>
      <trkpt lat="45.64894" lon="4.55766">
        <ele>762.943359375</ele>
        <time>2010-09-26T14:23:06Z</time>
      </trkpt>
      <trkpt lat="45.64875" lon="4.55753">
        <ele>761.50146484375</ele>
        <time>2010-09-26T14:23:14Z</time>
      </trkpt>
      <trkpt lat="45.64853" lon="4.55739">
        <ele>760.05932617188</ele>
        <time>2010-09-26T14:23:21Z</time>
      </trkpt>
      <trkpt lat="45.64846" lon="4.55736">
        <ele>760.05932617188</ele>
        <time>2010-09-26T14:23:23Z</time>
      </trkpt>
      <trkpt lat="45.64822" lon="4.55709">
        <ele>759.57885742188</ele>
        <time>2010-09-26T14:23:30Z</time>
      </trkpt>
      <trkpt lat="45.6481" lon="4.55694">
        <ele>759.57885742188</ele>
        <time>2010-09-26T14:23:35Z</time>
      </trkpt>
      <trkpt lat="45.64796" lon="4.5568">
        <ele>759.57885742188</ele>
        <time>2010-09-26T14:23:41Z</time>
      </trkpt>
      <trkpt lat="45.64779" lon="4.55667">
        <ele>759.57885742188</ele>
        <time>2010-09-26T14:23:47Z</time>
      </trkpt>
      <trkpt lat="45.64745" lon="4.5565">
        <ele>759.09814453125</ele>
        <time>2010-09-26T14:23:57Z</time>
      </trkpt>
      <trkpt lat="45.64717" lon="4.5564">
        <ele>759.09814453125</ele>
        <time>2010-09-26T14:24:05Z</time>
      </trkpt>
      <trkpt lat="45.64703" lon="4.55633">
        <ele>758.61743164062</ele>
        <time>2010-09-26T14:24:10Z</time>
      </trkpt>
      <trkpt lat="45.64689" lon="4.55626">
        <ele>759.09814453125</ele>
        <time>2010-09-26T14:24:15Z</time>
      </trkpt>
      <trkpt lat="45.64689" lon="4.55629">
        <ele>760.05932617188</ele>
        <time>2010-09-26T14:24:19Z</time>
      </trkpt>
      <trkpt lat="45.64711" lon="4.55637">
        <ele>759.57885742188</ele>
        <time>2010-09-26T14:24:26Z</time>
      </trkpt>
      <trkpt lat="45.64742" lon="4.55652">
        <ele>760.05932617188</ele>
        <time>2010-09-26T14:24:35Z</time>
      </trkpt>
      <trkpt lat="45.64761" lon="4.55662">
        <ele>759.57885742188</ele>
        <time>2010-09-26T14:24:40Z</time>
      </trkpt>
      <trkpt lat="45.64794" lon="4.55681">
        <ele>759.09814453125</ele>
        <time>2010-09-26T14:24:48Z</time>
      </trkpt>
      <trkpt lat="45.64817" lon="4.55705">
        <ele>758.13696289062</ele>
        <time>2010-09-26T14:24:55Z</time>
      </trkpt>
      <trkpt lat="45.64836" lon="4.55728">
        <ele>759.09814453125</ele>
        <time>2010-09-26T14:25:01Z</time>
      </trkpt>
      <trkpt lat="45.64856" lon="4.55744">
        <ele>759.57885742188</ele>
        <time>2010-09-26T14:25:08Z</time>
      </trkpt>
      <trkpt lat="45.64882" lon="4.55761">
        <ele>761.50146484375</ele>
        <time>2010-09-26T14:25:17Z</time>
      </trkpt>
      <trkpt lat="45.64906" lon="4.55777">
        <ele>761.98217773438</ele>
        <time>2010-09-26T14:25:25Z</time>
      </trkpt>
      <trkpt lat="45.6493" lon="4.55784">
        <ele>763.90454101562</ele>
        <time>2010-09-26T14:25:33Z</time>
      </trkpt>
      <trkpt lat="45.64952" lon="4.55787">
        <ele>764.8662109375</ele>
        <time>2010-09-26T14:25:41Z</time>
      </trkpt>
      <trkpt lat="45.64977" lon="4.55788">
        <ele>765.34692382812</ele>
        <time>2010-09-26T14:25:49Z</time>
      </trkpt>
      <trkpt lat="45.65002" lon="4.55789">
        <ele>766.30810546875</ele>
        <time>2010-09-26T14:25:57Z</time>
      </trkpt>
      <trkpt lat="45.65034" lon="4.55789">
        <ele>768.23071289062</ele>
        <time>2010-09-26T14:26:07Z</time>
      </trkpt>
      <trkpt lat="45.6506" lon="4.55789">
        <ele>768.23071289062</ele>
        <time>2010-09-26T14:26:16Z</time>
      </trkpt>
      <trkpt lat="45.65094" lon="4.55789">
        <ele>770.63403320312</ele>
        <time>2010-09-26T14:26:27Z</time>
      </trkpt>
      <trkpt lat="45.65125" lon="4.55789">
        <ele>772.556640625</ele>
        <time>2010-09-26T14:26:37Z</time>
      </trkpt>
      <trkpt lat="45.65141" lon="4.55791">
        <ele>772.07592773438</ele>
        <time>2010-09-26T14:26:43Z</time>
      </trkpt>
      <trkpt lat="45.65168" lon="4.55791">
        <ele>772.556640625</ele>
        <time>2010-09-26T14:26:51Z</time>
      </trkpt>
      <trkpt lat="45.65195" lon="4.55791">
        <ele>771.11474609375</ele>
        <time>2010-09-26T14:26:58Z</time>
      </trkpt>
      <trkpt lat="45.65233" lon="4.55795">
        <ele>771.11474609375</ele>
        <time>2010-09-26T14:27:06Z</time>
      </trkpt>
      <trkpt lat="45.65271" lon="4.55812">
        <ele>768.71142578125</ele>
        <time>2010-09-26T14:27:13Z</time>
      </trkpt>
      <trkpt lat="45.65277" lon="4.55816">
        <ele>769.19213867188</ele>
        <time>2010-09-26T14:27:14Z</time>
      </trkpt>
      <trkpt lat="45.65321" lon="4.55856">
        <ele>765.34692382812</ele>
        <time>2010-09-26T14:27:22Z</time>
      </trkpt>
      <trkpt lat="45.65374" lon="4.55909">
        <ele>761.50146484375</ele>
        <time>2010-09-26T14:27:31Z</time>
      </trkpt>
      <trkpt lat="45.6538" lon="4.55916">
        <ele>761.50146484375</ele>
        <time>2010-09-26T14:27:32Z</time>
      </trkpt>
      <trkpt lat="45.65386" lon="4.55923">
        <ele>760.5400390625</ele>
        <time>2010-09-26T14:27:33Z</time>
      </trkpt>
      <trkpt lat="45.6541" lon="4.55971">
        <ele>759.57885742188</ele>
        <time>2010-09-26T14:27:38Z</time>
      </trkpt>
      <trkpt lat="45.65413" lon="4.55996">
        <ele>759.09814453125</ele>
        <time>2010-09-26T14:27:40Z</time>
      </trkpt>
      <trkpt lat="45.65414" lon="4.56049">
        <ele>756.69482421875</ele>
        <time>2010-09-26T14:27:44Z</time>
      </trkpt>
      <trkpt lat="45.65415" lon="4.56089">
        <ele>754.77221679688</ele>
        <time>2010-09-26T14:27:47Z</time>
      </trkpt>
      <trkpt lat="45.65418" lon="4.56168">
        <ele>752.36889648438</ele>
        <time>2010-09-26T14:27:53Z</time>
      </trkpt>
      <trkpt lat="45.65427" lon="4.56207">
        <ele>750.92700195312</ele>
        <time>2010-09-26T14:27:56Z</time>
      </trkpt>
      <trkpt lat="45.65448" lon="4.56252">
        <ele>749.48510742188</ele>
        <time>2010-09-26T14:28:00Z</time>
      </trkpt>
      <trkpt lat="45.65474" lon="4.56274">
        <ele>749.00439453125</ele>
        <time>2010-09-26T14:28:03Z</time>
      </trkpt>
      <trkpt lat="45.65502" lon="4.56281">
        <ele>747.56225585938</ele>
        <time>2010-09-26T14:28:06Z</time>
      </trkpt>
      <trkpt lat="45.65539" lon="4.56281">
        <ele>745.15893554688</ele>
        <time>2010-09-26T14:28:10Z</time>
      </trkpt>
      <trkpt lat="45.65574" lon="4.56296">
        <ele>743.236328125</ele>
        <time>2010-09-26T14:28:14Z</time>
      </trkpt>
      <trkpt lat="45.65607" lon="4.56319">
        <ele>741.31372070312</ele>
        <time>2010-09-26T14:28:18Z</time>
      </trkpt>
      <trkpt lat="45.65643" lon="4.56326">
        <ele>739.39111328125</ele>
        <time>2010-09-26T14:28:22Z</time>
      </trkpt>
      <trkpt lat="45.65682" lon="4.56324">
        <ele>736.50732421875</ele>
        <time>2010-09-26T14:28:26Z</time>
      </trkpt>
      <trkpt lat="45.65692" lon="4.56324">
        <ele>735.5458984375</ele>
        <time>2010-09-26T14:28:27Z</time>
      </trkpt>
      <trkpt lat="45.6574" lon="4.56341">
        <ele>732.662109375</ele>
        <time>2010-09-26T14:28:32Z</time>
      </trkpt>
      <trkpt lat="45.65786" lon="4.56362">
        <ele>731.70043945312</ele>
        <time>2010-09-26T14:28:37Z</time>
      </trkpt>
      <trkpt lat="45.65842" lon="4.56387">
        <ele>729.29711914062</ele>
        <time>2010-09-26T14:28:44Z</time>
      </trkpt>
      <trkpt lat="45.65863" lon="4.56395">
        <ele>729.29711914062</ele>
        <time>2010-09-26T14:28:47Z</time>
      </trkpt>
      <trkpt lat="45.65883" lon="4.56411">
        <ele>730.25854492188</ele>
        <time>2010-09-26T14:28:51Z</time>
      </trkpt>
      <trkpt lat="45.65895" lon="4.56418">
        <ele>730.25854492188</ele>
        <time>2010-09-26T14:28:54Z</time>
      </trkpt>
      <trkpt lat="45.659" lon="4.56406">
        <ele>730.7392578125</ele>
        <time>2010-09-26T14:28:57Z</time>
      </trkpt>
      <trkpt lat="45.65899" lon="4.56401">
        <ele>730.7392578125</ele>
        <time>2010-09-26T14:28:58Z</time>
      </trkpt>
      <trkpt lat="45.659" lon="4.56367">
        <ele>730.7392578125</ele>
        <time>2010-09-26T14:29:04Z</time>
      </trkpt>
      <trkpt lat="45.65908" lon="4.56349">
        <ele>730.7392578125</ele>
        <time>2010-09-26T14:29:09Z</time>
      </trkpt>
      <trkpt lat="45.65914" lon="4.56331">
        <ele>731.21997070312</ele>
        <time>2010-09-26T14:29:15Z</time>
      </trkpt>
      <trkpt lat="45.65914" lon="4.56322">
        <ele>730.7392578125</ele>
        <time>2010-09-26T14:29:20Z</time>
      </trkpt>
      <trkpt lat="45.65913" lon="4.56321">
        <ele>731.21997070312</ele>
        <time>2010-09-26T14:29:21Z</time>
      </trkpt>
      <trkpt lat="45.65908" lon="4.56325">
        <ele>731.21997070312</ele>
        <time>2010-09-26T14:29:26Z</time>
      </trkpt>
      <trkpt lat="45.65908" lon="4.56329">
        <ele>731.21997070312</ele>
        <time>2010-09-26T14:29:27Z</time>
      </trkpt>
      <trkpt lat="45.65907" lon="4.56354">
        <ele>730.7392578125</ele>
        <time>2010-09-26T14:29:33Z</time>
      </trkpt>
      <trkpt lat="45.659" lon="4.56376">
        <ele>731.21997070312</ele>
        <time>2010-09-26T14:29:38Z</time>
      </trkpt>
      <trkpt lat="45.65901" lon="4.56381">
        <ele>730.7392578125</ele>
        <time>2010-09-26T14:29:41Z</time>
      </trkpt>
      <trkpt lat="45.65895" lon="4.56385">
        <ele>730.25854492188</ele>
        <time>2010-09-26T14:29:45Z</time>
      </trkpt>
      <trkpt lat="45.65899" lon="4.56396">
        <ele>731.21997070312</ele>
        <time>2010-09-26T14:29:49Z</time>
      </trkpt>
      <trkpt lat="45.659" lon="4.56402">
        <ele>730.7392578125</ele>
        <time>2010-09-26T14:29:51Z</time>
      </trkpt>
      <trkpt lat="45.65905" lon="4.56422">
        <ele>730.7392578125</ele>
        <time>2010-09-26T14:29:57Z</time>
      </trkpt>
      <trkpt lat="45.6591" lon="4.56434">
        <ele>731.21997070312</ele>
        <time>2010-09-26T14:30:01Z</time>
      </trkpt>
      <trkpt lat="45.65924" lon="4.56435">
        <ele>731.70043945312</ele>
        <time>2010-09-26T14:30:07Z</time>
      </trkpt>
      <trkpt lat="45.65935" lon="4.56429">
        <ele>732.662109375</ele>
        <time>2010-09-26T14:30:12Z</time>
      </trkpt>
      <trkpt lat="45.6595" lon="4.56421">
        <ele>734.10400390625</ele>
        <time>2010-09-26T14:30:18Z</time>
      </trkpt>
      <trkpt lat="45.6597" lon="4.5641">
        <ele>735.5458984375</ele>
        <time>2010-09-26T14:30:26Z</time>
      </trkpt>
      <trkpt lat="45.65992" lon="4.56397">
        <ele>736.98779296875</ele>
        <time>2010-09-26T14:30:35Z</time>
      </trkpt>
      <trkpt lat="45.66007" lon="4.56389">
        <ele>738.42993164062</ele>
        <time>2010-09-26T14:30:41Z</time>
      </trkpt>
      <trkpt lat="45.66029" lon="4.56377">
        <ele>738.91064453125</ele>
        <time>2010-09-26T14:30:49Z</time>
      </trkpt>
      <trkpt lat="45.66052" lon="4.56363">
        <ele>739.39111328125</ele>
        <time>2010-09-26T14:30:57Z</time>
      </trkpt>
      <trkpt lat="45.66078" lon="4.56349">
        <ele>739.39111328125</ele>
        <time>2010-09-26T14:31:05Z</time>
      </trkpt>
      <trkpt lat="45.66101" lon="4.5634">
        <ele>739.87182617188</ele>
        <time>2010-09-26T14:31:12Z</time>
      </trkpt>
      <trkpt lat="45.66125" lon="4.56331">
        <ele>739.87182617188</ele>
        <time>2010-09-26T14:31:19Z</time>
      </trkpt>
      <trkpt lat="45.66164" lon="4.56317">
        <ele>740.8330078125</ele>
        <time>2010-09-26T14:31:30Z</time>
      </trkpt>
      <trkpt lat="45.66191" lon="4.56312">
        <ele>740.3525390625</ele>
        <time>2010-09-26T14:31:37Z</time>
      </trkpt>
      <trkpt lat="45.6622" lon="4.56308">
        <ele>742.755859375</ele>
        <time>2010-09-26T14:31:45Z</time>
      </trkpt>
      <trkpt lat="45.66249" lon="4.56303">
        <ele>743.71704101562</ele>
        <time>2010-09-26T14:31:54Z</time>
      </trkpt>
      <trkpt lat="45.66278" lon="4.56297">
        <ele>744.19775390625</ele>
        <time>2010-09-26T14:32:03Z</time>
      </trkpt>
      <trkpt lat="45.66299" lon="4.56299">
        <ele>744.67822265625</ele>
        <time>2010-09-26T14:32:10Z</time>
      </trkpt>
      <trkpt lat="45.66314" lon="4.56298">
        <ele>745.15893554688</ele>
        <time>2010-09-26T14:32:15Z</time>
      </trkpt>
      <trkpt lat="45.66326" lon="4.56307">
        <ele>745.15893554688</ele>
        <time>2010-09-26T14:32:20Z</time>
      </trkpt>
      <trkpt lat="45.66338" lon="4.56317">
        <ele>745.6396484375</ele>
        <time>2010-09-26T14:32:25Z</time>
      </trkpt>
      <trkpt lat="45.66349" lon="4.56311">
        <ele>746.60107421875</ele>
        <time>2010-09-26T14:32:30Z</time>
      </trkpt>
      <trkpt lat="45.66355" lon="4.56297">
        <ele>744.67822265625</ele>
        <time>2010-09-26T14:32:34Z</time>
      </trkpt>
      <trkpt lat="45.66362" lon="4.56277">
        <ele>744.19775390625</ele>
        <time>2010-09-26T14:32:38Z</time>
      </trkpt>
      <trkpt lat="45.66374" lon="4.56252">
        <ele>740.8330078125</ele>
        <time>2010-09-26T14:32:42Z</time>
      </trkpt>
      <trkpt lat="45.66377" lon="4.56246">
        <ele>739.39111328125</ele>
        <time>2010-09-26T14:32:43Z</time>
      </trkpt>
      <trkpt lat="45.66393" lon="4.56245">
        <ele>737.94921875</ele>
        <time>2010-09-26T14:32:47Z</time>
      </trkpt>
      <trkpt lat="45.66433" lon="4.56268">
        <ele>736.98779296875</ele>
        <time>2010-09-26T14:32:56Z</time>
      </trkpt>
      <trkpt lat="45.66464" lon="4.56285">
        <ele>735.5458984375</ele>
        <time>2010-09-26T14:33:03Z</time>
      </trkpt>
      <trkpt lat="45.66495" lon="4.56295">
        <ele>735.0654296875</ele>
        <time>2010-09-26T14:33:09Z</time>
      </trkpt>
      <trkpt lat="45.66506" lon="4.56297">
        <ele>734.10400390625</ele>
        <time>2010-09-26T14:33:11Z</time>
      </trkpt>
      <trkpt lat="45.66527" lon="4.56308">
        <ele>734.58471679688</ele>
        <time>2010-09-26T14:33:15Z</time>
      </trkpt>
      <trkpt lat="45.66553" lon="4.56337">
        <ele>735.0654296875</ele>
        <time>2010-09-26T14:33:21Z</time>
      </trkpt>
      <trkpt lat="45.66563" lon="4.56355">
        <ele>735.5458984375</ele>
        <time>2010-09-26T14:33:24Z</time>
      </trkpt>
      <trkpt lat="45.66577" lon="4.56389">
        <ele>736.02661132812</ele>
        <time>2010-09-26T14:33:30Z</time>
      </trkpt>
      <trkpt lat="45.666" lon="4.56408">
        <ele>736.02661132812</ele>
        <time>2010-09-26T14:33:35Z</time>
      </trkpt>
      <trkpt lat="45.66605" lon="4.56409">
        <ele>735.5458984375</ele>
        <time>2010-09-26T14:33:36Z</time>
      </trkpt>
      <trkpt lat="45.6663" lon="4.5641">
        <ele>736.02661132812</ele>
        <time>2010-09-26T14:33:42Z</time>
      </trkpt>
      <trkpt lat="45.66647" lon="4.56414">
        <ele>736.02661132812</ele>
        <time>2010-09-26T14:33:46Z</time>
      </trkpt>
      <trkpt lat="45.66682" lon="4.56442">
        <ele>736.98779296875</ele>
        <time>2010-09-26T14:33:55Z</time>
      </trkpt>
      <trkpt lat="45.66692" lon="4.56463">
        <ele>737.46850585938</ele>
        <time>2010-09-26T14:33:59Z</time>
      </trkpt>
      <trkpt lat="45.66711" lon="4.5653">
        <ele>738.91064453125</ele>
        <time>2010-09-26T14:34:11Z</time>
      </trkpt>
      <trkpt lat="45.66717" lon="4.56546">
        <ele>738.42993164062</ele>
        <time>2010-09-26T14:34:14Z</time>
      </trkpt>
      <trkpt lat="45.66738" lon="4.5657">
        <ele>738.42993164062</ele>
        <time>2010-09-26T14:34:20Z</time>
      </trkpt>
      <trkpt lat="45.66756" lon="4.56574">
        <ele>738.42993164062</ele>
        <time>2010-09-26T14:34:24Z</time>
      </trkpt>
      <trkpt lat="45.66804" lon="4.56571">
        <ele>739.39111328125</ele>
        <time>2010-09-26T14:34:35Z</time>
      </trkpt>
      <trkpt lat="45.66837" lon="4.56557">
        <ele>739.39111328125</ele>
        <time>2010-09-26T14:34:43Z</time>
      </trkpt>
      <trkpt lat="45.66841" lon="4.56555">
        <ele>739.39111328125</ele>
        <time>2010-09-26T14:34:44Z</time>
      </trkpt>
      <trkpt lat="45.66854" lon="4.56552">
        <ele>739.87182617188</ele>
        <time>2010-09-26T14:34:47Z</time>
      </trkpt>
      <trkpt lat="45.66884" lon="4.56558">
        <ele>739.87182617188</ele>
        <time>2010-09-26T14:34:54Z</time>
      </trkpt>
      <trkpt lat="45.66918" lon="4.56564">
        <ele>739.87182617188</ele>
        <time>2010-09-26T14:35:02Z</time>
      </trkpt>
      <trkpt lat="45.66952" lon="4.56555">
        <ele>740.3525390625</ele>
        <time>2010-09-26T14:35:10Z</time>
      </trkpt>
      <trkpt lat="45.66998" lon="4.56535">
        <ele>740.3525390625</ele>
        <time>2010-09-26T14:35:21Z</time>
      </trkpt>
      <trkpt lat="45.67032" lon="4.56515">
        <ele>740.8330078125</ele>
        <time>2010-09-26T14:35:29Z</time>
      </trkpt>
      <trkpt lat="45.67065" lon="4.56489">
        <ele>740.8330078125</ele>
        <time>2010-09-26T14:35:37Z</time>
      </trkpt>
      <trkpt lat="45.67096" lon="4.5646">
        <ele>741.31372070312</ele>
        <time>2010-09-26T14:35:45Z</time>
      </trkpt>
      <trkpt lat="45.67128" lon="4.56434">
        <ele>741.31372070312</ele>
        <time>2010-09-26T14:35:53Z</time>
      </trkpt>
      <trkpt lat="45.67147" lon="4.56428">
        <ele>739.87182617188</ele>
        <time>2010-09-26T14:35:57Z</time>
      </trkpt>
      <trkpt lat="45.67174" lon="4.56433">
        <ele>738.91064453125</ele>
        <time>2010-09-26T14:36:02Z</time>
      </trkpt>
      <trkpt lat="45.67202" lon="4.56456">
        <ele>737.46850585938</ele>
        <time>2010-09-26T14:36:08Z</time>
      </trkpt>
      <trkpt lat="45.67213" lon="4.56484">
        <ele>737.46850585938</ele>
        <time>2010-09-26T14:36:12Z</time>
      </trkpt>
      <trkpt lat="45.67218" lon="4.56527">
        <ele>736.02661132812</ele>
        <time>2010-09-26T14:36:17Z</time>
      </trkpt>
      <trkpt lat="45.67209" lon="4.566">
        <ele>733.62329101562</ele>
        <time>2010-09-26T14:36:25Z</time>
      </trkpt>
      <trkpt lat="45.67205" lon="4.56645">
        <ele>732.18139648438</ele>
        <time>2010-09-26T14:36:30Z</time>
      </trkpt>
      <trkpt lat="45.67207" lon="4.56683">
        <ele>731.21997070312</ele>
        <time>2010-09-26T14:36:34Z</time>
      </trkpt>
      <trkpt lat="45.67221" lon="4.56717">
        <ele>731.21997070312</ele>
        <time>2010-09-26T14:36:38Z</time>
      </trkpt>
      <trkpt lat="45.6724" lon="4.5673">
        <ele>729.77783203125</ele>
        <time>2010-09-26T14:36:41Z</time>
      </trkpt>
      <trkpt lat="45.67254" lon="4.56729">
        <ele>728.81665039062</ele>
        <time>2010-09-26T14:36:43Z</time>
      </trkpt>
      <trkpt lat="45.6726" lon="4.56727">
        <ele>728.3359375</ele>
        <time>2010-09-26T14:36:44Z</time>
      </trkpt>
      <trkpt lat="45.67303" lon="4.5671">
        <ele>727.37475585938</ele>
        <time>2010-09-26T14:36:51Z</time>
      </trkpt>
      <trkpt lat="45.67326" lon="4.56711">
        <ele>727.85522460938</ele>
        <time>2010-09-26T14:36:55Z</time>
      </trkpt>
      <trkpt lat="45.67363" lon="4.56727">
        <ele>728.3359375</ele>
        <time>2010-09-26T14:37:03Z</time>
      </trkpt>
      <trkpt lat="45.67392" lon="4.56746">
        <ele>728.81665039062</ele>
        <time>2010-09-26T14:37:11Z</time>
      </trkpt>
      <trkpt lat="45.67408" lon="4.56767">
        <ele>729.29711914062</ele>
        <time>2010-09-26T14:37:17Z</time>
      </trkpt>
      <trkpt lat="45.67429" lon="4.56788">
        <ele>730.25854492188</ele>
        <time>2010-09-26T14:37:24Z</time>
      </trkpt>
      <trkpt lat="45.67449" lon="4.56793">
        <ele>731.21997070312</ele>
        <time>2010-09-26T14:37:30Z</time>
      </trkpt>
      <trkpt lat="45.67476" lon="4.56792">
        <ele>731.70043945312</ele>
        <time>2010-09-26T14:37:38Z</time>
      </trkpt>
      <trkpt lat="45.67513" lon="4.5679">
        <ele>733.142578125</ele>
        <time>2010-09-26T14:37:49Z</time>
      </trkpt>
      <trkpt lat="45.67548" lon="4.56789">
        <ele>734.58471679688</ele>
        <time>2010-09-26T14:38:00Z</time>
      </trkpt>
      <trkpt lat="45.67575" lon="4.5679">
        <ele>735.0654296875</ele>
        <time>2010-09-26T14:38:09Z</time>
      </trkpt>
      <trkpt lat="45.67601" lon="4.56801">
        <ele>736.50732421875</ele>
        <time>2010-09-26T14:38:17Z</time>
      </trkpt>
      <trkpt lat="45.67636" lon="4.56819">
        <ele>736.98779296875</ele>
        <time>2010-09-26T14:38:28Z</time>
      </trkpt>
      <trkpt lat="45.67664" lon="4.56833">
        <ele>739.39111328125</ele>
        <time>2010-09-26T14:38:37Z</time>
      </trkpt>
      <trkpt lat="45.6769" lon="4.56836">
        <ele>739.39111328125</ele>
        <time>2010-09-26T14:38:45Z</time>
      </trkpt>
      <trkpt lat="45.6772" lon="4.56833">
        <ele>740.8330078125</ele>
        <time>2010-09-26T14:38:54Z</time>
      </trkpt>
      <trkpt lat="45.67751" lon="4.56829">
        <ele>743.236328125</ele>
        <time>2010-09-26T14:39:04Z</time>
      </trkpt>
      <trkpt lat="45.67774" lon="4.56827">
        <ele>743.236328125</ele>
        <time>2010-09-26T14:39:11Z</time>
      </trkpt>
      <trkpt lat="45.67801" lon="4.56831">
        <ele>743.236328125</ele>
        <time>2010-09-26T14:39:19Z</time>
      </trkpt>
      <trkpt lat="45.6782" lon="4.5684">
        <ele>743.236328125</ele>
        <time>2010-09-26T14:39:25Z</time>
      </trkpt>
      <trkpt lat="45.67845" lon="4.56862">
        <ele>745.15893554688</ele>
        <time>2010-09-26T14:39:34Z</time>
      </trkpt>
      <trkpt lat="45.67867" lon="4.56882">
        <ele>745.15893554688</ele>
        <time>2010-09-26T14:39:42Z</time>
      </trkpt>
      <trkpt lat="45.67896" lon="4.56907">
        <ele>748.04321289062</ele>
        <time>2010-09-26T14:39:52Z</time>
      </trkpt>
      <trkpt lat="45.6792" lon="4.56917">
        <ele>748.52368164062</ele>
        <time>2010-09-26T14:39:59Z</time>
      </trkpt>
      <trkpt lat="45.67945" lon="4.56914">
        <ele>749.9658203125</ele>
        <time>2010-09-26T14:40:07Z</time>
      </trkpt>
      <trkpt lat="45.67971" lon="4.56908">
        <ele>750.44653320312</ele>
        <time>2010-09-26T14:40:15Z</time>
      </trkpt>
      <trkpt lat="45.68008" lon="4.56898">
        <ele>752.36889648438</ele>
        <time>2010-09-26T14:40:27Z</time>
      </trkpt>
      <trkpt lat="45.68031" lon="4.56894">
        <ele>753.81103515625</ele>
        <time>2010-09-26T14:40:35Z</time>
      </trkpt>
      <trkpt lat="45.68056" lon="4.56896">
        <ele>754.77221679688</ele>
        <time>2010-09-26T14:40:44Z</time>
      </trkpt>
      <trkpt lat="45.68087" lon="4.56909">
        <ele>755.73364257812</ele>
        <time>2010-09-26T14:40:55Z</time>
      </trkpt>
      <trkpt lat="45.68117" lon="4.56916">
        <ele>756.69482421875</ele>
        <time>2010-09-26T14:41:05Z</time>
      </trkpt>
      <trkpt lat="45.6814" lon="4.56908">
        <ele>758.13696289062</ele>
        <time>2010-09-26T14:41:13Z</time>
      </trkpt>
      <trkpt lat="45.68157" lon="4.56893">
        <ele>759.57885742188</ele>
        <time>2010-09-26T14:41:20Z</time>
      </trkpt>
      <trkpt lat="45.68176" lon="4.5688">
        <ele>759.57885742188</ele>
        <time>2010-09-26T14:41:27Z</time>
      </trkpt>
      <trkpt lat="45.68192" lon="4.56884">
        <ele>759.57885742188</ele>
        <time>2010-09-26T14:41:33Z</time>
      </trkpt>
      <trkpt lat="45.68201" lon="4.56899">
        <ele>760.05932617188</ele>
        <time>2010-09-26T14:41:38Z</time>
      </trkpt>
      <trkpt lat="45.68208" lon="4.56933">
        <ele>761.98217773438</ele>
        <time>2010-09-26T14:41:47Z</time>
      </trkpt>
      <trkpt lat="45.68211" lon="4.56969">
        <ele>763.42407226562</ele>
        <time>2010-09-26T14:41:57Z</time>
      </trkpt>
      <trkpt lat="45.68214" lon="4.56998">
        <ele>764.38549804688</ele>
        <time>2010-09-26T14:42:05Z</time>
      </trkpt>
      <trkpt lat="45.68215" lon="4.57023">
        <ele>765.34692382812</ele>
        <time>2010-09-26T14:42:12Z</time>
      </trkpt>
      <trkpt lat="45.68214" lon="4.57056">
        <ele>767.26953125</ele>
        <time>2010-09-26T14:42:21Z</time>
      </trkpt>
      <trkpt lat="45.68208" lon="4.5709">
        <ele>767.75</ele>
        <time>2010-09-26T14:42:29Z</time>
      </trkpt>
      <trkpt lat="45.68198" lon="4.57129">
        <ele>768.23071289062</ele>
        <time>2010-09-26T14:42:38Z</time>
      </trkpt>
      <trkpt lat="45.68193" lon="4.57151">
        <ele>768.71142578125</ele>
        <time>2010-09-26T14:42:44Z</time>
      </trkpt>
      <trkpt lat="45.68187" lon="4.57196">
        <ele>768.71142578125</ele>
        <time>2010-09-26T14:42:53Z</time>
      </trkpt>
      <trkpt lat="45.68187" lon="4.57247">
        <ele>770.1533203125</ele>
        <time>2010-09-26T14:43:03Z</time>
      </trkpt>
      <trkpt lat="45.68197" lon="4.57282">
        <ele>771.59521484375</ele>
        <time>2010-09-26T14:43:11Z</time>
      </trkpt>
      <trkpt lat="45.68216" lon="4.57311">
        <ele>772.07592773438</ele>
        <time>2010-09-26T14:43:19Z</time>
      </trkpt>
      <trkpt lat="45.68242" lon="4.57355">
        <ele>773.99853515625</ele>
        <time>2010-09-26T14:43:31Z</time>
      </trkpt>
      <trkpt lat="45.68259" lon="4.57396">
        <ele>774.9599609375</ele>
        <time>2010-09-26T14:43:41Z</time>
      </trkpt>
      <trkpt lat="45.68273" lon="4.57436">
        <ele>775.92114257812</ele>
        <time>2010-09-26T14:43:50Z</time>
      </trkpt>
      <trkpt lat="45.68289" lon="4.57458">
        <ele>776.40185546875</ele>
        <time>2010-09-26T14:43:56Z</time>
      </trkpt>
      <trkpt lat="45.68319" lon="4.57476">
        <ele>776.40185546875</ele>
        <time>2010-09-26T14:44:04Z</time>
      </trkpt>
      <trkpt lat="45.68355" lon="4.57494">
        <ele>776.88256835938</ele>
        <time>2010-09-26T14:44:13Z</time>
      </trkpt>
      <trkpt lat="45.68387" lon="4.57519">
        <ele>777.36328125</ele>
        <time>2010-09-26T14:44:22Z</time>
      </trkpt>
      <trkpt lat="45.68418" lon="4.57559">
        <ele>778.32446289062</ele>
        <time>2010-09-26T14:44:32Z</time>
      </trkpt>
      <trkpt lat="45.6844" lon="4.57592">
        <ele>777.84375</ele>
        <time>2010-09-26T14:44:40Z</time>
      </trkpt>
      <trkpt lat="45.68456" lon="4.57604">
        <ele>776.40185546875</ele>
        <time>2010-09-26T14:44:44Z</time>
      </trkpt>
      <trkpt lat="45.68488" lon="4.57619">
        <ele>775.4404296875</ele>
        <time>2010-09-26T14:44:51Z</time>
      </trkpt>
      <trkpt lat="45.68531" lon="4.57635">
        <ele>774.47924804688</ele>
        <time>2010-09-26T14:44:59Z</time>
      </trkpt>
      <trkpt lat="45.6858" lon="4.5765">
        <ele>774.47924804688</ele>
        <time>2010-09-26T14:45:08Z</time>
      </trkpt>
      <trkpt lat="45.68617" lon="4.5766">
        <ele>774.9599609375</ele>
        <time>2010-09-26T14:45:16Z</time>
      </trkpt>
      <trkpt lat="45.68652" lon="4.57672">
        <ele>774.9599609375</ele>
        <time>2010-09-26T14:45:24Z</time>
      </trkpt>
      <trkpt lat="45.68679" lon="4.57675">
        <ele>774.47924804688</ele>
        <time>2010-09-26T14:45:30Z</time>
      </trkpt>
      <trkpt lat="45.68716" lon="4.57678">
        <ele>772.556640625</ele>
        <time>2010-09-26T14:45:38Z</time>
      </trkpt>
      <trkpt lat="45.68748" lon="4.57682">
        <ele>771.59521484375</ele>
        <time>2010-09-26T14:45:44Z</time>
      </trkpt>
      <trkpt lat="45.68794" lon="4.57681">
        <ele>772.07592773438</ele>
        <time>2010-09-26T14:45:52Z</time>
      </trkpt>
      <trkpt lat="45.68828" lon="4.57661">
        <ele>772.07592773438</ele>
        <time>2010-09-26T14:45:59Z</time>
      </trkpt>
      <trkpt lat="45.68861" lon="4.57635">
        <ele>772.07592773438</ele>
        <time>2010-09-26T14:46:07Z</time>
      </trkpt>
      <trkpt lat="45.68876" lon="4.57603">
        <ele>772.556640625</ele>
        <time>2010-09-26T14:46:13Z</time>
      </trkpt>
      <trkpt lat="45.68878" lon="4.57578">
        <ele>773.03735351562</ele>
        <time>2010-09-26T14:46:17Z</time>
      </trkpt>
      <trkpt lat="45.68887" lon="4.57527">
        <ele>773.99853515625</ele>
        <time>2010-09-26T14:46:26Z</time>
      </trkpt>
      <trkpt lat="45.68889" lon="4.57489">
        <ele>773.99853515625</ele>
        <time>2010-09-26T14:46:33Z</time>
      </trkpt>
      <trkpt lat="45.68893" lon="4.57445">
        <ele>774.9599609375</ele>
        <time>2010-09-26T14:46:41Z</time>
      </trkpt>
      <trkpt lat="45.68911" lon="4.57421">
        <ele>775.4404296875</ele>
        <time>2010-09-26T14:46:47Z</time>
      </trkpt>
      <trkpt lat="45.68933" lon="4.57414">
        <ele>775.4404296875</ele>
        <time>2010-09-26T14:46:53Z</time>
      </trkpt>
      <trkpt lat="45.68952" lon="4.57422">
        <ele>775.4404296875</ele>
        <time>2010-09-26T14:46:58Z</time>
      </trkpt>
      <trkpt lat="45.68967" lon="4.57431">
        <ele>775.4404296875</ele>
        <time>2010-09-26T14:47:02Z</time>
      </trkpt>
      <trkpt lat="45.68993" lon="4.57427">
        <ele>775.4404296875</ele>
        <time>2010-09-26T14:47:08Z</time>
      </trkpt>
      <trkpt lat="45.69002" lon="4.5742">
        <ele>775.92114257812</ele>
        <time>2010-09-26T14:47:10Z</time>
      </trkpt>
      <trkpt lat="45.69009" lon="4.57412">
        <ele>775.4404296875</ele>
        <time>2010-09-26T14:47:12Z</time>
      </trkpt>
      <trkpt lat="45.69034" lon="4.57369">
        <ele>775.92114257812</ele>
        <time>2010-09-26T14:47:21Z</time>
      </trkpt>
      <trkpt lat="45.69046" lon="4.57346">
        <ele>775.4404296875</ele>
        <time>2010-09-26T14:47:26Z</time>
      </trkpt>
      <trkpt lat="45.6906" lon="4.57326">
        <ele>776.88256835938</ele>
        <time>2010-09-26T14:47:32Z</time>
      </trkpt>
      <trkpt lat="45.69077" lon="4.57311">
        <ele>776.88256835938</ele>
        <time>2010-09-26T14:47:37Z</time>
      </trkpt>
      <trkpt lat="45.69085" lon="4.57303">
        <ele>776.88256835938</ele>
        <time>2010-09-26T14:47:39Z</time>
      </trkpt>
      <trkpt lat="45.69105" lon="4.57273">
        <ele>776.88256835938</ele>
        <time>2010-09-26T14:47:45Z</time>
      </trkpt>
      <trkpt lat="45.69106" lon="4.57267">
        <ele>777.36328125</ele>
        <time>2010-09-26T14:47:46Z</time>
      </trkpt>
      <trkpt lat="45.69107" lon="4.57256">
        <ele>777.36328125</ele>
        <time>2010-09-26T14:47:48Z</time>
      </trkpt>
      <trkpt lat="45.69107" lon="4.57232">
        <ele>777.36328125</ele>
        <time>2010-09-26T14:47:52Z</time>
      </trkpt>
      <trkpt lat="45.69106" lon="4.57202">
        <ele>777.36328125</ele>
        <time>2010-09-26T14:47:57Z</time>
      </trkpt>
      <trkpt lat="45.69109" lon="4.57182">
        <ele>777.36328125</ele>
        <time>2010-09-26T14:48:00Z</time>
      </trkpt>
      <trkpt lat="45.69124" lon="4.57163">
        <ele>777.84375</ele>
        <time>2010-09-26T14:48:05Z</time>
      </trkpt>
      <trkpt lat="45.6914" lon="4.57167">
        <ele>777.84375</ele>
        <time>2010-09-26T14:48:09Z</time>
      </trkpt>
      <trkpt lat="45.69153" lon="4.57183">
        <ele>778.80517578125</ele>
        <time>2010-09-26T14:48:13Z</time>
      </trkpt>
      <trkpt lat="45.69168" lon="4.57221">
        <ele>780.24731445312</ele>
        <time>2010-09-26T14:48:20Z</time>
      </trkpt>
      <trkpt lat="45.69178" lon="4.57246">
        <ele>780.72802734375</ele>
        <time>2010-09-26T14:48:25Z</time>
      </trkpt>
      <trkpt lat="45.69196" lon="4.57268">
        <ele>781.20874023438</ele>
        <time>2010-09-26T14:48:31Z</time>
      </trkpt>
      <trkpt lat="45.69207" lon="4.5727">
        <ele>781.68920898438</ele>
        <time>2010-09-26T14:48:34Z</time>
      </trkpt>
      <trkpt lat="45.69227" lon="4.57268">
        <ele>782.169921875</ele>
        <time>2010-09-26T14:48:39Z</time>
      </trkpt>
      <trkpt lat="45.69244" lon="4.5728">
        <ele>782.169921875</ele>
        <time>2010-09-26T14:48:44Z</time>
      </trkpt>
      <trkpt lat="45.69249" lon="4.57289">
        <ele>782.65063476562</ele>
        <time>2010-09-26T14:48:46Z</time>
      </trkpt>
      <trkpt lat="45.69265" lon="4.57347">
        <ele>785.05395507812</ele>
        <time>2010-09-26T14:48:56Z</time>
      </trkpt>
      <trkpt lat="45.69267" lon="4.57352">
        <ele>785.05395507812</ele>
        <time>2010-09-26T14:48:57Z</time>
      </trkpt>
      <trkpt lat="45.69283" lon="4.57384">
        <ele>785.53442382812</ele>
        <time>2010-09-26T14:49:04Z</time>
      </trkpt>
      <trkpt lat="45.6931" lon="4.57409">
        <ele>786.97631835938</ele>
        <time>2010-09-26T14:49:12Z</time>
      </trkpt>
      <trkpt lat="45.69341" lon="4.57417">
        <ele>787.45703125</ele>
        <time>2010-09-26T14:49:20Z</time>
      </trkpt>
      <trkpt lat="45.69372" lon="4.57427">
        <ele>788.41845703125</ele>
        <time>2010-09-26T14:49:28Z</time>
      </trkpt>
      <trkpt lat="45.69395" lon="4.57448">
        <ele>789.37963867188</ele>
        <time>2010-09-26T14:49:36Z</time>
      </trkpt>
      <trkpt lat="45.69422" lon="4.57477">
        <ele>790.34106445312</ele>
        <time>2010-09-26T14:49:46Z</time>
      </trkpt>
      <trkpt lat="45.69445" lon="4.57501">
        <ele>790.82153320312</ele>
        <time>2010-09-26T14:49:54Z</time>
      </trkpt>
      <trkpt lat="45.69467" lon="4.57524">
        <ele>790.82153320312</ele>
        <time>2010-09-26T14:50:02Z</time>
      </trkpt>
      <trkpt lat="45.69496" lon="4.57546">
        <ele>789.37963867188</ele>
        <time>2010-09-26T14:50:11Z</time>
      </trkpt>
      <trkpt lat="45.69512" lon="4.57548">
        <ele>788.89916992188</ele>
        <time>2010-09-26T14:50:15Z</time>
      </trkpt>
      <trkpt lat="45.6952" lon="4.57547">
        <ele>788.89916992188</ele>
        <time>2010-09-26T14:50:17Z</time>
      </trkpt>
      <trkpt lat="45.69547" lon="4.57538">
        <ele>788.41845703125</ele>
        <time>2010-09-26T14:50:23Z</time>
      </trkpt>
      <trkpt lat="45.69584" lon="4.57513">
        <ele>787.45703125</ele>
        <time>2010-09-26T14:50:30Z</time>
      </trkpt>
      <trkpt lat="45.69627" lon="4.57477">
        <ele>785.53442382812</ele>
        <time>2010-09-26T14:50:37Z</time>
      </trkpt>
      <trkpt lat="45.69655" lon="4.5745">
        <ele>783.61181640625</ele>
        <time>2010-09-26T14:50:42Z</time>
      </trkpt>
      <trkpt lat="45.6966" lon="4.57444">
        <ele>782.65063476562</ele>
        <time>2010-09-26T14:50:43Z</time>
      </trkpt>
      <trkpt lat="45.69685" lon="4.5741">
        <ele>781.20874023438</ele>
        <time>2010-09-26T14:50:48Z</time>
      </trkpt>
      <trkpt lat="45.69714" lon="4.57362">
        <ele>778.80517578125</ele>
        <time>2010-09-26T14:50:54Z</time>
      </trkpt>
      <trkpt lat="45.69737" lon="4.57324">
        <ele>777.36328125</ele>
        <time>2010-09-26T14:50:59Z</time>
      </trkpt>
      <trkpt lat="45.69751" lon="4.57303">
        <ele>776.88256835938</ele>
        <time>2010-09-26T14:51:02Z</time>
      </trkpt>
      <trkpt lat="45.69778" lon="4.57301">
        <ele>775.92114257812</ele>
        <time>2010-09-26T14:51:06Z</time>
      </trkpt>
      <trkpt lat="45.69794" lon="4.57299">
        <ele>774.9599609375</ele>
        <time>2010-09-26T14:51:08Z</time>
      </trkpt>
      <trkpt lat="45.69822" lon="4.57282">
        <ele>773.99853515625</ele>
        <time>2010-09-26T14:51:12Z</time>
      </trkpt>
      <trkpt lat="45.69828" lon="4.57276">
        <ele>773.99853515625</ele>
        <time>2010-09-26T14:51:13Z</time>
      </trkpt>
      <trkpt lat="45.6986" lon="4.57236">
        <ele>772.556640625</ele>
        <time>2010-09-26T14:51:18Z</time>
      </trkpt>
      <trkpt lat="45.69894" lon="4.57186">
        <ele>770.1533203125</ele>
        <time>2010-09-26T14:51:24Z</time>
      </trkpt>
      <trkpt lat="45.699" lon="4.57178">
        <ele>770.1533203125</ele>
        <time>2010-09-26T14:51:25Z</time>
      </trkpt>
      <trkpt lat="45.69935" lon="4.57125">
        <ele>769.19213867188</ele>
        <time>2010-09-26T14:51:31Z</time>
      </trkpt>
      <trkpt lat="45.6994" lon="4.57116">
        <ele>768.23071289062</ele>
        <time>2010-09-26T14:51:32Z</time>
      </trkpt>
      <trkpt lat="45.69958" lon="4.57076">
        <ele>767.75</ele>
        <time>2010-09-26T14:51:36Z</time>
      </trkpt>
      <trkpt lat="45.69962" lon="4.57056">
        <ele>766.78881835938</ele>
        <time>2010-09-26T14:51:38Z</time>
      </trkpt>
      <trkpt lat="45.69983" lon="4.57032">
        <ele>766.78881835938</ele>
        <time>2010-09-26T14:51:42Z</time>
      </trkpt>
      <trkpt lat="45.70001" lon="4.57036">
        <ele>765.34692382812</ele>
        <time>2010-09-26T14:51:44Z</time>
      </trkpt>
      <trkpt lat="45.7001" lon="4.57037">
        <ele>765.82763671875</ele>
        <time>2010-09-26T14:51:45Z</time>
      </trkpt>
      <trkpt lat="45.70051" lon="4.57021">
        <ele>764.8662109375</ele>
        <time>2010-09-26T14:51:50Z</time>
      </trkpt>
      <trkpt lat="45.70089" lon="4.56977">
        <ele>763.42407226562</ele>
        <time>2010-09-26T14:51:56Z</time>
      </trkpt>
      <trkpt lat="45.70116" lon="4.56942">
        <ele>761.50146484375</ele>
        <time>2010-09-26T14:52:01Z</time>
      </trkpt>
      <trkpt lat="45.70132" lon="4.56921">
        <ele>761.50146484375</ele>
        <time>2010-09-26T14:52:04Z</time>
      </trkpt>
      <trkpt lat="45.70161" lon="4.56925">
        <ele>760.5400390625</ele>
        <time>2010-09-26T14:52:08Z</time>
      </trkpt>
      <trkpt lat="45.70187" lon="4.56967">
        <ele>760.5400390625</ele>
        <time>2010-09-26T14:52:13Z</time>
      </trkpt>
      <trkpt lat="45.70204" lon="4.57025">
        <ele>759.09814453125</ele>
        <time>2010-09-26T14:52:19Z</time>
      </trkpt>
      <trkpt lat="45.70208" lon="4.57034">
        <ele>759.09814453125</ele>
        <time>2010-09-26T14:52:20Z</time>
      </trkpt>
      <trkpt lat="45.70219" lon="4.57076">
        <ele>758.13696289062</ele>
        <time>2010-09-26T14:52:24Z</time>
      </trkpt>
      <trkpt lat="45.70224" lon="4.57155">
        <ele>756.69482421875</ele>
        <time>2010-09-26T14:52:31Z</time>
      </trkpt>
      <trkpt lat="45.70226" lon="4.57229">
        <ele>756.21411132812</ele>
        <time>2010-09-26T14:52:38Z</time>
      </trkpt>
      <trkpt lat="45.70232" lon="4.57292">
        <ele>754.29174804688</ele>
        <time>2010-09-26T14:52:45Z</time>
      </trkpt>
      <trkpt lat="45.70237" lon="4.57371">
        <ele>753.81103515625</ele>
        <time>2010-09-26T14:52:54Z</time>
      </trkpt>
      <trkpt lat="45.70238" lon="4.57407">
        <ele>752.36889648438</ele>
        <time>2010-09-26T14:52:58Z</time>
      </trkpt>
      <trkpt lat="45.70233" lon="4.57464">
        <ele>752.36889648438</ele>
        <time>2010-09-26T14:53:04Z</time>
      </trkpt>
      <trkpt lat="45.70228" lon="4.57504">
        <ele>750.92700195312</ele>
        <time>2010-09-26T14:53:08Z</time>
      </trkpt>
      <trkpt lat="45.70227" lon="4.57554">
        <ele>750.44653320312</ele>
        <time>2010-09-26T14:53:13Z</time>
      </trkpt>
      <trkpt lat="45.70237" lon="4.57593">
        <ele>749.00439453125</ele>
        <time>2010-09-26T14:53:17Z</time>
      </trkpt>
      <trkpt lat="45.70264" lon="4.57653">
        <ele>747.08154296875</ele>
        <time>2010-09-26T14:53:24Z</time>
      </trkpt>
      <trkpt lat="45.70267" lon="4.57661">
        <ele>747.56225585938</ele>
        <time>2010-09-26T14:53:25Z</time>
      </trkpt>
      <trkpt lat="45.70276" lon="4.57708">
        <ele>747.08154296875</ele>
        <time>2010-09-26T14:53:30Z</time>
      </trkpt>
      <trkpt lat="45.70276" lon="4.57788">
        <ele>745.15893554688</ele>
        <time>2010-09-26T14:53:38Z</time>
      </trkpt>
      <trkpt lat="45.70275" lon="4.57808">
        <ele>745.15893554688</ele>
        <time>2010-09-26T14:53:40Z</time>
      </trkpt>
      <trkpt lat="45.70279" lon="4.57881">
        <ele>743.236328125</ele>
        <time>2010-09-26T14:53:47Z</time>
      </trkpt>
      <trkpt lat="45.7029" lon="4.57952">
        <ele>742.27514648438</ele>
        <time>2010-09-26T14:53:54Z</time>
      </trkpt>
      <trkpt lat="45.70297" lon="4.57991">
        <ele>742.27514648438</ele>
        <time>2010-09-26T14:53:58Z</time>
      </trkpt>
      <trkpt lat="45.70314" lon="4.58049">
        <ele>740.3525390625</ele>
        <time>2010-09-26T14:54:04Z</time>
      </trkpt>
      <trkpt lat="45.70321" lon="4.58093">
        <ele>739.39111328125</ele>
        <time>2010-09-26T14:54:08Z</time>
      </trkpt>
      <trkpt lat="45.70321" lon="4.58104">
        <ele>739.39111328125</ele>
        <time>2010-09-26T14:54:09Z</time>
      </trkpt>
      <trkpt lat="45.70308" lon="4.58191">
        <ele>738.91064453125</ele>
        <time>2010-09-26T14:54:17Z</time>
      </trkpt>
      <trkpt lat="45.70301" lon="4.58257">
        <ele>736.98779296875</ele>
        <time>2010-09-26T14:54:23Z</time>
      </trkpt>
      <trkpt lat="45.70302" lon="4.58268">
        <ele>737.46850585938</ele>
        <time>2010-09-26T14:54:24Z</time>
      </trkpt>
      <trkpt lat="45.70314" lon="4.5832">
        <ele>736.50732421875</ele>
        <time>2010-09-26T14:54:29Z</time>
      </trkpt>
      <trkpt lat="45.70317" lon="4.58328">
        <ele>736.02661132812</ele>
        <time>2010-09-26T14:54:30Z</time>
      </trkpt>
      <trkpt lat="45.70353" lon="4.58384">
        <ele>735.0654296875</ele>
        <time>2010-09-26T14:54:37Z</time>
      </trkpt>
      <trkpt lat="45.70359" lon="4.58391">
        <ele>735.0654296875</ele>
        <time>2010-09-26T14:54:38Z</time>
      </trkpt>
      <trkpt lat="45.70393" lon="4.58418">
        <ele>734.10400390625</ele>
        <time>2010-09-26T14:54:43Z</time>
      </trkpt>
      <trkpt lat="45.70429" lon="4.58427">
        <ele>733.142578125</ele>
        <time>2010-09-26T14:54:48Z</time>
      </trkpt>
      <trkpt lat="45.70486" lon="4.58416">
        <ele>732.18139648438</ele>
        <time>2010-09-26T14:54:56Z</time>
      </trkpt>
      <trkpt lat="45.70526" lon="4.58397">
        <ele>730.7392578125</ele>
        <time>2010-09-26T14:55:02Z</time>
      </trkpt>
      <trkpt lat="45.70552" lon="4.58397">
        <ele>730.7392578125</ele>
        <time>2010-09-26T14:55:06Z</time>
      </trkpt>
      <trkpt lat="45.70593" lon="4.58412">
        <ele>729.29711914062</ele>
        <time>2010-09-26T14:55:13Z</time>
      </trkpt>
      <trkpt lat="45.70631" lon="4.58435">
        <ele>730.25854492188</ele>
        <time>2010-09-26T14:55:21Z</time>
      </trkpt>
      <trkpt lat="45.70635" lon="4.58439">
        <ele>730.25854492188</ele>
        <time>2010-09-26T14:55:22Z</time>
      </trkpt>
      <trkpt lat="45.70644" lon="4.58447">
        <ele>729.77783203125</ele>
        <time>2010-09-26T14:55:24Z</time>
      </trkpt>
      <trkpt lat="45.70658" lon="4.58466">
        <ele>727.85522460938</ele>
        <time>2010-09-26T14:55:28Z</time>
      </trkpt>
      <trkpt lat="45.70668" lon="4.58485">
        <ele>728.3359375</ele>
        <time>2010-09-26T14:55:31Z</time>
      </trkpt>
      <trkpt lat="45.7068" lon="4.58528">
        <ele>726.41333007812</ele>
        <time>2010-09-26T14:55:37Z</time>
      </trkpt>
      <trkpt lat="45.70685" lon="4.58583">
        <ele>725.45190429688</ele>
        <time>2010-09-26T14:55:44Z</time>
      </trkpt>
      <trkpt lat="45.70692" lon="4.58656">
        <ele>723.52954101562</ele>
        <time>2010-09-26T14:55:52Z</time>
      </trkpt>
      <trkpt lat="45.70693" lon="4.58665">
        <ele>723.52954101562</ele>
        <time>2010-09-26T14:55:53Z</time>
      </trkpt>
      <trkpt lat="45.707" lon="4.58693">
        <ele>722.08740234375</ele>
        <time>2010-09-26T14:55:56Z</time>
      </trkpt>
      <trkpt lat="45.70702" lon="4.58702">
        <ele>721.12622070312</ele>
        <time>2010-09-26T14:55:57Z</time>
      </trkpt>
      <trkpt lat="45.70715" lon="4.58779">
        <ele>718.2421875</ele>
        <time>2010-09-26T14:56:04Z</time>
      </trkpt>
      <trkpt lat="45.70718" lon="4.5885">
        <ele>715.35815429688</ele>
        <time>2010-09-26T14:56:10Z</time>
      </trkpt>
      <trkpt lat="45.70718" lon="4.58899">
        <ele>713.916015625</ele>
        <time>2010-09-26T14:56:14Z</time>
      </trkpt>
      <trkpt lat="45.70728" lon="4.58927">
        <ele>712.47412109375</ele>
        <time>2010-09-26T14:56:17Z</time>
      </trkpt>
      <trkpt lat="45.70734" lon="4.58934">
        <ele>712.47412109375</ele>
        <time>2010-09-26T14:56:18Z</time>
      </trkpt>
      <trkpt lat="45.70746" lon="4.5896">
        <ele>713.435546875</ele>
        <time>2010-09-26T14:56:21Z</time>
      </trkpt>
      <trkpt lat="45.70756" lon="4.58989">
        <ele>714.87744140625</ele>
        <time>2010-09-26T14:56:26Z</time>
      </trkpt>
      <trkpt lat="45.70764" lon="4.59008">
        <ele>714.39672851562</ele>
        <time>2010-09-26T14:56:30Z</time>
      </trkpt>
      <trkpt lat="45.7077" lon="4.59041">
        <ele>714.39672851562</ele>
        <time>2010-09-26T14:56:36Z</time>
      </trkpt>
      <trkpt lat="45.70782" lon="4.59059">
        <ele>714.39672851562</ele>
        <time>2010-09-26T14:56:40Z</time>
      </trkpt>
      <trkpt lat="45.70793" lon="4.59058">
        <ele>715.35815429688</ele>
        <time>2010-09-26T14:56:43Z</time>
      </trkpt>
      <trkpt lat="45.70798" lon="4.59054">
        <ele>714.87744140625</ele>
        <time>2010-09-26T14:56:45Z</time>
      </trkpt>
      <trkpt lat="45.708" lon="4.59053">
        <ele>715.35815429688</ele>
        <time>2010-09-26T14:56:50Z</time>
      </trkpt>
      <trkpt lat="45.708" lon="4.59049">
        <ele>714.87744140625</ele>
        <time>2010-09-26T14:56:57Z</time>
      </trkpt>
      <trkpt lat="45.708" lon="4.59045">
        <ele>714.87744140625</ele>
        <time>2010-09-26T14:57:06Z</time>
      </trkpt>
      <trkpt lat="45.70796" lon="4.59041">
        <ele>714.87744140625</ele>
        <time>2010-09-26T14:57:17Z</time>
      </trkpt>
      <trkpt lat="45.70795" lon="4.59042">
        <ele>714.87744140625</ele>
        <time>2010-09-26T14:57:25Z</time>
      </trkpt>
      <trkpt lat="45.70794" lon="4.59046">
        <ele>715.35815429688</ele>
        <time>2010-09-26T14:57:31Z</time>
      </trkpt>
      <trkpt lat="45.70791" lon="4.5905">
        <ele>714.87744140625</ele>
        <time>2010-09-26T14:57:35Z</time>
      </trkpt>
      <trkpt lat="45.70792" lon="4.59071">
        <ele>714.87744140625</ele>
        <time>2010-09-26T14:57:43Z</time>
      </trkpt>
      <trkpt lat="45.70791" lon="4.59082">
        <ele>714.87744140625</ele>
        <time>2010-09-26T14:57:48Z</time>
      </trkpt>
      <trkpt lat="45.70794" lon="4.59086">
        <ele>714.87744140625</ele>
        <time>2010-09-26T14:57:52Z</time>
      </trkpt>
      <trkpt lat="45.70792" lon="4.59076">
        <ele>714.87744140625</ele>
        <time>2010-09-26T14:57:57Z</time>
      </trkpt>
      <trkpt lat="45.70784" lon="4.59054">
        <ele>714.39672851562</ele>
        <time>2010-09-26T14:58:04Z</time>
      </trkpt>
      <trkpt lat="45.70779" lon="4.59053">
        <ele>714.39672851562</ele>
        <time>2010-09-26T14:58:06Z</time>
      </trkpt>
      <trkpt lat="45.70775" lon="4.59061">
        <ele>714.87744140625</ele>
        <time>2010-09-26T14:58:10Z</time>
      </trkpt>
      <trkpt lat="45.70772" lon="4.59072">
        <ele>714.87744140625</ele>
        <time>2010-09-26T14:58:14Z</time>
      </trkpt>
      <trkpt lat="45.70769" lon="4.59076">
        <ele>714.87744140625</ele>
        <time>2010-09-26T14:58:19Z</time>
      </trkpt>
      <trkpt lat="45.70772" lon="4.59079">
        <ele>714.39672851562</ele>
        <time>2010-09-26T14:58:28Z</time>
      </trkpt>
      <trkpt lat="45.70802" lon="4.59086">
        <ele>714.39672851562</ele>
        <time>2010-09-26T14:58:58Z</time>
      </trkpt>
      <trkpt lat="45.70802" lon="4.59086">
        <ele>714.39672851562</ele>
        <time>2010-09-26T14:59:08Z</time>
      </trkpt>
      <trkpt lat="45.708" lon="4.59086">
        <ele>714.87744140625</ele>
        <time>2010-09-26T14:59:16Z</time>
      </trkpt>
      <trkpt lat="45.70796" lon="4.59086">
        <ele>714.87744140625</ele>
        <time>2010-09-26T14:59:26Z</time>
      </trkpt>
      <trkpt lat="45.70795" lon="4.59086">
        <ele>714.39672851562</ele>
        <time>2010-09-26T14:59:33Z</time>
      </trkpt>
      <trkpt lat="45.70795" lon="4.59086">
        <ele>714.87744140625</ele>
        <time>2010-09-26T14:59:42Z</time>
      </trkpt>
      <trkpt lat="45.70801" lon="4.59087">
        <ele>714.87744140625</ele>
        <time>2010-09-26T14:59:46Z</time>
      </trkpt>
      <trkpt lat="45.70816" lon="4.59087">
        <ele>715.35815429688</ele>
        <time>2010-09-26T14:59:56Z</time>
      </trkpt>
      <trkpt lat="45.70824" lon="4.59087">
        <ele>714.87744140625</ele>
        <time>2010-09-26T15:00:04Z</time>
      </trkpt>
      <trkpt lat="45.7083" lon="4.59087">
        <ele>714.87744140625</ele>
        <time>2010-09-26T15:00:13Z</time>
      </trkpt>
      <trkpt lat="45.70832" lon="4.59087">
        <ele>714.87744140625</ele>
        <time>2010-09-26T15:00:21Z</time>
      </trkpt>
      <trkpt lat="45.70824" lon="4.59086">
        <ele>714.87744140625</ele>
        <time>2010-09-26T15:00:29Z</time>
      </trkpt>
      <trkpt lat="45.70818" lon="4.59086">
        <ele>714.87744140625</ele>
        <time>2010-09-26T15:00:37Z</time>
      </trkpt>
      <trkpt lat="45.70814" lon="4.59086">
        <ele>714.87744140625</ele>
        <time>2010-09-26T15:00:45Z</time>
      </trkpt>
      <trkpt lat="45.7081" lon="4.59086">
        <ele>714.39672851562</ele>
        <time>2010-09-26T15:00:54Z</time>
      </trkpt>
      <trkpt lat="45.70808" lon="4.59086">
        <ele>714.87744140625</ele>
        <time>2010-09-26T15:01:02Z</time>
      </trkpt>
      <trkpt lat="45.70805" lon="4.59086">
        <ele>715.35815429688</ele>
        <time>2010-09-26T15:01:11Z</time>
      </trkpt>
      <trkpt lat="45.70803" lon="4.59087">
        <ele>715.35815429688</ele>
        <time>2010-09-26T15:01:21Z</time>
      </trkpt>
      <trkpt lat="45.70802" lon="4.59087">
        <ele>714.87744140625</ele>
        <time>2010-09-26T15:01:30Z</time>
      </trkpt>
      <trkpt lat="45.70804" lon="4.59086">
        <ele>714.87744140625</ele>
        <time>2010-09-26T15:01:44Z</time>
      </trkpt>
      <trkpt lat="45.70821" lon="4.59087">
        <ele>715.35815429688</ele>
        <time>2010-09-26T15:02:04Z</time>
      </trkpt>
      <trkpt lat="45.70832" lon="4.59087">
        <ele>714.87744140625</ele>
        <time>2010-09-26T15:02:13Z</time>
      </trkpt>
      <trkpt lat="45.70821" lon="4.59086">
        <ele>715.35815429688</ele>
        <time>2010-09-26T15:02:23Z</time>
      </trkpt>
      <trkpt lat="45.7082" lon="4.59086">
        <ele>715.35815429688</ele>
        <time>2010-09-26T15:02:32Z</time>
      </trkpt>
      <trkpt lat="45.70826" lon="4.59086">
        <ele>715.35815429688</ele>
        <time>2010-09-26T15:02:39Z</time>
      </trkpt>
      <trkpt lat="45.7083" lon="4.59087">
        <ele>715.35815429688</ele>
        <time>2010-09-26T15:02:50Z</time>
      </trkpt>
      <trkpt lat="45.70824" lon="4.59086">
        <ele>715.8388671875</ele>
        <time>2010-09-26T15:03:02Z</time>
      </trkpt>
      <trkpt lat="45.7082" lon="4.59086">
        <ele>715.8388671875</ele>
        <time>2010-09-26T15:03:12Z</time>
      </trkpt>
      <trkpt lat="45.70814" lon="4.59086">
        <ele>715.8388671875</ele>
        <time>2010-09-26T15:03:26Z</time>
      </trkpt>
      <trkpt lat="45.7081" lon="4.59087">
        <ele>715.8388671875</ele>
        <time>2010-09-26T15:03:40Z</time>
      </trkpt>
      <trkpt lat="45.70807" lon="4.59087">
        <ele>716.31958007812</ele>
        <time>2010-09-26T15:03:48Z</time>
      </trkpt>
      <trkpt lat="45.70806" lon="4.59087">
        <ele>715.8388671875</ele>
        <time>2010-09-26T15:03:56Z</time>
      </trkpt>
      <trkpt lat="45.70807" lon="4.59086">
        <ele>716.31958007812</ele>
        <time>2010-09-26T15:03:58Z</time>
      </trkpt>
      <trkpt lat="45.70801" lon="4.59081">
        <ele>715.8388671875</ele>
        <time>2010-09-26T15:04:05Z</time>
      </trkpt>
      <trkpt lat="45.708" lon="4.59073">
        <ele>716.31958007812</ele>
        <time>2010-09-26T15:04:09Z</time>
      </trkpt>
      <trkpt lat="45.70795" lon="4.59058">
        <ele>716.31958007812</ele>
        <time>2010-09-26T15:04:14Z</time>
      </trkpt>
      <trkpt lat="45.70798" lon="4.59046">
        <ele>715.35815429688</ele>
        <time>2010-09-26T15:04:18Z</time>
      </trkpt>
      <trkpt lat="45.70807" lon="4.59042">
        <ele>713.916015625</ele>
        <time>2010-09-26T15:04:21Z</time>
      </trkpt>
      <trkpt lat="45.70824" lon="4.59024">
        <ele>711.0322265625</ele>
        <time>2010-09-26T15:04:26Z</time>
      </trkpt>
      <trkpt lat="45.70835" lon="4.5903">
        <ele>709.10961914062</ele>
        <time>2010-09-26T15:04:29Z</time>
      </trkpt>
      <trkpt lat="45.70845" lon="4.59043">
        <ele>708.62890625</ele>
        <time>2010-09-26T15:04:32Z</time>
      </trkpt>
      <trkpt lat="45.70856" lon="4.5907">
        <ele>707.18701171875</ele>
        <time>2010-09-26T15:04:38Z</time>
      </trkpt>
      <trkpt lat="45.70857" lon="4.59071">
        <ele>707.18701171875</ele>
        <time>2010-09-26T15:04:39Z</time>
      </trkpt>
      <trkpt lat="45.70866" lon="4.59085">
        <ele>706.70629882812</ele>
        <time>2010-09-26T15:04:44Z</time>
      </trkpt>
      <trkpt lat="45.70868" lon="4.5909">
        <ele>706.70629882812</ele>
        <time>2010-09-26T15:04:45Z</time>
      </trkpt>
      <trkpt lat="45.70879" lon="4.59114">
        <ele>704.78369140625</ele>
        <time>2010-09-26T15:04:49Z</time>
      </trkpt>
      <trkpt lat="45.7089" lon="4.59157">
        <ele>703.82250976562</ele>
        <time>2010-09-26T15:04:55Z</time>
      </trkpt>
      <trkpt lat="45.70882" lon="4.59181">
        <ele>703.82250976562</ele>
        <time>2010-09-26T15:04:59Z</time>
      </trkpt>
      <trkpt lat="45.70877" lon="4.59184">
        <ele>703.341796875</ele>
        <time>2010-09-26T15:05:00Z</time>
      </trkpt>
      <trkpt lat="45.7086" lon="4.59191">
        <ele>701.89990234375</ele>
        <time>2010-09-26T15:05:03Z</time>
      </trkpt>
      <trkpt lat="45.70845" lon="4.59196">
        <ele>700.9384765625</ele>
        <time>2010-09-26T15:05:05Z</time>
      </trkpt>
      <trkpt lat="45.70815" lon="4.59208">
        <ele>697.09301757812</ele>
        <time>2010-09-26T15:05:09Z</time>
      </trkpt>
      <trkpt lat="45.70781" lon="4.59212">
        <ele>692.28662109375</ele>
        <time>2010-09-26T15:05:13Z</time>
      </trkpt>
      <trkpt lat="45.70773" lon="4.59213">
        <ele>691.3251953125</ele>
        <time>2010-09-26T15:05:14Z</time>
      </trkpt>
      <trkpt lat="45.70742" lon="4.59235">
        <ele>686.99926757812</ele>
        <time>2010-09-26T15:05:18Z</time>
      </trkpt>
      <trkpt lat="45.70731" lon="4.59262">
        <ele>683.63452148438</ele>
        <time>2010-09-26T15:05:20Z</time>
      </trkpt>
      <trkpt lat="45.70725" lon="4.59278">
        <ele>682.19262695312</ele>
        <time>2010-09-26T15:05:21Z</time>
      </trkpt>
      <trkpt lat="45.70713" lon="4.59326">
        <ele>676.90551757812</ele>
        <time>2010-09-26T15:05:24Z</time>
      </trkpt>
      <trkpt lat="45.70697" lon="4.59391">
        <ele>672.09887695312</ele>
        <time>2010-09-26T15:05:28Z</time>
      </trkpt>
      <trkpt lat="45.70693" lon="4.59405">
        <ele>670.65698242188</ele>
        <time>2010-09-26T15:05:29Z</time>
      </trkpt>
      <trkpt lat="45.70687" lon="4.59435">
        <ele>664.88891601562</ele>
        <time>2010-09-26T15:05:31Z</time>
      </trkpt>
      <trkpt lat="45.70689" lon="4.59466">
        <ele>663.44702148438</ele>
        <time>2010-09-26T15:05:33Z</time>
      </trkpt>
      <trkpt lat="45.70693" lon="4.59498">
        <ele>660.08227539062</ele>
        <time>2010-09-26T15:05:36Z</time>
      </trkpt>
      <trkpt lat="45.70694" lon="4.59504">
        <ele>659.12109375</ele>
        <time>2010-09-26T15:05:37Z</time>
      </trkpt>
      <trkpt lat="45.70698" lon="4.59496">
        <ele>659.12109375</ele>
        <time>2010-09-26T15:05:41Z</time>
      </trkpt>
      <trkpt lat="45.70696" lon="4.59478">
        <ele>659.60180664062</ele>
        <time>2010-09-26T15:05:45Z</time>
      </trkpt>
      <trkpt lat="45.70693" lon="4.59455">
        <ele>661.5244140625</ele>
        <time>2010-09-26T15:05:52Z</time>
      </trkpt>
      <trkpt lat="45.707" lon="4.59443">
        <ele>660.56298828125</ele>
        <time>2010-09-26T15:05:57Z</time>
      </trkpt>
      <trkpt lat="45.7071" lon="4.59438">
        <ele>658.15991210938</ele>
        <time>2010-09-26T15:05:59Z</time>
      </trkpt>
      <trkpt lat="45.70736" lon="4.59427">
        <ele>654.31469726562</ele>
        <time>2010-09-26T15:06:02Z</time>
      </trkpt>
      <trkpt lat="45.70746" lon="4.59421">
        <ele>651.43041992188</ele>
        <time>2010-09-26T15:06:03Z</time>
      </trkpt>
      <trkpt lat="45.70778" lon="4.59394">
        <ele>646.6240234375</ele>
        <time>2010-09-26T15:06:06Z</time>
      </trkpt>
      <trkpt lat="45.70787" lon="4.59385">
        <ele>646.6240234375</ele>
        <time>2010-09-26T15:06:07Z</time>
      </trkpt>
      <trkpt lat="45.70796" lon="4.59376">
        <ele>645.18188476562</ele>
        <time>2010-09-26T15:06:08Z</time>
      </trkpt>
      <trkpt lat="45.70832" lon="4.59362">
        <ele>641.33666992188</ele>
        <time>2010-09-26T15:06:12Z</time>
      </trkpt>
      <trkpt lat="45.70842" lon="4.59362">
        <ele>639.4140625</ele>
        <time>2010-09-26T15:06:13Z</time>
      </trkpt>
      <trkpt lat="45.70873" lon="4.59368">
        <ele>632.68481445312</ele>
        <time>2010-09-26T15:06:16Z</time>
      </trkpt>
      <trkpt lat="45.70903" lon="4.59366">
        <ele>624.99438476562</ele>
        <time>2010-09-26T15:06:19Z</time>
      </trkpt>
      <trkpt lat="45.70912" lon="4.59365">
        <ele>623.55249023438</ele>
        <time>2010-09-26T15:06:20Z</time>
      </trkpt>
      <trkpt lat="45.70921" lon="4.59375">
        <ele>621.14916992188</ele>
        <time>2010-09-26T15:06:23Z</time>
      </trkpt>
      <trkpt lat="45.70918" lon="4.59381">
        <ele>620.66845703125</ele>
        <time>2010-09-26T15:06:24Z</time>
      </trkpt>
      <trkpt lat="45.70903" lon="4.59397">
        <ele>618.26489257812</ele>
        <time>2010-09-26T15:06:27Z</time>
      </trkpt>
      <trkpt lat="45.70898" lon="4.59407">
        <ele>616.82299804688</ele>
        <time>2010-09-26T15:06:28Z</time>
      </trkpt>
      <trkpt lat="45.7087" lon="4.59467">
        <ele>611.53588867188</ele>
        <time>2010-09-26T15:06:33Z</time>
      </trkpt>
      <trkpt lat="45.70851" lon="4.59523">
        <ele>608.65185546875</ele>
        <time>2010-09-26T15:06:37Z</time>
      </trkpt>
      <trkpt lat="45.70846" lon="4.59565">
        <ele>606.24853515625</ele>
        <time>2010-09-26T15:06:40Z</time>
      </trkpt>
      <trkpt lat="45.70856" lon="4.59606">
        <ele>602.8837890625</ele>
        <time>2010-09-26T15:06:43Z</time>
      </trkpt>
      <trkpt lat="45.70867" lon="4.59629">
        <ele>598.55786132812</ele>
        <time>2010-09-26T15:06:45Z</time>
      </trkpt>
      <trkpt lat="45.7088" lon="4.59652">
        <ele>595.193359375</ele>
        <time>2010-09-26T15:06:47Z</time>
      </trkpt>
      <trkpt lat="45.70895" lon="4.59693">
        <ele>588.94506835938</ele>
        <time>2010-09-26T15:06:50Z</time>
      </trkpt>
      <trkpt lat="45.70907" lon="4.5972">
        <ele>584.61889648438</ele>
        <time>2010-09-26T15:06:52Z</time>
      </trkpt>
      <trkpt lat="45.70929" lon="4.59758">
        <ele>577.4091796875</ele>
        <time>2010-09-26T15:06:55Z</time>
      </trkpt>
      <trkpt lat="45.70943" lon="4.59782">
        <ele>574.04443359375</ele>
        <time>2010-09-26T15:06:57Z</time>
      </trkpt>
      <trkpt lat="45.70958" lon="4.59836">
        <ele>570.19897460938</ele>
        <time>2010-09-26T15:07:01Z</time>
      </trkpt>
      <trkpt lat="45.70964" lon="4.59879">
        <ele>567.31518554688</ele>
        <time>2010-09-26T15:07:04Z</time>
      </trkpt>
      <trkpt lat="45.70986" lon="4.59903">
        <ele>564.43115234375</ele>
        <time>2010-09-26T15:07:07Z</time>
      </trkpt>
      <trkpt lat="45.7103" lon="4.59941">
        <ele>559.14404296875</ele>
        <time>2010-09-26T15:07:12Z</time>
      </trkpt>
      <trkpt lat="45.7104" lon="4.59949">
        <ele>557.22143554688</ele>
        <time>2010-09-26T15:07:13Z</time>
      </trkpt>
      <trkpt lat="45.71077" lon="4.5999">
        <ele>552.41455078125</ele>
        <time>2010-09-26T15:07:17Z</time>
      </trkpt>
      <trkpt lat="45.71103" lon="4.6001">
        <ele>548.0888671875</ele>
        <time>2010-09-26T15:07:20Z</time>
      </trkpt>
      <trkpt lat="45.71118" lon="4.60026">
        <ele>545.685546875</ele>
        <time>2010-09-26T15:07:22Z</time>
      </trkpt>
      <trkpt lat="45.71153" lon="4.6007">
        <ele>541.35949707031</ele>
        <time>2010-09-26T15:07:28Z</time>
      </trkpt>
      <trkpt lat="45.7118" lon="4.60103">
        <ele>537.99499511719</ele>
        <time>2010-09-26T15:07:33Z</time>
      </trkpt>
      <trkpt lat="45.71198" lon="4.60137">
        <ele>535.59155273438</ele>
        <time>2010-09-26T15:07:37Z</time>
      </trkpt>
      <trkpt lat="45.71215" lon="4.60176">
        <ele>532.22705078125</ele>
        <time>2010-09-26T15:07:41Z</time>
      </trkpt>
      <trkpt lat="45.71225" lon="4.6021">
        <ele>528.3818359375</ele>
        <time>2010-09-26T15:07:44Z</time>
      </trkpt>
      <trkpt lat="45.71237" lon="4.6025">
        <ele>524.53649902344</ele>
        <time>2010-09-26T15:07:47Z</time>
      </trkpt>
      <trkpt lat="45.71248" lon="4.60288">
        <ele>520.69128417969</ele>
        <time>2010-09-26T15:07:50Z</time>
      </trkpt>
      <trkpt lat="45.71262" lon="4.60337">
        <ele>516.84594726562</ele>
        <time>2010-09-26T15:07:54Z</time>
      </trkpt>
      <trkpt lat="45.71273" lon="4.60383">
        <ele>513.96203613281</ele>
        <time>2010-09-26T15:07:58Z</time>
      </trkpt>
      <trkpt lat="45.71277" lon="4.60403">
        <ele>511.07800292969</ele>
        <time>2010-09-26T15:08:00Z</time>
      </trkpt>
      <trkpt lat="45.71282" lon="4.60476">
        <ele>507.23278808594</ele>
        <time>2010-09-26T15:08:05Z</time>
      </trkpt>
      <trkpt lat="45.7128" lon="4.60539">
        <ele>503.8681640625</ele>
        <time>2010-09-26T15:08:09Z</time>
      </trkpt>
      <trkpt lat="45.71275" lon="4.6058">
        <ele>501.94555664062</ele>
        <time>2010-09-26T15:08:12Z</time>
      </trkpt>
      <trkpt lat="45.71276" lon="4.60602">
        <ele>500.98413085938</ele>
        <time>2010-09-26T15:08:14Z</time>
      </trkpt>
      <trkpt lat="45.71276" lon="4.60629">
        <ele>500.02294921875</ele>
        <time>2010-09-26T15:08:16Z</time>
      </trkpt>
      <trkpt lat="45.71272" lon="4.6068">
        <ele>498.10034179688</ele>
        <time>2010-09-26T15:08:20Z</time>
      </trkpt>
      <trkpt lat="45.71269" lon="4.6074">
        <ele>496.177734375</ele>
        <time>2010-09-26T15:08:25Z</time>
      </trkpt>
      <trkpt lat="45.7127" lon="4.60806">
        <ele>492.81298828125</ele>
        <time>2010-09-26T15:08:30Z</time>
      </trkpt>
      <trkpt lat="45.71269" lon="4.60834">
        <ele>491.85168457031</ele>
        <time>2010-09-26T15:08:32Z</time>
      </trkpt>
      <trkpt lat="45.71269" lon="4.60871">
        <ele>488.48718261719</ele>
        <time>2010-09-26T15:08:35Z</time>
      </trkpt>
      <trkpt lat="45.71269" lon="4.60883">
        <ele>488.00646972656</ele>
        <time>2010-09-26T15:08:36Z</time>
      </trkpt>
      <trkpt lat="45.7127" lon="4.60917">
        <ele>486.08374023438</ele>
        <time>2010-09-26T15:08:39Z</time>
      </trkpt>
      <trkpt lat="45.71271" lon="4.60955">
        <ele>483.19982910156</ele>
        <time>2010-09-26T15:08:42Z</time>
      </trkpt>
      <trkpt lat="45.71272" lon="4.60981">
        <ele>479.83508300781</ele>
        <time>2010-09-26T15:08:44Z</time>
      </trkpt>
      <trkpt lat="45.71275" lon="4.61022">
        <ele>475.98986816406</ele>
        <time>2010-09-26T15:08:47Z</time>
      </trkpt>
      <trkpt lat="45.71276" lon="4.61049">
        <ele>473.10607910156</ele>
        <time>2010-09-26T15:08:49Z</time>
      </trkpt>
      <trkpt lat="45.71276" lon="4.61089">
        <ele>469.2607421875</ele>
        <time>2010-09-26T15:08:52Z</time>
      </trkpt>
      <trkpt lat="45.71276" lon="4.61102">
        <ele>468.29931640625</ele>
        <time>2010-09-26T15:08:53Z</time>
      </trkpt>
      <trkpt lat="45.71274" lon="4.6113">
        <ele>466.857421875</ele>
        <time>2010-09-26T15:08:55Z</time>
      </trkpt>
      <trkpt lat="45.7127" lon="4.61178">
        <ele>464.93481445312</ele>
        <time>2010-09-26T15:08:59Z</time>
      </trkpt>
      <trkpt lat="45.7127" lon="4.61188">
        <ele>463.97338867188</ele>
        <time>2010-09-26T15:09:00Z</time>
      </trkpt>
      <trkpt lat="45.71273" lon="4.61226">
        <ele>460.60876464844</ele>
        <time>2010-09-26T15:09:04Z</time>
      </trkpt>
      <trkpt lat="45.71271" lon="4.61246">
        <ele>459.16687011719</ele>
        <time>2010-09-26T15:09:06Z</time>
      </trkpt>
      <trkpt lat="45.71265" lon="4.61269">
        <ele>457.72497558594</ele>
        <time>2010-09-26T15:09:08Z</time>
      </trkpt>
      <trkpt lat="45.71242" lon="4.61344">
        <ele>456.28295898438</ele>
        <time>2010-09-26T15:09:15Z</time>
      </trkpt>
      <trkpt lat="45.71234" lon="4.61396">
        <ele>455.32153320312</ele>
        <time>2010-09-26T15:09:20Z</time>
      </trkpt>
      <trkpt lat="45.71228" lon="4.61476">
        <ele>453.87963867188</ele>
        <time>2010-09-26T15:09:28Z</time>
      </trkpt>
      <trkpt lat="45.7122" lon="4.61536">
        <ele>453.87963867188</ele>
        <time>2010-09-26T15:09:35Z</time>
      </trkpt>
      <trkpt lat="45.71212" lon="4.61573">
        <ele>453.87963867188</ele>
        <time>2010-09-26T15:09:40Z</time>
      </trkpt>
      <trkpt lat="45.71203" lon="4.61624">
        <ele>453.39892578125</ele>
        <time>2010-09-26T15:09:47Z</time>
      </trkpt>
      <trkpt lat="45.71202" lon="4.61632">
        <ele>453.87963867188</ele>
        <time>2010-09-26T15:09:48Z</time>
      </trkpt>
      <trkpt lat="45.71199" lon="4.61662">
        <ele>453.39892578125</ele>
        <time>2010-09-26T15:09:52Z</time>
      </trkpt>
      <trkpt lat="45.71198" lon="4.61716">
        <ele>453.39892578125</ele>
        <time>2010-09-26T15:09:59Z</time>
      </trkpt>
      <trkpt lat="45.71197" lon="4.61787">
        <ele>454.36022949219</ele>
        <time>2010-09-26T15:10:07Z</time>
      </trkpt>
      <trkpt lat="45.71205" lon="4.61835">
        <ele>453.87963867188</ele>
        <time>2010-09-26T15:10:13Z</time>
      </trkpt>
      <trkpt lat="45.71215" lon="4.61892">
        <ele>450.99560546875</ele>
        <time>2010-09-26T15:10:19Z</time>
      </trkpt>
      <trkpt lat="45.71217" lon="4.61962">
        <ele>449.07299804688</ele>
        <time>2010-09-26T15:10:26Z</time>
      </trkpt>
      <trkpt lat="45.71212" lon="4.62028">
        <ele>446.66967773438</ele>
        <time>2010-09-26T15:10:32Z</time>
      </trkpt>
      <trkpt lat="45.71223" lon="4.62075">
        <ele>445.70837402344</ele>
        <time>2010-09-26T15:10:36Z</time>
      </trkpt>
      <trkpt lat="45.71232" lon="4.62096">
        <ele>444.26647949219</ele>
        <time>2010-09-26T15:10:38Z</time>
      </trkpt>
      <trkpt lat="45.7124" lon="4.6212">
        <ele>442.82446289062</ele>
        <time>2010-09-26T15:10:40Z</time>
      </trkpt>
      <trkpt lat="45.71262" lon="4.62151">
        <ele>440.42126464844</ele>
        <time>2010-09-26T15:10:44Z</time>
      </trkpt>
      <trkpt lat="45.71286" lon="4.62174">
        <ele>437.537109375</ele>
        <time>2010-09-26T15:10:47Z</time>
      </trkpt>
      <trkpt lat="45.71318" lon="4.62217">
        <ele>433.21130371094</ele>
        <time>2010-09-26T15:10:51Z</time>
      </trkpt>
      <trkpt lat="45.71326" lon="4.62229">
        <ele>431.76916503906</ele>
        <time>2010-09-26T15:10:52Z</time>
      </trkpt>
      <trkpt lat="45.71338" lon="4.62251">
        <ele>430.80798339844</ele>
        <time>2010-09-26T15:10:54Z</time>
      </trkpt>
      <trkpt lat="45.71351" lon="4.6229">
        <ele>429.84655761719</ele>
        <time>2010-09-26T15:10:57Z</time>
      </trkpt>
      <trkpt lat="45.71375" lon="4.62362">
        <ele>428.88537597656</ele>
        <time>2010-09-26T15:11:03Z</time>
      </trkpt>
      <trkpt lat="45.7139" lon="4.62414">
        <ele>427.443359375</ele>
        <time>2010-09-26T15:11:08Z</time>
      </trkpt>
      <trkpt lat="45.71398" lon="4.62442">
        <ele>427.443359375</ele>
        <time>2010-09-26T15:11:11Z</time>
      </trkpt>
      <trkpt lat="45.71411" lon="4.62473">
        <ele>425.52075195312</ele>
        <time>2010-09-26T15:11:15Z</time>
      </trkpt>
      <trkpt lat="45.71428" lon="4.62513">
        <ele>421.19482421875</ele>
        <time>2010-09-26T15:11:19Z</time>
      </trkpt>
      <trkpt lat="45.71459" lon="4.62552">
        <ele>416.86889648438</ele>
        <time>2010-09-26T15:11:23Z</time>
      </trkpt>
      <trkpt lat="45.71489" lon="4.62575">
        <ele>414.94616699219</ele>
        <time>2010-09-26T15:11:26Z</time>
      </trkpt>
      <trkpt lat="45.7153" lon="4.62584">
        <ele>411.58166503906</ele>
        <time>2010-09-26T15:11:30Z</time>
      </trkpt>
      <trkpt lat="45.71552" lon="4.62583">
        <ele>408.69763183594</ele>
        <time>2010-09-26T15:11:32Z</time>
      </trkpt>
      <trkpt lat="45.71563" lon="4.62583">
        <ele>407.736328125</ele>
        <time>2010-09-26T15:11:33Z</time>
      </trkpt>
      <trkpt lat="45.71584" lon="4.62589">
        <ele>406.77490234375</ele>
        <time>2010-09-26T15:11:35Z</time>
      </trkpt>
      <trkpt lat="45.71612" lon="4.62612">
        <ele>406.77490234375</ele>
        <time>2010-09-26T15:11:38Z</time>
      </trkpt>
      <trkpt lat="45.71645" lon="4.62664">
        <ele>402.9296875</ele>
        <time>2010-09-26T15:11:43Z</time>
      </trkpt>
      <trkpt lat="45.71672" lon="4.62714">
        <ele>401.96850585938</ele>
        <time>2010-09-26T15:11:48Z</time>
      </trkpt>
      <trkpt lat="45.7169" lon="4.62765">
        <ele>401.00708007812</ele>
        <time>2010-09-26T15:11:53Z</time>
      </trkpt>
      <trkpt lat="45.71702" lon="4.62811">
        <ele>400.52648925781</ele>
        <time>2010-09-26T15:11:57Z</time>
      </trkpt>
      <trkpt lat="45.7172" lon="4.62881">
        <ele>399.56506347656</ele>
        <time>2010-09-26T15:12:03Z</time>
      </trkpt>
      <trkpt lat="45.7174" lon="4.62951">
        <ele>398.12316894531</ele>
        <time>2010-09-26T15:12:09Z</time>
      </trkpt>
      <trkpt lat="45.71746" lon="4.62977">
        <ele>396.20056152344</ele>
        <time>2010-09-26T15:12:11Z</time>
      </trkpt>
      <trkpt lat="45.71749" lon="4.63006">
        <ele>395.23913574219</ele>
        <time>2010-09-26T15:12:13Z</time>
      </trkpt>
      <trkpt lat="45.71751" lon="4.63067">
        <ele>391.87451171875</ele>
        <time>2010-09-26T15:12:17Z</time>
      </trkpt>
      <trkpt lat="45.71757" lon="4.63113">
        <ele>389.47119140625</ele>
        <time>2010-09-26T15:12:20Z</time>
      </trkpt>
      <trkpt lat="45.71776" lon="4.63179">
        <ele>386.58740234375</ele>
        <time>2010-09-26T15:12:25Z</time>
      </trkpt>
      <trkpt lat="45.71798" lon="4.63223">
        <ele>384.66479492188</ele>
        <time>2010-09-26T15:12:29Z</time>
      </trkpt>
      <trkpt lat="45.718" lon="4.63261">
        <ele>384.18408203125</ele>
        <time>2010-09-26T15:12:32Z</time>
      </trkpt>
      <trkpt lat="45.71794" lon="4.63351">
        <ele>384.18408203125</ele>
        <time>2010-09-26T15:12:39Z</time>
      </trkpt>
      <trkpt lat="45.71784" lon="4.63416">
        <ele>382.74206542969</ele>
        <time>2010-09-26T15:12:45Z</time>
      </trkpt>
      <trkpt lat="45.71783" lon="4.63426">
        <ele>383.22265625</ele>
        <time>2010-09-26T15:12:46Z</time>
      </trkpt>
      <trkpt lat="45.71785" lon="4.63472">
        <ele>382.26135253906</ele>
        <time>2010-09-26T15:12:51Z</time>
      </trkpt>
      <trkpt lat="45.71793" lon="4.63518">
        <ele>382.74206542969</ele>
        <time>2010-09-26T15:12:56Z</time>
      </trkpt>
      <trkpt lat="45.71816" lon="4.63587">
        <ele>380.81945800781</ele>
        <time>2010-09-26T15:13:03Z</time>
      </trkpt>
      <trkpt lat="45.71825" lon="4.63646">
        <ele>378.41613769531</ele>
        <time>2010-09-26T15:13:08Z</time>
      </trkpt>
      <trkpt lat="45.7183" lon="4.63726">
        <ele>377.93542480469</ele>
        <time>2010-09-26T15:13:15Z</time>
      </trkpt>
      <trkpt lat="45.71832" lon="4.63757">
        <ele>376.97424316406</ele>
        <time>2010-09-26T15:13:18Z</time>
      </trkpt>
      <trkpt lat="45.71837" lon="4.63827">
        <ele>376.01281738281</ele>
        <time>2010-09-26T15:13:25Z</time>
      </trkpt>
      <trkpt lat="45.71852" lon="4.63876">
        <ele>375.53210449219</ele>
        <time>2010-09-26T15:13:30Z</time>
      </trkpt>
      <trkpt lat="45.7188" lon="4.6393">
        <ele>374.57080078125</ele>
        <time>2010-09-26T15:13:36Z</time>
      </trkpt>
      <trkpt lat="45.71913" lon="4.63974">
        <ele>374.09008789062</ele>
        <time>2010-09-26T15:13:42Z</time>
      </trkpt>
      <trkpt lat="45.71959" lon="4.64023">
        <ele>373.60949707031</ele>
        <time>2010-09-26T15:13:50Z</time>
      </trkpt>
      <trkpt lat="45.71964" lon="4.6403">
        <ele>373.60949707031</ele>
        <time>2010-09-26T15:13:51Z</time>
      </trkpt>
      <trkpt lat="45.71982" lon="4.64079">
        <ele>372.16748046875</ele>
        <time>2010-09-26T15:13:56Z</time>
      </trkpt>
      <trkpt lat="45.71984" lon="4.6409">
        <ele>372.16748046875</ele>
        <time>2010-09-26T15:13:57Z</time>
      </trkpt>
      <trkpt lat="45.71993" lon="4.64192">
        <ele>369.76428222656</ele>
        <time>2010-09-26T15:14:06Z</time>
      </trkpt>
      <trkpt lat="45.71997" lon="4.64281">
        <ele>369.28369140625</ele>
        <time>2010-09-26T15:14:13Z</time>
      </trkpt>
      <trkpt lat="45.72007" lon="4.64383">
        <ele>368.322265625</ele>
        <time>2010-09-26T15:14:21Z</time>
      </trkpt>
      <trkpt lat="45.72012" lon="4.64407">
        <ele>367.84155273438</ele>
        <time>2010-09-26T15:14:23Z</time>
      </trkpt>
      <trkpt lat="45.72043" lon="4.64478">
        <ele>367.84155273438</ele>
        <time>2010-09-26T15:14:30Z</time>
      </trkpt>
      <trkpt lat="45.72079" lon="4.64553">
        <ele>367.36096191406</ele>
        <time>2010-09-26T15:14:38Z</time>
      </trkpt>
      <trkpt lat="45.72097" lon="4.64593">
        <ele>369.28369140625</ele>
        <time>2010-09-26T15:14:43Z</time>
      </trkpt>
      <trkpt lat="45.72106" lon="4.64613">
        <ele>370.24487304688</ele>
        <time>2010-09-26T15:14:47Z</time>
      </trkpt>
      <trkpt lat="45.72117" lon="4.64638">
        <ele>371.68688964844</ele>
        <time>2010-09-26T15:14:53Z</time>
      </trkpt>
      <trkpt lat="45.7213" lon="4.64665">
        <ele>374.57080078125</ele>
        <time>2010-09-26T15:15:00Z</time>
      </trkpt>
      <trkpt lat="45.72142" lon="4.64693">
        <ele>376.49353027344</ele>
        <time>2010-09-26T15:15:07Z</time>
      </trkpt>
      <trkpt lat="45.72157" lon="4.64732">
        <ele>376.97424316406</ele>
        <time>2010-09-26T15:15:16Z</time>
      </trkpt>
      <trkpt lat="45.72169" lon="4.64771">
        <ele>378.41613769531</ele>
        <time>2010-09-26T15:15:25Z</time>
      </trkpt>
      <trkpt lat="45.72184" lon="4.64819">
        <ele>378.89685058594</ele>
        <time>2010-09-26T15:15:35Z</time>
      </trkpt>
      <trkpt lat="45.72202" lon="4.6488">
        <ele>380.81945800781</ele>
        <time>2010-09-26T15:15:47Z</time>
      </trkpt>
      <trkpt lat="45.72222" lon="4.64925">
        <ele>381.78063964844</ele>
        <time>2010-09-26T15:15:57Z</time>
      </trkpt>
      <trkpt lat="45.72243" lon="4.64956">
        <ele>381.30004882812</ele>
        <time>2010-09-26T15:16:04Z</time>
      </trkpt>
      <trkpt lat="45.72252" lon="4.64964">
        <ele>380.81945800781</ele>
        <time>2010-09-26T15:16:06Z</time>
      </trkpt>
      <trkpt lat="45.72279" lon="4.64975">
        <ele>379.37744140625</ele>
        <time>2010-09-26T15:16:11Z</time>
      </trkpt>
      <trkpt lat="45.7229" lon="4.64974">
        <ele>379.37744140625</ele>
        <time>2010-09-26T15:16:13Z</time>
      </trkpt>
      <trkpt lat="45.72334" lon="4.64961">
        <ele>377.93542480469</ele>
        <time>2010-09-26T15:16:20Z</time>
      </trkpt>
      <trkpt lat="45.72341" lon="4.64959">
        <ele>377.45483398438</ele>
        <time>2010-09-26T15:16:21Z</time>
      </trkpt>
      <trkpt lat="45.72368" lon="4.64977">
        <ele>376.49353027344</ele>
        <time>2010-09-26T15:16:25Z</time>
      </trkpt>
      <trkpt lat="45.72373" lon="4.65011">
        <ele>376.97424316406</ele>
        <time>2010-09-26T15:16:28Z</time>
      </trkpt>
      <trkpt lat="45.72373" lon="4.65032">
        <ele>377.45483398438</ele>
        <time>2010-09-26T15:16:30Z</time>
      </trkpt>
      <trkpt lat="45.72372" lon="4.65079">
        <ele>378.89685058594</ele>
        <time>2010-09-26T15:16:35Z</time>
      </trkpt>
      <trkpt lat="45.72374" lon="4.65155">
        <ele>379.85803222656</ele>
        <time>2010-09-26T15:16:45Z</time>
      </trkpt>
      <trkpt lat="45.72384" lon="4.65211">
        <ele>380.33874511719</ele>
        <time>2010-09-26T15:16:53Z</time>
      </trkpt>
      <trkpt lat="45.72403" lon="4.6527">
        <ele>382.26135253906</ele>
        <time>2010-09-26T15:17:02Z</time>
      </trkpt>
      <trkpt lat="45.72427" lon="4.65313">
        <ele>384.66479492188</ele>
        <time>2010-09-26T15:17:10Z</time>
      </trkpt>
      <trkpt lat="45.72435" lon="4.65321">
        <ele>384.66479492188</ele>
        <time>2010-09-26T15:17:12Z</time>
      </trkpt>
      <trkpt lat="45.72454" lon="4.65336">
        <ele>385.14538574219</ele>
        <time>2010-09-26T15:17:18Z</time>
      </trkpt>
      <trkpt lat="45.72466" lon="4.65344">
        <ele>385.6259765625</ele>
        <time>2010-09-26T15:17:22Z</time>
      </trkpt>
      <trkpt lat="45.72498" lon="4.65362">
        <ele>386.58740234375</ele>
        <time>2010-09-26T15:17:30Z</time>
      </trkpt>
      <trkpt lat="45.72531" lon="4.65386">
        <ele>385.6259765625</ele>
        <time>2010-09-26T15:17:38Z</time>
      </trkpt>
      <trkpt lat="45.72568" lon="4.65408">
        <ele>383.70324707031</ele>
        <time>2010-09-26T15:17:46Z</time>
      </trkpt>
      <trkpt lat="45.72608" lon="4.65431">
        <ele>382.74206542969</ele>
        <time>2010-09-26T15:17:54Z</time>
      </trkpt>
      <trkpt lat="45.72623" lon="4.65453">
        <ele>383.22265625</ele>
        <time>2010-09-26T15:17:58Z</time>
      </trkpt>
      <trkpt lat="45.72625" lon="4.6546">
        <ele>383.70324707031</ele>
        <time>2010-09-26T15:17:59Z</time>
      </trkpt>
      <trkpt lat="45.72639" lon="4.65503">
        <ele>384.66479492188</ele>
        <time>2010-09-26T15:18:06Z</time>
      </trkpt>
      <trkpt lat="45.72654" lon="4.65525">
        <ele>385.14538574219</ele>
        <time>2010-09-26T15:18:12Z</time>
      </trkpt>
      <trkpt lat="45.72679" lon="4.6555">
        <ele>387.54858398438</ele>
        <time>2010-09-26T15:18:20Z</time>
      </trkpt>
      <trkpt lat="45.727" lon="4.65563">
        <ele>387.54858398438</ele>
        <time>2010-09-26T15:18:26Z</time>
      </trkpt>
      <trkpt lat="45.72731" lon="4.65588">
        <ele>385.6259765625</ele>
        <time>2010-09-26T15:18:33Z</time>
      </trkpt>
      <trkpt lat="45.72767" lon="4.65617">
        <ele>383.22265625</ele>
        <time>2010-09-26T15:18:40Z</time>
      </trkpt>
      <trkpt lat="45.72794" lon="4.65639">
        <ele>381.30004882812</ele>
        <time>2010-09-26T15:18:45Z</time>
      </trkpt>
      <trkpt lat="45.72836" lon="4.6567">
        <ele>379.85803222656</ele>
        <time>2010-09-26T15:18:52Z</time>
      </trkpt>
      <trkpt lat="45.72863" lon="4.65687">
        <ele>377.93542480469</ele>
        <time>2010-09-26T15:18:56Z</time>
      </trkpt>
      <trkpt lat="45.72899" lon="4.65708">
        <ele>376.49353027344</ele>
        <time>2010-09-26T15:19:01Z</time>
      </trkpt>
      <trkpt lat="45.7296" lon="4.65741">
        <ele>373.60949707031</ele>
        <time>2010-09-26T15:19:09Z</time>
      </trkpt>
      <trkpt lat="45.72974" lon="4.65752">
        <ele>372.16748046875</ele>
        <time>2010-09-26T15:19:11Z</time>
      </trkpt>
      <trkpt lat="45.73026" lon="4.65781">
        <ele>369.76428222656</ele>
        <time>2010-09-26T15:19:18Z</time>
      </trkpt>
      <trkpt lat="45.73072" lon="4.65782">
        <ele>367.84155273438</ele>
        <time>2010-09-26T15:19:24Z</time>
      </trkpt>
      <trkpt lat="45.73127" lon="4.65764">
        <ele>365.43835449219</ele>
        <time>2010-09-26T15:19:31Z</time>
      </trkpt>
      <trkpt lat="45.73175" lon="4.65733">
        <ele>362.55432128906</ele>
        <time>2010-09-26T15:19:37Z</time>
      </trkpt>
      <trkpt lat="45.7319" lon="4.6572">
        <ele>362.07373046875</ele>
        <time>2010-09-26T15:19:39Z</time>
      </trkpt>
      <trkpt lat="45.73213" lon="4.65714">
        <ele>360.15112304688</ele>
        <time>2010-09-26T15:19:42Z</time>
      </trkpt>
      <trkpt lat="45.73222" lon="4.65733">
        <ele>360.63171386719</ele>
        <time>2010-09-26T15:19:44Z</time>
      </trkpt>
      <trkpt lat="45.73222" lon="4.65755">
        <ele>360.63171386719</ele>
        <time>2010-09-26T15:19:46Z</time>
      </trkpt>
      <trkpt lat="45.7322" lon="4.65766">
        <ele>360.63171386719</ele>
        <time>2010-09-26T15:19:47Z</time>
      </trkpt>
      <trkpt lat="45.73199" lon="4.65827">
        <ele>361.11242675781</ele>
        <time>2010-09-26T15:19:54Z</time>
      </trkpt>
      <trkpt lat="45.73172" lon="4.65877">
        <ele>361.59313964844</ele>
        <time>2010-09-26T15:20:01Z</time>
      </trkpt>
      <trkpt lat="45.7316" lon="4.65897">
        <ele>362.55432128906</ele>
        <time>2010-09-26T15:20:04Z</time>
      </trkpt>
      <trkpt lat="45.73149" lon="4.65942">
        <ele>362.55432128906</ele>
        <time>2010-09-26T15:20:10Z</time>
      </trkpt>
      <trkpt lat="45.73142" lon="4.66012">
        <ele>363.51574707031</ele>
        <time>2010-09-26T15:20:19Z</time>
      </trkpt>
      <trkpt lat="45.73134" lon="4.66058">
        <ele>363.99633789062</ele>
        <time>2010-09-26T15:20:25Z</time>
      </trkpt>
      <trkpt lat="45.73112" lon="4.66092">
        <ele>364.47692871094</ele>
        <time>2010-09-26T15:20:31Z</time>
      </trkpt>
      <trkpt lat="45.73083" lon="4.6614">
        <ele>365.9189453125</ele>
        <time>2010-09-26T15:20:39Z</time>
      </trkpt>
      <trkpt lat="45.7307" lon="4.66185">
        <ele>365.9189453125</ele>
        <time>2010-09-26T15:20:45Z</time>
      </trkpt>
      <trkpt lat="45.73053" lon="4.66243">
        <ele>367.36096191406</ele>
        <time>2010-09-26T15:20:53Z</time>
      </trkpt>
      <trkpt lat="45.7303" lon="4.66286">
        <ele>367.84155273438</ele>
        <time>2010-09-26T15:21:00Z</time>
      </trkpt>
      <trkpt lat="45.73008" lon="4.6633">
        <ele>368.80297851562</ele>
        <time>2010-09-26T15:21:07Z</time>
      </trkpt>
      <trkpt lat="45.73001" lon="4.66359">
        <ele>368.80297851562</ele>
        <time>2010-09-26T15:21:11Z</time>
      </trkpt>
      <trkpt lat="45.73005" lon="4.66407">
        <ele>368.80297851562</ele>
        <time>2010-09-26T15:21:17Z</time>
      </trkpt>
      <trkpt lat="45.73016" lon="4.66484">
        <ele>369.28369140625</ele>
        <time>2010-09-26T15:21:26Z</time>
      </trkpt>
      <trkpt lat="45.73028" lon="4.6657">
        <ele>369.28369140625</ele>
        <time>2010-09-26T15:21:36Z</time>
      </trkpt>
      <trkpt lat="45.73041" lon="4.6665">
        <ele>369.76428222656</ele>
        <time>2010-09-26T15:21:46Z</time>
      </trkpt>
      <trkpt lat="45.73049" lon="4.66674">
        <ele>369.76428222656</ele>
        <time>2010-09-26T15:21:49Z</time>
      </trkpt>
      <trkpt lat="45.73083" lon="4.66745">
        <ele>367.84155273438</ele>
        <time>2010-09-26T15:21:58Z</time>
      </trkpt>
      <trkpt lat="45.73117" lon="4.66813">
        <ele>367.36096191406</ele>
        <time>2010-09-26T15:22:06Z</time>
      </trkpt>
      <trkpt lat="45.73147" lon="4.66872">
        <ele>367.36096191406</ele>
        <time>2010-09-26T15:22:13Z</time>
      </trkpt>
      <trkpt lat="45.73171" lon="4.66922">
        <ele>366.88024902344</ele>
        <time>2010-09-26T15:22:20Z</time>
      </trkpt>
      <trkpt lat="45.7319" lon="4.66963">
        <ele>367.84155273438</ele>
        <time>2010-09-26T15:22:27Z</time>
      </trkpt>
      <trkpt lat="45.73207" lon="4.67">
        <ele>366.88024902344</ele>
        <time>2010-09-26T15:22:33Z</time>
      </trkpt>
      <trkpt lat="45.73235" lon="4.67058">
        <ele>366.39953613281</ele>
        <time>2010-09-26T15:22:41Z</time>
      </trkpt>
      <trkpt lat="45.73261" lon="4.67121">
        <ele>366.88024902344</ele>
        <time>2010-09-26T15:22:49Z</time>
      </trkpt>
      <trkpt lat="45.73272" lon="4.67169">
        <ele>366.88024902344</ele>
        <time>2010-09-26T15:22:55Z</time>
      </trkpt>
      <trkpt lat="45.7327" lon="4.67228">
        <ele>367.36096191406</ele>
        <time>2010-09-26T15:23:03Z</time>
      </trkpt>
      <trkpt lat="45.73268" lon="4.67282">
        <ele>367.84155273438</ele>
        <time>2010-09-26T15:23:11Z</time>
      </trkpt>
      <trkpt lat="45.73266" lon="4.6733">
        <ele>368.80297851562</ele>
        <time>2010-09-26T15:23:18Z</time>
      </trkpt>
      <trkpt lat="45.73263" lon="4.67398">
        <ele>369.76428222656</ele>
        <time>2010-09-26T15:23:28Z</time>
      </trkpt>
      <trkpt lat="45.73262" lon="4.67442">
        <ele>371.20629882812</ele>
        <time>2010-09-26T15:23:35Z</time>
      </trkpt>
      <trkpt lat="45.7327" lon="4.67491">
        <ele>370.7255859375</ele>
        <time>2010-09-26T15:23:42Z</time>
      </trkpt>
      <trkpt lat="45.73287" lon="4.67535">
        <ele>368.322265625</ele>
        <time>2010-09-26T15:23:48Z</time>
      </trkpt>
      <trkpt lat="45.73318" lon="4.67599">
        <ele>366.88024902344</ele>
        <time>2010-09-26T15:23:56Z</time>
      </trkpt>
      <trkpt lat="45.73345" lon="4.67656">
        <ele>364.47692871094</ele>
        <time>2010-09-26T15:24:02Z</time>
      </trkpt>
      <trkpt lat="45.73366" lon="4.677">
        <ele>362.07373046875</ele>
        <time>2010-09-26T15:24:06Z</time>
      </trkpt>
      <trkpt lat="45.73389" lon="4.67749">
        <ele>360.15112304688</ele>
        <time>2010-09-26T15:24:10Z</time>
      </trkpt>
      <trkpt lat="45.7342" lon="4.67813">
        <ele>356.30578613281</ele>
        <time>2010-09-26T15:24:15Z</time>
      </trkpt>
      <trkpt lat="45.73444" lon="4.67865">
        <ele>352.46057128906</ele>
        <time>2010-09-26T15:24:19Z</time>
      </trkpt>
      <trkpt lat="45.7345" lon="4.67878">
        <ele>351.97985839844</ele>
        <time>2010-09-26T15:24:20Z</time>
      </trkpt>
      <trkpt lat="45.73479" lon="4.6794">
        <ele>352.46057128906</ele>
        <time>2010-09-26T15:24:25Z</time>
      </trkpt>
      <trkpt lat="45.7351" lon="4.68009">
        <ele>351.01843261719</ele>
        <time>2010-09-26T15:24:31Z</time>
      </trkpt>
      <trkpt lat="45.73545" lon="4.68082">
        <ele>351.49914550781</ele>
        <time>2010-09-26T15:24:38Z</time>
      </trkpt>
      <trkpt lat="45.73586" lon="4.68167">
        <ele>351.49914550781</ele>
        <time>2010-09-26T15:24:47Z</time>
      </trkpt>
      <trkpt lat="45.73618" lon="4.68234">
        <ele>350.05725097656</ele>
        <time>2010-09-26T15:24:54Z</time>
      </trkpt>
      <trkpt lat="45.7364" lon="4.68282">
        <ele>348.615234375</ele>
        <time>2010-09-26T15:24:59Z</time>
      </trkpt>
      <trkpt lat="45.73663" lon="4.68331">
        <ele>345.73132324219</ele>
        <time>2010-09-26T15:25:04Z</time>
      </trkpt>
      <trkpt lat="45.73687" lon="4.68384">
        <ele>344.28942871094</ele>
        <time>2010-09-26T15:25:09Z</time>
      </trkpt>
      <trkpt lat="45.73724" lon="4.68461">
        <ele>340.44409179688</ele>
        <time>2010-09-26T15:25:16Z</time>
      </trkpt>
      <trkpt lat="45.73729" lon="4.68472">
        <ele>340.44409179688</ele>
        <time>2010-09-26T15:25:17Z</time>
      </trkpt>
      <trkpt lat="45.73739" lon="4.68495">
        <ele>339.48266601562</ele>
        <time>2010-09-26T15:25:19Z</time>
      </trkpt>
      <trkpt lat="45.73777" lon="4.68575">
        <ele>336.59887695312</ele>
        <time>2010-09-26T15:25:26Z</time>
      </trkpt>
      <trkpt lat="45.73808" lon="4.68644">
        <ele>335.15673828125</ele>
        <time>2010-09-26T15:25:32Z</time>
      </trkpt>
      <trkpt lat="45.7385" lon="4.68735">
        <ele>332.75354003906</ele>
        <time>2010-09-26T15:25:40Z</time>
      </trkpt>
      <trkpt lat="45.73884" lon="4.68811">
        <ele>330.83093261719</ele>
        <time>2010-09-26T15:25:47Z</time>
      </trkpt>
      <trkpt lat="45.73911" lon="4.68866">
        <ele>329.86950683594</ele>
        <time>2010-09-26T15:25:52Z</time>
      </trkpt>
      <trkpt lat="45.73953" lon="4.68954">
        <ele>328.90832519531</ele>
        <time>2010-09-26T15:26:00Z</time>
      </trkpt>
      <trkpt lat="45.73986" lon="4.69024">
        <ele>327.46618652344</ele>
        <time>2010-09-26T15:26:07Z</time>
      </trkpt>
      <trkpt lat="45.74014" lon="4.6909">
        <ele>325.54357910156</ele>
        <time>2010-09-26T15:26:14Z</time>
      </trkpt>
      <trkpt lat="45.74017" lon="4.69099">
        <ele>325.06298828125</ele>
        <time>2010-09-26T15:26:15Z</time>
      </trkpt>
      <trkpt lat="45.74026" lon="4.69115">
        <ele>325.06298828125</ele>
        <time>2010-09-26T15:26:17Z</time>
      </trkpt>
      <trkpt lat="45.74054" lon="4.69174">
        <ele>323.62097167969</ele>
        <time>2010-09-26T15:26:24Z</time>
      </trkpt>
      <trkpt lat="45.74088" lon="4.69246">
        <ele>320.73706054688</ele>
        <time>2010-09-26T15:26:32Z</time>
      </trkpt>
      <trkpt lat="45.74117" lon="4.69312">
        <ele>319.29504394531</ele>
        <time>2010-09-26T15:26:39Z</time>
      </trkpt>
      <trkpt lat="45.74131" lon="4.69341">
        <ele>318.33361816406</ele>
        <time>2010-09-26T15:26:42Z</time>
      </trkpt>
      <trkpt lat="45.74139" lon="4.6936">
        <ele>316.89172363281</ele>
        <time>2010-09-26T15:26:44Z</time>
      </trkpt>
      <trkpt lat="45.74157" lon="4.69398">
        <ele>314.96911621094</ele>
        <time>2010-09-26T15:26:48Z</time>
      </trkpt>
      <trkpt lat="45.74183" lon="4.69452">
        <ele>313.04650878906</ele>
        <time>2010-09-26T15:26:53Z</time>
      </trkpt>
      <trkpt lat="45.74218" lon="4.69523">
        <ele>311.12377929688</ele>
        <time>2010-09-26T15:26:59Z</time>
      </trkpt>
      <trkpt lat="45.74249" lon="4.69589">
        <ele>309.201171875</ele>
        <time>2010-09-26T15:27:05Z</time>
      </trkpt>
      <trkpt lat="45.74253" lon="4.69599">
        <ele>308.72045898438</ele>
        <time>2010-09-26T15:27:06Z</time>
      </trkpt>
      <trkpt lat="45.74288" lon="4.69673">
        <ele>307.27856445312</ele>
        <time>2010-09-26T15:27:13Z</time>
      </trkpt>
      <trkpt lat="45.74314" lon="4.6973">
        <ele>307.27856445312</ele>
        <time>2010-09-26T15:27:19Z</time>
      </trkpt>
      <trkpt lat="45.74339" lon="4.69785">
        <ele>308.72045898438</ele>
        <time>2010-09-26T15:27:26Z</time>
      </trkpt>
      <trkpt lat="45.74359" lon="4.69828">
        <ele>310.64306640625</ele>
        <time>2010-09-26T15:27:32Z</time>
      </trkpt>
      <trkpt lat="45.74382" lon="4.69876">
        <ele>311.12377929688</ele>
        <time>2010-09-26T15:27:39Z</time>
      </trkpt>
      <trkpt lat="45.74408" lon="4.69931">
        <ele>310.64306640625</ele>
        <time>2010-09-26T15:27:47Z</time>
      </trkpt>
      <trkpt lat="45.74401" lon="4.69946">
        <ele>310.64306640625</ele>
        <time>2010-09-26T15:27:50Z</time>
      </trkpt>
      <trkpt lat="45.74395" lon="4.69948">
        <ele>310.64306640625</ele>
        <time>2010-09-26T15:27:51Z</time>
      </trkpt>
      <trkpt lat="45.74371" lon="4.69958">
        <ele>308.72045898438</ele>
        <time>2010-09-26T15:27:55Z</time>
      </trkpt>
      <trkpt lat="45.74347" lon="4.69977">
        <ele>308.23986816406</ele>
        <time>2010-09-26T15:27:59Z</time>
      </trkpt>
      <trkpt lat="45.74305" lon="4.70036">
        <ele>306.7978515625</ele>
        <time>2010-09-26T15:28:07Z</time>
      </trkpt>
      <trkpt lat="45.74282" lon="4.70077">
        <ele>306.31726074219</ele>
        <time>2010-09-26T15:28:13Z</time>
      </trkpt>
      <trkpt lat="45.74272" lon="4.70114">
        <ele>307.27856445312</ele>
        <time>2010-09-26T15:28:18Z</time>
      </trkpt>
      <trkpt lat="45.74258" lon="4.70188">
        <ele>306.7978515625</ele>
        <time>2010-09-26T15:28:28Z</time>
      </trkpt>
      <trkpt lat="45.74247" lon="4.70254">
        <ele>307.75927734375</ele>
        <time>2010-09-26T15:28:37Z</time>
      </trkpt>
      <trkpt lat="45.7424" lon="4.70305">
        <ele>307.27856445312</ele>
        <time>2010-09-26T15:28:45Z</time>
      </trkpt>
      <trkpt lat="45.74239" lon="4.7031">
        <ele>307.27856445312</ele>
        <time>2010-09-26T15:28:46Z</time>
      </trkpt>
      <trkpt lat="45.74239" lon="4.70329">
        <ele>306.7978515625</ele>
        <time>2010-09-26T15:28:50Z</time>
      </trkpt>
      <trkpt lat="45.74236" lon="4.70358">
        <ele>306.31726074219</ele>
        <time>2010-09-26T15:28:54Z</time>
      </trkpt>
      <trkpt lat="45.74233" lon="4.70379">
        <ele>306.31726074219</ele>
        <time>2010-09-26T15:28:57Z</time>
      </trkpt>
      <trkpt lat="45.74234" lon="4.70425">
        <ele>304.87524414062</ele>
        <time>2010-09-26T15:29:03Z</time>
      </trkpt>
      <trkpt lat="45.74238" lon="4.70474">
        <ele>303.91394042969</ele>
        <time>2010-09-26T15:29:09Z</time>
      </trkpt>
      <trkpt lat="45.74246" lon="4.70524">
        <ele>302.47192382812</ele>
        <time>2010-09-26T15:29:15Z</time>
      </trkpt>
      <trkpt lat="45.74258" lon="4.70584">
        <ele>301.51062011719</ele>
        <time>2010-09-26T15:29:22Z</time>
      </trkpt>
      <trkpt lat="45.74269" lon="4.70634">
        <ele>300.54931640625</ele>
        <time>2010-09-26T15:29:28Z</time>
      </trkpt>
      <trkpt lat="45.7427" lon="4.70642">
        <ele>300.06872558594</ele>
        <time>2010-09-26T15:29:29Z</time>
      </trkpt>
      <trkpt lat="45.74269" lon="4.70674">
        <ele>300.06872558594</ele>
        <time>2010-09-26T15:29:33Z</time>
      </trkpt>
      <trkpt lat="45.74258" lon="4.70745">
        <ele>301.02990722656</ele>
        <time>2010-09-26T15:29:42Z</time>
      </trkpt>
      <trkpt lat="45.74257" lon="4.70753">
        <ele>301.02990722656</ele>
        <time>2010-09-26T15:29:43Z</time>
      </trkpt>
      <trkpt lat="45.74255" lon="4.70806">
        <ele>301.51062011719</ele>
        <time>2010-09-26T15:29:50Z</time>
      </trkpt>
      <trkpt lat="45.74256" lon="4.70865">
        <ele>301.99133300781</ele>
        <time>2010-09-26T15:29:58Z</time>
      </trkpt>
      <trkpt lat="45.74256" lon="4.7093">
        <ele>302.47192382812</ele>
        <time>2010-09-26T15:30:06Z</time>
      </trkpt>
      <trkpt lat="45.74254" lon="4.7099">
        <ele>302.47192382812</ele>
        <time>2010-09-26T15:30:13Z</time>
      </trkpt>
      <trkpt lat="45.74253" lon="4.71038">
        <ele>301.51062011719</ele>
        <time>2010-09-26T15:30:19Z</time>
      </trkpt>
      <trkpt lat="45.74252" lon="4.7105">
        <ele>301.02990722656</ele>
        <time>2010-09-26T15:30:23Z</time>
      </trkpt>
      <trkpt lat="45.74253" lon="4.71081">
        <ele>300.54931640625</ele>
        <time>2010-09-26T15:30:28Z</time>
      </trkpt>
      <trkpt lat="45.74253" lon="4.71132">
        <ele>300.06872558594</ele>
        <time>2010-09-26T15:30:34Z</time>
      </trkpt>
      <trkpt lat="45.74253" lon="4.7119">
        <ele>298.62670898438</ele>
        <time>2010-09-26T15:30:40Z</time>
      </trkpt>
      <trkpt lat="45.74257" lon="4.71272">
        <ele>296.7041015625</ele>
        <time>2010-09-26T15:30:48Z</time>
      </trkpt>
      <trkpt lat="45.74266" lon="4.71357">
        <ele>294.78137207031</ele>
        <time>2010-09-26T15:30:55Z</time>
      </trkpt>
      <trkpt lat="45.74282" lon="4.71427">
        <ele>293.82006835938</ele>
        <time>2010-09-26T15:31:01Z</time>
      </trkpt>
      <trkpt lat="45.74305" lon="4.71475">
        <ele>292.37817382812</ele>
        <time>2010-09-26T15:31:06Z</time>
      </trkpt>
      <trkpt lat="45.74332" lon="4.7152">
        <ele>292.85876464844</ele>
        <time>2010-09-26T15:31:12Z</time>
      </trkpt>
      <trkpt lat="45.74343" lon="4.71539">
        <ele>292.37817382812</ele>
        <time>2010-09-26T15:31:15Z</time>
      </trkpt>
      <trkpt lat="45.74347" lon="4.71564">
        <ele>292.37817382812</ele>
        <time>2010-09-26T15:31:19Z</time>
      </trkpt>
      <trkpt lat="45.74339" lon="4.71584">
        <ele>292.85876464844</ele>
        <time>2010-09-26T15:31:22Z</time>
      </trkpt>
      <trkpt lat="45.74318" lon="4.71641">
        <ele>292.85876464844</ele>
        <time>2010-09-26T15:31:29Z</time>
      </trkpt>
      <trkpt lat="45.74295" lon="4.7171">
        <ele>291.8974609375</ele>
        <time>2010-09-26T15:31:36Z</time>
      </trkpt>
      <trkpt lat="45.74278" lon="4.7178">
        <ele>290.93615722656</ele>
        <time>2010-09-26T15:31:43Z</time>
      </trkpt>
      <trkpt lat="45.74273" lon="4.71855">
        <ele>290.45556640625</ele>
        <time>2010-09-26T15:31:50Z</time>
      </trkpt>
      <trkpt lat="45.74268" lon="4.71952">
        <ele>289.494140625</ele>
        <time>2010-09-26T15:31:59Z</time>
      </trkpt>
      <trkpt lat="45.74262" lon="4.72038">
        <ele>288.05224609375</ele>
        <time>2010-09-26T15:32:07Z</time>
      </trkpt>
      <trkpt lat="45.7426" lon="4.72115">
        <ele>284.20690917969</ele>
        <time>2010-09-26T15:32:14Z</time>
      </trkpt>
      <trkpt lat="45.74259" lon="4.72126">
        <ele>284.68762207031</ele>
        <time>2010-09-26T15:32:15Z</time>
      </trkpt>
      <trkpt lat="45.74255" lon="4.72196">
        <ele>283.24560546875</ele>
        <time>2010-09-26T15:32:21Z</time>
      </trkpt>
      <trkpt lat="45.74255" lon="4.72236">
        <ele>284.20690917969</ele>
        <time>2010-09-26T15:32:25Z</time>
      </trkpt>
      <trkpt lat="45.74269" lon="4.72271">
        <ele>285.64880371094</ele>
        <time>2010-09-26T15:32:30Z</time>
      </trkpt>
      <trkpt lat="45.74275" lon="4.72283">
        <ele>286.12951660156</ele>
        <time>2010-09-26T15:32:32Z</time>
      </trkpt>
      <trkpt lat="45.7428" lon="4.72307">
        <ele>286.12951660156</ele>
        <time>2010-09-26T15:32:37Z</time>
      </trkpt>
      <trkpt lat="45.74285" lon="4.72329">
        <ele>286.12951660156</ele>
        <time>2010-09-26T15:32:41Z</time>
      </trkpt>
      <trkpt lat="45.74302" lon="4.72374">
        <ele>286.12951660156</ele>
        <time>2010-09-26T15:32:48Z</time>
      </trkpt>
      <trkpt lat="45.74313" lon="4.72401">
        <ele>284.68762207031</ele>
        <time>2010-09-26T15:32:52Z</time>
      </trkpt>
      <trkpt lat="45.74323" lon="4.72452">
        <ele>285.16821289062</ele>
        <time>2010-09-26T15:32:58Z</time>
      </trkpt>
      <trkpt lat="45.74335" lon="4.72529">
        <ele>283.24560546875</ele>
        <time>2010-09-26T15:33:06Z</time>
      </trkpt>
      <trkpt lat="45.74348" lon="4.72608">
        <ele>281.32299804688</ele>
        <time>2010-09-26T15:33:14Z</time>
      </trkpt>
      <trkpt lat="45.74358" lon="4.72673">
        <ele>280.36169433594</ele>
        <time>2010-09-26T15:33:21Z</time>
      </trkpt>
      <trkpt lat="45.74355" lon="4.72688">
        <ele>279.880859375</ele>
        <time>2010-09-26T15:33:25Z</time>
      </trkpt>
      <trkpt lat="45.74354" lon="4.72699">
        <ele>279.880859375</ele>
        <time>2010-09-26T15:33:28Z</time>
      </trkpt>
      <trkpt lat="45.74358" lon="4.72707">
        <ele>279.40026855469</ele>
        <time>2010-09-26T15:33:30Z</time>
      </trkpt>
      <trkpt lat="45.74364" lon="4.72715">
        <ele>279.40026855469</ele>
        <time>2010-09-26T15:33:32Z</time>
      </trkpt>
      <trkpt lat="45.74369" lon="4.7273">
        <ele>279.880859375</ele>
        <time>2010-09-26T15:33:36Z</time>
      </trkpt>
      <trkpt lat="45.74368" lon="4.72728">
        <ele>278.91967773438</ele>
        <time>2010-09-26T15:33:48Z</time>
      </trkpt>
      <trkpt lat="45.74369" lon="4.72727">
        <ele>279.40026855469</ele>
        <time>2010-09-26T15:33:59Z</time>
      </trkpt>
      <trkpt lat="45.74369" lon="4.72727">
        <ele>278.91967773438</ele>
        <time>2010-09-26T15:34:00Z</time>
      </trkpt>
      <trkpt lat="45.74375" lon="4.72734">
        <ele>278.91967773438</ele>
        <time>2010-09-26T15:34:05Z</time>
      </trkpt>
      <trkpt lat="45.74383" lon="4.72743">
        <ele>278.91967773438</ele>
        <time>2010-09-26T15:34:08Z</time>
      </trkpt>
      <trkpt lat="45.74402" lon="4.7278">
        <ele>278.91967773438</ele>
        <time>2010-09-26T15:34:14Z</time>
      </trkpt>
      <trkpt lat="45.74439" lon="4.72848">
        <ele>278.43896484375</ele>
        <time>2010-09-26T15:34:23Z</time>
      </trkpt>
      <trkpt lat="45.74479" lon="4.7292">
        <ele>278.43896484375</ele>
        <time>2010-09-26T15:34:32Z</time>
      </trkpt>
      <trkpt lat="45.7451" lon="4.72976">
        <ele>276.9970703125</ele>
        <time>2010-09-26T15:34:39Z</time>
      </trkpt>
      <trkpt lat="45.74541" lon="4.73018">
        <ele>275.55505371094</ele>
        <time>2010-09-26T15:34:45Z</time>
      </trkpt>
      <trkpt lat="45.74561" lon="4.73044">
        <ele>274.11303710938</ele>
        <time>2010-09-26T15:34:49Z</time>
      </trkpt>
      <trkpt lat="45.74569" lon="4.73052">
        <ele>274.11303710938</ele>
        <time>2010-09-26T15:34:51Z</time>
      </trkpt>
      <trkpt lat="45.74582" lon="4.73067">
        <ele>273.15185546875</ele>
        <time>2010-09-26T15:34:55Z</time>
      </trkpt>
      <trkpt lat="45.74586" lon="4.73077">
        <ele>272.1904296875</ele>
        <time>2010-09-26T15:35:00Z</time>
      </trkpt>
      <trkpt lat="45.7459" lon="4.73081">
        <ele>272.1904296875</ele>
        <time>2010-09-26T15:35:07Z</time>
      </trkpt>
      <trkpt lat="45.74592" lon="4.73084">
        <ele>272.1904296875</ele>
        <time>2010-09-26T15:35:11Z</time>
      </trkpt>
      <trkpt lat="45.74598" lon="4.73094">
        <ele>272.1904296875</ele>
        <time>2010-09-26T15:35:15Z</time>
      </trkpt>
      <trkpt lat="45.74618" lon="4.73118">
        <ele>271.70971679688</ele>
        <time>2010-09-26T15:35:20Z</time>
      </trkpt>
      <trkpt lat="45.74653" lon="4.73166">
        <ele>272.1904296875</ele>
        <time>2010-09-26T15:35:28Z</time>
      </trkpt>
      <trkpt lat="45.74688" lon="4.73212">
        <ele>272.1904296875</ele>
        <time>2010-09-26T15:35:36Z</time>
      </trkpt>
      <trkpt lat="45.74701" lon="4.73231">
        <ele>272.1904296875</ele>
        <time>2010-09-26T15:35:40Z</time>
      </trkpt>
      <trkpt lat="45.74725" lon="4.73262">
        <ele>272.67114257812</ele>
        <time>2010-09-26T15:35:47Z</time>
      </trkpt>
      <trkpt lat="45.7473" lon="4.73271">
        <ele>273.15185546875</ele>
        <time>2010-09-26T15:35:49Z</time>
      </trkpt>
      <trkpt lat="45.74732" lon="4.73312">
        <ele>272.67114257812</ele>
        <time>2010-09-26T15:35:55Z</time>
      </trkpt>
      <trkpt lat="45.74732" lon="4.7332">
        <ele>272.67114257812</ele>
        <time>2010-09-26T15:35:56Z</time>
      </trkpt>
      <trkpt lat="45.74731" lon="4.7337">
        <ele>272.67114257812</ele>
        <time>2010-09-26T15:36:02Z</time>
      </trkpt>
      <trkpt lat="45.74731" lon="4.73452">
        <ele>272.67114257812</ele>
        <time>2010-09-26T15:36:12Z</time>
      </trkpt>
      <trkpt lat="45.74729" lon="4.73484">
        <ele>273.15185546875</ele>
        <time>2010-09-26T15:36:17Z</time>
      </trkpt>
      <trkpt lat="45.7473" lon="4.73502">
        <ele>273.63244628906</ele>
        <time>2010-09-26T15:36:21Z</time>
      </trkpt>
      <trkpt lat="45.7473" lon="4.73506">
        <ele>273.63244628906</ele>
        <time>2010-09-26T15:36:22Z</time>
      </trkpt>
      <trkpt lat="45.74728" lon="4.73513">
        <ele>273.15185546875</ele>
        <time>2010-09-26T15:36:26Z</time>
      </trkpt>
      <trkpt lat="45.74732" lon="4.73538">
        <ele>274.11303710938</ele>
        <time>2010-09-26T15:36:31Z</time>
      </trkpt>
      <trkpt lat="45.74732" lon="4.73545">
        <ele>274.11303710938</ele>
        <time>2010-09-26T15:36:32Z</time>
      </trkpt>
      <trkpt lat="45.74732" lon="4.73616">
        <ele>274.59375</ele>
        <time>2010-09-26T15:36:40Z</time>
      </trkpt>
      <trkpt lat="45.74732" lon="4.73689">
        <ele>274.59375</ele>
        <time>2010-09-26T15:36:48Z</time>
      </trkpt>
      <trkpt lat="45.7473" lon="4.7373">
        <ele>273.15185546875</ele>
        <time>2010-09-26T15:36:53Z</time>
      </trkpt>
      <trkpt lat="45.7473" lon="4.73739">
        <ele>273.15185546875</ele>
        <time>2010-09-26T15:36:55Z</time>
      </trkpt>
      <trkpt lat="45.74729" lon="4.73743">
        <ele>273.15185546875</ele>
        <time>2010-09-26T15:36:57Z</time>
      </trkpt>
      <trkpt lat="45.74731" lon="4.73747">
        <ele>272.67114257812</ele>
        <time>2010-09-26T15:37:02Z</time>
      </trkpt>
      <trkpt lat="45.74729" lon="4.73734">
        <ele>273.63244628906</ele>
        <time>2010-09-26T15:37:06Z</time>
      </trkpt>
      <trkpt lat="45.74729" lon="4.73729">
        <ele>274.11303710938</ele>
        <time>2010-09-26T15:37:07Z</time>
      </trkpt>
      <trkpt lat="45.74729" lon="4.73673">
        <ele>275.07446289062</ele>
        <time>2010-09-26T15:37:17Z</time>
      </trkpt>
      <trkpt lat="45.74728" lon="4.73646">
        <ele>275.07446289062</ele>
        <time>2010-09-26T15:37:23Z</time>
      </trkpt>
      <trkpt lat="45.74726" lon="4.73639">
        <ele>274.59375</ele>
        <time>2010-09-26T15:37:25Z</time>
      </trkpt>
      <trkpt lat="45.74731" lon="4.73614">
        <ele>274.59375</ele>
        <time>2010-09-26T15:37:31Z</time>
      </trkpt>
      <trkpt lat="45.74731" lon="4.73594">
        <ele>274.59375</ele>
        <time>2010-09-26T15:37:35Z</time>
      </trkpt>
      <trkpt lat="45.7473" lon="4.73577">
        <ele>274.11303710938</ele>
        <time>2010-09-26T15:37:39Z</time>
      </trkpt>
      <trkpt lat="45.74731" lon="4.73569">
        <ele>273.15185546875</ele>
        <time>2010-09-26T15:37:44Z</time>
      </trkpt>
      <trkpt lat="45.74737" lon="4.73575">
        <ele>274.11303710938</ele>
        <time>2010-09-26T15:37:50Z</time>
      </trkpt>
      <trkpt lat="45.74746" lon="4.73569">
        <ele>274.59375</ele>
        <time>2010-09-26T15:37:53Z</time>
      </trkpt>
      <trkpt lat="45.74751" lon="4.73581">
        <ele>275.07446289062</ele>
        <time>2010-09-26T15:37:56Z</time>
      </trkpt>
      <trkpt lat="45.74761" lon="4.73623">
        <ele>276.9970703125</ele>
        <time>2010-09-26T15:38:04Z</time>
      </trkpt>
      <trkpt lat="45.74781" lon="4.73652">
        <ele>277.47766113281</ele>
        <time>2010-09-26T15:38:10Z</time>
      </trkpt>
      <trkpt lat="45.74815" lon="4.7369">
        <ele>277.95825195312</ele>
        <time>2010-09-26T15:38:18Z</time>
      </trkpt>
      <trkpt lat="45.74839" lon="4.73718">
        <ele>277.47766113281</ele>
        <time>2010-09-26T15:38:24Z</time>
      </trkpt>
      <trkpt lat="45.7485" lon="4.73735">
        <ele>276.51635742188</ele>
        <time>2010-09-26T15:38:27Z</time>
      </trkpt>
      <trkpt lat="45.74871" lon="4.73755">
        <ele>275.07446289062</ele>
        <time>2010-09-26T15:38:31Z</time>
      </trkpt>
      <trkpt lat="45.74876" lon="4.7376">
        <ele>274.11303710938</ele>
        <time>2010-09-26T15:38:32Z</time>
      </trkpt>
      <trkpt lat="45.74922" lon="4.73787">
        <ele>271.22912597656</ele>
        <time>2010-09-26T15:38:38Z</time>
      </trkpt>
      <trkpt lat="45.74964" lon="4.73809">
        <ele>268.34509277344</ele>
        <time>2010-09-26T15:38:43Z</time>
      </trkpt>
      <trkpt lat="45.74972" lon="4.73814">
        <ele>267.86450195312</ele>
        <time>2010-09-26T15:38:44Z</time>
      </trkpt>
      <trkpt lat="45.74996" lon="4.73829">
        <ele>266.42248535156</ele>
        <time>2010-09-26T15:38:47Z</time>
      </trkpt>
      <trkpt lat="45.75035" lon="4.7387">
        <ele>265.46130371094</ele>
        <time>2010-09-26T15:38:53Z</time>
      </trkpt>
      <trkpt lat="45.7505" lon="4.739">
        <ele>265.46130371094</ele>
        <time>2010-09-26T15:38:57Z</time>
      </trkpt>
      <trkpt lat="45.75051" lon="4.73909">
        <ele>264.98059082031</ele>
        <time>2010-09-26T15:38:58Z</time>
      </trkpt>
      <trkpt lat="45.7506" lon="4.73996">
        <ele>264.01928710938</ele>
        <time>2010-09-26T15:39:07Z</time>
      </trkpt>
      <trkpt lat="45.75069" lon="4.7408">
        <ele>264.01928710938</ele>
        <time>2010-09-26T15:39:15Z</time>
      </trkpt>
      <trkpt lat="45.75076" lon="4.74155">
        <ele>264.01928710938</ele>
        <time>2010-09-26T15:39:23Z</time>
      </trkpt>
      <trkpt lat="45.75087" lon="4.74242">
        <ele>264.01928710938</ele>
        <time>2010-09-26T15:39:33Z</time>
      </trkpt>
      <trkpt lat="45.75091" lon="4.7431">
        <ele>263.53857421875</ele>
        <time>2010-09-26T15:39:40Z</time>
      </trkpt>
      <trkpt lat="45.75095" lon="4.74415">
        <ele>262.5771484375</ele>
        <time>2010-09-26T15:39:50Z</time>
      </trkpt>
      <trkpt lat="45.75099" lon="4.74468">
        <ele>263.05786132812</ele>
        <time>2010-09-26T15:39:56Z</time>
      </trkpt>
      <trkpt lat="45.751" lon="4.74483">
        <ele>263.05786132812</ele>
        <time>2010-09-26T15:39:58Z</time>
      </trkpt>
      <trkpt lat="45.75111" lon="4.74506">
        <ele>263.53857421875</ele>
        <time>2010-09-26T15:40:02Z</time>
      </trkpt>
      <trkpt lat="45.7512" lon="4.74514">
        <ele>263.53857421875</ele>
        <time>2010-09-26T15:40:04Z</time>
      </trkpt>
      <trkpt lat="45.75159" lon="4.74551">
        <ele>263.53857421875</ele>
        <time>2010-09-26T15:40:12Z</time>
      </trkpt>
      <trkpt lat="45.75206" lon="4.74585">
        <ele>264.01928710938</ele>
        <time>2010-09-26T15:40:20Z</time>
      </trkpt>
      <trkpt lat="45.75245" lon="4.74612">
        <ele>264.49987792969</ele>
        <time>2010-09-26T15:40:27Z</time>
      </trkpt>
      <trkpt lat="45.75259" lon="4.74626">
        <ele>263.53857421875</ele>
        <time>2010-09-26T15:40:30Z</time>
      </trkpt>
      <trkpt lat="45.75279" lon="4.74666">
        <ele>262.09655761719</ele>
        <time>2010-09-26T15:40:35Z</time>
      </trkpt>
      <trkpt lat="45.75293" lon="4.74698">
        <ele>260.17395019531</ele>
        <time>2010-09-26T15:40:38Z</time>
      </trkpt>
      <trkpt lat="45.75308" lon="4.74736">
        <ele>255.84802246094</ele>
        <time>2010-09-26T15:40:41Z</time>
      </trkpt>
      <trkpt lat="45.75321" lon="4.74764">
        <ele>252.4833984375</ele>
        <time>2010-09-26T15:40:43Z</time>
      </trkpt>
      <trkpt lat="45.75335" lon="4.74795">
        <ele>248.15759277344</ele>
        <time>2010-09-26T15:40:45Z</time>
      </trkpt>
      <trkpt lat="45.75349" lon="4.74828">
        <ele>244.79284667969</ele>
        <time>2010-09-26T15:40:47Z</time>
      </trkpt>
      <trkpt lat="45.75363" lon="4.74863">
        <ele>241.42822265625</ele>
        <time>2010-09-26T15:40:49Z</time>
      </trkpt>
      <trkpt lat="45.75377" lon="4.749">
        <ele>237.58288574219</ele>
        <time>2010-09-26T15:40:51Z</time>
      </trkpt>
      <trkpt lat="45.75389" lon="4.74937">
        <ele>233.25708007812</ele>
        <time>2010-09-26T15:40:53Z</time>
      </trkpt>
      <trkpt lat="45.75402" lon="4.74973">
        <ele>229.41174316406</ele>
        <time>2010-09-26T15:40:55Z</time>
      </trkpt>
      <trkpt lat="45.7542" lon="4.7502">
        <ele>224.60522460938</ele>
        <time>2010-09-26T15:40:58Z</time>
      </trkpt>
      <trkpt lat="45.75426" lon="4.75033">
        <ele>223.64379882812</ele>
        <time>2010-09-26T15:40:59Z</time>
      </trkpt>
      <trkpt lat="45.75446" lon="4.7505">
        <ele>222.20178222656</ele>
        <time>2010-09-26T15:41:02Z</time>
      </trkpt>
      <trkpt lat="45.75464" lon="4.75049">
        <ele>220.75988769531</ele>
        <time>2010-09-26T15:41:04Z</time>
      </trkpt>
      <trkpt lat="45.75483" lon="4.75049">
        <ele>218.83728027344</ele>
        <time>2010-09-26T15:41:06Z</time>
      </trkpt>
      <trkpt lat="45.75517" lon="4.75066">
        <ele>216.91467285156</ele>
        <time>2010-09-26T15:41:10Z</time>
      </trkpt>
      <trkpt lat="45.75528" lon="4.75086">
        <ele>216.43395996094</ele>
        <time>2010-09-26T15:41:12Z</time>
      </trkpt>
      <trkpt lat="45.75531" lon="4.75097">
        <ele>216.43395996094</ele>
        <time>2010-09-26T15:41:13Z</time>
      </trkpt>
      <trkpt lat="45.75538" lon="4.7512">
        <ele>216.91467285156</ele>
        <time>2010-09-26T15:41:15Z</time>
      </trkpt>
      <trkpt lat="45.7556" lon="4.75148">
        <ele>216.43395996094</ele>
        <time>2010-09-26T15:41:19Z</time>
      </trkpt>
      <trkpt lat="45.75611" lon="4.75161">
        <ele>214.99194335938</ele>
        <time>2010-09-26T15:41:26Z</time>
      </trkpt>
      <trkpt lat="45.75631" lon="4.75163">
        <ele>214.03063964844</ele>
        <time>2010-09-26T15:41:29Z</time>
      </trkpt>
      <trkpt lat="45.75674" lon="4.75165">
        <ele>211.62744140625</ele>
        <time>2010-09-26T15:41:35Z</time>
      </trkpt>
      <trkpt lat="45.75719" lon="4.75171">
        <ele>208.26281738281</ele>
        <time>2010-09-26T15:41:40Z</time>
      </trkpt>
      <trkpt lat="45.75738" lon="4.75173">
        <ele>207.30139160156</ele>
        <time>2010-09-26T15:41:42Z</time>
      </trkpt>
      <trkpt lat="45.75798" lon="4.75181">
        <ele>206.34008789062</ele>
        <time>2010-09-26T15:41:49Z</time>
      </trkpt>
      <trkpt lat="45.75822" lon="4.75187">
        <ele>205.85949707031</ele>
        <time>2010-09-26T15:41:53Z</time>
      </trkpt>
      <trkpt lat="45.75826" lon="4.75187">
        <ele>205.85949707031</ele>
        <time>2010-09-26T15:41:56Z</time>
      </trkpt>
      <trkpt lat="45.7583" lon="4.75191">
        <ele>205.85949707031</ele>
        <time>2010-09-26T15:41:59Z</time>
      </trkpt>
      <trkpt lat="45.75832" lon="4.75194">
        <ele>205.85949707031</ele>
        <time>2010-09-26T15:42:00Z</time>
      </trkpt>
      <trkpt lat="45.7584" lon="4.75217">
        <ele>205.37878417969</ele>
        <time>2010-09-26T15:42:04Z</time>
      </trkpt>
      <trkpt lat="45.75846" lon="4.75258">
        <ele>205.37878417969</ele>
        <time>2010-09-26T15:42:10Z</time>
      </trkpt>
      <trkpt lat="45.75846" lon="4.75271">
        <ele>205.37878417969</ele>
        <time>2010-09-26T15:42:12Z</time>
      </trkpt>
      <trkpt lat="45.75838" lon="4.75342">
        <ele>205.37878417969</ele>
        <time>2010-09-26T15:42:21Z</time>
      </trkpt>
      <trkpt lat="45.75832" lon="4.75379">
        <ele>205.37878417969</ele>
        <time>2010-09-26T15:42:26Z</time>
      </trkpt>
      <trkpt lat="45.75825" lon="4.75417">
        <ele>206.34008789062</ele>
        <time>2010-09-26T15:42:32Z</time>
      </trkpt>
      <trkpt lat="45.75829" lon="4.75451">
        <ele>207.30139160156</ele>
        <time>2010-09-26T15:42:37Z</time>
      </trkpt>
      <trkpt lat="45.75834" lon="4.75464">
        <ele>207.30139160156</ele>
        <time>2010-09-26T15:42:39Z</time>
      </trkpt>
      <trkpt lat="45.75847" lon="4.75496">
        <ele>208.26281738281</ele>
        <time>2010-09-26T15:42:44Z</time>
      </trkpt>
      <trkpt lat="45.75856" lon="4.75519">
        <ele>208.26281738281</ele>
        <time>2010-09-26T15:42:48Z</time>
      </trkpt>
      <trkpt lat="45.75867" lon="4.75537">
        <ele>209.22412109375</ele>
        <time>2010-09-26T15:42:52Z</time>
      </trkpt>
      <trkpt lat="45.75885" lon="4.75558">
        <ele>210.666015625</ele>
        <time>2010-09-26T15:42:57Z</time>
      </trkpt>
      <trkpt lat="45.75901" lon="4.75588">
        <ele>212.58862304688</ele>
        <time>2010-09-26T15:43:03Z</time>
      </trkpt>
      <trkpt lat="45.75908" lon="4.75631">
        <ele>213.55004882812</ele>
        <time>2010-09-26T15:43:11Z</time>
      </trkpt>
      <trkpt lat="45.75903" lon="4.75671">
        <ele>214.99194335938</ele>
        <time>2010-09-26T15:43:18Z</time>
      </trkpt>
      <trkpt lat="45.75888" lon="4.75704">
        <ele>216.43395996094</ele>
        <time>2010-09-26T15:43:25Z</time>
      </trkpt>
      <trkpt lat="45.75872" lon="4.75725">
        <ele>217.39538574219</ele>
        <time>2010-09-26T15:43:32Z</time>
      </trkpt>
      <trkpt lat="45.75871" lon="4.75724">
        <ele>217.39538574219</ele>
        <time>2010-09-26T15:43:33Z</time>
      </trkpt>
      <trkpt lat="45.75879" lon="4.75713">
        <ele>216.91467285156</ele>
        <time>2010-09-26T15:43:39Z</time>
      </trkpt>
      <trkpt lat="45.75893" lon="4.75687">
        <ele>215.95324707031</ele>
        <time>2010-09-26T15:43:45Z</time>
      </trkpt>
      <trkpt lat="45.75896" lon="4.75681">
        <ele>215.95324707031</ele>
        <time>2010-09-26T15:43:46Z</time>
      </trkpt>
      <trkpt lat="45.759" lon="4.75668">
        <ele>214.51123046875</ele>
        <time>2010-09-26T15:43:48Z</time>
      </trkpt>
      <trkpt lat="45.75902" lon="4.75661">
        <ele>214.03063964844</ele>
        <time>2010-09-26T15:43:49Z</time>
      </trkpt>
      <trkpt lat="45.75904" lon="4.75634">
        <ele>213.55004882812</ele>
        <time>2010-09-26T15:43:53Z</time>
      </trkpt>
      <trkpt lat="45.75901" lon="4.75602">
        <ele>212.58862304688</ele>
        <time>2010-09-26T15:43:58Z</time>
      </trkpt>
      <trkpt lat="45.75894" lon="4.75579">
        <ele>212.10803222656</ele>
        <time>2010-09-26T15:44:03Z</time>
      </trkpt>
      <trkpt lat="45.75894" lon="4.75577">
        <ele>211.62744140625</ele>
        <time>2010-09-26T15:44:09Z</time>
      </trkpt>
      <trkpt lat="45.75903" lon="4.7558">
        <ele>212.10803222656</ele>
        <time>2010-09-26T15:44:14Z</time>
      </trkpt>
      <trkpt lat="45.75907" lon="4.75591">
        <ele>212.10803222656</ele>
        <time>2010-09-26T15:44:17Z</time>
      </trkpt>
      <trkpt lat="45.75915" lon="4.7561">
        <ele>213.0693359375</ele>
        <time>2010-09-26T15:44:23Z</time>
      </trkpt>
      <trkpt lat="45.75916" lon="4.75627">
        <ele>214.99194335938</ele>
        <time>2010-09-26T15:44:28Z</time>
      </trkpt>
      <trkpt lat="45.75921" lon="4.75651">
        <ele>216.91467285156</ele>
        <time>2010-09-26T15:44:36Z</time>
      </trkpt>
      <trkpt lat="45.75927" lon="4.75661">
        <ele>218.83728027344</ele>
        <time>2010-09-26T15:44:40Z</time>
      </trkpt>
      <trkpt lat="45.75941" lon="4.75674">
        <ele>221.72119140625</ele>
        <time>2010-09-26T15:44:48Z</time>
      </trkpt>
      <trkpt lat="45.75956" lon="4.7569">
        <ele>223.64379882812</ele>
        <time>2010-09-26T15:44:56Z</time>
      </trkpt>
      <trkpt lat="45.75969" lon="4.75709">
        <ele>226.04711914062</ele>
        <time>2010-09-26T15:45:04Z</time>
      </trkpt>
      <trkpt lat="45.75976" lon="4.75726">
        <ele>228.45043945312</ele>
        <time>2010-09-26T15:45:12Z</time>
      </trkpt>
      <trkpt lat="45.75977" lon="4.75729">
        <ele>228.45043945312</ele>
        <time>2010-09-26T15:45:16Z</time>
      </trkpt>
      <trkpt lat="45.75975" lon="4.75737">
        <ele>228.93115234375</ele>
        <time>2010-09-26T15:45:20Z</time>
      </trkpt>
      <trkpt lat="45.75978" lon="4.75764">
        <ele>230.373046875</ele>
        <time>2010-09-26T15:45:27Z</time>
      </trkpt>
      <trkpt lat="45.75984" lon="4.75783">
        <ele>230.373046875</ele>
        <time>2010-09-26T15:45:33Z</time>
      </trkpt>
      <trkpt lat="45.75979" lon="4.75796">
        <ele>231.81494140625</ele>
        <time>2010-09-26T15:45:38Z</time>
      </trkpt>
      <trkpt lat="45.75985" lon="4.75798">
        <ele>231.81494140625</ele>
        <time>2010-09-26T15:45:42Z</time>
      </trkpt>
      <trkpt lat="45.75993" lon="4.75798">
        <ele>230.85375976562</ele>
        <time>2010-09-26T15:45:45Z</time>
      </trkpt>
      <trkpt lat="45.76018" lon="4.75796">
        <ele>231.81494140625</ele>
        <time>2010-09-26T15:45:53Z</time>
      </trkpt>
      <trkpt lat="45.76038" lon="4.75793">
        <ele>232.77648925781</ele>
        <time>2010-09-26T15:45:59Z</time>
      </trkpt>
      <trkpt lat="45.7606" lon="4.75788">
        <ele>233.25708007812</ele>
        <time>2010-09-26T15:46:06Z</time>
      </trkpt>
      <trkpt lat="45.76071" lon="4.75802">
        <ele>233.73767089844</ele>
        <time>2010-09-26T15:46:10Z</time>
      </trkpt>
      <trkpt lat="45.76084" lon="4.75825">
        <ele>234.69909667969</ele>
        <time>2010-09-26T15:46:16Z</time>
      </trkpt>
      <trkpt lat="45.76091" lon="4.7584">
        <ele>235.1796875</ele>
        <time>2010-09-26T15:46:20Z</time>
      </trkpt>
      <trkpt lat="45.76094" lon="4.75862">
        <ele>235.66027832031</ele>
        <time>2010-09-26T15:46:24Z</time>
      </trkpt>
      <trkpt lat="45.76096" lon="4.75889">
        <ele>235.66027832031</ele>
        <time>2010-09-26T15:46:29Z</time>
      </trkpt>
      <trkpt lat="45.76097" lon="4.759">
        <ele>235.66027832031</ele>
        <time>2010-09-26T15:46:31Z</time>
      </trkpt>
      <trkpt lat="45.76101" lon="4.75931">
        <ele>236.14099121094</ele>
        <time>2010-09-26T15:46:36Z</time>
      </trkpt>
      <trkpt lat="45.76107" lon="4.75969">
        <ele>235.1796875</ele>
        <time>2010-09-26T15:46:42Z</time>
      </trkpt>
      <trkpt lat="45.7611" lon="4.75986">
        <ele>235.1796875</ele>
        <time>2010-09-26T15:46:45Z</time>
      </trkpt>
      <trkpt lat="45.76097" lon="4.76023">
        <ele>234.69909667969</ele>
        <time>2010-09-26T15:46:52Z</time>
      </trkpt>
      <trkpt lat="45.76092" lon="4.76033">
        <ele>234.69909667969</ele>
        <time>2010-09-26T15:46:55Z</time>
      </trkpt>
      <trkpt lat="45.76098" lon="4.76052">
        <ele>234.21838378906</ele>
        <time>2010-09-26T15:46:59Z</time>
      </trkpt>
      <trkpt lat="45.761" lon="4.76074">
        <ele>234.21838378906</ele>
        <time>2010-09-26T15:47:02Z</time>
      </trkpt>
      <trkpt lat="45.76098" lon="4.76082">
        <ele>234.21838378906</ele>
        <time>2010-09-26T15:47:03Z</time>
      </trkpt>
      <trkpt lat="45.76096" lon="4.76124">
        <ele>233.73767089844</ele>
        <time>2010-09-26T15:47:08Z</time>
      </trkpt>
      <trkpt lat="45.76099" lon="4.762">
        <ele>232.77648925781</ele>
        <time>2010-09-26T15:47:17Z</time>
      </trkpt>
      <trkpt lat="45.76101" lon="4.76251">
        <ele>232.29577636719</ele>
        <time>2010-09-26T15:47:23Z</time>
      </trkpt>
      <trkpt lat="45.76103" lon="4.76284">
        <ele>232.29577636719</ele>
        <time>2010-09-26T15:47:27Z</time>
      </trkpt>
      <trkpt lat="45.761" lon="4.76357">
        <ele>232.77648925781</ele>
        <time>2010-09-26T15:47:35Z</time>
      </trkpt>
      <trkpt lat="45.76094" lon="4.76441">
        <ele>231.81494140625</ele>
        <time>2010-09-26T15:47:44Z</time>
      </trkpt>
      <trkpt lat="45.76092" lon="4.765">
        <ele>230.373046875</ele>
        <time>2010-09-26T15:47:50Z</time>
      </trkpt>
      <trkpt lat="45.76088" lon="4.76574">
        <ele>229.41174316406</ele>
        <time>2010-09-26T15:47:57Z</time>
      </trkpt>
      <trkpt lat="45.76076" lon="4.76649">
        <ele>226.52783203125</ele>
        <time>2010-09-26T15:48:04Z</time>
      </trkpt>
      <trkpt lat="45.76068" lon="4.76706">
        <ele>225.0859375</ele>
        <time>2010-09-26T15:48:09Z</time>
      </trkpt>
      <trkpt lat="45.76067" lon="4.76754">
        <ele>223.16320800781</ele>
        <time>2010-09-26T15:48:13Z</time>
      </trkpt>
      <trkpt lat="45.7606" lon="4.7684">
        <ele>220.75988769531</ele>
        <time>2010-09-26T15:48:20Z</time>
      </trkpt>
      <trkpt lat="45.76055" lon="4.7691">
        <ele>219.31799316406</ele>
        <time>2010-09-26T15:48:26Z</time>
      </trkpt>
      <trkpt lat="45.76046" lon="4.76971">
        <ele>217.8759765625</ele>
        <time>2010-09-26T15:48:32Z</time>
      </trkpt>
      <trkpt lat="45.7604" lon="4.77012">
        <ele>217.39538574219</ele>
        <time>2010-09-26T15:48:37Z</time>
      </trkpt>
      <trkpt lat="45.76038" lon="4.77028">
        <ele>217.8759765625</ele>
        <time>2010-09-26T15:48:40Z</time>
      </trkpt>
      <trkpt lat="45.7604" lon="4.77057">
        <ele>218.35656738281</ele>
        <time>2010-09-26T15:48:44Z</time>
      </trkpt>
      <trkpt lat="45.76038" lon="4.77138">
        <ele>218.35656738281</ele>
        <time>2010-09-26T15:48:54Z</time>
      </trkpt>
      <trkpt lat="45.76037" lon="4.77209">
        <ele>218.83728027344</ele>
        <time>2010-09-26T15:49:03Z</time>
      </trkpt>
      <trkpt lat="45.76035" lon="4.77294">
        <ele>219.79858398438</ele>
        <time>2010-09-26T15:49:14Z</time>
      </trkpt>
      <trkpt lat="45.76037" lon="4.77317">
        <ele>218.83728027344</ele>
        <time>2010-09-26T15:49:18Z</time>
      </trkpt>
      <trkpt lat="45.76037" lon="4.77339">
        <ele>218.83728027344</ele>
        <time>2010-09-26T15:49:23Z</time>
      </trkpt>
      <trkpt lat="45.76051" lon="4.77377">
        <ele>219.31799316406</ele>
        <time>2010-09-26T15:49:29Z</time>
      </trkpt>
      <trkpt lat="45.76078" lon="4.7744">
        <ele>218.83728027344</ele>
        <time>2010-09-26T15:49:38Z</time>
      </trkpt>
      <trkpt lat="45.761" lon="4.7749">
        <ele>218.35656738281</ele>
        <time>2010-09-26T15:49:45Z</time>
      </trkpt>
      <trkpt lat="45.76126" lon="4.77554">
        <ele>218.83728027344</ele>
        <time>2010-09-26T15:49:54Z</time>
      </trkpt>
      <trkpt lat="45.76146" lon="4.77604">
        <ele>219.31799316406</ele>
        <time>2010-09-26T15:50:01Z</time>
      </trkpt>
      <trkpt lat="45.76164" lon="4.77662">
        <ele>220.75988769531</ele>
        <time>2010-09-26T15:50:09Z</time>
      </trkpt>
      <trkpt lat="45.76182" lon="4.77718">
        <ele>221.24060058594</ele>
        <time>2010-09-26T15:50:17Z</time>
      </trkpt>
      <trkpt lat="45.76182" lon="4.77764">
        <ele>221.24060058594</ele>
        <time>2010-09-26T15:50:23Z</time>
      </trkpt>
      <trkpt lat="45.76179" lon="4.7783">
        <ele>221.72119140625</ele>
        <time>2010-09-26T15:50:32Z</time>
      </trkpt>
      <trkpt lat="45.76179" lon="4.77856">
        <ele>221.72119140625</ele>
        <time>2010-09-26T15:50:37Z</time>
      </trkpt>
      <trkpt lat="45.76178" lon="4.7787">
        <ele>221.24060058594</ele>
        <time>2010-09-26T15:50:43Z</time>
      </trkpt>
      <trkpt lat="45.76173" lon="4.77876">
        <ele>220.75988769531</ele>
        <time>2010-09-26T15:50:49Z</time>
      </trkpt>
      <trkpt lat="45.76173" lon="4.77876">
        <ele>220.27917480469</ele>
        <time>2010-09-26T15:50:50Z</time>
      </trkpt>
      <trkpt lat="45.76177" lon="4.77867">
        <ele>221.24060058594</ele>
        <time>2010-09-26T15:50:55Z</time>
      </trkpt>
      <trkpt lat="45.76182" lon="4.77862">
        <ele>221.24060058594</ele>
        <time>2010-09-26T15:50:57Z</time>
      </trkpt>
      <trkpt lat="45.76191" lon="4.77855">
        <ele>221.72119140625</ele>
        <time>2010-09-26T15:51:00Z</time>
      </trkpt>
      <trkpt lat="45.76228" lon="4.77856">
        <ele>221.24060058594</ele>
        <time>2010-09-26T15:51:08Z</time>
      </trkpt>
      <trkpt lat="45.76282" lon="4.77859">
        <ele>221.24060058594</ele>
        <time>2010-09-26T15:51:19Z</time>
      </trkpt>
      <trkpt lat="45.76319" lon="4.77861">
        <ele>220.27917480469</ele>
        <time>2010-09-26T15:51:27Z</time>
      </trkpt>
      <trkpt lat="45.76331" lon="4.77863">
        <ele>220.75988769531</ele>
        <time>2010-09-26T15:51:30Z</time>
      </trkpt>
      <trkpt lat="45.7636" lon="4.77863">
        <ele>220.75988769531</ele>
        <time>2010-09-26T15:51:37Z</time>
      </trkpt>
      <trkpt lat="45.76374" lon="4.77867">
        <ele>220.75988769531</ele>
        <time>2010-09-26T15:51:41Z</time>
      </trkpt>
      <trkpt lat="45.7638" lon="4.77887">
        <ele>220.75988769531</ele>
        <time>2010-09-26T15:51:45Z</time>
      </trkpt>
      <trkpt lat="45.76382" lon="4.77907">
        <ele>220.75988769531</ele>
        <time>2010-09-26T15:51:48Z</time>
      </trkpt>
      <trkpt lat="45.76382" lon="4.77927">
        <ele>220.75988769531</ele>
        <time>2010-09-26T15:51:51Z</time>
      </trkpt>
      <trkpt lat="45.76382" lon="4.77974">
        <ele>220.75988769531</ele>
        <time>2010-09-26T15:51:58Z</time>
      </trkpt>
      <trkpt lat="45.76384" lon="4.78017">
        <ele>221.24060058594</ele>
        <time>2010-09-26T15:52:04Z</time>
      </trkpt>
      <trkpt lat="45.76386" lon="4.78044">
        <ele>221.72119140625</ele>
        <time>2010-09-26T15:52:08Z</time>
      </trkpt>
      <trkpt lat="45.76387" lon="4.78065">
        <ele>221.24060058594</ele>
        <time>2010-09-26T15:52:11Z</time>
      </trkpt>
      <trkpt lat="45.76389" lon="4.78097">
        <ele>221.72119140625</ele>
        <time>2010-09-26T15:52:16Z</time>
      </trkpt>
      <trkpt lat="45.76393" lon="4.78122">
        <ele>221.72119140625</ele>
        <time>2010-09-26T15:52:21Z</time>
      </trkpt>
      <trkpt lat="45.76395" lon="4.78126">
        <ele>221.72119140625</ele>
        <time>2010-09-26T15:52:26Z</time>
      </trkpt>
      <trkpt lat="45.76394" lon="4.78129">
        <ele>221.72119140625</ele>
        <time>2010-09-26T15:52:32Z</time>
      </trkpt>
      <trkpt lat="45.76385" lon="4.78137">
        <ele>222.20178222656</ele>
        <time>2010-09-26T15:52:37Z</time>
      </trkpt>
      <trkpt lat="45.76387" lon="4.78154">
        <ele>222.20178222656</ele>
        <time>2010-09-26T15:52:40Z</time>
      </trkpt>
      <trkpt lat="45.76398" lon="4.78188">
        <ele>222.68249511719</ele>
        <time>2010-09-26T15:52:46Z</time>
      </trkpt>
      <trkpt lat="45.76402" lon="4.78236">
        <ele>223.16320800781</ele>
        <time>2010-09-26T15:52:52Z</time>
      </trkpt>
      <trkpt lat="45.76408" lon="4.78319">
        <ele>223.64379882812</ele>
        <time>2010-09-26T15:53:02Z</time>
      </trkpt>
      <trkpt lat="45.7641" lon="4.78374">
        <ele>224.60522460938</ele>
        <time>2010-09-26T15:53:09Z</time>
      </trkpt>
      <trkpt lat="45.76412" lon="4.78419">
        <ele>224.60522460938</ele>
        <time>2010-09-26T15:53:15Z</time>
      </trkpt>
      <trkpt lat="45.76417" lon="4.78469">
        <ele>225.56652832031</ele>
        <time>2010-09-26T15:53:22Z</time>
      </trkpt>
      <trkpt lat="45.76418" lon="4.78486">
        <ele>225.56652832031</ele>
        <time>2010-09-26T15:53:26Z</time>
      </trkpt>
      <trkpt lat="45.76417" lon="4.78501">
        <ele>225.56652832031</ele>
        <time>2010-09-26T15:53:31Z</time>
      </trkpt>
      <trkpt lat="45.76417" lon="4.78529">
        <ele>226.04711914062</ele>
        <time>2010-09-26T15:53:35Z</time>
      </trkpt>
      <trkpt lat="45.76418" lon="4.78574">
        <ele>226.52783203125</ele>
        <time>2010-09-26T15:53:40Z</time>
      </trkpt>
      <trkpt lat="45.76427" lon="4.78607">
        <ele>227.00854492188</ele>
        <time>2010-09-26T15:53:44Z</time>
      </trkpt>
      <trkpt lat="45.76443" lon="4.7862">
        <ele>227.00854492188</ele>
        <time>2010-09-26T15:53:47Z</time>
      </trkpt>
      <trkpt lat="45.76493" lon="4.78645">
        <ele>226.04711914062</ele>
        <time>2010-09-26T15:53:55Z</time>
      </trkpt>
      <trkpt lat="45.76524" lon="4.78683">
        <ele>226.04711914062</ele>
        <time>2010-09-26T15:54:01Z</time>
      </trkpt>
      <trkpt lat="45.76551" lon="4.78733">
        <ele>225.56652832031</ele>
        <time>2010-09-26T15:54:07Z</time>
      </trkpt>
      <trkpt lat="45.76581" lon="4.78804">
        <ele>225.0859375</ele>
        <time>2010-09-26T15:54:15Z</time>
      </trkpt>
      <trkpt lat="45.7662" lon="4.78901">
        <ele>224.12451171875</ele>
        <time>2010-09-26T15:54:26Z</time>
      </trkpt>
      <trkpt lat="45.76646" lon="4.78993">
        <ele>223.64379882812</ele>
        <time>2010-09-26T15:54:36Z</time>
      </trkpt>
      <trkpt lat="45.76653" lon="4.79031">
        <ele>224.12451171875</ele>
        <time>2010-09-26T15:54:40Z</time>
      </trkpt>
      <trkpt lat="45.76653" lon="4.79091">
        <ele>225.0859375</ele>
        <time>2010-09-26T15:54:47Z</time>
      </trkpt>
      <trkpt lat="45.76651" lon="4.79128">
        <ele>227.48913574219</ele>
        <time>2010-09-26T15:54:53Z</time>
      </trkpt>
      <trkpt lat="45.76649" lon="4.79161">
        <ele>228.93115234375</ele>
        <time>2010-09-26T15:55:00Z</time>
      </trkpt>
      <trkpt lat="45.76653" lon="4.79175">
        <ele>229.89233398438</ele>
        <time>2010-09-26T15:55:06Z</time>
      </trkpt>
      <trkpt lat="45.76662" lon="4.79177">
        <ele>230.373046875</ele>
        <time>2010-09-26T15:55:10Z</time>
      </trkpt>
      <trkpt lat="45.76673" lon="4.79169">
        <ele>230.373046875</ele>
        <time>2010-09-26T15:55:13Z</time>
      </trkpt>
      <trkpt lat="45.76706" lon="4.79141">
        <ele>228.93115234375</ele>
        <time>2010-09-26T15:55:21Z</time>
      </trkpt>
      <trkpt lat="45.76723" lon="4.79144">
        <ele>228.45043945312</ele>
        <time>2010-09-26T15:55:25Z</time>
      </trkpt>
      <trkpt lat="45.76725" lon="4.79156">
        <ele>228.45043945312</ele>
        <time>2010-09-26T15:55:27Z</time>
      </trkpt>
      <trkpt lat="45.76722" lon="4.79215">
        <ele>229.89233398438</ele>
        <time>2010-09-26T15:55:36Z</time>
      </trkpt>
      <trkpt lat="45.76718" lon="4.79278">
        <ele>230.85375976562</ele>
        <time>2010-09-26T15:55:45Z</time>
      </trkpt>
      <trkpt lat="45.76715" lon="4.79318">
        <ele>230.85375976562</ele>
        <time>2010-09-26T15:55:51Z</time>
      </trkpt>
      <trkpt lat="45.7671" lon="4.79342">
        <ele>230.85375976562</ele>
        <time>2010-09-26T15:55:55Z</time>
      </trkpt>
      <trkpt lat="45.76703" lon="4.79384">
        <ele>230.373046875</ele>
        <time>2010-09-26T15:56:02Z</time>
      </trkpt>
      <trkpt lat="45.76711" lon="4.7939">
        <ele>227.9697265625</ele>
        <time>2010-09-26T15:56:05Z</time>
      </trkpt>
      <trkpt lat="45.76723" lon="4.79389">
        <ele>227.48913574219</ele>
        <time>2010-09-26T15:56:07Z</time>
      </trkpt>
      <trkpt lat="45.76748" lon="4.79387">
        <ele>223.16320800781</ele>
        <time>2010-09-26T15:56:10Z</time>
      </trkpt>
      <trkpt lat="45.76774" lon="4.79385">
        <ele>217.8759765625</ele>
        <time>2010-09-26T15:56:13Z</time>
      </trkpt>
      <trkpt lat="45.76801" lon="4.79381">
        <ele>214.03063964844</ele>
        <time>2010-09-26T15:56:16Z</time>
      </trkpt>
      <trkpt lat="45.76828" lon="4.79379">
        <ele>207.78210449219</ele>
        <time>2010-09-26T15:56:19Z</time>
      </trkpt>
      <trkpt lat="45.76837" lon="4.79376">
        <ele>206.34008789062</ele>
        <time>2010-09-26T15:56:20Z</time>
      </trkpt>
      <trkpt lat="45.76862" lon="4.79366">
        <ele>201.53356933594</ele>
        <time>2010-09-26T15:56:23Z</time>
      </trkpt>
      <trkpt lat="45.76878" lon="4.79362">
        <ele>197.20751953125</ele>
        <time>2010-09-26T15:56:25Z</time>
      </trkpt>
      <trkpt lat="45.76893" lon="4.79359">
        <ele>193.3623046875</ele>
        <time>2010-09-26T15:56:27Z</time>
      </trkpt>
      <trkpt lat="45.76899" lon="4.79358">
        <ele>191.92028808594</ele>
        <time>2010-09-26T15:56:28Z</time>
      </trkpt>
      <trkpt lat="45.76919" lon="4.79359">
        <ele>187.59436035156</ele>
        <time>2010-09-26T15:56:31Z</time>
      </trkpt>
      <trkpt lat="45.76944" lon="4.79385">
        <ele>183.26843261719</ele>
        <time>2010-09-26T15:56:35Z</time>
      </trkpt>
      <trkpt lat="45.76952" lon="4.79408">
        <ele>179.90380859375</ele>
        <time>2010-09-26T15:56:39Z</time>
      </trkpt>
      <trkpt lat="45.76945" lon="4.79422">
        <ele>178.4619140625</ele>
        <time>2010-09-26T15:56:41Z</time>
      </trkpt>
      <trkpt lat="45.76914" lon="4.79463">
        <ele>176.53930664062</ele>
        <time>2010-09-26T15:56:48Z</time>
      </trkpt>
      <trkpt lat="45.76904" lon="4.79481">
        <ele>175.57788085938</ele>
        <time>2010-09-26T15:56:51Z</time>
      </trkpt>
      <trkpt lat="45.76895" lon="4.79522">
        <ele>175.09729003906</ele>
        <time>2010-09-26T15:56:57Z</time>
      </trkpt>
      <trkpt lat="45.76894" lon="4.79549">
        <ele>174.61657714844</ele>
        <time>2010-09-26T15:57:01Z</time>
      </trkpt>
      <trkpt lat="45.76891" lon="4.7957">
        <ele>174.61657714844</ele>
        <time>2010-09-26T15:57:04Z</time>
      </trkpt>
      <trkpt lat="45.76897" lon="4.79627">
        <ele>174.13586425781</ele>
        <time>2010-09-26T15:57:12Z</time>
      </trkpt>
      <trkpt lat="45.76902" lon="4.79648">
        <ele>174.13586425781</ele>
        <time>2010-09-26T15:57:16Z</time>
      </trkpt>
      <trkpt lat="45.76902" lon="4.79669">
        <ele>173.6552734375</ele>
        <time>2010-09-26T15:57:21Z</time>
      </trkpt>
      <trkpt lat="45.76902" lon="4.79671">
        <ele>173.6552734375</ele>
        <time>2010-09-26T15:57:24Z</time>
      </trkpt>
      <trkpt lat="45.76902" lon="4.79671">
        <ele>173.6552734375</ele>
        <time>2010-09-26T15:57:31Z</time>
      </trkpt>
      <trkpt lat="45.76902" lon="4.79671">
        <ele>174.13586425781</ele>
        <time>2010-09-26T15:57:46Z</time>
      </trkpt>
      <trkpt lat="45.76902" lon="4.79671">
        <ele>173.6552734375</ele>
        <time>2010-09-26T15:57:51Z</time>
      </trkpt>
      <trkpt lat="45.76904" lon="4.79673">
        <ele>174.13586425781</ele>
        <time>2010-09-26T15:57:53Z</time>
      </trkpt>
      <trkpt lat="45.76911" lon="4.79687">
        <ele>174.13586425781</ele>
        <time>2010-09-26T15:57:59Z</time>
      </trkpt>
      <trkpt lat="45.76918" lon="4.79719">
        <ele>174.13586425781</ele>
        <time>2010-09-26T15:58:05Z</time>
      </trkpt>
      <trkpt lat="45.76918" lon="4.79749">
        <ele>174.13586425781</ele>
        <time>2010-09-26T15:58:10Z</time>
      </trkpt>
      <trkpt lat="45.76912" lon="4.79793">
        <ele>174.61657714844</ele>
        <time>2010-09-26T15:58:16Z</time>
      </trkpt>
      <trkpt lat="45.76914" lon="4.79824">
        <ele>173.17468261719</ele>
        <time>2010-09-26T15:58:20Z</time>
      </trkpt>
      <trkpt lat="45.76916" lon="4.79868">
        <ele>173.6552734375</ele>
        <time>2010-09-26T15:58:25Z</time>
      </trkpt>
      <trkpt lat="45.76918" lon="4.79899">
        <ele>173.6552734375</ele>
        <time>2010-09-26T15:58:29Z</time>
      </trkpt>
      <trkpt lat="45.76917" lon="4.7992">
        <ele>173.6552734375</ele>
        <time>2010-09-26T15:58:32Z</time>
      </trkpt>
      <trkpt lat="45.76919" lon="4.79941">
        <ele>173.6552734375</ele>
        <time>2010-09-26T15:58:35Z</time>
      </trkpt>
      <trkpt lat="45.76916" lon="4.79959">
        <ele>173.17468261719</ele>
        <time>2010-09-26T15:58:38Z</time>
      </trkpt>
      <trkpt lat="45.76916" lon="4.79979">
        <ele>173.6552734375</ele>
        <time>2010-09-26T15:58:42Z</time>
      </trkpt>
      <trkpt lat="45.76919" lon="4.80002">
        <ele>173.6552734375</ele>
        <time>2010-09-26T15:58:48Z</time>
      </trkpt>
      <trkpt lat="45.76919" lon="4.80001">
        <ele>173.6552734375</ele>
        <time>2010-09-26T15:58:56Z</time>
      </trkpt>
      <trkpt lat="45.76917" lon="4.80003">
        <ele>173.6552734375</ele>
        <time>2010-09-26T15:59:27Z</time>
      </trkpt>
      <trkpt lat="45.76918" lon="4.80003">
        <ele>174.13586425781</ele>
        <time>2010-09-26T15:59:42Z</time>
      </trkpt>
      <trkpt lat="45.76924" lon="4.80014">
        <ele>174.13586425781</ele>
        <time>2010-09-26T15:59:47Z</time>
      </trkpt>
      <trkpt lat="45.76927" lon="4.8003">
        <ele>174.13586425781</ele>
        <time>2010-09-26T15:59:50Z</time>
      </trkpt>
      <trkpt lat="45.76933" lon="4.80057">
        <ele>174.61657714844</ele>
        <time>2010-09-26T15:59:55Z</time>
      </trkpt>
      <trkpt lat="45.76944" lon="4.80111">
        <ele>175.57788085938</ele>
        <time>2010-09-26T16:00:03Z</time>
      </trkpt>
      <trkpt lat="45.76952" lon="4.80164">
        <ele>175.57788085938</ele>
        <time>2010-09-26T16:00:10Z</time>
      </trkpt>
      <trkpt lat="45.76966" lon="4.80243">
        <ele>175.57788085938</ele>
        <time>2010-09-26T16:00:20Z</time>
      </trkpt>
      <trkpt lat="45.76976" lon="4.80308">
        <ele>175.09729003906</ele>
        <time>2010-09-26T16:00:28Z</time>
      </trkpt>
      <trkpt lat="45.76988" lon="4.80354">
        <ele>174.61657714844</ele>
        <time>2010-09-26T16:00:34Z</time>
      </trkpt>
      <trkpt lat="45.76999" lon="4.80423">
        <ele>175.09729003906</ele>
        <time>2010-09-26T16:00:43Z</time>
      </trkpt>
      <trkpt lat="45.77007" lon="4.80453">
        <ele>174.61657714844</ele>
        <time>2010-09-26T16:00:47Z</time>
      </trkpt>
      <trkpt lat="45.77016" lon="4.80503">
        <ele>175.09729003906</ele>
        <time>2010-09-26T16:00:54Z</time>
      </trkpt>
      <trkpt lat="45.7702" lon="4.80522">
        <ele>175.09729003906</ele>
        <time>2010-09-26T16:00:57Z</time>
      </trkpt>
      <trkpt lat="45.77018" lon="4.80542">
        <ele>175.09729003906</ele>
        <time>2010-09-26T16:01:01Z</time>
      </trkpt>
      <trkpt lat="45.77017" lon="4.80549">
        <ele>175.09729003906</ele>
        <time>2010-09-26T16:01:08Z</time>
      </trkpt>
      <trkpt lat="45.77017" lon="4.80551">
        <ele>175.09729003906</ele>
        <time>2010-09-26T16:01:09Z</time>
      </trkpt>
      <trkpt lat="45.77027" lon="4.80556">
        <ele>175.09729003906</ele>
        <time>2010-09-26T16:01:13Z</time>
      </trkpt>
      <trkpt lat="45.77031" lon="4.80557">
        <ele>175.09729003906</ele>
        <time>2010-09-26T16:01:14Z</time>
      </trkpt>
      <trkpt lat="45.77063" lon="4.80556">
        <ele>174.13586425781</ele>
        <time>2010-09-26T16:01:20Z</time>
      </trkpt>
      <trkpt lat="45.77096" lon="4.80553">
        <ele>173.6552734375</ele>
        <time>2010-09-26T16:01:26Z</time>
      </trkpt>
      <trkpt lat="45.7711" lon="4.80548">
        <ele>173.6552734375</ele>
        <time>2010-09-26T16:01:30Z</time>
      </trkpt>
      <trkpt lat="45.77123" lon="4.80553">
        <ele>173.17468261719</ele>
        <time>2010-09-26T16:01:34Z</time>
      </trkpt>
      <trkpt lat="45.77127" lon="4.80559">
        <ele>173.17468261719</ele>
        <time>2010-09-26T16:01:35Z</time>
      </trkpt>
      <trkpt lat="45.77137" lon="4.8058">
        <ele>173.6552734375</ele>
        <time>2010-09-26T16:01:38Z</time>
      </trkpt>
      <trkpt lat="45.77151" lon="4.80618">
        <ele>173.17468261719</ele>
        <time>2010-09-26T16:01:43Z</time>
      </trkpt>
      <trkpt lat="45.77182" lon="4.80683">
        <ele>173.17468261719</ele>
        <time>2010-09-26T16:01:49Z</time>
      </trkpt>
      <trkpt lat="45.77188" lon="4.80699">
        <ele>173.17468261719</ele>
        <time>2010-09-26T16:01:51Z</time>
      </trkpt>
      <trkpt lat="45.77209" lon="4.80761">
        <ele>173.17468261719</ele>
        <time>2010-09-26T16:01:58Z</time>
      </trkpt>
      <trkpt lat="45.77215" lon="4.80777">
        <ele>173.17468261719</ele>
        <time>2010-09-26T16:02:00Z</time>
      </trkpt>
      <trkpt lat="45.77228" lon="4.80827">
        <ele>175.09729003906</ele>
        <time>2010-09-26T16:02:07Z</time>
      </trkpt>
      <trkpt lat="45.77231" lon="4.80849">
        <ele>176.53930664062</ele>
        <time>2010-09-26T16:02:11Z</time>
      </trkpt>
      <trkpt lat="45.77241" lon="4.80853">
        <ele>176.53930664062</ele>
        <time>2010-09-26T16:02:14Z</time>
      </trkpt>
      <trkpt lat="45.77246" lon="4.80851">
        <ele>176.05859375</ele>
        <time>2010-09-26T16:02:15Z</time>
      </trkpt>
      <trkpt lat="45.77258" lon="4.80846">
        <ele>175.09729003906</ele>
        <time>2010-09-26T16:02:17Z</time>
      </trkpt>
      <trkpt lat="45.77271" lon="4.80841">
        <ele>174.13586425781</ele>
        <time>2010-09-26T16:02:19Z</time>
      </trkpt>
      <trkpt lat="45.77304" lon="4.8082">
        <ele>173.17468261719</ele>
        <time>2010-09-26T16:02:24Z</time>
      </trkpt>
      <trkpt lat="45.7734" lon="4.80804">
        <ele>172.21325683594</ele>
        <time>2010-09-26T16:02:29Z</time>
      </trkpt>
      <trkpt lat="45.77352" lon="4.80817">
        <ele>171.25207519531</ele>
        <time>2010-09-26T16:02:31Z</time>
      </trkpt>
      <trkpt lat="45.77369" lon="4.80844">
        <ele>170.77136230469</ele>
        <time>2010-09-26T16:02:35Z</time>
      </trkpt>
      <trkpt lat="45.77374" lon="4.8086">
        <ele>170.29064941406</ele>
        <time>2010-09-26T16:02:39Z</time>
      </trkpt>
      <trkpt lat="45.77375" lon="4.80866">
        <ele>170.29064941406</ele>
        <time>2010-09-26T16:02:41Z</time>
      </trkpt>
      <trkpt lat="45.77376" lon="4.80876">
        <ele>170.29064941406</ele>
        <time>2010-09-26T16:02:46Z</time>
      </trkpt>
      <trkpt lat="45.77374" lon="4.80885">
        <ele>170.29064941406</ele>
        <time>2010-09-26T16:02:48Z</time>
      </trkpt>
      <trkpt lat="45.77365" lon="4.80908">
        <ele>170.77136230469</ele>
        <time>2010-09-26T16:02:53Z</time>
      </trkpt>
      <trkpt lat="45.77344" lon="4.80945">
        <ele>171.25207519531</ele>
        <time>2010-09-26T16:03:00Z</time>
      </trkpt>
      <trkpt lat="45.77332" lon="4.8097">
        <ele>172.21325683594</ele>
        <time>2010-09-26T16:03:04Z</time>
      </trkpt>
      <trkpt lat="45.77305" lon="4.81009">
        <ele>172.69396972656</ele>
        <time>2010-09-26T16:03:11Z</time>
      </trkpt>
      <trkpt lat="45.77279" lon="4.81039">
        <ele>172.69396972656</ele>
        <time>2010-09-26T16:03:17Z</time>
      </trkpt>
      <trkpt lat="45.77258" lon="4.81059">
        <ele>172.69396972656</ele>
        <time>2010-09-26T16:03:21Z</time>
      </trkpt>
      <trkpt lat="45.77208" lon="4.81115">
        <ele>171.73266601562</ele>
        <time>2010-09-26T16:03:30Z</time>
      </trkpt>
      <trkpt lat="45.77172" lon="4.81151">
        <ele>171.73266601562</ele>
        <time>2010-09-26T16:03:36Z</time>
      </trkpt>
      <trkpt lat="45.77166" lon="4.81155">
        <ele>171.73266601562</ele>
        <time>2010-09-26T16:03:37Z</time>
      </trkpt>
      <trkpt lat="45.77126" lon="4.81177">
        <ele>171.25207519531</ele>
        <time>2010-09-26T16:03:43Z</time>
      </trkpt>
      <trkpt lat="45.77084" lon="4.81198">
        <ele>171.73266601562</ele>
        <time>2010-09-26T16:03:49Z</time>
      </trkpt>
      <trkpt lat="45.77072" lon="4.81208">
        <ele>171.25207519531</ele>
        <time>2010-09-26T16:03:51Z</time>
      </trkpt>
      <trkpt lat="45.77043" lon="4.81224">
        <ele>171.25207519531</ele>
        <time>2010-09-26T16:03:56Z</time>
      </trkpt>
      <trkpt lat="45.77024" lon="4.81227">
        <ele>171.25207519531</ele>
        <time>2010-09-26T16:04:00Z</time>
      </trkpt>
      <trkpt lat="45.7702" lon="4.81229">
        <ele>171.25207519531</ele>
        <time>2010-09-26T16:04:01Z</time>
      </trkpt>
      <trkpt lat="45.76993" lon="4.81247">
        <ele>172.21325683594</ele>
        <time>2010-09-26T16:04:09Z</time>
      </trkpt>
      <trkpt lat="45.76986" lon="4.81264">
        <ele>172.69396972656</ele>
        <time>2010-09-26T16:04:13Z</time>
      </trkpt>
      <trkpt lat="45.76963" lon="4.81271">
        <ele>173.17468261719</ele>
        <time>2010-09-26T16:04:18Z</time>
      </trkpt>
      <trkpt lat="45.76922" lon="4.81276">
        <ele>171.73266601562</ele>
        <time>2010-09-26T16:04:25Z</time>
      </trkpt>
      <trkpt lat="45.76909" lon="4.81278">
        <ele>171.73266601562</ele>
        <time>2010-09-26T16:04:27Z</time>
      </trkpt>
      <trkpt lat="45.76887" lon="4.81276">
        <ele>171.25207519531</ele>
        <time>2010-09-26T16:04:30Z</time>
      </trkpt>
      <trkpt lat="45.76848" lon="4.81284">
        <ele>170.29064941406</ele>
        <time>2010-09-26T16:04:36Z</time>
      </trkpt>
      <trkpt lat="45.76813" lon="4.81307">
        <ele>170.29064941406</ele>
        <time>2010-09-26T16:04:42Z</time>
      </trkpt>
      <trkpt lat="45.76778" lon="4.81346">
        <ele>170.77136230469</ele>
        <time>2010-09-26T16:04:49Z</time>
      </trkpt>
      <trkpt lat="45.76756" lon="4.8139">
        <ele>170.29064941406</ele>
        <time>2010-09-26T16:04:55Z</time>
      </trkpt>
      <trkpt lat="45.76734" lon="4.81448">
        <ele>170.29064941406</ele>
        <time>2010-09-26T16:05:02Z</time>
      </trkpt>
      <trkpt lat="45.76716" lon="4.81505">
        <ele>170.77136230469</ele>
        <time>2010-09-26T16:05:09Z</time>
      </trkpt>
      <trkpt lat="45.76692" lon="4.81569">
        <ele>171.25207519531</ele>
        <time>2010-09-26T16:05:17Z</time>
      </trkpt>
      <trkpt lat="45.76675" lon="4.81629">
        <ele>171.25207519531</ele>
        <time>2010-09-26T16:05:24Z</time>
      </trkpt>
      <trkpt lat="45.76655" lon="4.81734">
        <ele>170.77136230469</ele>
        <time>2010-09-26T16:05:36Z</time>
      </trkpt>
      <trkpt lat="45.76642" lon="4.8183">
        <ele>172.21325683594</ele>
        <time>2010-09-26T16:05:47Z</time>
      </trkpt>
      <trkpt lat="45.76644" lon="4.81908">
        <ele>172.21325683594</ele>
        <time>2010-09-26T16:05:56Z</time>
      </trkpt>
      <trkpt lat="45.76657" lon="4.81976">
        <ele>171.25207519531</ele>
        <time>2010-09-26T16:06:04Z</time>
      </trkpt>
      <trkpt lat="45.76662" lon="4.81992">
        <ele>170.77136230469</ele>
        <time>2010-09-26T16:06:06Z</time>
      </trkpt>
      <trkpt lat="45.76675" lon="4.82032">
        <ele>171.25207519531</ele>
        <time>2010-09-26T16:06:11Z</time>
      </trkpt>
      <trkpt lat="45.76688" lon="4.82094">
        <ele>171.25207519531</ele>
        <time>2010-09-26T16:06:18Z</time>
      </trkpt>
      <trkpt lat="45.76713" lon="4.82184">
        <ele>171.73266601562</ele>
        <time>2010-09-26T16:06:28Z</time>
      </trkpt>
      <trkpt lat="45.76735" lon="4.82262">
        <ele>170.77136230469</ele>
        <time>2010-09-26T16:06:37Z</time>
      </trkpt>
      <trkpt lat="45.76738" lon="4.82307">
        <ele>170.77136230469</ele>
        <time>2010-09-26T16:06:42Z</time>
      </trkpt>
      <trkpt lat="45.76742" lon="4.82342">
        <ele>170.77136230469</ele>
        <time>2010-09-26T16:06:46Z</time>
      </trkpt>
      <trkpt lat="45.76742" lon="4.82368">
        <ele>171.25207519531</ele>
        <time>2010-09-26T16:06:49Z</time>
      </trkpt>
      <trkpt lat="45.76742" lon="4.82429">
        <ele>170.29064941406</ele>
        <time>2010-09-26T16:06:56Z</time>
      </trkpt>
      <trkpt lat="45.76745" lon="4.82535">
        <ele>170.77136230469</ele>
        <time>2010-09-26T16:07:08Z</time>
      </trkpt>
      <trkpt lat="45.76748" lon="4.82625">
        <ele>170.29064941406</ele>
        <time>2010-09-26T16:07:18Z</time>
      </trkpt>
      <trkpt lat="45.7674" lon="4.82677">
        <ele>170.29064941406</ele>
        <time>2010-09-26T16:07:24Z</time>
      </trkpt>
      <trkpt lat="45.7672" lon="4.82745">
        <ele>170.29064941406</ele>
        <time>2010-09-26T16:07:32Z</time>
      </trkpt>
      <trkpt lat="45.76713" lon="4.82761">
        <ele>169.81005859375</ele>
        <time>2010-09-26T16:07:34Z</time>
      </trkpt>
      <trkpt lat="45.76679" lon="4.82813">
        <ele>170.29064941406</ele>
        <time>2010-09-26T16:07:42Z</time>
      </trkpt>
      <trkpt lat="45.76668" lon="4.82831">
        <ele>169.81005859375</ele>
        <time>2010-09-26T16:07:45Z</time>
      </trkpt>
      <trkpt lat="45.76643" lon="4.82864">
        <ele>171.25207519531</ele>
        <time>2010-09-26T16:07:52Z</time>
      </trkpt>
      <trkpt lat="45.76633" lon="4.8288">
        <ele>171.73266601562</ele>
        <time>2010-09-26T16:07:56Z</time>
      </trkpt>
      <trkpt lat="45.76638" lon="4.829">
        <ele>172.21325683594</ele>
        <time>2010-09-26T16:08:01Z</time>
      </trkpt>
      <trkpt lat="45.76651" lon="4.82936">
        <ele>174.13586425781</ele>
        <time>2010-09-26T16:08:08Z</time>
      </trkpt>
      <trkpt lat="45.76665" lon="4.82974">
        <ele>172.69396972656</ele>
        <time>2010-09-26T16:08:15Z</time>
      </trkpt>
      <trkpt lat="45.76675" lon="4.82994">
        <ele>171.73266601562</ele>
        <time>2010-09-26T16:08:20Z</time>
      </trkpt>
      <trkpt lat="45.76675" lon="4.82997">
        <ele>171.25207519531</ele>
        <time>2010-09-26T16:08:24Z</time>
      </trkpt>
      <trkpt lat="45.76667" lon="4.83017">
        <ele>170.77136230469</ele>
        <time>2010-09-26T16:08:30Z</time>
      </trkpt>
      <trkpt lat="45.76664" lon="4.83027">
        <ele>170.77136230469</ele>
        <time>2010-09-26T16:08:35Z</time>
      </trkpt>
      <trkpt lat="45.76663" lon="4.83036">
        <ele>170.77136230469</ele>
        <time>2010-09-26T16:08:37Z</time>
      </trkpt>
      <trkpt lat="45.76669" lon="4.83068">
        <ele>170.29064941406</ele>
        <time>2010-09-26T16:08:42Z</time>
      </trkpt>
      <trkpt lat="45.76686" lon="4.83121">
        <ele>170.29064941406</ele>
        <time>2010-09-26T16:08:49Z</time>
      </trkpt>
      <trkpt lat="45.76694" lon="4.83145">
        <ele>170.29064941406</ele>
        <time>2010-09-26T16:08:54Z</time>
      </trkpt>
      <trkpt lat="45.76697" lon="4.8316">
        <ele>170.77136230469</ele>
        <time>2010-09-26T16:08:59Z</time>
      </trkpt>
      <trkpt lat="45.76698" lon="4.8317">
        <ele>171.25207519531</ele>
        <time>2010-09-26T16:09:05Z</time>
      </trkpt>
      <trkpt lat="45.76698" lon="4.83173">
        <ele>171.73266601562</ele>
        <time>2010-09-26T16:09:09Z</time>
      </trkpt>
      <trkpt lat="45.76701" lon="4.83195">
        <ele>171.25207519531</ele>
        <time>2010-09-26T16:09:14Z</time>
      </trkpt>
      <trkpt lat="45.76706" lon="4.83219">
        <ele>171.73266601562</ele>
        <time>2010-09-26T16:09:19Z</time>
      </trkpt>
      <trkpt lat="45.76708" lon="4.83232">
        <ele>172.21325683594</ele>
        <time>2010-09-26T16:09:24Z</time>
      </trkpt>
      <trkpt lat="45.76708" lon="4.83238">
        <ele>171.73266601562</ele>
        <time>2010-09-26T16:09:28Z</time>
      </trkpt>
      <trkpt lat="45.76707" lon="4.83255">
        <ele>172.21325683594</ele>
        <time>2010-09-26T16:09:32Z</time>
      </trkpt>
      <trkpt lat="45.76707" lon="4.83258">
        <ele>172.21325683594</ele>
        <time>2010-09-26T16:09:33Z</time>
      </trkpt>
      <trkpt lat="45.76715" lon="4.83292">
        <ele>173.17468261719</ele>
        <time>2010-09-26T16:09:38Z</time>
      </trkpt>
      <trkpt lat="45.76717" lon="4.833">
        <ele>173.17468261719</ele>
        <time>2010-09-26T16:09:39Z</time>
      </trkpt>
      <trkpt lat="45.76722" lon="4.83331">
        <ele>172.21325683594</ele>
        <time>2010-09-26T16:09:43Z</time>
      </trkpt>
      <trkpt lat="45.76725" lon="4.83364">
        <ele>171.73266601562</ele>
        <time>2010-09-26T16:09:48Z</time>
      </trkpt>
      <trkpt lat="45.76723" lon="4.83395">
        <ele>171.73266601562</ele>
        <time>2010-09-26T16:09:52Z</time>
      </trkpt>
      <trkpt lat="45.76727" lon="4.83413">
        <ele>172.21325683594</ele>
        <time>2010-09-26T16:09:54Z</time>
      </trkpt>
      <trkpt lat="45.76748" lon="4.83459">
        <ele>171.73266601562</ele>
        <time>2010-09-26T16:09:59Z</time>
      </trkpt>
      <trkpt lat="45.76748" lon="4.83529">
        <ele>171.25207519531</ele>
        <time>2010-09-26T16:10:07Z</time>
      </trkpt>
      <trkpt lat="45.76749" lon="4.83538">
        <ele>171.25207519531</ele>
        <time>2010-09-26T16:10:08Z</time>
      </trkpt>
      <trkpt lat="45.76752" lon="4.83572">
        <ele>170.77136230469</ele>
        <time>2010-09-26T16:10:12Z</time>
      </trkpt>
      <trkpt lat="45.76753" lon="4.83597">
        <ele>171.73266601562</ele>
        <time>2010-09-26T16:10:15Z</time>
      </trkpt>
      <trkpt lat="45.76726" lon="4.8361">
        <ele>171.25207519531</ele>
        <time>2010-09-26T16:10:19Z</time>
      </trkpt>
      <trkpt lat="45.76688" lon="4.83613">
        <ele>170.77136230469</ele>
        <time>2010-09-26T16:10:26Z</time>
      </trkpt>
      <trkpt lat="45.76677" lon="4.83612">
        <ele>170.77136230469</ele>
        <time>2010-09-26T16:10:28Z</time>
      </trkpt>
      <trkpt lat="45.76665" lon="4.83607">
        <ele>170.29064941406</ele>
        <time>2010-09-26T16:10:30Z</time>
      </trkpt>
      <trkpt lat="45.76634" lon="4.83601">
        <ele>170.77136230469</ele>
        <time>2010-09-26T16:10:35Z</time>
      </trkpt>
      <trkpt lat="45.76611" lon="4.83596">
        <ele>169.81005859375</ele>
        <time>2010-09-26T16:10:39Z</time>
      </trkpt>
      <trkpt lat="45.76601" lon="4.83603">
        <ele>170.29064941406</ele>
        <time>2010-09-26T16:10:43Z</time>
      </trkpt>
      <trkpt lat="45.76601" lon="4.83612">
        <ele>169.81005859375</ele>
        <time>2010-09-26T16:10:45Z</time>
      </trkpt>
      <trkpt lat="45.76603" lon="4.8363">
        <ele>170.29064941406</ele>
        <time>2010-09-26T16:10:49Z</time>
      </trkpt>
      <trkpt lat="45.76608" lon="4.83667">
        <ele>170.29064941406</ele>
        <time>2010-09-26T16:10:55Z</time>
      </trkpt>
      <trkpt lat="45.76608" lon="4.83672">
        <ele>170.29064941406</ele>
        <time>2010-09-26T16:10:56Z</time>
      </trkpt>
      <trkpt lat="45.76591" lon="4.83682">
        <ele>169.81005859375</ele>
        <time>2010-09-26T16:11:01Z</time>
      </trkpt>
      <trkpt lat="45.76587" lon="4.83682">
        <ele>169.81005859375</ele>
        <time>2010-09-26T16:11:02Z</time>
      </trkpt>
      <trkpt lat="45.76547" lon="4.83683">
        <ele>170.77136230469</ele>
        <time>2010-09-26T16:11:09Z</time>
      </trkpt>
      <trkpt lat="45.76525" lon="4.83688">
        <ele>170.77136230469</ele>
        <time>2010-09-26T16:11:15Z</time>
      </trkpt>
      <trkpt lat="45.76534" lon="4.83723">
        <ele>171.25207519531</ele>
        <time>2010-09-26T16:11:20Z</time>
      </trkpt>
      <trkpt lat="45.76533" lon="4.83739">
        <ele>171.25207519531</ele>
        <time>2010-09-26T16:11:23Z</time>
      </trkpt>
      <trkpt lat="45.76538" lon="4.83772">
        <ele>171.25207519531</ele>
        <time>2010-09-26T16:11:28Z</time>
      </trkpt>
      <trkpt lat="45.76543" lon="4.838">
        <ele>171.73266601562</ele>
        <time>2010-09-26T16:11:32Z</time>
      </trkpt>
      <trkpt lat="45.76545" lon="4.83812">
        <ele>172.21325683594</ele>
        <time>2010-09-26T16:11:36Z</time>
      </trkpt>
      <trkpt lat="45.76544" lon="4.83817">
        <ele>171.25207519531</ele>
        <time>2010-09-26T16:11:50Z</time>
      </trkpt>
      <trkpt lat="45.76546" lon="4.83817">
        <ele>171.73266601562</ele>
        <time>2010-09-26T16:11:56Z</time>
      </trkpt>
      <trkpt lat="45.76551" lon="4.83816">
        <ele>171.25207519531</ele>
        <time>2010-09-26T16:12:02Z</time>
      </trkpt>
      <trkpt lat="45.76546" lon="4.8382">
        <ele>172.21325683594</ele>
        <time>2010-09-26T16:12:07Z</time>
      </trkpt>
      <trkpt lat="45.7654" lon="4.8382">
        <ele>171.73266601562</ele>
        <time>2010-09-26T16:12:14Z</time>
      </trkpt>
      <trkpt lat="45.76542" lon="4.83823">
        <ele>173.17468261719</ele>
        <time>2010-09-26T16:12:19Z</time>
      </trkpt>
      <trkpt lat="45.76543" lon="4.83824">
        <ele>172.21325683594</ele>
        <time>2010-09-26T16:12:22Z</time>
      </trkpt>
      <trkpt lat="45.76545" lon="4.83825">
        <ele>171.73266601562</ele>
        <time>2010-09-26T16:12:24Z</time>
      </trkpt>
      <trkpt lat="45.76543" lon="4.83824">
        <ele>172.21325683594</ele>
        <time>2010-09-26T16:12:28Z</time>
      </trkpt>
      <trkpt lat="45.76542" lon="4.83833">
        <ele>172.69396972656</ele>
        <time>2010-09-26T16:12:31Z</time>
      </trkpt>
      <trkpt lat="45.76545" lon="4.83846">
        <ele>172.69396972656</ele>
        <time>2010-09-26T16:12:35Z</time>
      </trkpt>
      <trkpt lat="45.76545" lon="4.83851">
        <ele>172.69396972656</ele>
        <time>2010-09-26T16:12:39Z</time>
      </trkpt>
      <trkpt lat="45.76545" lon="4.83857">
        <ele>173.6552734375</ele>
        <time>2010-09-26T16:12:44Z</time>
      </trkpt>
      <trkpt lat="45.76546" lon="4.83874">
        <ele>174.61657714844</ele>
        <time>2010-09-26T16:12:48Z</time>
      </trkpt>
      <trkpt lat="45.76551" lon="4.83925">
        <ele>175.09729003906</ele>
        <time>2010-09-26T16:12:57Z</time>
      </trkpt>
      <trkpt lat="45.76559" lon="4.8399">
        <ele>175.09729003906</ele>
        <time>2010-09-26T16:13:07Z</time>
      </trkpt>
      <trkpt lat="45.76559" lon="4.84004">
        <ele>175.09729003906</ele>
        <time>2010-09-26T16:13:09Z</time>
      </trkpt>
      <trkpt lat="45.76565" lon="4.84064">
        <ele>174.61657714844</ele>
        <time>2010-09-26T16:13:18Z</time>
      </trkpt>
      <trkpt lat="45.76569" lon="4.84115">
        <ele>173.6552734375</ele>
        <time>2010-09-26T16:13:26Z</time>
      </trkpt>
      <trkpt lat="45.76571" lon="4.84122">
        <ele>173.17468261719</ele>
        <time>2010-09-26T16:13:27Z</time>
      </trkpt>
      <trkpt lat="45.76563" lon="4.84141">
        <ele>172.21325683594</ele>
        <time>2010-09-26T16:13:31Z</time>
      </trkpt>
      <trkpt lat="45.76542" lon="4.84139">
        <ele>172.69396972656</ele>
        <time>2010-09-26T16:13:35Z</time>
      </trkpt>
      <trkpt lat="45.76537" lon="4.84139">
        <ele>173.17468261719</ele>
        <time>2010-09-26T16:13:36Z</time>
      </trkpt>
      <trkpt lat="45.76493" lon="4.84139">
        <ele>172.69396972656</ele>
        <time>2010-09-26T16:13:43Z</time>
      </trkpt>
      <trkpt lat="45.76453" lon="4.84135">
        <ele>172.69396972656</ele>
        <time>2010-09-26T16:13:49Z</time>
      </trkpt>
      <trkpt lat="45.76411" lon="4.84133">
        <ele>173.17468261719</ele>
        <time>2010-09-26T16:13:56Z</time>
      </trkpt>
      <trkpt lat="45.7639" lon="4.84132">
        <ele>173.6552734375</ele>
        <time>2010-09-26T16:14:00Z</time>
      </trkpt>
      <trkpt lat="45.76368" lon="4.84134">
        <ele>173.17468261719</ele>
        <time>2010-09-26T16:14:05Z</time>
      </trkpt>
      <trkpt lat="45.76362" lon="4.84133">
        <ele>173.17468261719</ele>
        <time>2010-09-26T16:14:10Z</time>
      </trkpt>
      <trkpt lat="45.76357" lon="4.84136">
        <ele>173.17468261719</ele>
        <time>2010-09-26T16:14:15Z</time>
      </trkpt>
      <trkpt lat="45.76342" lon="4.8414">
        <ele>172.69396972656</ele>
        <time>2010-09-26T16:14:19Z</time>
      </trkpt>
      <trkpt lat="45.76303" lon="4.84137">
        <ele>172.69396972656</ele>
        <time>2010-09-26T16:14:25Z</time>
      </trkpt>
      <trkpt lat="45.7626" lon="4.84133">
        <ele>171.73266601562</ele>
        <time>2010-09-26T16:14:32Z</time>
      </trkpt>
      <trkpt lat="45.76249" lon="4.84132">
        <ele>171.73266601562</ele>
        <time>2010-09-26T16:14:34Z</time>
      </trkpt>
      <trkpt lat="45.76234" lon="4.84123">
        <ele>172.21325683594</ele>
        <time>2010-09-26T16:14:38Z</time>
      </trkpt>
      <trkpt lat="45.76231" lon="4.84121">
        <ele>172.21325683594</ele>
        <time>2010-09-26T16:14:39Z</time>
      </trkpt>
      <trkpt lat="45.76221" lon="4.84118">
        <ele>172.21325683594</ele>
        <time>2010-09-26T16:14:41Z</time>
      </trkpt>
      <trkpt lat="45.76198" lon="4.84114">
        <ele>171.73266601562</ele>
        <time>2010-09-26T16:14:45Z</time>
      </trkpt>
      <trkpt lat="45.76188" lon="4.84113">
        <ele>171.73266601562</ele>
        <time>2010-09-26T16:14:47Z</time>
      </trkpt>
      <trkpt lat="45.76171" lon="4.84103">
        <ele>171.73266601562</ele>
        <time>2010-09-26T16:14:51Z</time>
      </trkpt>
      <trkpt lat="45.76166" lon="4.84101">
        <ele>171.25207519531</ele>
        <time>2010-09-26T16:14:52Z</time>
      </trkpt>
      <trkpt lat="45.76122" lon="4.8409">
        <ele>168.84875488281</ele>
        <time>2010-09-26T16:14:58Z</time>
      </trkpt>
      <trkpt lat="45.76115" lon="4.84087">
        <ele>168.36804199219</ele>
        <time>2010-09-26T16:14:59Z</time>
      </trkpt>
      <trkpt lat="45.761" lon="4.84079">
        <ele>168.84875488281</ele>
        <time>2010-09-26T16:15:01Z</time>
      </trkpt>
      <trkpt lat="45.76054" lon="4.84072">
        <ele>168.84875488281</ele>
        <time>2010-09-26T16:15:07Z</time>
      </trkpt>
      <trkpt lat="45.75989" lon="4.84065">
        <ele>167.88732910156</ele>
        <time>2010-09-26T16:15:15Z</time>
      </trkpt>
      <trkpt lat="45.75962" lon="4.84062">
        <ele>168.36804199219</ele>
        <time>2010-09-26T16:15:19Z</time>
      </trkpt>
      <trkpt lat="45.75909" lon="4.84062">
        <ele>168.36804199219</ele>
        <time>2010-09-26T16:15:27Z</time>
      </trkpt>
      <trkpt lat="45.75878" lon="4.84061">
        <ele>169.81005859375</ele>
        <time>2010-09-26T16:15:32Z</time>
      </trkpt>
      <trkpt lat="45.75851" lon="4.84061">
        <ele>171.25207519531</ele>
        <time>2010-09-26T16:15:38Z</time>
      </trkpt>
      <trkpt lat="45.75842" lon="4.84061">
        <ele>171.25207519531</ele>
        <time>2010-09-26T16:15:41Z</time>
      </trkpt>
      <trkpt lat="45.75841" lon="4.84056">
        <ele>171.73266601562</ele>
        <time>2010-09-26T16:15:45Z</time>
      </trkpt>
      <trkpt lat="45.75844" lon="4.8406">
        <ele>171.73266601562</ele>
        <time>2010-09-26T16:15:47Z</time>
      </trkpt>
      <trkpt lat="45.75846" lon="4.84067">
        <ele>171.25207519531</ele>
        <time>2010-09-26T16:15:49Z</time>
      </trkpt>
      <trkpt lat="45.75866" lon="4.84076">
        <ele>171.73266601562</ele>
        <time>2010-09-26T16:15:54Z</time>
      </trkpt>
      <trkpt lat="45.75881" lon="4.84079">
        <ele>172.21325683594</ele>
        <time>2010-09-26T16:15:57Z</time>
      </trkpt>
      <trkpt lat="45.7589" lon="4.8408">
        <ele>171.73266601562</ele>
        <time>2010-09-26T16:15:59Z</time>
      </trkpt>
      <trkpt lat="45.75912" lon="4.84082">
        <ele>172.21325683594</ele>
        <time>2010-09-26T16:16:05Z</time>
      </trkpt>
      <trkpt lat="45.75917" lon="4.84086">
        <ele>172.21325683594</ele>
        <time>2010-09-26T16:16:10Z</time>
      </trkpt>
      <trkpt lat="45.75921" lon="4.84081">
        <ele>172.21325683594</ele>
        <time>2010-09-26T16:16:15Z</time>
      </trkpt>
      <trkpt lat="45.75918" lon="4.84085">
        <ele>172.21325683594</ele>
        <time>2010-09-26T16:16:18Z</time>
      </trkpt>
      <trkpt lat="45.75919" lon="4.84087">
        <ele>171.73266601562</ele>
        <time>2010-09-26T16:16:24Z</time>
      </trkpt>
      <trkpt lat="45.75919" lon="4.84088">
        <ele>172.21325683594</ele>
        <time>2010-09-26T16:16:33Z</time>
      </trkpt>
      <trkpt lat="45.75919" lon="4.84095">
        <ele>172.21325683594</ele>
        <time>2010-09-26T16:16:39Z</time>
      </trkpt>
      <trkpt lat="45.75916" lon="4.84114">
        <ele>170.77136230469</ele>
        <time>2010-09-26T16:16:43Z</time>
      </trkpt>
      <trkpt lat="45.75919" lon="4.8415">
        <ele>171.25207519531</ele>
        <time>2010-09-26T16:16:49Z</time>
      </trkpt>
      <trkpt lat="45.75923" lon="4.84195">
        <ele>171.25207519531</ele>
        <time>2010-09-26T16:16:55Z</time>
      </trkpt>
      <trkpt lat="45.75927" lon="4.84248">
        <ele>171.25207519531</ele>
        <time>2010-09-26T16:17:01Z</time>
      </trkpt>
      <trkpt lat="45.75931" lon="4.84291">
        <ele>169.32946777344</ele>
        <time>2010-09-26T16:17:06Z</time>
      </trkpt>
      <trkpt lat="45.75936" lon="4.84347">
        <ele>169.81005859375</ele>
        <time>2010-09-26T16:17:12Z</time>
      </trkpt>
      <trkpt lat="45.75941" lon="4.84416">
        <ele>169.32946777344</ele>
        <time>2010-09-26T16:17:20Z</time>
      </trkpt>
      <trkpt lat="45.75944" lon="4.84461">
        <ele>170.29064941406</ele>
        <time>2010-09-26T16:17:25Z</time>
      </trkpt>
      <trkpt lat="45.75944" lon="4.84508">
        <ele>169.81005859375</ele>
        <time>2010-09-26T16:17:30Z</time>
      </trkpt>
      <trkpt lat="45.75946" lon="4.8454">
        <ele>169.32946777344</ele>
        <time>2010-09-26T16:17:34Z</time>
      </trkpt>
      <trkpt lat="45.75949" lon="4.8457">
        <ele>169.32946777344</ele>
        <time>2010-09-26T16:17:39Z</time>
      </trkpt>
      <trkpt lat="45.75949" lon="4.84575">
        <ele>169.32946777344</ele>
        <time>2010-09-26T16:17:40Z</time>
      </trkpt>
      <trkpt lat="45.75948" lon="4.84577">
        <ele>169.81005859375</ele>
        <time>2010-09-26T16:17:42Z</time>
      </trkpt>
      <trkpt lat="45.75941" lon="4.84578">
        <ele>169.32946777344</ele>
        <time>2010-09-26T16:17:46Z</time>
      </trkpt>
      <trkpt lat="45.75945" lon="4.84577">
        <ele>169.32946777344</ele>
        <time>2010-09-26T16:17:49Z</time>
      </trkpt>
      <trkpt lat="45.75948" lon="4.84585">
        <ele>169.32946777344</ele>
        <time>2010-09-26T16:17:53Z</time>
      </trkpt>
      <trkpt lat="45.75945" lon="4.84589">
        <ele>169.32946777344</ele>
        <time>2010-09-26T16:17:56Z</time>
      </trkpt>
      <trkpt lat="45.75948" lon="4.84608">
        <ele>168.84875488281</ele>
        <time>2010-09-26T16:18:01Z</time>
      </trkpt>
      <trkpt lat="45.75952" lon="4.84646">
        <ele>169.32946777344</ele>
        <time>2010-09-26T16:18:06Z</time>
      </trkpt>
      <trkpt lat="45.75956" lon="4.847">
        <ele>170.29064941406</ele>
        <time>2010-09-26T16:18:13Z</time>
      </trkpt>
      <trkpt lat="45.75961" lon="4.84747">
        <ele>169.32946777344</ele>
        <time>2010-09-26T16:18:19Z</time>
      </trkpt>
      <trkpt lat="45.75964" lon="4.84805">
        <ele>169.32946777344</ele>
        <time>2010-09-26T16:18:26Z</time>
      </trkpt>
      <trkpt lat="45.7597" lon="4.84881">
        <ele>169.32946777344</ele>
        <time>2010-09-26T16:18:35Z</time>
      </trkpt>
      <trkpt lat="45.7597" lon="4.8489">
        <ele>169.32946777344</ele>
        <time>2010-09-26T16:18:36Z</time>
      </trkpt>
      <trkpt lat="45.75978" lon="4.84965">
        <ele>169.32946777344</ele>
        <time>2010-09-26T16:18:45Z</time>
      </trkpt>
      <trkpt lat="45.75983" lon="4.85042">
        <ele>169.81005859375</ele>
        <time>2010-09-26T16:18:54Z</time>
      </trkpt>
      <trkpt lat="45.75986" lon="4.85104">
        <ele>170.29064941406</ele>
        <time>2010-09-26T16:19:01Z</time>
      </trkpt>
      <trkpt lat="45.75987" lon="4.85123">
        <ele>169.32946777344</ele>
        <time>2010-09-26T16:19:03Z</time>
      </trkpt>
      <trkpt lat="45.75996" lon="4.85186">
        <ele>168.84875488281</ele>
        <time>2010-09-26T16:19:10Z</time>
      </trkpt>
      <trkpt lat="45.76" lon="4.85192">
        <ele>169.32946777344</ele>
        <time>2010-09-26T16:19:11Z</time>
      </trkpt>
      <trkpt lat="45.75984" lon="4.85211">
        <ele>169.32946777344</ele>
        <time>2010-09-26T16:19:15Z</time>
      </trkpt>
      <trkpt lat="45.75968" lon="4.8522">
        <ele>169.32946777344</ele>
        <time>2010-09-26T16:19:17Z</time>
      </trkpt>
      <trkpt lat="45.75954" lon="4.85222">
        <ele>169.32946777344</ele>
        <time>2010-09-26T16:19:19Z</time>
      </trkpt>
      <trkpt lat="45.75931" lon="4.85229">
        <ele>168.84875488281</ele>
        <time>2010-09-26T16:19:24Z</time>
      </trkpt>
      <trkpt lat="45.75925" lon="4.85227">
        <ele>169.81005859375</ele>
        <time>2010-09-26T16:19:26Z</time>
      </trkpt>
      <trkpt lat="45.75922" lon="4.85229">
        <ele>169.32946777344</ele>
        <time>2010-09-26T16:19:30Z</time>
      </trkpt>
      <trkpt lat="45.75925" lon="4.85234">
        <ele>169.32946777344</ele>
        <time>2010-09-26T16:19:36Z</time>
      </trkpt>
      <trkpt lat="45.75927" lon="4.85252">
        <ele>169.81005859375</ele>
        <time>2010-09-26T16:19:41Z</time>
      </trkpt>
      <trkpt lat="45.75927" lon="4.8527">
        <ele>170.29064941406</ele>
        <time>2010-09-26T16:19:44Z</time>
      </trkpt>
      <trkpt lat="45.75932" lon="4.85331">
        <ele>170.29064941406</ele>
        <time>2010-09-26T16:19:52Z</time>
      </trkpt>
      <trkpt lat="45.7594" lon="4.85412">
        <ele>169.81005859375</ele>
        <time>2010-09-26T16:20:02Z</time>
      </trkpt>
      <trkpt lat="45.75947" lon="4.85486">
        <ele>170.29064941406</ele>
        <time>2010-09-26T16:20:11Z</time>
      </trkpt>
      <trkpt lat="45.75954" lon="4.85568">
        <ele>169.81005859375</ele>
        <time>2010-09-26T16:20:21Z</time>
      </trkpt>
      <trkpt lat="45.75955" lon="4.85584">
        <ele>170.29064941406</ele>
        <time>2010-09-26T16:20:23Z</time>
      </trkpt>
      <trkpt lat="45.75965" lon="4.8562">
        <ele>170.29064941406</ele>
        <time>2010-09-26T16:20:28Z</time>
      </trkpt>
      <trkpt lat="45.75978" lon="4.85644">
        <ele>170.77136230469</ele>
        <time>2010-09-26T16:20:32Z</time>
      </trkpt>
      <trkpt lat="45.75982" lon="4.85657">
        <ele>170.29064941406</ele>
        <time>2010-09-26T16:20:34Z</time>
      </trkpt>
      <trkpt lat="45.75987" lon="4.85678">
        <ele>170.77136230469</ele>
        <time>2010-09-26T16:20:37Z</time>
      </trkpt>
      <trkpt lat="45.7599" lon="4.85722">
        <ele>170.29064941406</ele>
        <time>2010-09-26T16:20:44Z</time>
      </trkpt>
      <trkpt lat="45.75991" lon="4.85734">
        <ele>169.81005859375</ele>
        <time>2010-09-26T16:20:46Z</time>
      </trkpt>
      <trkpt lat="45.75994" lon="4.85777">
        <ele>170.77136230469</ele>
        <time>2010-09-26T16:20:52Z</time>
      </trkpt>
      <trkpt lat="45.75996" lon="4.85794">
        <ele>170.77136230469</ele>
        <time>2010-09-26T16:20:55Z</time>
      </trkpt>
      <trkpt lat="45.75991" lon="4.85803">
        <ele>170.29064941406</ele>
        <time>2010-09-26T16:20:59Z</time>
      </trkpt>
      <trkpt lat="45.75985" lon="4.85804">
        <ele>170.29064941406</ele>
        <time>2010-09-26T16:21:06Z</time>
      </trkpt>
      <trkpt lat="45.75983" lon="4.85805">
        <ele>170.29064941406</ele>
        <time>2010-09-26T16:21:12Z</time>
      </trkpt>
      <trkpt lat="45.75979" lon="4.85807">
        <ele>170.29064941406</ele>
        <time>2010-09-26T16:21:16Z</time>
      </trkpt>
      <trkpt lat="45.75976" lon="4.85807">
        <ele>170.77136230469</ele>
        <time>2010-09-26T16:21:20Z</time>
      </trkpt>
      <trkpt lat="45.75974" lon="4.85805">
        <ele>170.29064941406</ele>
        <time>2010-09-26T16:21:22Z</time>
      </trkpt>
      <trkpt lat="45.75969" lon="4.85808">
        <ele>170.77136230469</ele>
        <time>2010-09-26T16:21:28Z</time>
      </trkpt>
      <trkpt lat="45.7597" lon="4.85813">
        <ele>170.77136230469</ele>
        <time>2010-09-26T16:21:30Z</time>
      </trkpt>
      <trkpt lat="45.75976" lon="4.85835">
        <ele>171.25207519531</ele>
        <time>2010-09-26T16:21:36Z</time>
      </trkpt>
      <trkpt lat="45.75977" lon="4.85842">
        <ele>170.77136230469</ele>
        <time>2010-09-26T16:21:38Z</time>
      </trkpt>
      <trkpt lat="45.75962" lon="4.85849">
        <ele>170.29064941406</ele>
        <time>2010-09-26T16:21:43Z</time>
      </trkpt>
      <trkpt lat="45.75936" lon="4.85851">
        <ele>170.29064941406</ele>
        <time>2010-09-26T16:21:49Z</time>
      </trkpt>
      <trkpt lat="45.75907" lon="4.85854">
        <ele>170.77136230469</ele>
        <time>2010-09-26T16:21:55Z</time>
      </trkpt>
      <trkpt lat="45.75895" lon="4.85862">
        <ele>170.29064941406</ele>
        <time>2010-09-26T16:21:59Z</time>
      </trkpt>
      <trkpt lat="45.75891" lon="4.85866">
        <ele>170.29064941406</ele>
        <time>2010-09-26T16:22:03Z</time>
      </trkpt>
      <trkpt lat="45.75891" lon="4.85864">
        <ele>170.29064941406</ele>
        <time>2010-09-26T16:22:18Z</time>
      </trkpt>
      <trkpt lat="45.75892" lon="4.85865">
        <ele>170.29064941406</ele>
        <time>2010-09-26T16:22:39Z</time>
      </trkpt>
      <trkpt lat="45.75882" lon="4.85865">
        <ele>170.77136230469</ele>
        <time>2010-09-26T16:22:44Z</time>
      </trkpt>
      <trkpt lat="45.75878" lon="4.85866">
        <ele>170.77136230469</ele>
        <time>2010-09-26T16:22:45Z</time>
      </trkpt>
      <trkpt lat="45.75872" lon="4.85884">
        <ele>169.32946777344</ele>
        <time>2010-09-26T16:22:49Z</time>
      </trkpt>
      <trkpt lat="45.75878" lon="4.85918">
        <ele>169.81005859375</ele>
        <time>2010-09-26T16:22:54Z</time>
      </trkpt>
      <trkpt lat="45.75881" lon="4.85926">
        <ele>169.32946777344</ele>
        <time>2010-09-26T16:22:57Z</time>
      </trkpt>
      <trkpt lat="45.75894" lon="4.8593">
        <ele>169.32946777344</ele>
        <time>2010-09-26T16:23:02Z</time>
      </trkpt>
      <trkpt lat="45.75901" lon="4.85947">
        <ele>169.32946777344</ele>
        <time>2010-09-26T16:23:10Z</time>
      </trkpt>
      <trkpt lat="45.7589" lon="4.86013">
        <ele>169.32946777344</ele>
        <time>2010-09-26T16:23:13Z</time>
      </trkpt>
      <trkpt lat="45.75894" lon="4.86084">
        <ele>169.81005859375</ele>
        <time>2010-09-26T16:23:15Z</time>
      </trkpt>
      <trkpt lat="45.75896" lon="4.86133">
        <ele>170.29064941406</ele>
        <time>2010-09-26T16:23:18Z</time>
      </trkpt>
      <trkpt lat="45.75896" lon="4.86149">
        <ele>170.29064941406</ele>
        <time>2010-09-26T16:23:20Z</time>
      </trkpt>
      <trkpt lat="45.75884" lon="4.86162">
        <ele>171.25207519531</ele>
        <time>2010-09-26T16:23:24Z</time>
      </trkpt>
      <trkpt lat="45.75841" lon="4.86156">
        <ele>170.77136230469</ele>
        <time>2010-09-26T16:23:31Z</time>
      </trkpt>
      <trkpt lat="45.75766" lon="4.8615">
        <ele>170.77136230469</ele>
        <time>2010-09-26T16:23:42Z</time>
      </trkpt>
      <trkpt lat="45.75741" lon="4.86148">
        <ele>171.25207519531</ele>
        <time>2010-09-26T16:23:46Z</time>
      </trkpt>
      <trkpt lat="45.75712" lon="4.86142">
        <ele>170.77136230469</ele>
        <time>2010-09-26T16:23:51Z</time>
      </trkpt>
      <trkpt lat="45.75706" lon="4.86146">
        <ele>170.77136230469</ele>
        <time>2010-09-26T16:23:52Z</time>
      </trkpt>
      <trkpt lat="45.75688" lon="4.86136">
        <ele>170.29064941406</ele>
        <time>2010-09-26T16:23:56Z</time>
      </trkpt>
      <trkpt lat="45.75666" lon="4.8612">
        <ele>170.77136230469</ele>
        <time>2010-09-26T16:24:00Z</time>
      </trkpt>
      <trkpt lat="45.7566" lon="4.86119">
        <ele>170.29064941406</ele>
        <time>2010-09-26T16:24:01Z</time>
      </trkpt>
      <trkpt lat="45.75605" lon="4.86128">
        <ele>170.77136230469</ele>
        <time>2010-09-26T16:24:10Z</time>
      </trkpt>
      <trkpt lat="45.75557" lon="4.86144">
        <ele>170.77136230469</ele>
        <time>2010-09-26T16:24:17Z</time>
      </trkpt>
      <trkpt lat="45.75523" lon="4.86171">
        <ele>170.77136230469</ele>
        <time>2010-09-26T16:24:23Z</time>
      </trkpt>
      <trkpt lat="45.755" lon="4.86202">
        <ele>170.77136230469</ele>
        <time>2010-09-26T16:24:28Z</time>
      </trkpt>
      <trkpt lat="45.75465" lon="4.8627">
        <ele>171.25207519531</ele>
        <time>2010-09-26T16:24:37Z</time>
      </trkpt>
      <trkpt lat="45.75434" lon="4.86325">
        <ele>170.77136230469</ele>
        <time>2010-09-26T16:24:45Z</time>
      </trkpt>
      <trkpt lat="45.75422" lon="4.8635">
        <ele>170.77136230469</ele>
        <time>2010-09-26T16:24:50Z</time>
      </trkpt>
      <trkpt lat="45.75421" lon="4.86351">
        <ele>170.77136230469</ele>
        <time>2010-09-26T16:24:54Z</time>
      </trkpt>
      <trkpt lat="45.7542" lon="4.86351">
        <ele>169.81005859375</ele>
        <time>2010-09-26T16:25:23Z</time>
      </trkpt>
      <trkpt lat="45.75417" lon="4.86355">
        <ele>169.81005859375</ele>
        <time>2010-09-26T16:25:42Z</time>
      </trkpt>
      <trkpt lat="45.75409" lon="4.86371">
        <ele>169.81005859375</ele>
        <time>2010-09-26T16:25:47Z</time>
      </trkpt>
      <trkpt lat="45.75391" lon="4.86406">
        <ele>170.29064941406</ele>
        <time>2010-09-26T16:25:54Z</time>
      </trkpt>
      <trkpt lat="45.75372" lon="4.86451">
        <ele>169.81005859375</ele>
        <time>2010-09-26T16:26:01Z</time>
      </trkpt>
      <trkpt lat="45.75359" lon="4.86485">
        <ele>169.81005859375</ele>
        <time>2010-09-26T16:26:06Z</time>
      </trkpt>
      <trkpt lat="45.75347" lon="4.86529">
        <ele>170.29064941406</ele>
        <time>2010-09-26T16:26:12Z</time>
      </trkpt>
      <trkpt lat="45.75334" lon="4.86587">
        <ele>170.77136230469</ele>
        <time>2010-09-26T16:26:20Z</time>
      </trkpt>
      <trkpt lat="45.75331" lon="4.86601">
        <ele>170.29064941406</ele>
        <time>2010-09-26T16:26:22Z</time>
      </trkpt>
      <trkpt lat="45.75325" lon="4.86636">
        <ele>170.29064941406</ele>
        <time>2010-09-26T16:26:27Z</time>
      </trkpt>
      <trkpt lat="45.75325" lon="4.86665">
        <ele>170.29064941406</ele>
        <time>2010-09-26T16:26:32Z</time>
      </trkpt>
      <trkpt lat="45.75325" lon="4.86671">
        <ele>170.29064941406</ele>
        <time>2010-09-26T16:26:33Z</time>
      </trkpt>
      <trkpt lat="45.75316" lon="4.86734">
        <ele>170.29064941406</ele>
        <time>2010-09-26T16:26:41Z</time>
      </trkpt>
      <trkpt lat="45.75311" lon="4.86782">
        <ele>170.77136230469</ele>
        <time>2010-09-26T16:26:47Z</time>
      </trkpt>
      <trkpt lat="45.75304" lon="4.86837">
        <ele>170.77136230469</ele>
        <time>2010-09-26T16:26:54Z</time>
      </trkpt>
      <trkpt lat="45.75295" lon="4.86847">
        <ele>170.77136230469</ele>
        <time>2010-09-26T16:26:57Z</time>
      </trkpt>
      <trkpt lat="45.75285" lon="4.86854">
        <ele>170.29064941406</ele>
        <time>2010-09-26T16:27:00Z</time>
      </trkpt>
      <trkpt lat="45.75279" lon="4.86872">
        <ele>171.25207519531</ele>
        <time>2010-09-26T16:27:04Z</time>
      </trkpt>
      <trkpt lat="45.75267" lon="4.86877">
        <ele>170.29064941406</ele>
        <time>2010-09-26T16:27:07Z</time>
      </trkpt>
      <trkpt lat="45.75232" lon="4.86874">
        <ele>171.25207519531</ele>
        <time>2010-09-26T16:27:13Z</time>
      </trkpt>
      <trkpt lat="45.75182" lon="4.8687">
        <ele>171.73266601562</ele>
        <time>2010-09-26T16:27:20Z</time>
      </trkpt>
      <trkpt lat="45.75127" lon="4.86862">
        <ele>171.73266601562</ele>
        <time>2010-09-26T16:27:29Z</time>
      </trkpt>
      <trkpt lat="45.75082" lon="4.8686">
        <ele>171.73266601562</ele>
        <time>2010-09-26T16:27:36Z</time>
      </trkpt>
      <trkpt lat="45.75028" lon="4.86853">
        <ele>172.69396972656</ele>
        <time>2010-09-26T16:27:45Z</time>
      </trkpt>
      <trkpt lat="45.74998" lon="4.86851">
        <ele>172.21325683594</ele>
        <time>2010-09-26T16:27:51Z</time>
      </trkpt>
      <trkpt lat="45.74987" lon="4.86849">
        <ele>172.69396972656</ele>
        <time>2010-09-26T16:27:54Z</time>
      </trkpt>
      <trkpt lat="45.74969" lon="4.86848">
        <ele>172.21325683594</ele>
        <time>2010-09-26T16:27:58Z</time>
      </trkpt>
      <trkpt lat="45.74942" lon="4.86844">
        <ele>172.21325683594</ele>
        <time>2010-09-26T16:28:02Z</time>
      </trkpt>
      <trkpt lat="45.74897" lon="4.86824">
        <ele>173.17468261719</ele>
        <time>2010-09-26T16:28:09Z</time>
      </trkpt>
      <trkpt lat="45.74892" lon="4.86822">
        <ele>172.21325683594</ele>
        <time>2010-09-26T16:28:10Z</time>
      </trkpt>
      <trkpt lat="45.74871" lon="4.86807">
        <ele>172.69396972656</ele>
        <time>2010-09-26T16:28:14Z</time>
      </trkpt>
      <trkpt lat="45.74815" lon="4.86781">
        <ele>171.25207519531</ele>
        <time>2010-09-26T16:28:23Z</time>
      </trkpt>
      <trkpt lat="45.74794" lon="4.86771">
        <ele>171.73266601562</ele>
        <time>2010-09-26T16:28:27Z</time>
      </trkpt>
      <trkpt lat="45.74788" lon="4.86758">
        <ele>171.73266601562</ele>
        <time>2010-09-26T16:28:30Z</time>
      </trkpt>
      <trkpt lat="45.74789" lon="4.8675">
        <ele>172.21325683594</ele>
        <time>2010-09-26T16:28:31Z</time>
      </trkpt>
      <trkpt lat="45.74804" lon="4.86704">
        <ele>172.21325683594</ele>
        <time>2010-09-26T16:28:37Z</time>
      </trkpt>
      <trkpt lat="45.74815" lon="4.86668">
        <ele>171.73266601562</ele>
        <time>2010-09-26T16:28:42Z</time>
      </trkpt>
      <trkpt lat="45.74818" lon="4.86655">
        <ele>172.21325683594</ele>
        <time>2010-09-26T16:28:44Z</time>
      </trkpt>
      <trkpt lat="45.74823" lon="4.86634">
        <ele>172.21325683594</ele>
        <time>2010-09-26T16:28:49Z</time>
      </trkpt>
      <trkpt lat="45.74823" lon="4.86636">
        <ele>172.21325683594</ele>
        <time>2010-09-26T16:28:52Z</time>
      </trkpt>
    </trkseg>
  </trk>
</gpx>